<?xml version="1.0" encoding="utf-8"?>
<gpx xmlns:xsi="http://www.w3.org/2001/XMLSchema-instance" xmlns:xsd="http://www.w3.org/2001/XMLSchema" version="1.1" creator="Shapelink.com" xmlns="http://www.topografix.com/GPX/1/1" xmlns:gpxtpx="http://www.garmin.com/xmlschemas/TrackPointExtension/v1">
  <metadata>
    <name>Ciclismo 60.94 km, 2015-06-21</name>
    <desc></desc>
    <author><name>Henrik Amren</name></author> 
    <time>2015-06-21T10:15:27Z</time>
  </metadata>
  <trk>
    <name>Ciclismo 60.94 km, 2015-06-21</name>
    <trkseg>
      <trkpt lat="39.8381401" lon="3.1232722">
        <ele>13.8</ele>
        <time>2015-06-21T10:15:27Z</time>
      </trkpt>
      <trkpt lat="39.8382696" lon="3.1232673">
        <ele>14</ele>
        <time>2015-06-21T10:15:33Z</time>
      </trkpt>
      <trkpt lat="39.8382894" lon="3.1232494">
        <ele>13.8</ele>
        <time>2015-06-21T10:15:34Z</time>
      </trkpt>
      <trkpt lat="39.8383939" lon="3.123089">
        <ele>13.8</ele>
        <time>2015-06-21T10:15:40Z</time>
      </trkpt>
      <trkpt lat="39.8385264" lon="3.1228902">
        <ele>13.8</ele>
        <time>2015-06-21T10:15:45Z</time>
      </trkpt>
      <trkpt lat="39.8387263" lon="3.1225875">
        <ele>13.6</ele>
        <time>2015-06-21T10:15:52Z</time>
      </trkpt>
      <trkpt lat="39.8389203" lon="3.1223014">
        <ele>13.8</ele>
        <time>2015-06-21T10:15:59Z</time>
      </trkpt>
      <trkpt lat="39.8390308" lon="3.1221313">
        <ele>13.8</ele>
        <time>2015-06-21T10:16:04Z</time>
      </trkpt>
      <trkpt lat="39.8392673" lon="3.1217838">
        <ele>13.4</ele>
        <time>2015-06-21T10:16:12Z</time>
      </trkpt>
      <trkpt lat="39.8395221" lon="3.121422">
        <ele>13.6</ele>
        <time>2015-06-21T10:16:21Z</time>
      </trkpt>
      <trkpt lat="39.8395594" lon="3.121343">
        <ele>13.8</ele>
        <time>2015-06-21T10:16:25Z</time>
      </trkpt>
      <trkpt lat="39.8395732" lon="3.1213253">
        <ele>13.8</ele>
        <time>2015-06-21T10:16:26Z</time>
      </trkpt>
      <trkpt lat="39.8396162" lon="3.1213285">
        <ele>13.8</ele>
        <time>2015-06-21T10:16:28Z</time>
      </trkpt>
      <trkpt lat="39.8396542" lon="3.1213608">
        <ele>13.8</ele>
        <time>2015-06-21T10:16:30Z</time>
      </trkpt>
      <trkpt lat="39.8397115" lon="3.1214435">
        <ele>14.2</ele>
        <time>2015-06-21T10:16:34Z</time>
      </trkpt>
      <trkpt lat="39.8397223" lon="3.1214548">
        <ele>14.2</ele>
        <time>2015-06-21T10:16:35Z</time>
      </trkpt>
      <trkpt lat="39.8397676" lon="3.1215199">
        <ele>14</ele>
        <time>2015-06-21T10:16:38Z</time>
      </trkpt>
      <trkpt lat="39.8398211" lon="3.121662">
        <ele>13.8</ele>
        <time>2015-06-21T10:16:42Z</time>
      </trkpt>
      <trkpt lat="39.8398324" lon="3.1216964">
        <ele>13.8</ele>
        <time>2015-06-21T10:16:43Z</time>
      </trkpt>
      <trkpt lat="39.8398775" lon="3.1218155">
        <ele>14</ele>
        <time>2015-06-21T10:16:47Z</time>
      </trkpt>
      <trkpt lat="39.8399019" lon="3.1218465">
        <ele>14</ele>
        <time>2015-06-21T10:16:49Z</time>
      </trkpt>
      <trkpt lat="39.8399135" lon="3.1218575">
        <ele>14</ele>
        <time>2015-06-21T10:16:52Z</time>
      </trkpt>
      <trkpt lat="39.8399214" lon="3.1218626">
        <ele>14</ele>
        <time>2015-06-21T10:17:03Z</time>
      </trkpt>
      <trkpt lat="39.8399317" lon="3.1218635">
        <ele>14</ele>
        <time>2015-06-21T10:17:16Z</time>
      </trkpt>
      <trkpt lat="39.8399485" lon="3.1218561">
        <ele>14</ele>
        <time>2015-06-21T10:17:17Z</time>
      </trkpt>
      <trkpt lat="39.8399852" lon="3.1217328">
        <ele>14.2</ele>
        <time>2015-06-21T10:17:21Z</time>
      </trkpt>
      <trkpt lat="39.8399276" lon="3.1215472">
        <ele>14.4</ele>
        <time>2015-06-21T10:17:25Z</time>
      </trkpt>
      <trkpt lat="39.839909" lon="3.1213285">
        <ele>14.2</ele>
        <time>2015-06-21T10:17:30Z</time>
      </trkpt>
      <trkpt lat="39.8399959" lon="3.1212389">
        <ele>14.2</ele>
        <time>2015-06-21T10:17:34Z</time>
      </trkpt>
      <trkpt lat="39.8401525" lon="3.1212582">
        <ele>14.2</ele>
        <time>2015-06-21T10:17:38Z</time>
      </trkpt>
      <trkpt lat="39.8402477" lon="3.1213106">
        <ele>14.4</ele>
        <time>2015-06-21T10:17:40Z</time>
      </trkpt>
      <trkpt lat="39.8403451" lon="3.1213822">
        <ele>14.4</ele>
        <time>2015-06-21T10:17:42Z</time>
      </trkpt>
      <trkpt lat="39.8403917" lon="3.1214164">
        <ele>14.4</ele>
        <time>2015-06-21T10:17:43Z</time>
      </trkpt>
      <trkpt lat="39.8407325" lon="3.1216253">
        <ele>15</ele>
        <time>2015-06-21T10:17:50Z</time>
      </trkpt>
      <trkpt lat="39.8409804" lon="3.1217728">
        <ele>14</ele>
        <time>2015-06-21T10:17:56Z</time>
      </trkpt>
      <trkpt lat="39.8412284" lon="3.1219096">
        <ele>14.6</ele>
        <time>2015-06-21T10:18:01Z</time>
      </trkpt>
      <trkpt lat="39.8417448" lon="3.1222213">
        <ele>14</ele>
        <time>2015-06-21T10:18:10Z</time>
      </trkpt>
      <trkpt lat="39.8421752" lon="3.1224838">
        <ele>13.6</ele>
        <time>2015-06-21T10:18:17Z</time>
      </trkpt>
      <trkpt lat="39.8426735" lon="3.1227918">
        <ele>13.8</ele>
        <time>2015-06-21T10:18:25Z</time>
      </trkpt>
      <trkpt lat="39.8428563" lon="3.1229078">
        <ele>13.8</ele>
        <time>2015-06-21T10:18:28Z</time>
      </trkpt>
      <trkpt lat="39.8430421" lon="3.1230253">
        <ele>13</ele>
        <time>2015-06-21T10:18:31Z</time>
      </trkpt>
      <trkpt lat="39.8435399" lon="3.1233291">
        <ele>13</ele>
        <time>2015-06-21T10:18:39Z</time>
      </trkpt>
      <trkpt lat="39.8440798" lon="3.1236497">
        <ele>13.2</ele>
        <time>2015-06-21T10:18:48Z</time>
      </trkpt>
      <trkpt lat="39.844194" lon="3.123718">
        <ele>13</ele>
        <time>2015-06-21T10:18:50Z</time>
      </trkpt>
      <trkpt lat="39.844716" lon="3.1240349">
        <ele>14</ele>
        <time>2015-06-21T10:18:59Z</time>
      </trkpt>
      <trkpt lat="39.8450026" lon="3.1242044">
        <ele>13</ele>
        <time>2015-06-21T10:19:04Z</time>
      </trkpt>
      <trkpt lat="39.8452342" lon="3.1243361">
        <ele>12.8</ele>
        <time>2015-06-21T10:19:08Z</time>
      </trkpt>
      <trkpt lat="39.8456868" lon="3.1246092">
        <ele>13.4</ele>
        <time>2015-06-21T10:19:17Z</time>
      </trkpt>
      <trkpt lat="39.8457744" lon="3.1247067">
        <ele>14</ele>
        <time>2015-06-21T10:19:21Z</time>
      </trkpt>
      <trkpt lat="39.8457869" lon="3.124741">
        <ele>14.2</ele>
        <time>2015-06-21T10:19:22Z</time>
      </trkpt>
      <trkpt lat="39.8458708" lon="3.1249006">
        <ele>14.4</ele>
        <time>2015-06-21T10:19:26Z</time>
      </trkpt>
      <trkpt lat="39.8460336" lon="3.1251303">
        <ele>14.4</ele>
        <time>2015-06-21T10:19:31Z</time>
      </trkpt>
      <trkpt lat="39.846046" lon="3.1251991">
        <ele>14.4</ele>
        <time>2015-06-21T10:19:32Z</time>
      </trkpt>
      <trkpt lat="39.8460551" lon="3.1254114">
        <ele>14.8</ele>
        <time>2015-06-21T10:19:35Z</time>
      </trkpt>
      <trkpt lat="39.8460532" lon="3.1255667">
        <ele>14.6</ele>
        <time>2015-06-21T10:19:37Z</time>
      </trkpt>
      <trkpt lat="39.8460076" lon="3.1262677">
        <ele>13.8</ele>
        <time>2015-06-21T10:19:46Z</time>
      </trkpt>
      <trkpt lat="39.8459322" lon="3.1269916">
        <ele>14.4</ele>
        <time>2015-06-21T10:19:55Z</time>
      </trkpt>
      <trkpt lat="39.8458898" lon="3.1273979">
        <ele>14.6</ele>
        <time>2015-06-21T10:20:00Z</time>
      </trkpt>
      <trkpt lat="39.8458142" lon="3.1281473">
        <ele>14.6</ele>
        <time>2015-06-21T10:20:09Z</time>
      </trkpt>
      <trkpt lat="39.8457804" lon="3.1285732">
        <ele>14.8</ele>
        <time>2015-06-21T10:20:14Z</time>
      </trkpt>
      <trkpt lat="39.8457621" lon="3.1291334">
        <ele>15</ele>
        <time>2015-06-21T10:20:21Z</time>
      </trkpt>
      <trkpt lat="39.8457693" lon="3.1293726">
        <ele>15.2</ele>
        <time>2015-06-21T10:20:24Z</time>
      </trkpt>
      <trkpt lat="39.8457838" lon="3.1295266">
        <ele>15</ele>
        <time>2015-06-21T10:20:26Z</time>
      </trkpt>
      <trkpt lat="39.8458402" lon="3.1299264">
        <ele>14.2</ele>
        <time>2015-06-21T10:20:31Z</time>
      </trkpt>
      <trkpt lat="39.8459019" lon="3.1302503">
        <ele>14.4</ele>
        <time>2015-06-21T10:20:35Z</time>
      </trkpt>
      <trkpt lat="39.8459879" lon="3.1306607">
        <ele>14.4</ele>
        <time>2015-06-21T10:20:41Z</time>
      </trkpt>
      <trkpt lat="39.845997" lon="3.1308873">
        <ele>14.8</ele>
        <time>2015-06-21T10:20:46Z</time>
      </trkpt>
      <trkpt lat="39.8459815" lon="3.1309329">
        <ele>14.8</ele>
        <time>2015-06-21T10:20:47Z</time>
      </trkpt>
      <trkpt lat="39.8459666" lon="3.1311033">
        <ele>14.6</ele>
        <time>2015-06-21T10:20:50Z</time>
      </trkpt>
      <trkpt lat="39.8460506" lon="3.1312733">
        <ele>14.8</ele>
        <time>2015-06-21T10:20:54Z</time>
      </trkpt>
      <trkpt lat="39.8460816" lon="3.1313198">
        <ele>15.4</ele>
        <time>2015-06-21T10:20:56Z</time>
      </trkpt>
      <trkpt lat="39.8460927" lon="3.1313335">
        <ele>15.2</ele>
        <time>2015-06-21T10:20:58Z</time>
      </trkpt>
      <trkpt lat="39.8460924" lon="3.1313306">
        <ele>15.2</ele>
        <time>2015-06-21T10:21:03Z</time>
      </trkpt>
      <trkpt lat="39.8460981" lon="3.1313281">
        <ele>15.6</ele>
        <time>2015-06-21T10:21:15Z</time>
      </trkpt>
      <trkpt lat="39.846098" lon="3.1313282">
        <ele>14.2</ele>
        <time>2015-06-21T10:21:17Z</time>
      </trkpt>
      <trkpt lat="39.8460982" lon="3.1313279">
        <ele>13</ele>
        <time>2015-06-21T10:21:18Z</time>
      </trkpt>
      <trkpt lat="39.8460997" lon="3.1313272">
        <ele>16</ele>
        <time>2015-06-21T10:21:19Z</time>
      </trkpt>
      <trkpt lat="39.8461007" lon="3.1313285">
        <ele>17.8</ele>
        <time>2015-06-21T10:21:20Z</time>
      </trkpt>
      <trkpt lat="39.8461007" lon="3.1313287">
        <ele>19.4</ele>
        <time>2015-06-21T10:21:21Z</time>
      </trkpt>
      <trkpt lat="39.8461003" lon="3.1313269">
        <ele>21</ele>
        <time>2015-06-21T10:21:22Z</time>
      </trkpt>
      <trkpt lat="39.8460999" lon="3.131326">
        <ele>23.4</ele>
        <time>2015-06-21T10:21:23Z</time>
      </trkpt>
      <trkpt lat="39.8461003" lon="3.1313244">
        <ele>19.4</ele>
        <time>2015-06-21T10:21:25Z</time>
      </trkpt>
      <trkpt lat="39.8461004" lon="3.1313238">
        <ele>17</ele>
        <time>2015-06-21T10:21:26Z</time>
      </trkpt>
      <trkpt lat="39.8461012" lon="3.1313226">
        <ele>15.6</ele>
        <time>2015-06-21T10:21:27Z</time>
      </trkpt>
      <trkpt lat="39.8461034" lon="3.1313234">
        <ele>15.6</ele>
        <time>2015-06-21T10:21:33Z</time>
      </trkpt>
      <trkpt lat="39.8461081" lon="3.1313203">
        <ele>15.4</ele>
        <time>2015-06-21T10:21:39Z</time>
      </trkpt>
      <trkpt lat="39.8461106" lon="3.1313209">
        <ele>6</ele>
        <time>2015-06-21T10:21:42Z</time>
      </trkpt>
      <trkpt lat="39.8461107" lon="3.1313204">
        <ele>0</ele>
        <time>2015-06-21T10:21:43Z</time>
      </trkpt>
      <trkpt lat="39.8461112" lon="3.1313199">
        <ele>0</ele>
        <time>2015-06-21T10:21:44Z</time>
      </trkpt>
      <trkpt lat="39.8461117" lon="3.1313197">
        <ele>0</ele>
        <time>2015-06-21T10:21:45Z</time>
      </trkpt>
      <trkpt lat="39.8461126" lon="3.13132">
        <ele>0</ele>
        <time>2015-06-21T10:21:47Z</time>
      </trkpt>
      <trkpt lat="39.8461137" lon="3.1313199">
        <ele>0</ele>
        <time>2015-06-21T10:21:49Z</time>
      </trkpt>
      <trkpt lat="39.8461073" lon="3.1313163">
        <ele>0</ele>
        <time>2015-06-21T10:22:01Z</time>
      </trkpt>
      <trkpt lat="39.8460967" lon="3.1313118">
        <ele>0</ele>
        <time>2015-06-21T10:22:02Z</time>
      </trkpt>
      <trkpt lat="39.8460437" lon="3.131288">
        <ele>0</ele>
        <time>2015-06-21T10:22:09Z</time>
      </trkpt>
      <trkpt lat="39.845961" lon="3.1312643">
        <ele>0</ele>
        <time>2015-06-21T10:22:14Z</time>
      </trkpt>
      <trkpt lat="39.8458641" lon="3.1313276">
        <ele>0</ele>
        <time>2015-06-21T10:22:18Z</time>
      </trkpt>
      <trkpt lat="39.8456752" lon="3.1315208">
        <ele>0</ele>
        <time>2015-06-21T10:22:24Z</time>
      </trkpt>
      <trkpt lat="39.8452849" lon="3.1319082">
        <ele>0</ele>
        <time>2015-06-21T10:22:34Z</time>
      </trkpt>
      <trkpt lat="39.8448522" lon="3.1323235">
        <ele>0</ele>
        <time>2015-06-21T10:22:44Z</time>
      </trkpt>
      <trkpt lat="39.8448106" lon="3.1323659">
        <ele>0</ele>
        <time>2015-06-21T10:22:45Z</time>
      </trkpt>
      <trkpt lat="39.8447327" lon="3.1324535">
        <ele>0</ele>
        <time>2015-06-21T10:22:47Z</time>
      </trkpt>
      <trkpt lat="39.8446545" lon="3.1325258">
        <ele>0</ele>
        <time>2015-06-21T10:22:49Z</time>
      </trkpt>
      <trkpt lat="39.8446236" lon="3.1325553">
        <ele>0</ele>
        <time>2015-06-21T10:22:50Z</time>
      </trkpt>
      <trkpt lat="39.8445893" lon="3.1325769">
        <ele>0</ele>
        <time>2015-06-21T10:22:51Z</time>
      </trkpt>
      <trkpt lat="39.8445412" lon="3.132608">
        <ele>0</ele>
        <time>2015-06-21T10:22:53Z</time>
      </trkpt>
      <trkpt lat="39.8445246" lon="3.1326254">
        <ele>0</ele>
        <time>2015-06-21T10:22:54Z</time>
      </trkpt>
      <trkpt lat="39.8445105" lon="3.1326413">
        <ele>0</ele>
        <time>2015-06-21T10:22:55Z</time>
      </trkpt>
      <trkpt lat="39.8444794" lon="3.1326792">
        <ele>0</ele>
        <time>2015-06-21T10:22:57Z</time>
      </trkpt>
      <trkpt lat="39.8444344" lon="3.132724">
        <ele>0</ele>
        <time>2015-06-21T10:22:59Z</time>
      </trkpt>
      <trkpt lat="39.8444091" lon="3.1327511">
        <ele>0</ele>
        <time>2015-06-21T10:23:00Z</time>
      </trkpt>
      <trkpt lat="39.8443841" lon="3.1327774">
        <ele>0</ele>
        <time>2015-06-21T10:23:01Z</time>
      </trkpt>
      <trkpt lat="39.8443215" lon="3.1328381">
        <ele>0</ele>
        <time>2015-06-21T10:23:03Z</time>
      </trkpt>
      <trkpt lat="39.8442528" lon="3.1329077">
        <ele>0</ele>
        <time>2015-06-21T10:23:05Z</time>
      </trkpt>
      <trkpt lat="39.8442173" lon="3.1329431">
        <ele>0</ele>
        <time>2015-06-21T10:23:06Z</time>
      </trkpt>
      <trkpt lat="39.844179" lon="3.1329825">
        <ele>0</ele>
        <time>2015-06-21T10:23:07Z</time>
      </trkpt>
      <trkpt lat="39.8441091" lon="3.1330619">
        <ele>0</ele>
        <time>2015-06-21T10:23:09Z</time>
      </trkpt>
      <trkpt lat="39.8440414" lon="3.1331376">
        <ele>0</ele>
        <time>2015-06-21T10:23:11Z</time>
      </trkpt>
      <trkpt lat="39.8439635" lon="3.1332167">
        <ele>0</ele>
        <time>2015-06-21T10:23:13Z</time>
      </trkpt>
      <trkpt lat="39.843931" lon="3.1332561">
        <ele>0</ele>
        <time>2015-06-21T10:23:14Z</time>
      </trkpt>
      <trkpt lat="39.8438935" lon="3.133294">
        <ele>0</ele>
        <time>2015-06-21T10:23:15Z</time>
      </trkpt>
      <trkpt lat="39.8438138" lon="3.133369">
        <ele>0</ele>
        <time>2015-06-21T10:23:17Z</time>
      </trkpt>
      <trkpt lat="39.8437382" lon="3.1334423">
        <ele>0</ele>
        <time>2015-06-21T10:23:19Z</time>
      </trkpt>
      <trkpt lat="39.8436652" lon="3.1335121">
        <ele>0</ele>
        <time>2015-06-21T10:23:21Z</time>
      </trkpt>
      <trkpt lat="39.8436265" lon="3.1335454">
        <ele>0</ele>
        <time>2015-06-21T10:23:22Z</time>
      </trkpt>
      <trkpt lat="39.8435879" lon="3.1335825">
        <ele>0</ele>
        <time>2015-06-21T10:23:23Z</time>
      </trkpt>
      <trkpt lat="39.8435139" lon="3.1336639">
        <ele>0</ele>
        <time>2015-06-21T10:23:25Z</time>
      </trkpt>
      <trkpt lat="39.8434356" lon="3.1337507">
        <ele>0</ele>
        <time>2015-06-21T10:23:27Z</time>
      </trkpt>
      <trkpt lat="39.8433527" lon="3.1338361">
        <ele>0</ele>
        <time>2015-06-21T10:23:29Z</time>
      </trkpt>
      <trkpt lat="39.8432728" lon="3.1339114">
        <ele>0</ele>
        <time>2015-06-21T10:23:31Z</time>
      </trkpt>
      <trkpt lat="39.8431911" lon="3.1339965">
        <ele>0</ele>
        <time>2015-06-21T10:23:33Z</time>
      </trkpt>
      <trkpt lat="39.8431172" lon="3.1340696">
        <ele>0</ele>
        <time>2015-06-21T10:23:35Z</time>
      </trkpt>
      <trkpt lat="39.843036" lon="3.134156">
        <ele>0</ele>
        <time>2015-06-21T10:23:37Z</time>
      </trkpt>
      <trkpt lat="39.8429513" lon="3.1342438">
        <ele>0</ele>
        <time>2015-06-21T10:23:39Z</time>
      </trkpt>
      <trkpt lat="39.8428182" lon="3.1343872">
        <ele>0</ele>
        <time>2015-06-21T10:23:42Z</time>
      </trkpt>
      <trkpt lat="39.8427344" lon="3.1344772">
        <ele>0</ele>
        <time>2015-06-21T10:23:44Z</time>
      </trkpt>
      <trkpt lat="39.8426957" lon="3.1345162">
        <ele>0</ele>
        <time>2015-06-21T10:23:45Z</time>
      </trkpt>
      <trkpt lat="39.842663" lon="3.1345504">
        <ele>0</ele>
        <time>2015-06-21T10:23:46Z</time>
      </trkpt>
      <trkpt lat="39.8425882" lon="3.1346224">
        <ele>0</ele>
        <time>2015-06-21T10:23:48Z</time>
      </trkpt>
      <trkpt lat="39.8425208" lon="3.1346928">
        <ele>0</ele>
        <time>2015-06-21T10:23:50Z</time>
      </trkpt>
      <trkpt lat="39.8424474" lon="3.1347634">
        <ele>0</ele>
        <time>2015-06-21T10:23:52Z</time>
      </trkpt>
      <trkpt lat="39.8423675" lon="3.1348495">
        <ele>0</ele>
        <time>2015-06-21T10:23:54Z</time>
      </trkpt>
      <trkpt lat="39.8422582" lon="3.1349797">
        <ele>0</ele>
        <time>2015-06-21T10:23:57Z</time>
      </trkpt>
      <trkpt lat="39.8421888" lon="3.1350625">
        <ele>0</ele>
        <time>2015-06-21T10:23:59Z</time>
      </trkpt>
      <trkpt lat="39.8421251" lon="3.1351534">
        <ele>0</ele>
        <time>2015-06-21T10:24:01Z</time>
      </trkpt>
      <trkpt lat="39.8420588" lon="3.1352538">
        <ele>0</ele>
        <time>2015-06-21T10:24:03Z</time>
      </trkpt>
      <trkpt lat="39.8419895" lon="3.1353588">
        <ele>0</ele>
        <time>2015-06-21T10:24:05Z</time>
      </trkpt>
      <trkpt lat="39.8419552" lon="3.1354121">
        <ele>0</ele>
        <time>2015-06-21T10:24:06Z</time>
      </trkpt>
      <trkpt lat="39.8419146" lon="3.135473">
        <ele>0</ele>
        <time>2015-06-21T10:24:07Z</time>
      </trkpt>
      <trkpt lat="39.8418361" lon="3.1355908">
        <ele>0</ele>
        <time>2015-06-21T10:24:09Z</time>
      </trkpt>
      <trkpt lat="39.8417168" lon="3.1357664">
        <ele>0</ele>
        <time>2015-06-21T10:24:12Z</time>
      </trkpt>
      <trkpt lat="39.8416781" lon="3.1358245">
        <ele>0</ele>
        <time>2015-06-21T10:24:13Z</time>
      </trkpt>
      <trkpt lat="39.8416347" lon="3.1358866">
        <ele>0</ele>
        <time>2015-06-21T10:24:14Z</time>
      </trkpt>
      <trkpt lat="39.8415565" lon="3.1360026">
        <ele>0</ele>
        <time>2015-06-21T10:24:16Z</time>
      </trkpt>
      <trkpt lat="39.8414333" lon="3.1362052">
        <ele>0</ele>
        <time>2015-06-21T10:24:19Z</time>
      </trkpt>
      <trkpt lat="39.8413175" lon="3.1363747">
        <ele>0.799988</ele>
        <time>2015-06-21T10:24:22Z</time>
      </trkpt>
      <trkpt lat="39.8412624" lon="3.1364639">
        <ele>1.79999</ele>
        <time>2015-06-21T10:24:24Z</time>
      </trkpt>
      <trkpt lat="39.8412376" lon="3.1365015">
        <ele>2.39999</ele>
        <time>2015-06-21T10:24:25Z</time>
      </trkpt>
      <trkpt lat="39.8412129" lon="3.1365388">
        <ele>3.20001</ele>
        <time>2015-06-21T10:24:26Z</time>
      </trkpt>
      <trkpt lat="39.8411885" lon="3.1365861">
        <ele>4</ele>
        <time>2015-06-21T10:24:27Z</time>
      </trkpt>
      <trkpt lat="39.8411272" lon="3.1366731">
        <ele>5.39999</ele>
        <time>2015-06-21T10:24:29Z</time>
      </trkpt>
      <trkpt lat="39.8410928" lon="3.1367194">
        <ele>6.20001</ele>
        <time>2015-06-21T10:24:30Z</time>
      </trkpt>
      <trkpt lat="39.8410625" lon="3.136764">
        <ele>6.60001</ele>
        <time>2015-06-21T10:24:31Z</time>
      </trkpt>
      <trkpt lat="39.8410028" lon="3.1368624">
        <ele>7.79999</ele>
        <time>2015-06-21T10:24:33Z</time>
      </trkpt>
      <trkpt lat="39.8409487" lon="3.1369541">
        <ele>9</ele>
        <time>2015-06-21T10:24:35Z</time>
      </trkpt>
      <trkpt lat="39.8408804" lon="3.1370466">
        <ele>10.4</ele>
        <time>2015-06-21T10:24:37Z</time>
      </trkpt>
      <trkpt lat="39.8408176" lon="3.1371262">
        <ele>11.8</ele>
        <time>2015-06-21T10:24:39Z</time>
      </trkpt>
      <trkpt lat="39.8407824" lon="3.1371568">
        <ele>12.4</ele>
        <time>2015-06-21T10:24:40Z</time>
      </trkpt>
      <trkpt lat="39.8407387" lon="3.137179">
        <ele>13.2</ele>
        <time>2015-06-21T10:24:41Z</time>
      </trkpt>
      <trkpt lat="39.8406948" lon="3.1372021">
        <ele>14</ele>
        <time>2015-06-21T10:24:42Z</time>
      </trkpt>
      <trkpt lat="39.8403864" lon="3.1373522">
        <ele>13.4</ele>
        <time>2015-06-21T10:24:49Z</time>
      </trkpt>
      <trkpt lat="39.8401885" lon="3.1374462">
        <ele>13</ele>
        <time>2015-06-21T10:24:54Z</time>
      </trkpt>
      <trkpt lat="39.8399324" lon="3.1375734">
        <ele>13.6</ele>
        <time>2015-06-21T10:25:00Z</time>
      </trkpt>
      <trkpt lat="39.8398468" lon="3.1376175">
        <ele>13.4</ele>
        <time>2015-06-21T10:25:02Z</time>
      </trkpt>
      <trkpt lat="39.8397386" lon="3.1376654">
        <ele>13.2</ele>
        <time>2015-06-21T10:25:05Z</time>
      </trkpt>
      <trkpt lat="39.8395359" lon="3.1377872">
        <ele>12.6</ele>
        <time>2015-06-21T10:25:10Z</time>
      </trkpt>
      <trkpt lat="39.8394893" lon="3.1378196">
        <ele>11.2</ele>
        <time>2015-06-21T10:25:11Z</time>
      </trkpt>
      <trkpt lat="39.8392832" lon="3.138009">
        <ele>13.4</ele>
        <time>2015-06-21T10:25:16Z</time>
      </trkpt>
      <trkpt lat="39.83924" lon="3.1380721">
        <ele>13.4</ele>
        <time>2015-06-21T10:25:17Z</time>
      </trkpt>
      <trkpt lat="39.8389228" lon="3.1384909">
        <ele>13.8</ele>
        <time>2015-06-21T10:25:25Z</time>
      </trkpt>
      <trkpt lat="39.8387373" lon="3.1387343">
        <ele>13.4</ele>
        <time>2015-06-21T10:25:30Z</time>
      </trkpt>
      <trkpt lat="39.8386084" lon="3.1389337">
        <ele>12.8</ele>
        <time>2015-06-21T10:25:34Z</time>
      </trkpt>
      <trkpt lat="39.8385192" lon="3.1390713">
        <ele>13.4</ele>
        <time>2015-06-21T10:25:37Z</time>
      </trkpt>
      <trkpt lat="39.8385358" lon="3.1392288">
        <ele>14</ele>
        <time>2015-06-21T10:25:40Z</time>
      </trkpt>
      <trkpt lat="39.8385408" lon="3.1392853">
        <ele>14.2</ele>
        <time>2015-06-21T10:25:41Z</time>
      </trkpt>
      <trkpt lat="39.8385363" lon="3.1393465">
        <ele>14.4</ele>
        <time>2015-06-21T10:25:42Z</time>
      </trkpt>
      <trkpt lat="39.8385233" lon="3.1395278">
        <ele>14.4</ele>
        <time>2015-06-21T10:25:45Z</time>
      </trkpt>
      <trkpt lat="39.8385261" lon="3.1398966">
        <ele>14.4</ele>
        <time>2015-06-21T10:25:51Z</time>
      </trkpt>
      <trkpt lat="39.8385165" lon="3.1399555">
        <ele>14.6</ele>
        <time>2015-06-21T10:25:52Z</time>
      </trkpt>
      <trkpt lat="39.8384898" lon="3.1404263">
        <ele>14</ele>
        <time>2015-06-21T10:25:59Z</time>
      </trkpt>
      <trkpt lat="39.8384617" lon="3.140949">
        <ele>13.8</ele>
        <time>2015-06-21T10:26:07Z</time>
      </trkpt>
      <trkpt lat="39.8384234" lon="3.1411603">
        <ele>15.4</ele>
        <time>2015-06-21T10:26:11Z</time>
      </trkpt>
      <trkpt lat="39.8383767" lon="3.1413636">
        <ele>16.6</ele>
        <time>2015-06-21T10:26:15Z</time>
      </trkpt>
      <trkpt lat="39.8383046" lon="3.1415549">
        <ele>17.8</ele>
        <time>2015-06-21T10:26:19Z</time>
      </trkpt>
      <trkpt lat="39.8382506" lon="3.1416673">
        <ele>18.6</ele>
        <time>2015-06-21T10:26:22Z</time>
      </trkpt>
      <trkpt lat="39.8382278" lon="3.1417091">
        <ele>19</ele>
        <time>2015-06-21T10:26:23Z</time>
      </trkpt>
      <trkpt lat="39.8381622" lon="3.1418482">
        <ele>18.8</ele>
        <time>2015-06-21T10:26:26Z</time>
      </trkpt>
      <trkpt lat="39.8379483" lon="3.1422966">
        <ele>19.8</ele>
        <time>2015-06-21T10:26:34Z</time>
      </trkpt>
      <trkpt lat="39.8378331" lon="3.1425338">
        <ele>19.6</ele>
        <time>2015-06-21T10:26:38Z</time>
      </trkpt>
      <trkpt lat="39.8377852" lon="3.1425728">
        <ele>19.4</ele>
        <time>2015-06-21T10:26:39Z</time>
      </trkpt>
      <trkpt lat="39.8375758" lon="3.1426892">
        <ele>19</ele>
        <time>2015-06-21T10:26:43Z</time>
      </trkpt>
      <trkpt lat="39.8375103" lon="3.1428777">
        <ele>18.8</ele>
        <time>2015-06-21T10:26:46Z</time>
      </trkpt>
      <trkpt lat="39.8375542" lon="3.1430911">
        <ele>18.6</ele>
        <time>2015-06-21T10:26:49Z</time>
      </trkpt>
      <trkpt lat="39.8375683" lon="3.1431564">
        <ele>18.6</ele>
        <time>2015-06-21T10:26:50Z</time>
      </trkpt>
      <trkpt lat="39.837557" lon="3.1433029">
        <ele>18.8</ele>
        <time>2015-06-21T10:26:52Z</time>
      </trkpt>
      <trkpt lat="39.8375092" lon="3.1434408">
        <ele>18.8</ele>
        <time>2015-06-21T10:26:54Z</time>
      </trkpt>
      <trkpt lat="39.8374158" lon="3.1436982">
        <ele>19</ele>
        <time>2015-06-21T10:26:58Z</time>
      </trkpt>
      <trkpt lat="39.8371761" lon="3.1443507">
        <ele>19.4</ele>
        <time>2015-06-21T10:27:09Z</time>
      </trkpt>
      <trkpt lat="39.8371567" lon="3.144403">
        <ele>19.2</ele>
        <time>2015-06-21T10:27:10Z</time>
      </trkpt>
      <trkpt lat="39.8370571" lon="3.1446692">
        <ele>20.2</ele>
        <time>2015-06-21T10:27:15Z</time>
      </trkpt>
      <trkpt lat="39.8369625" lon="3.1449208">
        <ele>21.2</ele>
        <time>2015-06-21T10:27:20Z</time>
      </trkpt>
      <trkpt lat="39.8369429" lon="3.1449705">
        <ele>21.4</ele>
        <time>2015-06-21T10:27:21Z</time>
      </trkpt>
      <trkpt lat="39.8368042" lon="3.1453512">
        <ele>22</ele>
        <time>2015-06-21T10:27:29Z</time>
      </trkpt>
      <trkpt lat="39.8367869" lon="3.1453979">
        <ele>22.2</ele>
        <time>2015-06-21T10:27:30Z</time>
      </trkpt>
      <trkpt lat="39.8367507" lon="3.1454935">
        <ele>23.2</ele>
        <time>2015-06-21T10:27:32Z</time>
      </trkpt>
      <trkpt lat="39.836632" lon="3.1458242">
        <ele>24.2</ele>
        <time>2015-06-21T10:27:39Z</time>
      </trkpt>
      <trkpt lat="39.8364817" lon="3.1462393">
        <ele>25.4</ele>
        <time>2015-06-21T10:27:48Z</time>
      </trkpt>
      <trkpt lat="39.8363826" lon="3.1465049">
        <ele>26.4</ele>
        <time>2015-06-21T10:27:54Z</time>
      </trkpt>
      <trkpt lat="39.8363267" lon="3.1466235">
        <ele>26.6</ele>
        <time>2015-06-21T10:27:57Z</time>
      </trkpt>
      <trkpt lat="39.8362887" lon="3.1467191">
        <ele>28.4</ele>
        <time>2015-06-21T10:28:00Z</time>
      </trkpt>
      <trkpt lat="39.8362663" lon="3.146772">
        <ele>28.8</ele>
        <time>2015-06-21T10:28:02Z</time>
      </trkpt>
      <trkpt lat="39.8362006" lon="3.1469316">
        <ele>29</ele>
        <time>2015-06-21T10:28:08Z</time>
      </trkpt>
      <trkpt lat="39.8361701" lon="3.1470645">
        <ele>29.6</ele>
        <time>2015-06-21T10:28:13Z</time>
      </trkpt>
      <trkpt lat="39.8361679" lon="3.1470944">
        <ele>30</ele>
        <time>2015-06-21T10:28:14Z</time>
      </trkpt>
      <trkpt lat="39.8361674" lon="3.147187">
        <ele>31</ele>
        <time>2015-06-21T10:28:17Z</time>
      </trkpt>
      <trkpt lat="39.8361742" lon="3.1473173">
        <ele>32</ele>
        <time>2015-06-21T10:28:21Z</time>
      </trkpt>
      <trkpt lat="39.8361789" lon="3.1473871">
        <ele>32.6</ele>
        <time>2015-06-21T10:28:23Z</time>
      </trkpt>
      <trkpt lat="39.8361835" lon="3.1474527">
        <ele>33</ele>
        <time>2015-06-21T10:28:25Z</time>
      </trkpt>
      <trkpt lat="39.8361986" lon="3.1476525">
        <ele>34.2</ele>
        <time>2015-06-21T10:28:31Z</time>
      </trkpt>
      <trkpt lat="39.8362243" lon="3.1479114">
        <ele>35.6</ele>
        <time>2015-06-21T10:28:38Z</time>
      </trkpt>
      <trkpt lat="39.8362346" lon="3.1480376">
        <ele>35.8</ele>
        <time>2015-06-21T10:28:41Z</time>
      </trkpt>
      <trkpt lat="39.83628" lon="3.1484251">
        <ele>36.6</ele>
        <time>2015-06-21T10:28:48Z</time>
      </trkpt>
      <trkpt lat="39.8362959" lon="3.1485439">
        <ele>36.8</ele>
        <time>2015-06-21T10:28:50Z</time>
      </trkpt>
      <trkpt lat="39.8362985" lon="3.1486068">
        <ele>36.8</ele>
        <time>2015-06-21T10:28:51Z</time>
      </trkpt>
      <trkpt lat="39.8363173" lon="3.1488784">
        <ele>36.6</ele>
        <time>2015-06-21T10:28:55Z</time>
      </trkpt>
      <trkpt lat="39.8363447" lon="3.1491932">
        <ele>35.8</ele>
        <time>2015-06-21T10:28:59Z</time>
      </trkpt>
      <trkpt lat="39.8363643" lon="3.1493617">
        <ele>35.4</ele>
        <time>2015-06-21T10:29:01Z</time>
      </trkpt>
      <trkpt lat="39.8363904" lon="3.1496485">
        <ele>34.4</ele>
        <time>2015-06-21T10:29:04Z</time>
      </trkpt>
      <trkpt lat="39.8364099" lon="3.1498542">
        <ele>33.2</ele>
        <time>2015-06-21T10:29:06Z</time>
      </trkpt>
      <trkpt lat="39.8364237" lon="3.1499731">
        <ele>33</ele>
        <time>2015-06-21T10:29:07Z</time>
      </trkpt>
      <trkpt lat="39.8364497" lon="3.1502001">
        <ele>32.2</ele>
        <time>2015-06-21T10:29:09Z</time>
      </trkpt>
      <trkpt lat="39.8364755" lon="3.1504919">
        <ele>30.6</ele>
        <time>2015-06-21T10:29:12Z</time>
      </trkpt>
      <trkpt lat="39.8364912" lon="3.1507498">
        <ele>29.6</ele>
        <time>2015-06-21T10:29:15Z</time>
      </trkpt>
      <trkpt lat="39.8365074" lon="3.150923">
        <ele>29.2</ele>
        <time>2015-06-21T10:29:17Z</time>
      </trkpt>
      <trkpt lat="39.8365301" lon="3.1512528">
        <ele>29</ele>
        <time>2015-06-21T10:29:21Z</time>
      </trkpt>
      <trkpt lat="39.8365272" lon="3.1514212">
        <ele>28.6</ele>
        <time>2015-06-21T10:29:23Z</time>
      </trkpt>
      <trkpt lat="39.8365268" lon="3.1515819">
        <ele>28.6</ele>
        <time>2015-06-21T10:29:25Z</time>
      </trkpt>
      <trkpt lat="39.836522" lon="3.1519993">
        <ele>27.6</ele>
        <time>2015-06-21T10:29:30Z</time>
      </trkpt>
      <trkpt lat="39.8365188" lon="3.1521677">
        <ele>27.4</ele>
        <time>2015-06-21T10:29:32Z</time>
      </trkpt>
      <trkpt lat="39.8365327" lon="3.1526551">
        <ele>27.2</ele>
        <time>2015-06-21T10:29:38Z</time>
      </trkpt>
      <trkpt lat="39.8365633" lon="3.1528073">
        <ele>32.2</ele>
        <time>2015-06-21T10:29:40Z</time>
      </trkpt>
      <trkpt lat="39.8366263" lon="3.1530971">
        <ele>33.4</ele>
        <time>2015-06-21T10:29:44Z</time>
      </trkpt>
      <trkpt lat="39.8366434" lon="3.1531653">
        <ele>28.8</ele>
        <time>2015-06-21T10:29:45Z</time>
      </trkpt>
      <trkpt lat="39.8367749" lon="3.1537402">
        <ele>29.8</ele>
        <time>2015-06-21T10:29:53Z</time>
      </trkpt>
      <trkpt lat="39.8367922" lon="3.1538157">
        <ele>30</ele>
        <time>2015-06-21T10:29:54Z</time>
      </trkpt>
      <trkpt lat="39.8369319" lon="3.154348">
        <ele>29.4</ele>
        <time>2015-06-21T10:30:01Z</time>
      </trkpt>
      <trkpt lat="39.8370171" lon="3.1545512">
        <ele>29</ele>
        <time>2015-06-21T10:30:04Z</time>
      </trkpt>
      <trkpt lat="39.8370826" lon="3.1546742">
        <ele>27.8</ele>
        <time>2015-06-21T10:30:06Z</time>
      </trkpt>
      <trkpt lat="39.8371606" lon="3.1547971">
        <ele>28</ele>
        <time>2015-06-21T10:30:08Z</time>
      </trkpt>
      <trkpt lat="39.8372981" lon="3.1549784">
        <ele>29</ele>
        <time>2015-06-21T10:30:11Z</time>
      </trkpt>
      <trkpt lat="39.8374131" lon="3.155105">
        <ele>28</ele>
        <time>2015-06-21T10:30:13Z</time>
      </trkpt>
      <trkpt lat="39.8374693" lon="3.1551685">
        <ele>27.4</ele>
        <time>2015-06-21T10:30:14Z</time>
      </trkpt>
      <trkpt lat="39.8375713" lon="3.1553125">
        <ele>26.2</ele>
        <time>2015-06-21T10:30:16Z</time>
      </trkpt>
      <trkpt lat="39.8376043" lon="3.1554038">
        <ele>25.8</ele>
        <time>2015-06-21T10:30:17Z</time>
      </trkpt>
      <trkpt lat="39.8376132" lon="3.15564">
        <ele>24.8</ele>
        <time>2015-06-21T10:30:19Z</time>
      </trkpt>
      <trkpt lat="39.8375923" lon="3.1557338">
        <ele>24.2</ele>
        <time>2015-06-21T10:30:20Z</time>
      </trkpt>
      <trkpt lat="39.8375739" lon="3.1558264">
        <ele>23.6</ele>
        <time>2015-06-21T10:30:21Z</time>
      </trkpt>
      <trkpt lat="39.8375637" lon="3.1560248">
        <ele>22.2</ele>
        <time>2015-06-21T10:30:23Z</time>
      </trkpt>
      <trkpt lat="39.8375814" lon="3.1561134">
        <ele>21.6</ele>
        <time>2015-06-21T10:30:24Z</time>
      </trkpt>
      <trkpt lat="39.8376724" lon="3.1563543">
        <ele>21.6</ele>
        <time>2015-06-21T10:30:27Z</time>
      </trkpt>
      <trkpt lat="39.8377028" lon="3.1564242">
        <ele>21.6</ele>
        <time>2015-06-21T10:30:28Z</time>
      </trkpt>
      <trkpt lat="39.8379214" lon="3.1569657">
        <ele>21.4</ele>
        <time>2015-06-21T10:30:35Z</time>
      </trkpt>
      <trkpt lat="39.8379542" lon="3.1571191">
        <ele>20.6</ele>
        <time>2015-06-21T10:30:37Z</time>
      </trkpt>
      <trkpt lat="39.8379547" lon="3.1572739">
        <ele>20</ele>
        <time>2015-06-21T10:30:39Z</time>
      </trkpt>
      <trkpt lat="39.8379725" lon="3.1575964">
        <ele>19.6</ele>
        <time>2015-06-21T10:30:43Z</time>
      </trkpt>
      <trkpt lat="39.8379634" lon="3.1576766">
        <ele>19.6</ele>
        <time>2015-06-21T10:30:44Z</time>
      </trkpt>
      <trkpt lat="39.8378754" lon="3.158205">
        <ele>18.6</ele>
        <time>2015-06-21T10:30:50Z</time>
      </trkpt>
      <trkpt lat="39.8378716" lon="3.1582975">
        <ele>18.6</ele>
        <time>2015-06-21T10:30:51Z</time>
      </trkpt>
      <trkpt lat="39.8378696" lon="3.1583919">
        <ele>18.4</ele>
        <time>2015-06-21T10:30:52Z</time>
      </trkpt>
      <trkpt lat="39.8378639" lon="3.1586102">
        <ele>18.4</ele>
        <time>2015-06-21T10:30:55Z</time>
      </trkpt>
      <trkpt lat="39.8378559" lon="3.1588428">
        <ele>19.6</ele>
        <time>2015-06-21T10:30:59Z</time>
      </trkpt>
      <trkpt lat="39.8378294" lon="3.1590292">
        <ele>20</ele>
        <time>2015-06-21T10:31:02Z</time>
      </trkpt>
      <trkpt lat="39.8377524" lon="3.1594452">
        <ele>19.4</ele>
        <time>2015-06-21T10:31:08Z</time>
      </trkpt>
      <trkpt lat="39.837676" lon="3.1598435">
        <ele>18.4</ele>
        <time>2015-06-21T10:31:13Z</time>
      </trkpt>
      <trkpt lat="39.8376692" lon="3.1599297">
        <ele>18.4</ele>
        <time>2015-06-21T10:31:14Z</time>
      </trkpt>
      <trkpt lat="39.8376729" lon="3.1599885">
        <ele>18.2</ele>
        <time>2015-06-21T10:31:15Z</time>
      </trkpt>
      <trkpt lat="39.8376782" lon="3.1602515">
        <ele>17.6</ele>
        <time>2015-06-21T10:31:19Z</time>
      </trkpt>
      <trkpt lat="39.8376894" lon="3.1603296">
        <ele>17.2</ele>
        <time>2015-06-21T10:31:20Z</time>
      </trkpt>
      <trkpt lat="39.8377634" lon="3.1605774">
        <ele>15.8</ele>
        <time>2015-06-21T10:31:23Z</time>
      </trkpt>
      <trkpt lat="39.8377974" lon="3.1606559">
        <ele>15.6</ele>
        <time>2015-06-21T10:31:24Z</time>
      </trkpt>
      <trkpt lat="39.8379484" lon="3.1609553">
        <ele>14.8</ele>
        <time>2015-06-21T10:31:28Z</time>
      </trkpt>
      <trkpt lat="39.8379874" lon="3.1610291">
        <ele>14.6</ele>
        <time>2015-06-21T10:31:29Z</time>
      </trkpt>
      <trkpt lat="39.838259" lon="3.1614161">
        <ele>15</ele>
        <time>2015-06-21T10:31:35Z</time>
      </trkpt>
      <trkpt lat="39.8383406" lon="3.161554">
        <ele>15</ele>
        <time>2015-06-21T10:31:37Z</time>
      </trkpt>
      <trkpt lat="39.8384016" lon="3.1617036">
        <ele>15</ele>
        <time>2015-06-21T10:31:39Z</time>
      </trkpt>
      <trkpt lat="39.8384793" lon="3.1619191">
        <ele>14.6</ele>
        <time>2015-06-21T10:31:42Z</time>
      </trkpt>
      <trkpt lat="39.8385723" lon="3.1622332">
        <ele>14.4</ele>
        <time>2015-06-21T10:31:46Z</time>
      </trkpt>
      <trkpt lat="39.8387993" lon="3.1628972">
        <ele>14</ele>
        <time>2015-06-21T10:31:54Z</time>
      </trkpt>
      <trkpt lat="39.8389416" lon="3.1633086">
        <ele>13.6</ele>
        <time>2015-06-21T10:31:59Z</time>
      </trkpt>
      <trkpt lat="39.8389962" lon="3.1634666">
        <ele>13.2</ele>
        <time>2015-06-21T10:32:01Z</time>
      </trkpt>
      <trkpt lat="39.8391253" lon="3.1639559">
        <ele>13.2</ele>
        <time>2015-06-21T10:32:07Z</time>
      </trkpt>
      <trkpt lat="39.8392491" lon="3.1644736">
        <ele>14</ele>
        <time>2015-06-21T10:32:14Z</time>
      </trkpt>
      <trkpt lat="39.839301" lon="3.1646667">
        <ele>14.8</ele>
        <time>2015-06-21T10:32:17Z</time>
      </trkpt>
      <trkpt lat="39.8393636" lon="3.1649065">
        <ele>15.8</ele>
        <time>2015-06-21T10:32:21Z</time>
      </trkpt>
      <trkpt lat="39.8393806" lon="3.164965">
        <ele>16.2</ele>
        <time>2015-06-21T10:32:22Z</time>
      </trkpt>
      <trkpt lat="39.8394476" lon="3.1651955">
        <ele>17.2</ele>
        <time>2015-06-21T10:32:26Z</time>
      </trkpt>
      <trkpt lat="39.8394657" lon="3.1652528">
        <ele>17.6</ele>
        <time>2015-06-21T10:32:27Z</time>
      </trkpt>
      <trkpt lat="39.8394848" lon="3.1653026">
        <ele>18</ele>
        <time>2015-06-21T10:32:28Z</time>
      </trkpt>
      <trkpt lat="39.8395402" lon="3.1654006">
        <ele>18.4</ele>
        <time>2015-06-21T10:32:30Z</time>
      </trkpt>
      <trkpt lat="39.8396055" lon="3.1654788">
        <ele>18.8</ele>
        <time>2015-06-21T10:32:32Z</time>
      </trkpt>
      <trkpt lat="39.8396378" lon="3.1655129">
        <ele>18.8</ele>
        <time>2015-06-21T10:32:33Z</time>
      </trkpt>
      <trkpt lat="39.8396948" lon="3.165576">
        <ele>19.6</ele>
        <time>2015-06-21T10:32:35Z</time>
      </trkpt>
      <trkpt lat="39.8397526" lon="3.1656841">
        <ele>20.8</ele>
        <time>2015-06-21T10:32:38Z</time>
      </trkpt>
      <trkpt lat="39.8397478" lon="3.1657245">
        <ele>21</ele>
        <time>2015-06-21T10:32:39Z</time>
      </trkpt>
      <trkpt lat="39.8397381" lon="3.1658309">
        <ele>21.8</ele>
        <time>2015-06-21T10:32:42Z</time>
      </trkpt>
      <trkpt lat="39.839748" lon="3.1658851">
        <ele>22.2</ele>
        <time>2015-06-21T10:32:44Z</time>
      </trkpt>
      <trkpt lat="39.8398197" lon="3.1659342">
        <ele>22.4</ele>
        <time>2015-06-21T10:32:48Z</time>
      </trkpt>
      <trkpt lat="39.8398981" lon="3.1658723">
        <ele>22.6</ele>
        <time>2015-06-21T10:32:52Z</time>
      </trkpt>
      <trkpt lat="39.8399157" lon="3.1658322">
        <ele>22.6</ele>
        <time>2015-06-21T10:32:54Z</time>
      </trkpt>
      <trkpt lat="39.8399133" lon="3.1657964">
        <ele>22.8</ele>
        <time>2015-06-21T10:32:56Z</time>
      </trkpt>
      <trkpt lat="39.839906" lon="3.1657735">
        <ele>22.8</ele>
        <time>2015-06-21T10:32:57Z</time>
      </trkpt>
      <trkpt lat="39.8399068" lon="3.1657572">
        <ele>22.8</ele>
        <time>2015-06-21T10:33:01Z</time>
      </trkpt>
      <trkpt lat="39.8399153" lon="3.1657572">
        <ele>22.8</ele>
        <time>2015-06-21T10:33:06Z</time>
      </trkpt>
      <trkpt lat="39.8399154" lon="3.1657572">
        <ele>23</ele>
        <time>2015-06-21T10:33:07Z</time>
      </trkpt>
      <trkpt lat="39.8399202" lon="3.1657521">
        <ele>22.4</ele>
        <time>2015-06-21T10:33:18Z</time>
      </trkpt>
      <trkpt lat="39.8399287" lon="3.165753">
        <ele>22.4</ele>
        <time>2015-06-21T10:33:35Z</time>
      </trkpt>
      <trkpt lat="39.8399285" lon="3.1657417">
        <ele>22.4</ele>
        <time>2015-06-21T10:33:52Z</time>
      </trkpt>
      <trkpt lat="39.8399287" lon="3.1657335">
        <ele>22.4</ele>
        <time>2015-06-21T10:34:04Z</time>
      </trkpt>
      <trkpt lat="39.8399281" lon="3.1657252">
        <ele>22.2</ele>
        <time>2015-06-21T10:34:23Z</time>
      </trkpt>
      <trkpt lat="39.8399077" lon="3.1656815">
        <ele>22.6</ele>
        <time>2015-06-21T10:34:38Z</time>
      </trkpt>
      <trkpt lat="39.8398923" lon="3.1656632">
        <ele>13.4</ele>
        <time>2015-06-21T10:34:39Z</time>
      </trkpt>
      <trkpt lat="39.8398749" lon="3.1656408">
        <ele>11.6</ele>
        <time>2015-06-21T10:34:40Z</time>
      </trkpt>
      <trkpt lat="39.8397869" lon="3.1655526">
        <ele>11.4</ele>
        <time>2015-06-21T10:34:43Z</time>
      </trkpt>
      <trkpt lat="39.8396938" lon="3.1654327">
        <ele>11.2</ele>
        <time>2015-06-21T10:34:46Z</time>
      </trkpt>
      <trkpt lat="39.8396286" lon="3.1653475">
        <ele>10.6</ele>
        <time>2015-06-21T10:34:48Z</time>
      </trkpt>
      <trkpt lat="39.8395931" lon="3.1653062">
        <ele>10.4</ele>
        <time>2015-06-21T10:34:49Z</time>
      </trkpt>
      <trkpt lat="39.839568" lon="3.1652563">
        <ele>10.2</ele>
        <time>2015-06-21T10:34:50Z</time>
      </trkpt>
      <trkpt lat="39.8395147" lon="3.165127">
        <ele>9.79999</ele>
        <time>2015-06-21T10:34:52Z</time>
      </trkpt>
      <trkpt lat="39.8394604" lon="3.1649667">
        <ele>9.20001</ele>
        <time>2015-06-21T10:34:54Z</time>
      </trkpt>
      <trkpt lat="39.8393836" lon="3.1647099">
        <ele>8.39999</ele>
        <time>2015-06-21T10:34:57Z</time>
      </trkpt>
      <trkpt lat="39.839362" lon="3.1646241">
        <ele>8.20001</ele>
        <time>2015-06-21T10:34:58Z</time>
      </trkpt>
      <trkpt lat="39.8392532" lon="3.1642309">
        <ele>7</ele>
        <time>2015-06-21T10:35:02Z</time>
      </trkpt>
      <trkpt lat="39.8392037" lon="3.1640366">
        <ele>6</ele>
        <time>2015-06-21T10:35:04Z</time>
      </trkpt>
      <trkpt lat="39.8391792" lon="3.1639372">
        <ele>5.79999</ele>
        <time>2015-06-21T10:35:05Z</time>
      </trkpt>
      <trkpt lat="39.8390512" lon="3.1634589">
        <ele>5.20001</ele>
        <time>2015-06-21T10:35:10Z</time>
      </trkpt>
      <trkpt lat="39.8388246" lon="3.1628144">
        <ele>5.39999</ele>
        <time>2015-06-21T10:35:18Z</time>
      </trkpt>
      <trkpt lat="39.8386834" lon="3.1624553">
        <ele>5.39999</ele>
        <time>2015-06-21T10:35:23Z</time>
      </trkpt>
      <trkpt lat="39.8386399" lon="3.1623054">
        <ele>5.20001</ele>
        <time>2015-06-21T10:35:25Z</time>
      </trkpt>
      <trkpt lat="39.8384459" lon="3.1617093">
        <ele>6.20001</ele>
        <time>2015-06-21T10:35:33Z</time>
      </trkpt>
      <trkpt lat="39.8383405" lon="3.1614204">
        <ele>6.79999</ele>
        <time>2015-06-21T10:35:37Z</time>
      </trkpt>
      <trkpt lat="39.8383027" lon="3.1613575">
        <ele>7</ele>
        <time>2015-06-21T10:35:38Z</time>
      </trkpt>
      <trkpt lat="39.8382162" lon="3.1612556">
        <ele>7.20001</ele>
        <time>2015-06-21T10:35:40Z</time>
      </trkpt>
      <trkpt lat="39.838126" lon="3.1611322">
        <ele>7.39999</ele>
        <time>2015-06-21T10:35:42Z</time>
      </trkpt>
      <trkpt lat="39.8380173" lon="3.1609457">
        <ele>7.79999</ele>
        <time>2015-06-21T10:35:45Z</time>
      </trkpt>
      <trkpt lat="39.8379863" lon="3.1608901">
        <ele>8.20001</ele>
        <time>2015-06-21T10:35:46Z</time>
      </trkpt>
      <trkpt lat="39.83788" lon="3.1606782">
        <ele>9</ele>
        <time>2015-06-21T10:35:49Z</time>
      </trkpt>
      <trkpt lat="39.8377593" lon="3.1604002">
        <ele>9.60001</ele>
        <time>2015-06-21T10:35:53Z</time>
      </trkpt>
      <trkpt lat="39.8377471" lon="3.1603337">
        <ele>10</ele>
        <time>2015-06-21T10:35:54Z</time>
      </trkpt>
      <trkpt lat="39.8377313" lon="3.1602595">
        <ele>10.2</ele>
        <time>2015-06-21T10:35:55Z</time>
      </trkpt>
      <trkpt lat="39.8376927" lon="3.1600137">
        <ele>10.8</ele>
        <time>2015-06-21T10:35:59Z</time>
      </trkpt>
      <trkpt lat="39.8376971" lon="3.1599618">
        <ele>10.6</ele>
        <time>2015-06-21T10:36:00Z</time>
      </trkpt>
      <trkpt lat="39.8377101" lon="3.1598423">
        <ele>10.6</ele>
        <time>2015-06-21T10:36:02Z</time>
      </trkpt>
      <trkpt lat="39.8377417" lon="3.1596108">
        <ele>11.2</ele>
        <time>2015-06-21T10:36:06Z</time>
      </trkpt>
      <trkpt lat="39.8377536" lon="3.159544">
        <ele>11.4</ele>
        <time>2015-06-21T10:36:07Z</time>
      </trkpt>
      <trkpt lat="39.8378086" lon="3.15925">
        <ele>12</ele>
        <time>2015-06-21T10:36:13Z</time>
      </trkpt>
      <trkpt lat="39.8378203" lon="3.1592059">
        <ele>12.6</ele>
        <time>2015-06-21T10:36:15Z</time>
      </trkpt>
      <trkpt lat="39.8378327" lon="3.1591471">
        <ele>12.4</ele>
        <time>2015-06-21T10:36:18Z</time>
      </trkpt>
      <trkpt lat="39.8378556" lon="3.1590146">
        <ele>12.2</ele>
        <time>2015-06-21T10:36:21Z</time>
      </trkpt>
      <trkpt lat="39.8379295" lon="3.1586452">
        <ele>12</ele>
        <time>2015-06-21T10:36:27Z</time>
      </trkpt>
      <trkpt lat="39.8379276" lon="3.1585848">
        <ele>12</ele>
        <time>2015-06-21T10:36:28Z</time>
      </trkpt>
      <trkpt lat="39.8379204" lon="3.1583074">
        <ele>12.4</ele>
        <time>2015-06-21T10:36:32Z</time>
      </trkpt>
      <trkpt lat="39.8379391" lon="3.158016">
        <ele>12.8</ele>
        <time>2015-06-21T10:36:36Z</time>
      </trkpt>
      <trkpt lat="39.8379723" lon="3.1578741">
        <ele>13</ele>
        <time>2015-06-21T10:36:38Z</time>
      </trkpt>
      <trkpt lat="39.8380148" lon="3.157601">
        <ele>12.8</ele>
        <time>2015-06-21T10:36:42Z</time>
      </trkpt>
      <trkpt lat="39.8380276" lon="3.1574783">
        <ele>13</ele>
        <time>2015-06-21T10:36:44Z</time>
      </trkpt>
      <trkpt lat="39.8380185" lon="3.1574135">
        <ele>13.2</ele>
        <time>2015-06-21T10:36:45Z</time>
      </trkpt>
      <trkpt lat="39.83801" lon="3.1571739">
        <ele>13.8</ele>
        <time>2015-06-21T10:36:49Z</time>
      </trkpt>
      <trkpt lat="39.8379764" lon="3.1569941">
        <ele>14.6</ele>
        <time>2015-06-21T10:36:52Z</time>
      </trkpt>
      <trkpt lat="39.8379624" lon="3.156923">
        <ele>14.8</ele>
        <time>2015-06-21T10:36:53Z</time>
      </trkpt>
      <trkpt lat="39.8379152" lon="3.1567486">
        <ele>15.2</ele>
        <time>2015-06-21T10:36:56Z</time>
      </trkpt>
      <trkpt lat="39.8378683" lon="3.15664">
        <ele>16</ele>
        <time>2015-06-21T10:36:58Z</time>
      </trkpt>
      <trkpt lat="39.8378008" lon="3.1564781">
        <ele>17.2</ele>
        <time>2015-06-21T10:37:01Z</time>
      </trkpt>
      <trkpt lat="39.8377807" lon="3.1564196">
        <ele>17.6</ele>
        <time>2015-06-21T10:37:02Z</time>
      </trkpt>
      <trkpt lat="39.837737" lon="3.156311">
        <ele>18.2</ele>
        <time>2015-06-21T10:37:04Z</time>
      </trkpt>
      <trkpt lat="39.8376288" lon="3.1559876">
        <ele>19.4</ele>
        <time>2015-06-21T10:37:09Z</time>
      </trkpt>
      <trkpt lat="39.8376506" lon="3.1557071">
        <ele>23.6</ele>
        <time>2015-06-21T10:37:13Z</time>
      </trkpt>
      <trkpt lat="39.8376671" lon="3.1556367">
        <ele>23.8</ele>
        <time>2015-06-21T10:37:14Z</time>
      </trkpt>
      <trkpt lat="39.8376902" lon="3.1555104">
        <ele>24.2</ele>
        <time>2015-06-21T10:37:16Z</time>
      </trkpt>
      <trkpt lat="39.8376811" lon="3.1553703">
        <ele>20.8</ele>
        <time>2015-06-21T10:37:18Z</time>
      </trkpt>
      <trkpt lat="39.8375921" lon="3.155168">
        <ele>22</ele>
        <time>2015-06-21T10:37:22Z</time>
      </trkpt>
      <trkpt lat="39.8374876" lon="3.1550613">
        <ele>23</ele>
        <time>2015-06-21T10:37:25Z</time>
      </trkpt>
      <trkpt lat="39.8374291" lon="3.1549973">
        <ele>23.8</ele>
        <time>2015-06-21T10:37:27Z</time>
      </trkpt>
      <trkpt lat="39.8374033" lon="3.154965">
        <ele>24.2</ele>
        <time>2015-06-21T10:37:28Z</time>
      </trkpt>
      <trkpt lat="39.8373111" lon="3.1548596">
        <ele>25.4</ele>
        <time>2015-06-21T10:37:31Z</time>
      </trkpt>
      <trkpt lat="39.8372009" lon="3.1547114">
        <ele>26.4</ele>
        <time>2015-06-21T10:37:35Z</time>
      </trkpt>
      <trkpt lat="39.8371253" lon="3.1545842">
        <ele>27.4</ele>
        <time>2015-06-21T10:37:38Z</time>
      </trkpt>
      <trkpt lat="39.837019" lon="3.1543387">
        <ele>28.2</ele>
        <time>2015-06-21T10:37:43Z</time>
      </trkpt>
      <trkpt lat="39.8369497" lon="3.1540963">
        <ele>28.6</ele>
        <time>2015-06-21T10:37:47Z</time>
      </trkpt>
      <trkpt lat="39.8369116" lon="3.1539104">
        <ele>28.4</ele>
        <time>2015-06-21T10:37:50Z</time>
      </trkpt>
      <trkpt lat="39.8367663" lon="3.1532438">
        <ele>29</ele>
        <time>2015-06-21T10:38:00Z</time>
      </trkpt>
      <trkpt lat="39.8366516" lon="3.1528219">
        <ele>28.4</ele>
        <time>2015-06-21T10:38:06Z</time>
      </trkpt>
      <trkpt lat="39.8366033" lon="3.1524024">
        <ele>27.6</ele>
        <time>2015-06-21T10:38:11Z</time>
      </trkpt>
      <trkpt lat="39.836607" lon="3.1522261">
        <ele>27.4</ele>
        <time>2015-06-21T10:38:13Z</time>
      </trkpt>
      <trkpt lat="39.8366054" lon="3.1517443">
        <ele>27.4</ele>
        <time>2015-06-21T10:38:19Z</time>
      </trkpt>
      <trkpt lat="39.8366073" lon="3.1512558">
        <ele>27.6</ele>
        <time>2015-06-21T10:38:25Z</time>
      </trkpt>
      <trkpt lat="39.8365666" lon="3.1507257">
        <ele>27.4</ele>
        <time>2015-06-21T10:38:32Z</time>
      </trkpt>
      <trkpt lat="39.836554" lon="3.1504079">
        <ele>28.8</ele>
        <time>2015-06-21T10:38:38Z</time>
      </trkpt>
      <trkpt lat="39.8365413" lon="3.1502516">
        <ele>29.2</ele>
        <time>2015-06-21T10:38:40Z</time>
      </trkpt>
      <trkpt lat="39.8365307" lon="3.1501222">
        <ele>29.8</ele>
        <time>2015-06-21T10:38:42Z</time>
      </trkpt>
      <trkpt lat="39.8365055" lon="3.149896">
        <ele>30.8</ele>
        <time>2015-06-21T10:38:46Z</time>
      </trkpt>
      <trkpt lat="39.8364935" lon="3.1497748">
        <ele>31.2</ele>
        <time>2015-06-21T10:38:48Z</time>
      </trkpt>
      <trkpt lat="39.8364705" lon="3.1495539">
        <ele>32</ele>
        <time>2015-06-21T10:38:52Z</time>
      </trkpt>
      <trkpt lat="39.8364471" lon="3.1493226">
        <ele>33.2</ele>
        <time>2015-06-21T10:38:56Z</time>
      </trkpt>
      <trkpt lat="39.8364385" lon="3.1492099">
        <ele>33.8</ele>
        <time>2015-06-21T10:38:58Z</time>
      </trkpt>
      <trkpt lat="39.836428" lon="3.1490912">
        <ele>34.4</ele>
        <time>2015-06-21T10:39:00Z</time>
      </trkpt>
      <trkpt lat="39.8364227" lon="3.1489819">
        <ele>36.2</ele>
        <time>2015-06-21T10:39:02Z</time>
      </trkpt>
      <trkpt lat="39.8364094" lon="3.148864">
        <ele>36.8</ele>
        <time>2015-06-21T10:39:05Z</time>
      </trkpt>
      <trkpt lat="39.8363933" lon="3.1485841">
        <ele>36.4</ele>
        <time>2015-06-21T10:39:11Z</time>
      </trkpt>
      <trkpt lat="39.8363548" lon="3.1482253">
        <ele>37</ele>
        <time>2015-06-21T10:39:18Z</time>
      </trkpt>
      <trkpt lat="39.8363052" lon="3.1477217">
        <ele>37</ele>
        <time>2015-06-21T10:39:26Z</time>
      </trkpt>
      <trkpt lat="39.8362689" lon="3.1473165">
        <ele>36.8</ele>
        <time>2015-06-21T10:39:31Z</time>
      </trkpt>
      <trkpt lat="39.8362598" lon="3.1470648">
        <ele>35</ele>
        <time>2015-06-21T10:39:34Z</time>
      </trkpt>
      <trkpt lat="39.8362995" lon="3.1468736">
        <ele>33.4</ele>
        <time>2015-06-21T10:39:36Z</time>
      </trkpt>
      <trkpt lat="39.8363801" lon="3.1466482">
        <ele>31.8</ele>
        <time>2015-06-21T10:39:38Z</time>
      </trkpt>
      <trkpt lat="39.8364665" lon="3.1464112">
        <ele>30.2</ele>
        <time>2015-06-21T10:39:40Z</time>
      </trkpt>
      <trkpt lat="39.8365147" lon="3.1462857">
        <ele>29.2</ele>
        <time>2015-06-21T10:39:41Z</time>
      </trkpt>
      <trkpt lat="39.8365687" lon="3.1461479">
        <ele>27.8</ele>
        <time>2015-06-21T10:39:42Z</time>
      </trkpt>
      <trkpt lat="39.8366174" lon="3.1460233">
        <ele>26.4</ele>
        <time>2015-06-21T10:39:43Z</time>
      </trkpt>
      <trkpt lat="39.8366584" lon="3.1459027">
        <ele>25</ele>
        <time>2015-06-21T10:39:44Z</time>
      </trkpt>
      <trkpt lat="39.8367071" lon="3.145762">
        <ele>23.8</ele>
        <time>2015-06-21T10:39:45Z</time>
      </trkpt>
      <trkpt lat="39.8368448" lon="3.1453744">
        <ele>22.6</ele>
        <time>2015-06-21T10:39:48Z</time>
      </trkpt>
      <trkpt lat="39.8370836" lon="3.1447317">
        <ele>21.4</ele>
        <time>2015-06-21T10:39:53Z</time>
      </trkpt>
      <trkpt lat="39.8372289" lon="3.1443491">
        <ele>20.2</ele>
        <time>2015-06-21T10:39:56Z</time>
      </trkpt>
      <trkpt lat="39.8373247" lon="3.14409">
        <ele>19</ele>
        <time>2015-06-21T10:39:58Z</time>
      </trkpt>
      <trkpt lat="39.8374131" lon="3.1438513">
        <ele>18.2</ele>
        <time>2015-06-21T10:40:00Z</time>
      </trkpt>
      <trkpt lat="39.8375443" lon="3.1434844">
        <ele>18.2</ele>
        <time>2015-06-21T10:40:04Z</time>
      </trkpt>
      <trkpt lat="39.8376047" lon="3.1433236">
        <ele>17.8</ele>
        <time>2015-06-21T10:40:06Z</time>
      </trkpt>
      <trkpt lat="39.8376672" lon="3.1431818">
        <ele>17.6</ele>
        <time>2015-06-21T10:40:08Z</time>
      </trkpt>
      <trkpt lat="39.8377186" lon="3.1431425">
        <ele>17.8</ele>
        <time>2015-06-21T10:40:09Z</time>
      </trkpt>
      <trkpt lat="39.837867" lon="3.143098">
        <ele>18.2</ele>
        <time>2015-06-21T10:40:12Z</time>
      </trkpt>
      <trkpt lat="39.8379077" lon="3.1430703">
        <ele>18.4</ele>
        <time>2015-06-21T10:40:13Z</time>
      </trkpt>
      <trkpt lat="39.8380002" lon="3.1429757">
        <ele>18.6</ele>
        <time>2015-06-21T10:40:16Z</time>
      </trkpt>
      <trkpt lat="39.8380741" lon="3.1429362">
        <ele>18.8</ele>
        <time>2015-06-21T10:40:18Z</time>
      </trkpt>
      <trkpt lat="39.8381301" lon="3.14292">
        <ele>19.4</ele>
        <time>2015-06-21T10:40:20Z</time>
      </trkpt>
      <trkpt lat="39.8381905" lon="3.1429416">
        <ele>20</ele>
        <time>2015-06-21T10:40:23Z</time>
      </trkpt>
      <trkpt lat="39.8381975" lon="3.1429461">
        <ele>20</ele>
        <time>2015-06-21T10:40:24Z</time>
      </trkpt>
      <trkpt lat="39.8381892" lon="3.1429461">
        <ele>20.2</ele>
        <time>2015-06-21T10:40:28Z</time>
      </trkpt>
      <trkpt lat="39.8381901" lon="3.1429472">
        <ele>20.2</ele>
        <time>2015-06-21T10:40:36Z</time>
      </trkpt>
      <trkpt lat="39.8381894" lon="3.1429557">
        <ele>20</ele>
        <time>2015-06-21T10:40:54Z</time>
      </trkpt>
      <trkpt lat="39.8381888" lon="3.1429586">
        <ele>20</ele>
        <time>2015-06-21T10:41:08Z</time>
      </trkpt>
      <trkpt lat="39.8381872" lon="3.1429562">
        <ele>20.6</ele>
        <time>2015-06-21T10:41:19Z</time>
      </trkpt>
      <trkpt lat="39.8381859" lon="3.1429576">
        <ele>20.4</ele>
        <time>2015-06-21T10:41:32Z</time>
      </trkpt>
      <trkpt lat="39.838197" lon="3.1429463">
        <ele>20.4</ele>
        <time>2015-06-21T10:41:41Z</time>
      </trkpt>
      <trkpt lat="39.8381932" lon="3.1429454">
        <ele>20.4</ele>
        <time>2015-06-21T10:41:44Z</time>
      </trkpt>
      <trkpt lat="39.8381871" lon="3.1429513">
        <ele>19.8</ele>
        <time>2015-06-21T10:41:49Z</time>
      </trkpt>
      <trkpt lat="39.8381816" lon="3.1429555">
        <ele>19.4</ele>
        <time>2015-06-21T10:41:58Z</time>
      </trkpt>
      <trkpt lat="39.8381815" lon="3.1429549">
        <ele>19.6</ele>
        <time>2015-06-21T10:42:23Z</time>
      </trkpt>
      <trkpt lat="39.8381814" lon="3.1429578">
        <ele>18.8</ele>
        <time>2015-06-21T10:42:26Z</time>
      </trkpt>
      <trkpt lat="39.8381804" lon="3.1429586">
        <ele>18.8</ele>
        <time>2015-06-21T10:42:32Z</time>
      </trkpt>
      <trkpt lat="39.8382038" lon="3.1429291">
        <ele>18.6</ele>
        <time>2015-06-21T10:42:36Z</time>
      </trkpt>
      <trkpt lat="39.838195" lon="3.1429119">
        <ele>18.6</ele>
        <time>2015-06-21T10:42:37Z</time>
      </trkpt>
      <trkpt lat="39.838115" lon="3.142873">
        <ele>18.2</ele>
        <time>2015-06-21T10:42:40Z</time>
      </trkpt>
      <trkpt lat="39.8380827" lon="3.1428571">
        <ele>18.2</ele>
        <time>2015-06-21T10:42:41Z</time>
      </trkpt>
      <trkpt lat="39.8379616" lon="3.1427192">
        <ele>17.8</ele>
        <time>2015-06-21T10:42:45Z</time>
      </trkpt>
      <trkpt lat="39.8379371" lon="3.142688">
        <ele>17.8</ele>
        <time>2015-06-21T10:42:46Z</time>
      </trkpt>
      <trkpt lat="39.8377953" lon="3.1425746">
        <ele>17.4</ele>
        <time>2015-06-21T10:42:50Z</time>
      </trkpt>
      <trkpt lat="39.8377572" lon="3.1425707">
        <ele>17.4</ele>
        <time>2015-06-21T10:42:51Z</time>
      </trkpt>
      <trkpt lat="39.8375906" lon="3.1426548">
        <ele>17.4</ele>
        <time>2015-06-21T10:42:55Z</time>
      </trkpt>
      <trkpt lat="39.8375288" lon="3.1428862">
        <ele>17.4</ele>
        <time>2015-06-21T10:42:59Z</time>
      </trkpt>
      <trkpt lat="39.8375961" lon="3.1430488">
        <ele>17.2</ele>
        <time>2015-06-21T10:43:02Z</time>
      </trkpt>
      <trkpt lat="39.8377299" lon="3.1431577">
        <ele>17</ele>
        <time>2015-06-21T10:43:06Z</time>
      </trkpt>
      <trkpt lat="39.8377976" lon="3.1431714">
        <ele>17.2</ele>
        <time>2015-06-21T10:43:08Z</time>
      </trkpt>
      <trkpt lat="39.8378625" lon="3.143157">
        <ele>17.4</ele>
        <time>2015-06-21T10:43:11Z</time>
      </trkpt>
      <trkpt lat="39.8378681" lon="3.143176">
        <ele>17.6</ele>
        <time>2015-06-21T10:43:14Z</time>
      </trkpt>
      <trkpt lat="39.8378743" lon="3.1431627">
        <ele>17.6</ele>
        <time>2015-06-21T10:43:15Z</time>
      </trkpt>
      <trkpt lat="39.8378757" lon="3.1431596">
        <ele>17.6</ele>
        <time>2015-06-21T10:43:20Z</time>
      </trkpt>
      <trkpt lat="39.8378744" lon="3.1431555">
        <ele>17.8</ele>
        <time>2015-06-21T10:43:27Z</time>
      </trkpt>
      <trkpt lat="39.8378773" lon="3.1431491">
        <ele>18.8</ele>
        <time>2015-06-21T10:43:33Z</time>
      </trkpt>
      <trkpt lat="39.8378765" lon="3.143146">
        <ele>19</ele>
        <time>2015-06-21T10:43:36Z</time>
      </trkpt>
      <trkpt lat="39.8379135" lon="3.1430777">
        <ele>20.8</ele>
        <time>2015-06-21T10:43:49Z</time>
      </trkpt>
      <trkpt lat="39.8380244" lon="3.1429676">
        <ele>20.6</ele>
        <time>2015-06-21T10:43:53Z</time>
      </trkpt>
      <trkpt lat="39.8381336" lon="3.1429429">
        <ele>19.4</ele>
        <time>2015-06-21T10:43:56Z</time>
      </trkpt>
      <trkpt lat="39.8381697" lon="3.1429462">
        <ele>19.4</ele>
        <time>2015-06-21T10:43:57Z</time>
      </trkpt>
      <trkpt lat="39.8384007" lon="3.142963">
        <ele>20.6</ele>
        <time>2015-06-21T10:44:03Z</time>
      </trkpt>
      <trkpt lat="39.8385193" lon="3.1429686">
        <ele>21</ele>
        <time>2015-06-21T10:44:06Z</time>
      </trkpt>
      <trkpt lat="39.8386477" lon="3.1429694">
        <ele>21.6</ele>
        <time>2015-06-21T10:44:09Z</time>
      </trkpt>
      <trkpt lat="39.8389462" lon="3.1429507">
        <ele>22.6</ele>
        <time>2015-06-21T10:44:16Z</time>
      </trkpt>
      <trkpt lat="39.8389946" lon="3.142945">
        <ele>22.8</ele>
        <time>2015-06-21T10:44:17Z</time>
      </trkpt>
      <trkpt lat="39.839079" lon="3.1429347">
        <ele>25.6</ele>
        <time>2015-06-21T10:44:19Z</time>
      </trkpt>
      <trkpt lat="39.8392525" lon="3.1429046">
        <ele>27.4</ele>
        <time>2015-06-21T10:44:23Z</time>
      </trkpt>
      <trkpt lat="39.8392955" lon="3.1428944">
        <ele>24.6</ele>
        <time>2015-06-21T10:44:24Z</time>
      </trkpt>
      <trkpt lat="39.8394263" lon="3.1428656">
        <ele>25</ele>
        <time>2015-06-21T10:44:27Z</time>
      </trkpt>
      <trkpt lat="39.8395633" lon="3.142829">
        <ele>25.6</ele>
        <time>2015-06-21T10:44:30Z</time>
      </trkpt>
      <trkpt lat="39.8399301" lon="3.1427074">
        <ele>26.6</ele>
        <time>2015-06-21T10:44:38Z</time>
      </trkpt>
      <trkpt lat="39.8399773" lon="3.1426866">
        <ele>26.6</ele>
        <time>2015-06-21T10:44:39Z</time>
      </trkpt>
      <trkpt lat="39.8404679" lon="3.1424489">
        <ele>27</ele>
        <time>2015-06-21T10:44:49Z</time>
      </trkpt>
      <trkpt lat="39.840956" lon="3.1421774">
        <ele>27</ele>
        <time>2015-06-21T10:44:58Z</time>
      </trkpt>
      <trkpt lat="39.8415019" lon="3.1418594">
        <ele>26.6</ele>
        <time>2015-06-21T10:45:07Z</time>
      </trkpt>
      <trkpt lat="39.8416193" lon="3.1417945">
        <ele>26.4</ele>
        <time>2015-06-21T10:45:09Z</time>
      </trkpt>
      <trkpt lat="39.8416661" lon="3.1417671">
        <ele>26.4</ele>
        <time>2015-06-21T10:45:10Z</time>
      </trkpt>
      <trkpt lat="39.842065" lon="3.1415345">
        <ele>25.4</ele>
        <time>2015-06-21T10:45:16Z</time>
      </trkpt>
      <trkpt lat="39.8423437" lon="3.1413774">
        <ele>25</ele>
        <time>2015-06-21T10:45:20Z</time>
      </trkpt>
      <trkpt lat="39.8428914" lon="3.1410586">
        <ele>24.4</ele>
        <time>2015-06-21T10:45:29Z</time>
      </trkpt>
      <trkpt lat="39.8433898" lon="3.1407701">
        <ele>26.2</ele>
        <time>2015-06-21T10:45:38Z</time>
      </trkpt>
      <trkpt lat="39.8434945" lon="3.14071">
        <ele>26.6</ele>
        <time>2015-06-21T10:45:40Z</time>
      </trkpt>
      <trkpt lat="39.8439133" lon="3.1404415">
        <ele>26.6</ele>
        <time>2015-06-21T10:45:48Z</time>
      </trkpt>
      <trkpt lat="39.8443522" lon="3.1400997">
        <ele>27.6</ele>
        <time>2015-06-21T10:45:57Z</time>
      </trkpt>
      <trkpt lat="39.8444969" lon="3.1399697">
        <ele>28</ele>
        <time>2015-06-21T10:46:00Z</time>
      </trkpt>
      <trkpt lat="39.8449039" lon="3.1395404">
        <ele>28.6</ele>
        <time>2015-06-21T10:46:09Z</time>
      </trkpt>
      <trkpt lat="39.8449443" lon="3.1394892">
        <ele>28.8</ele>
        <time>2015-06-21T10:46:10Z</time>
      </trkpt>
      <trkpt lat="39.8452611" lon="3.139032">
        <ele>29</ele>
        <time>2015-06-21T10:46:18Z</time>
      </trkpt>
      <trkpt lat="39.8453987" lon="3.1387952">
        <ele>29.6</ele>
        <time>2015-06-21T10:46:22Z</time>
      </trkpt>
      <trkpt lat="39.8455864" lon="3.1384234">
        <ele>29.6</ele>
        <time>2015-06-21T10:46:28Z</time>
      </trkpt>
      <trkpt lat="39.8456599" lon="3.1382655">
        <ele>30</ele>
        <time>2015-06-21T10:46:30Z</time>
      </trkpt>
      <trkpt lat="39.8457202" lon="3.1381173">
        <ele>30.4</ele>
        <time>2015-06-21T10:46:32Z</time>
      </trkpt>
      <trkpt lat="39.8459385" lon="3.1374806">
        <ele>29.8</ele>
        <time>2015-06-21T10:46:40Z</time>
      </trkpt>
      <trkpt lat="39.8461037" lon="3.136749">
        <ele>28.8</ele>
        <time>2015-06-21T10:46:48Z</time>
      </trkpt>
      <trkpt lat="39.8461169" lon="3.1366528">
        <ele>28.4</ele>
        <time>2015-06-21T10:46:49Z</time>
      </trkpt>
      <trkpt lat="39.8461374" lon="3.1364531">
        <ele>27</ele>
        <time>2015-06-21T10:46:51Z</time>
      </trkpt>
      <trkpt lat="39.8461667" lon="3.1361359">
        <ele>26.4</ele>
        <time>2015-06-21T10:46:54Z</time>
      </trkpt>
      <trkpt lat="39.846193" lon="3.1357062">
        <ele>25.8</ele>
        <time>2015-06-21T10:46:58Z</time>
      </trkpt>
      <trkpt lat="39.8462079" lon="3.1353717">
        <ele>24.8</ele>
        <time>2015-06-21T10:47:01Z</time>
      </trkpt>
      <trkpt lat="39.8462179" lon="3.1351329">
        <ele>24</ele>
        <time>2015-06-21T10:47:03Z</time>
      </trkpt>
      <trkpt lat="39.8462282" lon="3.134896">
        <ele>23.6</ele>
        <time>2015-06-21T10:47:05Z</time>
      </trkpt>
      <trkpt lat="39.8462556" lon="3.1343204">
        <ele>22.6</ele>
        <time>2015-06-21T10:47:10Z</time>
      </trkpt>
      <trkpt lat="39.8462726" lon="3.1339705">
        <ele>21.4</ele>
        <time>2015-06-21T10:47:13Z</time>
      </trkpt>
      <trkpt lat="39.8462864" lon="3.133637">
        <ele>20.4</ele>
        <time>2015-06-21T10:47:16Z</time>
      </trkpt>
      <trkpt lat="39.8462996" lon="3.133396">
        <ele>19.4</ele>
        <time>2015-06-21T10:47:18Z</time>
      </trkpt>
      <trkpt lat="39.8463187" lon="3.13295">
        <ele>18</ele>
        <time>2015-06-21T10:47:22Z</time>
      </trkpt>
      <trkpt lat="39.8463243" lon="3.1328314">
        <ele>17.8</ele>
        <time>2015-06-21T10:47:23Z</time>
      </trkpt>
      <trkpt lat="39.8463322" lon="3.1324028">
        <ele>17</ele>
        <time>2015-06-21T10:47:27Z</time>
      </trkpt>
      <trkpt lat="39.8463191" lon="3.1319987">
        <ele>16</ele>
        <time>2015-06-21T10:47:31Z</time>
      </trkpt>
      <trkpt lat="39.8463127" lon="3.1319037">
        <ele>15.8</ele>
        <time>2015-06-21T10:47:32Z</time>
      </trkpt>
      <trkpt lat="39.8462725" lon="3.1315783">
        <ele>15</ele>
        <time>2015-06-21T10:47:36Z</time>
      </trkpt>
      <trkpt lat="39.8462633" lon="3.1315049">
        <ele>14.8</ele>
        <time>2015-06-21T10:47:37Z</time>
      </trkpt>
      <trkpt lat="39.8462373" lon="3.1312727">
        <ele>14.6</ele>
        <time>2015-06-21T10:47:41Z</time>
      </trkpt>
      <trkpt lat="39.8462972" lon="3.1311124">
        <ele>14.4</ele>
        <time>2015-06-21T10:47:44Z</time>
      </trkpt>
      <trkpt lat="39.8463166" lon="3.1310518">
        <ele>14.8</ele>
        <time>2015-06-21T10:47:45Z</time>
      </trkpt>
      <trkpt lat="39.8463506" lon="3.1308464">
        <ele>14.8</ele>
        <time>2015-06-21T10:47:48Z</time>
      </trkpt>
      <trkpt lat="39.8464851" lon="3.1307121">
        <ele>14.4</ele>
        <time>2015-06-21T10:47:51Z</time>
      </trkpt>
      <trkpt lat="39.8465743" lon="3.1306195">
        <ele>14.6</ele>
        <time>2015-06-21T10:47:53Z</time>
      </trkpt>
      <trkpt lat="39.8466131" lon="3.1305942">
        <ele>14.8</ele>
        <time>2015-06-21T10:47:54Z</time>
      </trkpt>
      <trkpt lat="39.8466675" lon="3.1305372">
        <ele>14.8</ele>
        <time>2015-06-21T10:47:56Z</time>
      </trkpt>
      <trkpt lat="39.8469404" lon="3.1302662">
        <ele>14.8</ele>
        <time>2015-06-21T10:48:06Z</time>
      </trkpt>
      <trkpt lat="39.8471598" lon="3.1300448">
        <ele>15</ele>
        <time>2015-06-21T10:48:14Z</time>
      </trkpt>
      <trkpt lat="39.8474143" lon="3.1297918">
        <ele>14.8</ele>
        <time>2015-06-21T10:48:24Z</time>
      </trkpt>
      <trkpt lat="39.847677" lon="3.1295306">
        <ele>15.2</ele>
        <time>2015-06-21T10:48:34Z</time>
      </trkpt>
      <trkpt lat="39.8478828" lon="3.1293386">
        <ele>15.4</ele>
        <time>2015-06-21T10:48:42Z</time>
      </trkpt>
      <trkpt lat="39.847965" lon="3.1292845">
        <ele>15.4</ele>
        <time>2015-06-21T10:48:48Z</time>
      </trkpt>
      <trkpt lat="39.8479675" lon="3.1292832">
        <ele>15.4</ele>
        <time>2015-06-21T10:48:54Z</time>
      </trkpt>
      <trkpt lat="39.8479682" lon="3.129283">
        <ele>10.6</ele>
        <time>2015-06-21T10:48:55Z</time>
      </trkpt>
      <trkpt lat="39.8479682" lon="3.1292831">
        <ele>14.6</ele>
        <time>2015-06-21T10:48:56Z</time>
      </trkpt>
      <trkpt lat="39.847965" lon="3.129271">
        <ele>15</ele>
        <time>2015-06-21T10:49:03Z</time>
      </trkpt>
      <trkpt lat="39.8479585" lon="3.1292674">
        <ele>15.8</ele>
        <time>2015-06-21T10:49:06Z</time>
      </trkpt>
      <trkpt lat="39.8479567" lon="3.1292616">
        <ele>16.6</ele>
        <time>2015-06-21T10:49:10Z</time>
      </trkpt>
      <trkpt lat="39.8479563" lon="3.1292628">
        <ele>16.8</ele>
        <time>2015-06-21T10:49:11Z</time>
      </trkpt>
      <trkpt lat="39.8479509" lon="3.1292471">
        <ele>17.4</ele>
        <time>2015-06-21T10:49:21Z</time>
      </trkpt>
      <trkpt lat="39.8479453" lon="3.1292277">
        <ele>17.8</ele>
        <time>2015-06-21T10:49:24Z</time>
      </trkpt>
      <trkpt lat="39.8479429" lon="3.1292209">
        <ele>18.8</ele>
        <time>2015-06-21T10:49:26Z</time>
      </trkpt>
      <trkpt lat="39.8479365" lon="3.1292059">
        <ele>20</ele>
        <time>2015-06-21T10:49:31Z</time>
      </trkpt>
      <trkpt lat="39.8479336" lon="3.1291982">
        <ele>21</ele>
        <time>2015-06-21T10:49:35Z</time>
      </trkpt>
      <trkpt lat="39.8479308" lon="3.1291903">
        <ele>21.8</ele>
        <time>2015-06-21T10:49:41Z</time>
      </trkpt>
      <trkpt lat="39.8479335" lon="3.1291964">
        <ele>20.8</ele>
        <time>2015-06-21T10:49:54Z</time>
      </trkpt>
      <trkpt lat="39.8479346" lon="3.1291985">
        <ele>20</ele>
        <time>2015-06-21T10:49:59Z</time>
      </trkpt>
      <trkpt lat="39.847936" lon="3.1292008">
        <ele>19.2</ele>
        <time>2015-06-21T10:50:04Z</time>
      </trkpt>
      <trkpt lat="39.8479351" lon="3.1292028">
        <ele>18.8</ele>
        <time>2015-06-21T10:50:06Z</time>
      </trkpt>
      <trkpt lat="39.8479329" lon="3.1291878">
        <ele>18</ele>
        <time>2015-06-21T10:50:11Z</time>
      </trkpt>
      <trkpt lat="39.8479329" lon="3.1291853">
        <ele>17.8</ele>
        <time>2015-06-21T10:50:13Z</time>
      </trkpt>
      <trkpt lat="39.8479293" lon="3.1291793">
        <ele>17.2</ele>
        <time>2015-06-21T10:50:17Z</time>
      </trkpt>
      <trkpt lat="39.8479264" lon="3.1291763">
        <ele>16.6</ele>
        <time>2015-06-21T10:50:21Z</time>
      </trkpt>
      <trkpt lat="39.8479254" lon="3.1291846">
        <ele>15.8</ele>
        <time>2015-06-21T10:50:26Z</time>
      </trkpt>
      <trkpt lat="39.8479302" lon="3.1291863">
        <ele>15.6</ele>
        <time>2015-06-21T10:50:29Z</time>
      </trkpt>
      <trkpt lat="39.8479368" lon="3.1291914">
        <ele>15.4</ele>
        <time>2015-06-21T10:50:36Z</time>
      </trkpt>
      <trkpt lat="39.8479464" lon="3.1292152">
        <ele>15.4</ele>
        <time>2015-06-21T10:50:44Z</time>
      </trkpt>
      <trkpt lat="39.8479583" lon="3.1292043">
        <ele>15.4</ele>
        <time>2015-06-21T10:51:00Z</time>
      </trkpt>
      <trkpt lat="39.8479561" lon="3.1291836">
        <ele>15.4</ele>
        <time>2015-06-21T10:51:22Z</time>
      </trkpt>
      <trkpt lat="39.8479461" lon="3.1291939">
        <ele>15.2</ele>
        <time>2015-06-21T10:51:26Z</time>
      </trkpt>
      <trkpt lat="39.8479461" lon="3.1291813">
        <ele>15.2</ele>
        <time>2015-06-21T10:51:32Z</time>
      </trkpt>
      <trkpt lat="39.8479719" lon="3.1291322">
        <ele>15.2</ele>
        <time>2015-06-21T10:51:40Z</time>
      </trkpt>
      <trkpt lat="39.8480224" lon="3.1290677">
        <ele>13.2</ele>
        <time>2015-06-21T10:51:43Z</time>
      </trkpt>
      <trkpt lat="39.8480775" lon="3.1290081">
        <ele>13</ele>
        <time>2015-06-21T10:51:45Z</time>
      </trkpt>
      <trkpt lat="39.8481724" lon="3.1289214">
        <ele>18.2</ele>
        <time>2015-06-21T10:51:48Z</time>
      </trkpt>
      <trkpt lat="39.8482079" lon="3.1288895">
        <ele>15</ele>
        <time>2015-06-21T10:51:49Z</time>
      </trkpt>
      <trkpt lat="39.8483138" lon="3.1287948">
        <ele>15.4</ele>
        <time>2015-06-21T10:51:52Z</time>
      </trkpt>
      <trkpt lat="39.8485356" lon="3.1285916">
        <ele>16</ele>
        <time>2015-06-21T10:51:58Z</time>
      </trkpt>
      <trkpt lat="39.8486119" lon="3.1285193">
        <ele>16</ele>
        <time>2015-06-21T10:52:00Z</time>
      </trkpt>
      <trkpt lat="39.8489387" lon="3.1282014">
        <ele>16.8</ele>
        <time>2015-06-21T10:52:10Z</time>
      </trkpt>
      <trkpt lat="39.8491235" lon="3.1280111">
        <ele>17.2</ele>
        <time>2015-06-21T10:52:16Z</time>
      </trkpt>
      <trkpt lat="39.8491985" lon="3.1279556">
        <ele>17.4</ele>
        <time>2015-06-21T10:52:18Z</time>
      </trkpt>
      <trkpt lat="39.8492654" lon="3.1278852">
        <ele>17.4</ele>
        <time>2015-06-21T10:52:20Z</time>
      </trkpt>
      <trkpt lat="39.8493944" lon="3.1277507">
        <ele>17.2</ele>
        <time>2015-06-21T10:52:25Z</time>
      </trkpt>
      <trkpt lat="39.8494251" lon="3.1276814">
        <ele>17.6</ele>
        <time>2015-06-21T10:52:30Z</time>
      </trkpt>
      <trkpt lat="39.8493977" lon="3.1277444">
        <ele>18.2</ele>
        <time>2015-06-21T10:52:35Z</time>
      </trkpt>
      <trkpt lat="39.8493887" lon="3.1277728">
        <ele>18.2</ele>
        <time>2015-06-21T10:52:37Z</time>
      </trkpt>
      <trkpt lat="39.8493327" lon="3.1278508">
        <ele>18</ele>
        <time>2015-06-21T10:52:42Z</time>
      </trkpt>
      <trkpt lat="39.8492709" lon="3.127905">
        <ele>18</ele>
        <time>2015-06-21T10:52:48Z</time>
      </trkpt>
      <trkpt lat="39.8492561" lon="3.1279378">
        <ele>17.8</ele>
        <time>2015-06-21T10:52:54Z</time>
      </trkpt>
      <trkpt lat="39.8492625" lon="3.1279567">
        <ele>17.8</ele>
        <time>2015-06-21T10:52:59Z</time>
      </trkpt>
      <trkpt lat="39.8492635" lon="3.1279435">
        <ele>17.8</ele>
        <time>2015-06-21T10:53:12Z</time>
      </trkpt>
      <trkpt lat="39.8492664" lon="3.1279438">
        <ele>18</ele>
        <time>2015-06-21T10:53:17Z</time>
      </trkpt>
      <trkpt lat="39.8492665" lon="3.1279378">
        <ele>17.8</ele>
        <time>2015-06-21T10:53:23Z</time>
      </trkpt>
      <trkpt lat="39.849285" lon="3.1279142">
        <ele>17.6</ele>
        <time>2015-06-21T10:53:38Z</time>
      </trkpt>
      <trkpt lat="39.8492942" lon="3.127889">
        <ele>17.6</ele>
        <time>2015-06-21T10:53:39Z</time>
      </trkpt>
      <trkpt lat="39.8493949" lon="3.1277609">
        <ele>17.8</ele>
        <time>2015-06-21T10:53:45Z</time>
      </trkpt>
      <trkpt lat="39.8495437" lon="3.127611">
        <ele>18</ele>
        <time>2015-06-21T10:53:52Z</time>
      </trkpt>
      <trkpt lat="39.8496818" lon="3.1274887">
        <ele>18</ele>
        <time>2015-06-21T10:53:58Z</time>
      </trkpt>
      <trkpt lat="39.8497546" lon="3.1274095">
        <ele>18.2</ele>
        <time>2015-06-21T10:54:02Z</time>
      </trkpt>
      <trkpt lat="39.8498676" lon="3.1272795">
        <ele>18.6</ele>
        <time>2015-06-21T10:54:08Z</time>
      </trkpt>
      <trkpt lat="39.8499339" lon="3.1271667">
        <ele>18.8</ele>
        <time>2015-06-21T10:54:11Z</time>
      </trkpt>
      <trkpt lat="39.8499767" lon="3.1271521">
        <ele>18.8</ele>
        <time>2015-06-21T10:54:12Z</time>
      </trkpt>
      <trkpt lat="39.8500932" lon="3.1270473">
        <ele>18.6</ele>
        <time>2015-06-21T10:54:16Z</time>
      </trkpt>
      <trkpt lat="39.8503432" lon="3.1268031">
        <ele>18.8</ele>
        <time>2015-06-21T10:54:24Z</time>
      </trkpt>
      <trkpt lat="39.8504688" lon="3.1266774">
        <ele>18.8</ele>
        <time>2015-06-21T10:54:27Z</time>
      </trkpt>
      <trkpt lat="39.8505594" lon="3.1265994">
        <ele>19</ele>
        <time>2015-06-21T10:54:29Z</time>
      </trkpt>
      <trkpt lat="39.8506847" lon="3.1264848">
        <ele>19.4</ele>
        <time>2015-06-21T10:54:32Z</time>
      </trkpt>
      <trkpt lat="39.8508827" lon="3.1262905">
        <ele>20.2</ele>
        <time>2015-06-21T10:54:37Z</time>
      </trkpt>
      <trkpt lat="39.8510309" lon="3.1261283">
        <ele>20.4</ele>
        <time>2015-06-21T10:54:41Z</time>
      </trkpt>
      <trkpt lat="39.8512153" lon="3.1259507">
        <ele>21</ele>
        <time>2015-06-21T10:54:46Z</time>
      </trkpt>
      <trkpt lat="39.851269" lon="3.1259038">
        <ele>21.4</ele>
        <time>2015-06-21T10:54:48Z</time>
      </trkpt>
      <trkpt lat="39.851305" lon="3.1258699">
        <ele>21.8</ele>
        <time>2015-06-21T10:54:50Z</time>
      </trkpt>
      <trkpt lat="39.8514017" lon="3.125781">
        <ele>22</ele>
        <time>2015-06-21T10:54:56Z</time>
      </trkpt>
      <trkpt lat="39.8514525" lon="3.1257461">
        <ele>22</ele>
        <time>2015-06-21T10:55:02Z</time>
      </trkpt>
      <trkpt lat="39.851479" lon="3.1257262">
        <ele>22.2</ele>
        <time>2015-06-21T10:55:06Z</time>
      </trkpt>
      <trkpt lat="39.8515671" lon="3.125619">
        <ele>22.2</ele>
        <time>2015-06-21T10:55:12Z</time>
      </trkpt>
      <trkpt lat="39.8516038" lon="3.1255743">
        <ele>22.4</ele>
        <time>2015-06-21T10:55:14Z</time>
      </trkpt>
      <trkpt lat="39.8516213" lon="3.1255529">
        <ele>22.6</ele>
        <time>2015-06-21T10:55:15Z</time>
      </trkpt>
      <trkpt lat="39.8516998" lon="3.1254882">
        <ele>22.8</ele>
        <time>2015-06-21T10:55:20Z</time>
      </trkpt>
      <trkpt lat="39.8517875" lon="3.1253918">
        <ele>22.8</ele>
        <time>2015-06-21T10:55:27Z</time>
      </trkpt>
      <trkpt lat="39.8517937" lon="3.1253797">
        <ele>22.8</ele>
        <time>2015-06-21T10:55:32Z</time>
      </trkpt>
      <trkpt lat="39.8518476" lon="3.1253332">
        <ele>23.2</ele>
        <time>2015-06-21T10:55:38Z</time>
      </trkpt>
      <trkpt lat="39.8519368" lon="3.1252289">
        <ele>23.2</ele>
        <time>2015-06-21T10:55:43Z</time>
      </trkpt>
      <trkpt lat="39.8520138" lon="3.1250316">
        <ele>23</ele>
        <time>2015-06-21T10:55:48Z</time>
      </trkpt>
      <trkpt lat="39.8520091" lon="3.1249723">
        <ele>23</ele>
        <time>2015-06-21T10:55:49Z</time>
      </trkpt>
      <trkpt lat="39.8519717" lon="3.1247935">
        <ele>22.6</ele>
        <time>2015-06-21T10:55:52Z</time>
      </trkpt>
      <trkpt lat="39.8518764" lon="3.1243031">
        <ele>21.8</ele>
        <time>2015-06-21T10:55:59Z</time>
      </trkpt>
      <trkpt lat="39.8518024" lon="3.123959">
        <ele>21.6</ele>
        <time>2015-06-21T10:56:05Z</time>
      </trkpt>
      <trkpt lat="39.8517445" lon="3.1236606">
        <ele>21.4</ele>
        <time>2015-06-21T10:56:10Z</time>
      </trkpt>
      <trkpt lat="39.8517344" lon="3.1235955">
        <ele>21.4</ele>
        <time>2015-06-21T10:56:11Z</time>
      </trkpt>
      <trkpt lat="39.8515943" lon="3.1229014">
        <ele>21.6</ele>
        <time>2015-06-21T10:56:22Z</time>
      </trkpt>
      <trkpt lat="39.8515552" lon="3.1226755">
        <ele>22.6</ele>
        <time>2015-06-21T10:56:26Z</time>
      </trkpt>
      <trkpt lat="39.8515202" lon="3.1225001">
        <ele>23</ele>
        <time>2015-06-21T10:56:29Z</time>
      </trkpt>
      <trkpt lat="39.8514501" lon="3.1221388">
        <ele>23.8</ele>
        <time>2015-06-21T10:56:35Z</time>
      </trkpt>
      <trkpt lat="39.8514001" lon="3.1218947">
        <ele>24.4</ele>
        <time>2015-06-21T10:56:39Z</time>
      </trkpt>
      <trkpt lat="39.8513117" lon="3.1213951">
        <ele>24.6</ele>
        <time>2015-06-21T10:56:47Z</time>
      </trkpt>
      <trkpt lat="39.8513013" lon="3.1213297">
        <ele>24.8</ele>
        <time>2015-06-21T10:56:48Z</time>
      </trkpt>
      <trkpt lat="39.8512035" lon="3.1208173">
        <ele>25.8</ele>
        <time>2015-06-21T10:56:56Z</time>
      </trkpt>
      <trkpt lat="39.8511913" lon="3.1207539">
        <ele>26</ele>
        <time>2015-06-21T10:56:57Z</time>
      </trkpt>
      <trkpt lat="39.8511795" lon="3.1205729">
        <ele>26.6</ele>
        <time>2015-06-21T10:57:00Z</time>
      </trkpt>
      <trkpt lat="39.8512081" lon="3.1204707">
        <ele>26.6</ele>
        <time>2015-06-21T10:57:02Z</time>
      </trkpt>
      <trkpt lat="39.8513283" lon="3.1203069">
        <ele>26.8</ele>
        <time>2015-06-21T10:57:06Z</time>
      </trkpt>
      <trkpt lat="39.8514072" lon="3.1202442">
        <ele>26.8</ele>
        <time>2015-06-21T10:57:08Z</time>
      </trkpt>
      <trkpt lat="39.8516275" lon="3.1200988">
        <ele>26</ele>
        <time>2015-06-21T10:57:13Z</time>
      </trkpt>
      <trkpt lat="39.8520046" lon="3.119833">
        <ele>25.2</ele>
        <time>2015-06-21T10:57:20Z</time>
      </trkpt>
      <trkpt lat="39.8520589" lon="3.119791">
        <ele>24.6</ele>
        <time>2015-06-21T10:57:21Z</time>
      </trkpt>
      <trkpt lat="39.8521703" lon="3.1196827">
        <ele>23.2</ele>
        <time>2015-06-21T10:57:23Z</time>
      </trkpt>
      <trkpt lat="39.8522978" lon="3.1194828">
        <ele>22.2</ele>
        <time>2015-06-21T10:57:26Z</time>
      </trkpt>
      <trkpt lat="39.8524628" lon="3.1190893">
        <ele>22.6</ele>
        <time>2015-06-21T10:57:31Z</time>
      </trkpt>
      <trkpt lat="39.852566" lon="3.1189253">
        <ele>22.8</ele>
        <time>2015-06-21T10:57:34Z</time>
      </trkpt>
      <trkpt lat="39.8526148" lon="3.1188863">
        <ele>23</ele>
        <time>2015-06-21T10:57:35Z</time>
      </trkpt>
      <trkpt lat="39.8528193" lon="3.1188252">
        <ele>23</ele>
        <time>2015-06-21T10:57:39Z</time>
      </trkpt>
      <trkpt lat="39.8528642" lon="3.1188212">
        <ele>22.6</ele>
        <time>2015-06-21T10:57:40Z</time>
      </trkpt>
      <trkpt lat="39.8531389" lon="3.1187947">
        <ele>22.8</ele>
        <time>2015-06-21T10:57:46Z</time>
      </trkpt>
      <trkpt lat="39.8533905" lon="3.11874">
        <ele>22.8</ele>
        <time>2015-06-21T10:57:52Z</time>
      </trkpt>
      <trkpt lat="39.8534304" lon="3.1186902">
        <ele>22.6</ele>
        <time>2015-06-21T10:57:55Z</time>
      </trkpt>
      <trkpt lat="39.8534607" lon="3.1185908">
        <ele>22.6</ele>
        <time>2015-06-21T10:58:00Z</time>
      </trkpt>
      <trkpt lat="39.8533887" lon="3.1186123">
        <ele>22.2</ele>
        <time>2015-06-21T10:58:03Z</time>
      </trkpt>
      <trkpt lat="39.85336" lon="3.118611">
        <ele>22.2</ele>
        <time>2015-06-21T10:58:04Z</time>
      </trkpt>
      <trkpt lat="39.8532311" lon="3.1185696">
        <ele>22.4</ele>
        <time>2015-06-21T10:58:08Z</time>
      </trkpt>
      <trkpt lat="39.8531992" lon="3.1185094">
        <ele>22.6</ele>
        <time>2015-06-21T10:58:10Z</time>
      </trkpt>
      <trkpt lat="39.8531854" lon="3.1184717">
        <ele>22.8</ele>
        <time>2015-06-21T10:58:11Z</time>
      </trkpt>
      <trkpt lat="39.8530465" lon="3.1182163">
        <ele>23</ele>
        <time>2015-06-21T10:58:17Z</time>
      </trkpt>
      <trkpt lat="39.8528334" lon="3.1178418">
        <ele>22.4</ele>
        <time>2015-06-21T10:58:24Z</time>
      </trkpt>
      <trkpt lat="39.8525462" lon="3.1173259">
        <ele>21.8</ele>
        <time>2015-06-21T10:58:32Z</time>
      </trkpt>
      <trkpt lat="39.8523447" lon="3.1169633">
        <ele>21</ele>
        <time>2015-06-21T10:58:37Z</time>
      </trkpt>
      <trkpt lat="39.8522216" lon="3.1167465">
        <ele>20.2</ele>
        <time>2015-06-21T10:58:40Z</time>
      </trkpt>
      <trkpt lat="39.8521808" lon="3.1166711">
        <ele>19.8</ele>
        <time>2015-06-21T10:58:41Z</time>
      </trkpt>
      <trkpt lat="39.851943" lon="3.1162413">
        <ele>19.6</ele>
        <time>2015-06-21T10:58:47Z</time>
      </trkpt>
      <trkpt lat="39.8517451" lon="3.1158476">
        <ele>18.4</ele>
        <time>2015-06-21T10:58:53Z</time>
      </trkpt>
      <trkpt lat="39.8517232" lon="3.1156869">
        <ele>18</ele>
        <time>2015-06-21T10:58:55Z</time>
      </trkpt>
      <trkpt lat="39.851774" lon="3.1154898">
        <ele>17.8</ele>
        <time>2015-06-21T10:58:58Z</time>
      </trkpt>
      <trkpt lat="39.8518875" lon="3.115292">
        <ele>17.8</ele>
        <time>2015-06-21T10:59:01Z</time>
      </trkpt>
      <trkpt lat="39.8519306" lon="3.1152216">
        <ele>17.6</ele>
        <time>2015-06-21T10:59:02Z</time>
      </trkpt>
      <trkpt lat="39.8520072" lon="3.1150969">
        <ele>17.4</ele>
        <time>2015-06-21T10:59:04Z</time>
      </trkpt>
      <trkpt lat="39.8522824" lon="3.1147241">
        <ele>16.8</ele>
        <time>2015-06-21T10:59:10Z</time>
      </trkpt>
      <trkpt lat="39.8524236" lon="3.1145195">
        <ele>16.2</ele>
        <time>2015-06-21T10:59:13Z</time>
      </trkpt>
      <trkpt lat="39.8527515" lon="3.114049">
        <ele>16.8</ele>
        <time>2015-06-21T10:59:20Z</time>
      </trkpt>
      <trkpt lat="39.8528349" lon="3.1139181">
        <ele>17.2</ele>
        <time>2015-06-21T10:59:22Z</time>
      </trkpt>
      <trkpt lat="39.853105" lon="3.1135189">
        <ele>16.8</ele>
        <time>2015-06-21T10:59:28Z</time>
      </trkpt>
      <trkpt lat="39.8534779" lon="3.1129693">
        <ele>16.4</ele>
        <time>2015-06-21T10:59:36Z</time>
      </trkpt>
      <trkpt lat="39.8535286" lon="3.1128945">
        <ele>16.2</ele>
        <time>2015-06-21T10:59:37Z</time>
      </trkpt>
      <trkpt lat="39.8535779" lon="3.112822">
        <ele>16</ele>
        <time>2015-06-21T10:59:38Z</time>
      </trkpt>
      <trkpt lat="39.8539502" lon="3.1122753">
        <ele>16.2</ele>
        <time>2015-06-21T10:59:46Z</time>
      </trkpt>
      <trkpt lat="39.8539968" lon="3.1122012">
        <ele>16.6</ele>
        <time>2015-06-21T10:59:47Z</time>
      </trkpt>
      <trkpt lat="39.8543299" lon="3.111614">
        <ele>15.2</ele>
        <time>2015-06-21T10:59:55Z</time>
      </trkpt>
      <trkpt lat="39.8543698" lon="3.1115391">
        <ele>14.8</ele>
        <time>2015-06-21T10:59:56Z</time>
      </trkpt>
      <trkpt lat="39.8546985" lon="3.1108751">
        <ele>13.6</ele>
        <time>2015-06-21T11:00:04Z</time>
      </trkpt>
      <trkpt lat="39.8547739" lon="3.1107062">
        <ele>13.8</ele>
        <time>2015-06-21T11:00:06Z</time>
      </trkpt>
      <trkpt lat="39.8550708" lon="3.1100215">
        <ele>14.4</ele>
        <time>2015-06-21T11:00:14Z</time>
      </trkpt>
      <trkpt lat="39.8551091" lon="3.1099307">
        <ele>14.4</ele>
        <time>2015-06-21T11:00:15Z</time>
      </trkpt>
      <trkpt lat="39.8552638" lon="3.1095588">
        <ele>14.6</ele>
        <time>2015-06-21T11:00:19Z</time>
      </trkpt>
      <trkpt lat="39.8554224" lon="3.1091959">
        <ele>13.6</ele>
        <time>2015-06-21T11:00:23Z</time>
      </trkpt>
      <trkpt lat="39.8554626" lon="3.1091046">
        <ele>13.6</ele>
        <time>2015-06-21T11:00:24Z</time>
      </trkpt>
      <trkpt lat="39.8557358" lon="3.1084954">
        <ele>14.4</ele>
        <time>2015-06-21T11:00:31Z</time>
      </trkpt>
      <trkpt lat="39.8557747" lon="3.1084051">
        <ele>14.4</ele>
        <time>2015-06-21T11:00:32Z</time>
      </trkpt>
      <trkpt lat="39.8558118" lon="3.1083212">
        <ele>14.6</ele>
        <time>2015-06-21T11:00:33Z</time>
      </trkpt>
      <trkpt lat="39.8559596" lon="3.1079779">
        <ele>13.6</ele>
        <time>2015-06-21T11:00:37Z</time>
      </trkpt>
      <trkpt lat="39.8562128" lon="3.1073912">
        <ele>14.4</ele>
        <time>2015-06-21T11:00:44Z</time>
      </trkpt>
      <trkpt lat="39.8565126" lon="3.1067175">
        <ele>13.4</ele>
        <time>2015-06-21T11:00:52Z</time>
      </trkpt>
      <trkpt lat="39.8565529" lon="3.106627">
        <ele>13.2</ele>
        <time>2015-06-21T11:00:53Z</time>
      </trkpt>
      <trkpt lat="39.856658" lon="3.1063807">
        <ele>12.6</ele>
        <time>2015-06-21T11:00:56Z</time>
      </trkpt>
      <trkpt lat="39.8569421" lon="3.105713">
        <ele>12.2</ele>
        <time>2015-06-21T11:01:04Z</time>
      </trkpt>
      <trkpt lat="39.8572271" lon="3.1050533">
        <ele>12.8</ele>
        <time>2015-06-21T11:01:12Z</time>
      </trkpt>
      <trkpt lat="39.857339" lon="3.1047986">
        <ele>13.4</ele>
        <time>2015-06-21T11:01:15Z</time>
      </trkpt>
      <trkpt lat="39.8576115" lon="3.1041577">
        <ele>14</ele>
        <time>2015-06-21T11:01:23Z</time>
      </trkpt>
      <trkpt lat="39.8576462" lon="3.1040882">
        <ele>14.8</ele>
        <time>2015-06-21T11:01:24Z</time>
      </trkpt>
      <trkpt lat="39.8576791" lon="3.1040187">
        <ele>15.2</ele>
        <time>2015-06-21T11:01:25Z</time>
      </trkpt>
      <trkpt lat="39.8578677" lon="3.1035172">
        <ele>15.2</ele>
        <time>2015-06-21T11:01:32Z</time>
      </trkpt>
      <trkpt lat="39.8579567" lon="3.1032333">
        <ele>14</ele>
        <time>2015-06-21T11:01:36Z</time>
      </trkpt>
      <trkpt lat="39.857988" lon="3.1030769">
        <ele>13.2</ele>
        <time>2015-06-21T11:01:38Z</time>
      </trkpt>
      <trkpt lat="39.8580085" lon="3.1030078">
        <ele>12.6</ele>
        <time>2015-06-21T11:01:39Z</time>
      </trkpt>
      <trkpt lat="39.8580868" lon="3.1027345">
        <ele>13.8</ele>
        <time>2015-06-21T11:01:43Z</time>
      </trkpt>
      <trkpt lat="39.8581729" lon="3.1024538">
        <ele>14.8</ele>
        <time>2015-06-21T11:01:47Z</time>
      </trkpt>
      <trkpt lat="39.8582303" lon="3.1022343">
        <ele>14.8</ele>
        <time>2015-06-21T11:01:50Z</time>
      </trkpt>
      <trkpt lat="39.8583613" lon="3.1017906">
        <ele>14.8</ele>
        <time>2015-06-21T11:01:56Z</time>
      </trkpt>
      <trkpt lat="39.8584856" lon="3.1013633">
        <ele>13.6</ele>
        <time>2015-06-21T11:02:02Z</time>
      </trkpt>
      <trkpt lat="39.8585007" lon="3.1012994">
        <ele>13.4</ele>
        <time>2015-06-21T11:02:03Z</time>
      </trkpt>
      <trkpt lat="39.8585957" lon="3.1007184">
        <ele>13.6</ele>
        <time>2015-06-21T11:02:12Z</time>
      </trkpt>
      <trkpt lat="39.8586641" lon="3.1002182">
        <ele>14.4</ele>
        <time>2015-06-21T11:02:20Z</time>
      </trkpt>
      <trkpt lat="39.8587596" lon="3.0997554">
        <ele>14.4</ele>
        <time>2015-06-21T11:02:28Z</time>
      </trkpt>
      <trkpt lat="39.8588436" lon="3.0994988">
        <ele>14.6</ele>
        <time>2015-06-21T11:02:33Z</time>
      </trkpt>
      <trkpt lat="39.8588755" lon="3.0994064">
        <ele>14.8</ele>
        <time>2015-06-21T11:02:35Z</time>
      </trkpt>
      <trkpt lat="39.8588997" lon="3.099365">
        <ele>14.8</ele>
        <time>2015-06-21T11:02:36Z</time>
      </trkpt>
      <trkpt lat="39.8589893" lon="3.0991948">
        <ele>14.2</ele>
        <time>2015-06-21T11:02:40Z</time>
      </trkpt>
      <trkpt lat="39.8591876" lon="3.098895">
        <ele>14.4</ele>
        <time>2015-06-21T11:02:48Z</time>
      </trkpt>
      <trkpt lat="39.8592218" lon="3.0988557">
        <ele>14.8</ele>
        <time>2015-06-21T11:02:49Z</time>
      </trkpt>
      <trkpt lat="39.8594003" lon="3.0986891">
        <ele>15.2</ele>
        <time>2015-06-21T11:02:53Z</time>
      </trkpt>
      <trkpt lat="39.8596216" lon="3.0985164">
        <ele>15.8</ele>
        <time>2015-06-21T11:02:57Z</time>
      </trkpt>
      <trkpt lat="39.8598102" lon="3.0983786">
        <ele>15.4</ele>
        <time>2015-06-21T11:03:00Z</time>
      </trkpt>
      <trkpt lat="39.8602972" lon="3.0980212">
        <ele>14.8</ele>
        <time>2015-06-21T11:03:08Z</time>
      </trkpt>
      <trkpt lat="39.8605336" lon="3.0978445">
        <ele>14.6</ele>
        <time>2015-06-21T11:03:12Z</time>
      </trkpt>
      <trkpt lat="39.8610083" lon="3.0974621">
        <ele>14.8</ele>
        <time>2015-06-21T11:03:20Z</time>
      </trkpt>
      <trkpt lat="39.8610597" lon="3.0974182">
        <ele>15</ele>
        <time>2015-06-21T11:03:21Z</time>
      </trkpt>
      <trkpt lat="39.8614897" lon="3.0969508">
        <ele>14.8</ele>
        <time>2015-06-21T11:03:29Z</time>
      </trkpt>
      <trkpt lat="39.8618799" lon="3.0964227">
        <ele>15</ele>
        <time>2015-06-21T11:03:37Z</time>
      </trkpt>
      <trkpt lat="39.8619765" lon="3.0962922">
        <ele>15.2</ele>
        <time>2015-06-21T11:03:39Z</time>
      </trkpt>
      <trkpt lat="39.8623698" lon="3.0957649">
        <ele>15</ele>
        <time>2015-06-21T11:03:47Z</time>
      </trkpt>
      <trkpt lat="39.8626084" lon="3.0954389">
        <ele>15.4</ele>
        <time>2015-06-21T11:03:52Z</time>
      </trkpt>
      <trkpt lat="39.8629907" lon="3.0949198">
        <ele>15.4</ele>
        <time>2015-06-21T11:04:00Z</time>
      </trkpt>
      <trkpt lat="39.8631755" lon="3.0946582">
        <ele>15.2</ele>
        <time>2015-06-21T11:04:04Z</time>
      </trkpt>
      <trkpt lat="39.8635326" lon="3.0941261">
        <ele>15</ele>
        <time>2015-06-21T11:04:12Z</time>
      </trkpt>
      <trkpt lat="39.8637577" lon="3.0937753">
        <ele>14.4</ele>
        <time>2015-06-21T11:04:17Z</time>
      </trkpt>
      <trkpt lat="39.8640422" lon="3.0932936">
        <ele>13.4</ele>
        <time>2015-06-21T11:04:24Z</time>
      </trkpt>
      <trkpt lat="39.8640813" lon="3.0932243">
        <ele>12.8</ele>
        <time>2015-06-21T11:04:25Z</time>
      </trkpt>
      <trkpt lat="39.864434" lon="3.0925912">
        <ele>13.2</ele>
        <time>2015-06-21T11:04:34Z</time>
      </trkpt>
      <trkpt lat="39.8644767" lon="3.0925176">
        <ele>13.2</ele>
        <time>2015-06-21T11:04:35Z</time>
      </trkpt>
      <trkpt lat="39.8648017" lon="3.0919371">
        <ele>12.8</ele>
        <time>2015-06-21T11:04:43Z</time>
      </trkpt>
      <trkpt lat="39.8650072" lon="3.0915803">
        <ele>13</ele>
        <time>2015-06-21T11:04:48Z</time>
      </trkpt>
      <trkpt lat="39.8653458" lon="3.0910472">
        <ele>14.4</ele>
        <time>2015-06-21T11:04:56Z</time>
      </trkpt>
      <trkpt lat="39.8654759" lon="3.0908667">
        <ele>16</ele>
        <time>2015-06-21T11:04:59Z</time>
      </trkpt>
      <trkpt lat="39.8656345" lon="3.0906352">
        <ele>15.4</ele>
        <time>2015-06-21T11:05:03Z</time>
      </trkpt>
      <trkpt lat="39.8656803" lon="3.0905858">
        <ele>14.8</ele>
        <time>2015-06-21T11:05:04Z</time>
      </trkpt>
      <trkpt lat="39.8659147" lon="3.0903258">
        <ele>14.8</ele>
        <time>2015-06-21T11:05:09Z</time>
      </trkpt>
      <trkpt lat="39.8663872" lon="3.0898349">
        <ele>14.2</ele>
        <time>2015-06-21T11:05:18Z</time>
      </trkpt>
      <trkpt lat="39.8668565" lon="3.0894341">
        <ele>14.4</ele>
        <time>2015-06-21T11:05:26Z</time>
      </trkpt>
      <trkpt lat="39.8673328" lon="3.089052">
        <ele>14.4</ele>
        <time>2015-06-21T11:05:34Z</time>
      </trkpt>
      <trkpt lat="39.8675716" lon="3.0888617">
        <ele>14.4</ele>
        <time>2015-06-21T11:05:38Z</time>
      </trkpt>
      <trkpt lat="39.8680352" lon="3.0884857">
        <ele>14.8</ele>
        <time>2015-06-21T11:05:46Z</time>
      </trkpt>
      <trkpt lat="39.8680987" lon="3.0884354">
        <ele>14.8</ele>
        <time>2015-06-21T11:05:47Z</time>
      </trkpt>
      <trkpt lat="39.8682697" lon="3.0882972">
        <ele>13.8</ele>
        <time>2015-06-21T11:05:50Z</time>
      </trkpt>
      <trkpt lat="39.8684979" lon="3.0881148">
        <ele>12.8</ele>
        <time>2015-06-21T11:05:54Z</time>
      </trkpt>
      <trkpt lat="39.8685539" lon="3.0880704">
        <ele>12.8</ele>
        <time>2015-06-21T11:05:55Z</time>
      </trkpt>
      <trkpt lat="39.8690502" lon="3.0876519">
        <ele>13</ele>
        <time>2015-06-21T11:06:04Z</time>
      </trkpt>
      <trkpt lat="39.8691104" lon="3.087605">
        <ele>13</ele>
        <time>2015-06-21T11:06:05Z</time>
      </trkpt>
      <trkpt lat="39.8695737" lon="3.0872465">
        <ele>13</ele>
        <time>2015-06-21T11:06:13Z</time>
      </trkpt>
      <trkpt lat="39.8700845" lon="3.0868367">
        <ele>13</ele>
        <time>2015-06-21T11:06:22Z</time>
      </trkpt>
      <trkpt lat="39.870144" lon="3.0867923">
        <ele>13.2</ele>
        <time>2015-06-21T11:06:23Z</time>
      </trkpt>
      <trkpt lat="39.8705364" lon="3.086525">
        <ele>14</ele>
        <time>2015-06-21T11:06:30Z</time>
      </trkpt>
      <trkpt lat="39.8705862" lon="3.0864952">
        <ele>14.2</ele>
        <time>2015-06-21T11:06:31Z</time>
      </trkpt>
      <trkpt lat="39.870752" lon="3.0863934">
        <ele>15.2</ele>
        <time>2015-06-21T11:06:34Z</time>
      </trkpt>
      <trkpt lat="39.8711228" lon="3.0861681">
        <ele>14.8</ele>
        <time>2015-06-21T11:06:41Z</time>
      </trkpt>
      <trkpt lat="39.8715128" lon="3.0859246">
        <ele>14.8</ele>
        <time>2015-06-21T11:06:49Z</time>
      </trkpt>
      <trkpt lat="39.8718998" lon="3.0856903">
        <ele>14.2</ele>
        <time>2015-06-21T11:06:56Z</time>
      </trkpt>
      <trkpt lat="39.872378" lon="3.0854042">
        <ele>14</ele>
        <time>2015-06-21T11:07:04Z</time>
      </trkpt>
      <trkpt lat="39.8728011" lon="3.0851394">
        <ele>14.6</ele>
        <time>2015-06-21T11:07:12Z</time>
      </trkpt>
      <trkpt lat="39.8732555" lon="3.0848653">
        <ele>14.2</ele>
        <time>2015-06-21T11:07:19Z</time>
      </trkpt>
      <trkpt lat="39.8738051" lon="3.0845402">
        <ele>14.2</ele>
        <time>2015-06-21T11:07:27Z</time>
      </trkpt>
      <trkpt lat="39.873878" lon="3.0844954">
        <ele>14.2</ele>
        <time>2015-06-21T11:07:28Z</time>
      </trkpt>
      <trkpt lat="39.8744198" lon="3.0841772">
        <ele>15</ele>
        <time>2015-06-21T11:07:36Z</time>
      </trkpt>
      <trkpt lat="39.8746896" lon="3.0840173">
        <ele>14.2</ele>
        <time>2015-06-21T11:07:40Z</time>
      </trkpt>
      <trkpt lat="39.8752286" lon="3.0836995">
        <ele>14.2</ele>
        <time>2015-06-21T11:07:48Z</time>
      </trkpt>
      <trkpt lat="39.8753652" lon="3.0836332">
        <ele>14.2</ele>
        <time>2015-06-21T11:07:50Z</time>
      </trkpt>
      <trkpt lat="39.8759179" lon="3.083331">
        <ele>13.6</ele>
        <time>2015-06-21T11:07:58Z</time>
      </trkpt>
      <trkpt lat="39.876476" lon="3.083028">
        <ele>14.2</ele>
        <time>2015-06-21T11:08:06Z</time>
      </trkpt>
      <trkpt lat="39.8767533" lon="3.0828798">
        <ele>13.8</ele>
        <time>2015-06-21T11:08:10Z</time>
      </trkpt>
      <trkpt lat="39.8772999" lon="3.082599">
        <ele>13.6</ele>
        <time>2015-06-21T11:08:18Z</time>
      </trkpt>
      <trkpt lat="39.8774952" lon="3.0824972">
        <ele>13</ele>
        <time>2015-06-21T11:08:21Z</time>
      </trkpt>
      <trkpt lat="39.8778333" lon="3.0823207">
        <ele>14.2</ele>
        <time>2015-06-21T11:08:26Z</time>
      </trkpt>
      <trkpt lat="39.8782353" lon="3.0821141">
        <ele>13</ele>
        <time>2015-06-21T11:08:32Z</time>
      </trkpt>
      <trkpt lat="39.8784284" lon="3.0820141">
        <ele>12.4</ele>
        <time>2015-06-21T11:08:35Z</time>
      </trkpt>
      <trkpt lat="39.8789475" lon="3.0817578">
        <ele>13</ele>
        <time>2015-06-21T11:08:43Z</time>
      </trkpt>
      <trkpt lat="39.8791381" lon="3.0816726">
        <ele>12.8</ele>
        <time>2015-06-21T11:08:46Z</time>
      </trkpt>
      <trkpt lat="39.8796673" lon="3.0814694">
        <ele>12.4</ele>
        <time>2015-06-21T11:08:54Z</time>
      </trkpt>
      <trkpt lat="39.8797316" lon="3.0814467">
        <ele>12.4</ele>
        <time>2015-06-21T11:08:55Z</time>
      </trkpt>
      <trkpt lat="39.8802984" lon="3.0812402">
        <ele>12.8</ele>
        <time>2015-06-21T11:09:04Z</time>
      </trkpt>
      <trkpt lat="39.880738" lon="3.0810729">
        <ele>12.6</ele>
        <time>2015-06-21T11:09:11Z</time>
      </trkpt>
      <trkpt lat="39.881055" lon="3.0809605">
        <ele>14.2</ele>
        <time>2015-06-21T11:09:16Z</time>
      </trkpt>
      <trkpt lat="39.8812542" lon="3.080882">
        <ele>14.8</ele>
        <time>2015-06-21T11:09:19Z</time>
      </trkpt>
      <trkpt lat="39.8814426" lon="3.0808097">
        <ele>15.2</ele>
        <time>2015-06-21T11:09:22Z</time>
      </trkpt>
      <trkpt lat="39.8819379" lon="3.0806355">
        <ele>15.6</ele>
        <time>2015-06-21T11:09:30Z</time>
      </trkpt>
      <trkpt lat="39.8821117" lon="3.0805713">
        <ele>16.2</ele>
        <time>2015-06-21T11:09:33Z</time>
      </trkpt>
      <trkpt lat="39.8825225" lon="3.0804174">
        <ele>17.2</ele>
        <time>2015-06-21T11:09:40Z</time>
      </trkpt>
      <trkpt lat="39.8830657" lon="3.0801954">
        <ele>16.4</ele>
        <time>2015-06-21T11:09:49Z</time>
      </trkpt>
      <trkpt lat="39.8831221" lon="3.0801577">
        <ele>16.2</ele>
        <time>2015-06-21T11:09:50Z</time>
      </trkpt>
      <trkpt lat="39.8831718" lon="3.0801185">
        <ele>16</ele>
        <time>2015-06-21T11:09:51Z</time>
      </trkpt>
      <trkpt lat="39.8833778" lon="3.0799059">
        <ele>15.6</ele>
        <time>2015-06-21T11:09:55Z</time>
      </trkpt>
      <trkpt lat="39.8836371" lon="3.0796824">
        <ele>15.6</ele>
        <time>2015-06-21T11:10:00Z</time>
      </trkpt>
      <trkpt lat="39.8836729" lon="3.0796706">
        <ele>15.4</ele>
        <time>2015-06-21T11:10:01Z</time>
      </trkpt>
      <trkpt lat="39.8838555" lon="3.0796271">
        <ele>15.6</ele>
        <time>2015-06-21T11:10:06Z</time>
      </trkpt>
      <trkpt lat="39.8839377" lon="3.0796489">
        <ele>14.8</ele>
        <time>2015-06-21T11:10:09Z</time>
      </trkpt>
      <trkpt lat="39.8840149" lon="3.0796487">
        <ele>14.2</ele>
        <time>2015-06-21T11:10:12Z</time>
      </trkpt>
      <trkpt lat="39.8839921" lon="3.0795679">
        <ele>14</ele>
        <time>2015-06-21T11:10:14Z</time>
      </trkpt>
      <trkpt lat="39.8838821" lon="3.0795026">
        <ele>14.2</ele>
        <time>2015-06-21T11:10:17Z</time>
      </trkpt>
      <trkpt lat="39.8838431" lon="3.0793567">
        <ele>14.2</ele>
        <time>2015-06-21T11:10:20Z</time>
      </trkpt>
      <trkpt lat="39.8838291" lon="3.0793122">
        <ele>14.2</ele>
        <time>2015-06-21T11:10:21Z</time>
      </trkpt>
      <trkpt lat="39.8837784" lon="3.079178">
        <ele>14.2</ele>
        <time>2015-06-21T11:10:25Z</time>
      </trkpt>
      <trkpt lat="39.8837829" lon="3.0791863">
        <ele>14.4</ele>
        <time>2015-06-21T11:10:29Z</time>
      </trkpt>
      <trkpt lat="39.8837753" lon="3.0791925">
        <ele>14.8</ele>
        <time>2015-06-21T11:10:34Z</time>
      </trkpt>
      <trkpt lat="39.8838128" lon="3.0792935">
        <ele>14.2</ele>
        <time>2015-06-21T11:10:39Z</time>
      </trkpt>
      <trkpt lat="39.8838615" lon="3.0794429">
        <ele>13.8</ele>
        <time>2015-06-21T11:10:45Z</time>
      </trkpt>
      <trkpt lat="39.883861" lon="3.0794818">
        <ele>13.8</ele>
        <time>2015-06-21T11:10:47Z</time>
      </trkpt>
      <trkpt lat="39.8838521" lon="3.0796161">
        <ele>14</ele>
        <time>2015-06-21T11:10:53Z</time>
      </trkpt>
      <trkpt lat="39.883882" lon="3.0796643">
        <ele>14</ele>
        <time>2015-06-21T11:10:58Z</time>
      </trkpt>
      <trkpt lat="39.8838808" lon="3.0796643">
        <ele>14</ele>
        <time>2015-06-21T11:11:06Z</time>
      </trkpt>
      <trkpt lat="39.8838854" lon="3.0796542">
        <ele>14</ele>
        <time>2015-06-21T11:11:15Z</time>
      </trkpt>
      <trkpt lat="39.8838398" lon="3.0796471">
        <ele>13.8</ele>
        <time>2015-06-21T11:11:20Z</time>
      </trkpt>
      <trkpt lat="39.8838384" lon="3.0796427">
        <ele>14.2</ele>
        <time>2015-06-21T11:11:26Z</time>
      </trkpt>
      <trkpt lat="39.8838374" lon="3.0796446">
        <ele>14.2</ele>
        <time>2015-06-21T11:11:35Z</time>
      </trkpt>
      <trkpt lat="39.8838363" lon="3.0796409">
        <ele>14.2</ele>
        <time>2015-06-21T11:11:50Z</time>
      </trkpt>
      <trkpt lat="39.883814" lon="3.0796011">
        <ele>14.2</ele>
        <time>2015-06-21T11:11:52Z</time>
      </trkpt>
      <trkpt lat="39.8838124" lon="3.0795718">
        <ele>14.2</ele>
        <time>2015-06-21T11:11:53Z</time>
      </trkpt>
      <trkpt lat="39.8838471" lon="3.0794386">
        <ele>14.2</ele>
        <time>2015-06-21T11:11:58Z</time>
      </trkpt>
      <trkpt lat="39.8838113" lon="3.0793262">
        <ele>14.2</ele>
        <time>2015-06-21T11:12:02Z</time>
      </trkpt>
      <trkpt lat="39.8838055" lon="3.0792922">
        <ele>14.2</ele>
        <time>2015-06-21T11:12:03Z</time>
      </trkpt>
      <trkpt lat="39.8837064" lon="3.0791083">
        <ele>14.4</ele>
        <time>2015-06-21T11:12:08Z</time>
      </trkpt>
      <trkpt lat="39.8836378" lon="3.0789919">
        <ele>21.2</ele>
        <time>2015-06-21T11:12:11Z</time>
      </trkpt>
      <trkpt lat="39.8836322" lon="3.0789423">
        <ele>17.2</ele>
        <time>2015-06-21T11:12:12Z</time>
      </trkpt>
      <trkpt lat="39.88363" lon="3.0788843">
        <ele>17.2</ele>
        <time>2015-06-21T11:12:13Z</time>
      </trkpt>
      <trkpt lat="39.8836287" lon="3.0784806">
        <ele>17.4</ele>
        <time>2015-06-21T11:12:19Z</time>
      </trkpt>
      <trkpt lat="39.8836197" lon="3.0777776">
        <ele>17.6</ele>
        <time>2015-06-21T11:12:29Z</time>
      </trkpt>
      <trkpt lat="39.8836269" lon="3.0777033">
        <ele>18</ele>
        <time>2015-06-21T11:12:30Z</time>
      </trkpt>
      <trkpt lat="39.8836276" lon="3.0776383">
        <ele>18.2</ele>
        <time>2015-06-21T11:12:31Z</time>
      </trkpt>
      <trkpt lat="39.883628" lon="3.0774133">
        <ele>18.4</ele>
        <time>2015-06-21T11:12:34Z</time>
      </trkpt>
      <trkpt lat="39.88369" lon="3.0768813">
        <ele>18.4</ele>
        <time>2015-06-21T11:12:41Z</time>
      </trkpt>
      <trkpt lat="39.8838153" lon="3.0763932">
        <ele>18.6</ele>
        <time>2015-06-21T11:12:48Z</time>
      </trkpt>
      <trkpt lat="39.884016" lon="3.0759156">
        <ele>18.6</ele>
        <time>2015-06-21T11:12:55Z</time>
      </trkpt>
      <trkpt lat="39.8843266" lon="3.0754218">
        <ele>19</ele>
        <time>2015-06-21T11:13:03Z</time>
      </trkpt>
      <trkpt lat="39.8845139" lon="3.0752064">
        <ele>19.2</ele>
        <time>2015-06-21T11:13:07Z</time>
      </trkpt>
      <trkpt lat="39.8847112" lon="3.0750273">
        <ele>19.2</ele>
        <time>2015-06-21T11:13:11Z</time>
      </trkpt>
      <trkpt lat="39.8851542" lon="3.0747415">
        <ele>19.2</ele>
        <time>2015-06-21T11:13:19Z</time>
      </trkpt>
      <trkpt lat="39.8856332" lon="3.0745829">
        <ele>19.6</ele>
        <time>2015-06-21T11:13:27Z</time>
      </trkpt>
      <trkpt lat="39.8862198" lon="3.0744857">
        <ele>19.8</ele>
        <time>2015-06-21T11:13:36Z</time>
      </trkpt>
      <trkpt lat="39.8863663" lon="3.074462">
        <ele>19.8</ele>
        <time>2015-06-21T11:13:38Z</time>
      </trkpt>
      <trkpt lat="39.8869294" lon="3.0743771">
        <ele>19.6</ele>
        <time>2015-06-21T11:13:46Z</time>
      </trkpt>
      <trkpt lat="39.8870133" lon="3.0743665">
        <ele>19.6</ele>
        <time>2015-06-21T11:13:47Z</time>
      </trkpt>
      <trkpt lat="39.8875898" lon="3.0742802">
        <ele>19.6</ele>
        <time>2015-06-21T11:13:55Z</time>
      </trkpt>
      <trkpt lat="39.8878328" lon="3.0742436">
        <ele>19.6</ele>
        <time>2015-06-21T11:13:58Z</time>
      </trkpt>
      <trkpt lat="39.8884352" lon="3.0741586">
        <ele>19</ele>
        <time>2015-06-21T11:14:06Z</time>
      </trkpt>
      <trkpt lat="39.888659" lon="3.074125">
        <ele>18.2</ele>
        <time>2015-06-21T11:14:09Z</time>
      </trkpt>
      <trkpt lat="39.8888009" lon="3.0741055">
        <ele>17.8</ele>
        <time>2015-06-21T11:14:11Z</time>
      </trkpt>
      <trkpt lat="39.8893445" lon="3.074025">
        <ele>17.4</ele>
        <time>2015-06-21T11:14:19Z</time>
      </trkpt>
      <trkpt lat="39.8894096" lon="3.0740149">
        <ele>17.2</ele>
        <time>2015-06-21T11:14:20Z</time>
      </trkpt>
      <trkpt lat="39.8894645" lon="3.0740083">
        <ele>17</ele>
        <time>2015-06-21T11:14:21Z</time>
      </trkpt>
      <trkpt lat="39.8899149" lon="3.0739639">
        <ele>16.2</ele>
        <time>2015-06-21T11:14:28Z</time>
      </trkpt>
      <trkpt lat="39.8899764" lon="3.0739767">
        <ele>16.2</ele>
        <time>2015-06-21T11:14:29Z</time>
      </trkpt>
      <trkpt lat="39.8900811" lon="3.0740118">
        <ele>16.4</ele>
        <time>2015-06-21T11:14:31Z</time>
      </trkpt>
      <trkpt lat="39.8903095" lon="3.0741175">
        <ele>16.4</ele>
        <time>2015-06-21T11:14:35Z</time>
      </trkpt>
      <trkpt lat="39.89036" lon="3.0741275">
        <ele>16.2</ele>
        <time>2015-06-21T11:14:36Z</time>
      </trkpt>
      <trkpt lat="39.8904601" lon="3.0741711">
        <ele>16.2</ele>
        <time>2015-06-21T11:14:38Z</time>
      </trkpt>
      <trkpt lat="39.8904979" lon="3.0741922">
        <ele>16.2</ele>
        <time>2015-06-21T11:14:39Z</time>
      </trkpt>
      <trkpt lat="39.8905369" lon="3.0741901">
        <ele>16.2</ele>
        <time>2015-06-21T11:14:40Z</time>
      </trkpt>
      <trkpt lat="39.8906311" lon="3.0741445">
        <ele>16.6</ele>
        <time>2015-06-21T11:14:42Z</time>
      </trkpt>
      <trkpt lat="39.8907671" lon="3.0740077">
        <ele>16.6</ele>
        <time>2015-06-21T11:14:45Z</time>
      </trkpt>
      <trkpt lat="39.8908122" lon="3.0739678">
        <ele>16.4</ele>
        <time>2015-06-21T11:14:46Z</time>
      </trkpt>
      <trkpt lat="39.8908691" lon="3.0739279">
        <ele>16.2</ele>
        <time>2015-06-21T11:14:47Z</time>
      </trkpt>
      <trkpt lat="39.8910346" lon="3.0738805">
        <ele>16</ele>
        <time>2015-06-21T11:14:50Z</time>
      </trkpt>
      <trkpt lat="39.8911496" lon="3.0738767">
        <ele>16</ele>
        <time>2015-06-21T11:14:52Z</time>
      </trkpt>
      <trkpt lat="39.8913501" lon="3.0738793">
        <ele>15.8</ele>
        <time>2015-06-21T11:14:55Z</time>
      </trkpt>
      <trkpt lat="39.8914116" lon="3.0738815">
        <ele>15.6</ele>
        <time>2015-06-21T11:14:56Z</time>
      </trkpt>
      <trkpt lat="39.8919705" lon="3.0738754">
        <ele>17</ele>
        <time>2015-06-21T11:15:04Z</time>
      </trkpt>
      <trkpt lat="39.89211" lon="3.0738685">
        <ele>17</ele>
        <time>2015-06-21T11:15:06Z</time>
      </trkpt>
      <trkpt lat="39.892666" lon="3.0738627">
        <ele>16.8</ele>
        <time>2015-06-21T11:15:14Z</time>
      </trkpt>
      <trkpt lat="39.8927909" lon="3.0738642">
        <ele>16.4</ele>
        <time>2015-06-21T11:15:16Z</time>
      </trkpt>
      <trkpt lat="39.8931985" lon="3.0738616">
        <ele>15.8</ele>
        <time>2015-06-21T11:15:22Z</time>
      </trkpt>
      <trkpt lat="39.8936069" lon="3.0738681">
        <ele>16.2</ele>
        <time>2015-06-21T11:15:28Z</time>
      </trkpt>
      <trkpt lat="39.8942122" lon="3.0738591">
        <ele>15</ele>
        <time>2015-06-21T11:15:37Z</time>
      </trkpt>
      <trkpt lat="39.89434" lon="3.0738575">
        <ele>14.8</ele>
        <time>2015-06-21T11:15:39Z</time>
      </trkpt>
      <trkpt lat="39.894538" lon="3.0738555">
        <ele>14.6</ele>
        <time>2015-06-21T11:15:42Z</time>
      </trkpt>
      <trkpt lat="39.8948774" lon="3.0738524">
        <ele>15.8</ele>
        <time>2015-06-21T11:15:47Z</time>
      </trkpt>
      <trkpt lat="39.8950735" lon="3.0738491">
        <ele>15.6</ele>
        <time>2015-06-21T11:15:50Z</time>
      </trkpt>
      <trkpt lat="39.8951948" lon="3.0738425">
        <ele>14.8</ele>
        <time>2015-06-21T11:15:52Z</time>
      </trkpt>
      <trkpt lat="39.8954884" lon="3.0738242">
        <ele>16.2</ele>
        <time>2015-06-21T11:15:57Z</time>
      </trkpt>
      <trkpt lat="39.8957281" lon="3.0738554">
        <ele>15.8</ele>
        <time>2015-06-21T11:16:01Z</time>
      </trkpt>
      <trkpt lat="39.8957897" lon="3.0738892">
        <ele>15.4</ele>
        <time>2015-06-21T11:16:02Z</time>
      </trkpt>
      <trkpt lat="39.8958376" lon="3.0739206">
        <ele>15</ele>
        <time>2015-06-21T11:16:03Z</time>
      </trkpt>
      <trkpt lat="39.8960006" lon="3.0740246">
        <ele>14.6</ele>
        <time>2015-06-21T11:16:06Z</time>
      </trkpt>
      <trkpt lat="39.8960686" lon="3.0740355">
        <ele>14.4</ele>
        <time>2015-06-21T11:16:07Z</time>
      </trkpt>
      <trkpt lat="39.8962347" lon="3.073942">
        <ele>14.6</ele>
        <time>2015-06-21T11:16:10Z</time>
      </trkpt>
      <trkpt lat="39.8963343" lon="3.0738452">
        <ele>14.8</ele>
        <time>2015-06-21T11:16:12Z</time>
      </trkpt>
      <trkpt lat="39.8964595" lon="3.0737746">
        <ele>15.2</ele>
        <time>2015-06-21T11:16:14Z</time>
      </trkpt>
      <trkpt lat="39.8965192" lon="3.07377">
        <ele>15.4</ele>
        <time>2015-06-21T11:16:15Z</time>
      </trkpt>
      <trkpt lat="39.8969732" lon="3.0737406">
        <ele>15.4</ele>
        <time>2015-06-21T11:16:22Z</time>
      </trkpt>
      <trkpt lat="39.897433" lon="3.073724">
        <ele>15.6</ele>
        <time>2015-06-21T11:16:29Z</time>
      </trkpt>
      <trkpt lat="39.8974902" lon="3.073726">
        <ele>15.6</ele>
        <time>2015-06-21T11:16:30Z</time>
      </trkpt>
      <trkpt lat="39.8976701" lon="3.0737162">
        <ele>16</ele>
        <time>2015-06-21T11:16:33Z</time>
      </trkpt>
      <trkpt lat="39.8978668" lon="3.0737083">
        <ele>16.4</ele>
        <time>2015-06-21T11:16:36Z</time>
      </trkpt>
      <trkpt lat="39.8982028" lon="3.0737111">
        <ele>15</ele>
        <time>2015-06-21T11:16:41Z</time>
      </trkpt>
      <trkpt lat="39.898514" lon="3.073722">
        <ele>15</ele>
        <time>2015-06-21T11:16:46Z</time>
      </trkpt>
      <trkpt lat="39.8990628" lon="3.0737602">
        <ele>15</ele>
        <time>2015-06-21T11:16:55Z</time>
      </trkpt>
      <trkpt lat="39.8994846" lon="3.0738448">
        <ele>16.2</ele>
        <time>2015-06-21T11:17:03Z</time>
      </trkpt>
      <trkpt lat="39.8995788" lon="3.0739712">
        <ele>16.6</ele>
        <time>2015-06-21T11:17:06Z</time>
      </trkpt>
      <trkpt lat="39.8998176" lon="3.0740813">
        <ele>15.2</ele>
        <time>2015-06-21T11:17:11Z</time>
      </trkpt>
      <trkpt lat="39.8999745" lon="3.0739943">
        <ele>14.6</ele>
        <time>2015-06-21T11:17:14Z</time>
      </trkpt>
      <trkpt lat="39.900018" lon="3.0739632">
        <ele>14.8</ele>
        <time>2015-06-21T11:17:15Z</time>
      </trkpt>
      <trkpt lat="39.9000733" lon="3.0739465">
        <ele>15</ele>
        <time>2015-06-21T11:17:16Z</time>
      </trkpt>
      <trkpt lat="39.9001904" lon="3.0739544">
        <ele>15.4</ele>
        <time>2015-06-21T11:17:18Z</time>
      </trkpt>
      <trkpt lat="39.9002968" lon="3.0739832">
        <ele>15.4</ele>
        <time>2015-06-21T11:17:20Z</time>
      </trkpt>
      <trkpt lat="39.9005148" lon="3.074047">
        <ele>15.6</ele>
        <time>2015-06-21T11:17:24Z</time>
      </trkpt>
      <trkpt lat="39.9009547" lon="3.0741832">
        <ele>15.2</ele>
        <time>2015-06-21T11:17:32Z</time>
      </trkpt>
      <trkpt lat="39.9013376" lon="3.0743075">
        <ele>15</ele>
        <time>2015-06-21T11:17:39Z</time>
      </trkpt>
      <trkpt lat="39.9017936" lon="3.0744597">
        <ele>16</ele>
        <time>2015-06-21T11:17:47Z</time>
      </trkpt>
      <trkpt lat="39.9019086" lon="3.074499">
        <ele>16.2</ele>
        <time>2015-06-21T11:17:49Z</time>
      </trkpt>
      <trkpt lat="39.902265" lon="3.0746194">
        <ele>15.4</ele>
        <time>2015-06-21T11:17:55Z</time>
      </trkpt>
      <trkpt lat="39.9024371" lon="3.0746841">
        <ele>14.8</ele>
        <time>2015-06-21T11:17:58Z</time>
      </trkpt>
      <trkpt lat="39.902685" lon="3.074778">
        <ele>13.8</ele>
        <time>2015-06-21T11:18:02Z</time>
      </trkpt>
      <trkpt lat="39.9027998" lon="3.0748218">
        <ele>14</ele>
        <time>2015-06-21T11:18:04Z</time>
      </trkpt>
      <trkpt lat="39.9033622" lon="3.0750492">
        <ele>13.6</ele>
        <time>2015-06-21T11:18:13Z</time>
      </trkpt>
      <trkpt lat="39.9034766" lon="3.0750982">
        <ele>13.8</ele>
        <time>2015-06-21T11:18:15Z</time>
      </trkpt>
      <trkpt lat="39.9039919" lon="3.0753297">
        <ele>14.2</ele>
        <time>2015-06-21T11:18:24Z</time>
      </trkpt>
      <trkpt lat="39.9040419" lon="3.0753633">
        <ele>14.4</ele>
        <time>2015-06-21T11:18:25Z</time>
      </trkpt>
      <trkpt lat="39.9041309" lon="3.0754142">
        <ele>14</ele>
        <time>2015-06-21T11:18:27Z</time>
      </trkpt>
      <trkpt lat="39.9042279" lon="3.0754692">
        <ele>14.2</ele>
        <time>2015-06-21T11:18:29Z</time>
      </trkpt>
      <trkpt lat="39.9042939" lon="3.0755587">
        <ele>14.6</ele>
        <time>2015-06-21T11:18:31Z</time>
      </trkpt>
      <trkpt lat="39.9043399" lon="3.0756069">
        <ele>15</ele>
        <time>2015-06-21T11:18:32Z</time>
      </trkpt>
      <trkpt lat="39.904387" lon="3.0756444">
        <ele>15</ele>
        <time>2015-06-21T11:18:33Z</time>
      </trkpt>
      <trkpt lat="39.9046155" lon="3.0756891">
        <ele>14.4</ele>
        <time>2015-06-21T11:18:37Z</time>
      </trkpt>
      <trkpt lat="39.9047299" lon="3.07566">
        <ele>14.6</ele>
        <time>2015-06-21T11:18:39Z</time>
      </trkpt>
      <trkpt lat="39.9048478" lon="3.0756521">
        <ele>14.8</ele>
        <time>2015-06-21T11:18:41Z</time>
      </trkpt>
      <trkpt lat="39.9049028" lon="3.0756747">
        <ele>15</ele>
        <time>2015-06-21T11:18:42Z</time>
      </trkpt>
      <trkpt lat="39.9050496" lon="3.0757698">
        <ele>14.2</ele>
        <time>2015-06-21T11:18:45Z</time>
      </trkpt>
      <trkpt lat="39.9051472" lon="3.0758405">
        <ele>14</ele>
        <time>2015-06-21T11:18:47Z</time>
      </trkpt>
      <trkpt lat="39.9051949" lon="3.0758775">
        <ele>13.8</ele>
        <time>2015-06-21T11:18:48Z</time>
      </trkpt>
      <trkpt lat="39.9055826" lon="3.0761599">
        <ele>13.8</ele>
        <time>2015-06-21T11:18:56Z</time>
      </trkpt>
      <trkpt lat="39.9057316" lon="3.0762792">
        <ele>12</ele>
        <time>2015-06-21T11:18:59Z</time>
      </trkpt>
      <trkpt lat="39.9059029" lon="3.0764079">
        <ele>12.2</ele>
        <time>2015-06-21T11:19:03Z</time>
      </trkpt>
      <trkpt lat="39.90619" lon="3.0766158">
        <ele>12.4</ele>
        <time>2015-06-21T11:19:09Z</time>
      </trkpt>
      <trkpt lat="39.906681" lon="3.0769785">
        <ele>12.6</ele>
        <time>2015-06-21T11:19:19Z</time>
      </trkpt>
      <trkpt lat="39.9068256" lon="3.077088">
        <ele>12.6</ele>
        <time>2015-06-21T11:19:22Z</time>
      </trkpt>
      <trkpt lat="39.9069603" lon="3.0771955">
        <ele>12.6</ele>
        <time>2015-06-21T11:19:25Z</time>
      </trkpt>
      <trkpt lat="39.9071367" lon="3.0773489">
        <ele>12.8</ele>
        <time>2015-06-21T11:19:29Z</time>
      </trkpt>
      <trkpt lat="39.9073907" lon="3.0775509">
        <ele>12.8</ele>
        <time>2015-06-21T11:19:35Z</time>
      </trkpt>
      <trkpt lat="39.9074207" lon="3.0775867">
        <ele>12.8</ele>
        <time>2015-06-21T11:19:36Z</time>
      </trkpt>
      <trkpt lat="39.9075671" lon="3.0777122">
        <ele>12.6</ele>
        <time>2015-06-21T11:19:40Z</time>
      </trkpt>
      <trkpt lat="39.9077734" lon="3.0778736">
        <ele>13.2</ele>
        <time>2015-06-21T11:19:45Z</time>
      </trkpt>
      <trkpt lat="39.9080805" lon="3.0781572">
        <ele>13.8</ele>
        <time>2015-06-21T11:19:53Z</time>
      </trkpt>
      <trkpt lat="39.9081401" lon="3.0782197">
        <ele>14.2</ele>
        <time>2015-06-21T11:19:55Z</time>
      </trkpt>
      <trkpt lat="39.9083457" lon="3.0784244">
        <ele>15.2</ele>
        <time>2015-06-21T11:20:00Z</time>
      </trkpt>
      <trkpt lat="39.9086524" lon="3.0787325">
        <ele>15.4</ele>
        <time>2015-06-21T11:20:08Z</time>
      </trkpt>
      <trkpt lat="39.9089511" lon="3.0790698">
        <ele>15.6</ele>
        <time>2015-06-21T11:20:16Z</time>
      </trkpt>
      <trkpt lat="39.9090856" lon="3.0791926">
        <ele>16.2</ele>
        <time>2015-06-21T11:20:19Z</time>
      </trkpt>
      <trkpt lat="39.9092188" lon="3.0792816">
        <ele>16</ele>
        <time>2015-06-21T11:20:22Z</time>
      </trkpt>
      <trkpt lat="39.9093492" lon="3.0793853">
        <ele>16.2</ele>
        <time>2015-06-21T11:20:25Z</time>
      </trkpt>
      <trkpt lat="39.9095031" lon="3.0795523">
        <ele>17.2</ele>
        <time>2015-06-21T11:20:29Z</time>
      </trkpt>
      <trkpt lat="39.9097688" lon="3.0798707">
        <ele>17.2</ele>
        <time>2015-06-21T11:20:36Z</time>
      </trkpt>
      <trkpt lat="39.9098869" lon="3.0800037">
        <ele>17.8</ele>
        <time>2015-06-21T11:20:39Z</time>
      </trkpt>
      <trkpt lat="39.9101528" lon="3.0803759">
        <ele>17.6</ele>
        <time>2015-06-21T11:20:47Z</time>
      </trkpt>
      <trkpt lat="39.9102549" lon="3.0805151">
        <ele>18.8</ele>
        <time>2015-06-21T11:20:50Z</time>
      </trkpt>
      <trkpt lat="39.9102838" lon="3.0805532">
        <ele>19.8</ele>
        <time>2015-06-21T11:20:51Z</time>
      </trkpt>
      <trkpt lat="39.9104926" lon="3.0808367">
        <ele>20.4</ele>
        <time>2015-06-21T11:20:57Z</time>
      </trkpt>
      <trkpt lat="39.9105698" lon="3.0809469">
        <ele>20.8</ele>
        <time>2015-06-21T11:20:59Z</time>
      </trkpt>
      <trkpt lat="39.9108256" lon="3.0813235">
        <ele>20.4</ele>
        <time>2015-06-21T11:21:06Z</time>
      </trkpt>
      <trkpt lat="39.9111944" lon="3.081889">
        <ele>20.8</ele>
        <time>2015-06-21T11:21:16Z</time>
      </trkpt>
      <trkpt lat="39.9115479" lon="3.0824751">
        <ele>20.8</ele>
        <time>2015-06-21T11:21:26Z</time>
      </trkpt>
      <trkpt lat="39.9115852" lon="3.0825309">
        <ele>20.8</ele>
        <time>2015-06-21T11:21:27Z</time>
      </trkpt>
      <trkpt lat="39.9116176" lon="3.0826032">
        <ele>20.6</ele>
        <time>2015-06-21T11:21:28Z</time>
      </trkpt>
      <trkpt lat="39.911728" lon="3.0827963">
        <ele>20.2</ele>
        <time>2015-06-21T11:21:31Z</time>
      </trkpt>
      <trkpt lat="39.9120673" lon="3.0834029">
        <ele>20.4</ele>
        <time>2015-06-21T11:21:40Z</time>
      </trkpt>
      <trkpt lat="39.9121028" lon="3.0834648">
        <ele>20.4</ele>
        <time>2015-06-21T11:21:41Z</time>
      </trkpt>
      <trkpt lat="39.9121741" lon="3.0835981">
        <ele>19.8</ele>
        <time>2015-06-21T11:21:43Z</time>
      </trkpt>
      <trkpt lat="39.9122706" lon="3.0837782">
        <ele>18.6</ele>
        <time>2015-06-21T11:21:46Z</time>
      </trkpt>
      <trkpt lat="39.9123371" lon="3.0839169">
        <ele>18.2</ele>
        <time>2015-06-21T11:21:48Z</time>
      </trkpt>
      <trkpt lat="39.9123582" lon="3.0839889">
        <ele>18.2</ele>
        <time>2015-06-21T11:21:49Z</time>
      </trkpt>
      <trkpt lat="39.9123451" lon="3.0841299">
        <ele>18.4</ele>
        <time>2015-06-21T11:21:51Z</time>
      </trkpt>
      <trkpt lat="39.912341" lon="3.0842947">
        <ele>18.6</ele>
        <time>2015-06-21T11:21:53Z</time>
      </trkpt>
      <trkpt lat="39.9124149" lon="3.0844999">
        <ele>18.6</ele>
        <time>2015-06-21T11:21:56Z</time>
      </trkpt>
      <trkpt lat="39.9125675" lon="3.0846294">
        <ele>17.2</ele>
        <time>2015-06-21T11:21:59Z</time>
      </trkpt>
      <trkpt lat="39.9126185" lon="3.0846601">
        <ele>17</ele>
        <time>2015-06-21T11:22:00Z</time>
      </trkpt>
      <trkpt lat="39.9126573" lon="3.0846944">
        <ele>16.8</ele>
        <time>2015-06-21T11:22:01Z</time>
      </trkpt>
      <trkpt lat="39.9127098" lon="3.0847949">
        <ele>17.4</ele>
        <time>2015-06-21T11:22:03Z</time>
      </trkpt>
      <trkpt lat="39.9127435" lon="3.0848809">
        <ele>18.2</ele>
        <time>2015-06-21T11:22:04Z</time>
      </trkpt>
      <trkpt lat="39.9127687" lon="3.0849493">
        <ele>19</ele>
        <time>2015-06-21T11:22:05Z</time>
      </trkpt>
      <trkpt lat="39.9127917" lon="3.0850132">
        <ele>19.4</ele>
        <time>2015-06-21T11:22:06Z</time>
      </trkpt>
      <trkpt lat="39.9128455" lon="3.0851641">
        <ele>20.6</ele>
        <time>2015-06-21T11:22:08Z</time>
      </trkpt>
      <trkpt lat="39.9130816" lon="3.0858638">
        <ele>20.2</ele>
        <time>2015-06-21T11:22:18Z</time>
      </trkpt>
      <trkpt lat="39.9132365" lon="3.0864925">
        <ele>20.8</ele>
        <time>2015-06-21T11:22:27Z</time>
      </trkpt>
      <trkpt lat="39.9133038" lon="3.0868664">
        <ele>21.6</ele>
        <time>2015-06-21T11:22:32Z</time>
      </trkpt>
      <trkpt lat="39.9133634" lon="3.0873066">
        <ele>22</ele>
        <time>2015-06-21T11:22:38Z</time>
      </trkpt>
      <trkpt lat="39.9134257" lon="3.0880173">
        <ele>22.6</ele>
        <time>2015-06-21T11:22:47Z</time>
      </trkpt>
      <trkpt lat="39.9134288" lon="3.0881007">
        <ele>22.4</ele>
        <time>2015-06-21T11:22:48Z</time>
      </trkpt>
      <trkpt lat="39.9134395" lon="3.0882681">
        <ele>22.6</ele>
        <time>2015-06-21T11:22:50Z</time>
      </trkpt>
      <trkpt lat="39.913461" lon="3.0888487">
        <ele>22.8</ele>
        <time>2015-06-21T11:22:57Z</time>
      </trkpt>
      <trkpt lat="39.9134955" lon="3.0895264">
        <ele>23.2</ele>
        <time>2015-06-21T11:23:05Z</time>
      </trkpt>
      <trkpt lat="39.9135081" lon="3.0898796">
        <ele>23.2</ele>
        <time>2015-06-21T11:23:10Z</time>
      </trkpt>
      <trkpt lat="39.9135197" lon="3.090137">
        <ele>23</ele>
        <time>2015-06-21T11:23:14Z</time>
      </trkpt>
      <trkpt lat="39.9135314" lon="3.0903223">
        <ele>23.8</ele>
        <time>2015-06-21T11:23:17Z</time>
      </trkpt>
      <trkpt lat="39.9135562" lon="3.0907308">
        <ele>24.4</ele>
        <time>2015-06-21T11:23:24Z</time>
      </trkpt>
      <trkpt lat="39.913583" lon="3.0911351">
        <ele>24.8</ele>
        <time>2015-06-21T11:23:31Z</time>
      </trkpt>
      <trkpt lat="39.9135972" lon="3.0913085">
        <ele>24.8</ele>
        <time>2015-06-21T11:23:34Z</time>
      </trkpt>
      <trkpt lat="39.9136145" lon="3.0915371">
        <ele>24.8</ele>
        <time>2015-06-21T11:23:38Z</time>
      </trkpt>
      <trkpt lat="39.9136347" lon="3.0919652">
        <ele>23.8</ele>
        <time>2015-06-21T11:23:45Z</time>
      </trkpt>
      <trkpt lat="39.9136351" lon="3.092034">
        <ele>22.2</ele>
        <time>2015-06-21T11:23:46Z</time>
      </trkpt>
      <trkpt lat="39.913637" lon="3.0921231">
        <ele>17.4</ele>
        <time>2015-06-21T11:23:47Z</time>
      </trkpt>
      <trkpt lat="39.9136426" lon="3.0922005">
        <ele>12.6</ele>
        <time>2015-06-21T11:23:48Z</time>
      </trkpt>
      <trkpt lat="39.9136495" lon="3.0922831">
        <ele>8.20001</ele>
        <time>2015-06-21T11:23:49Z</time>
      </trkpt>
      <trkpt lat="39.9136532" lon="3.0923671">
        <ele>1.60001</ele>
        <time>2015-06-21T11:23:50Z</time>
      </trkpt>
      <trkpt lat="39.9136575" lon="3.0924393">
        <ele>0</ele>
        <time>2015-06-21T11:23:51Z</time>
      </trkpt>
      <trkpt lat="39.9136618" lon="3.0925351">
        <ele>0</ele>
        <time>2015-06-21T11:23:52Z</time>
      </trkpt>
      <trkpt lat="39.9136673" lon="3.0926236">
        <ele>0</ele>
        <time>2015-06-21T11:23:53Z</time>
      </trkpt>
      <trkpt lat="39.9136723" lon="3.0927099">
        <ele>0</ele>
        <time>2015-06-21T11:23:54Z</time>
      </trkpt>
      <trkpt lat="39.9136784" lon="3.0927955">
        <ele>0</ele>
        <time>2015-06-21T11:23:55Z</time>
      </trkpt>
      <trkpt lat="39.9136832" lon="3.0928774">
        <ele>0</ele>
        <time>2015-06-21T11:23:56Z</time>
      </trkpt>
      <trkpt lat="39.9136865" lon="3.0929535">
        <ele>0.600006</ele>
        <time>2015-06-21T11:23:57Z</time>
      </trkpt>
      <trkpt lat="39.9136888" lon="3.0930479">
        <ele>2</ele>
        <time>2015-06-21T11:23:58Z</time>
      </trkpt>
      <trkpt lat="39.9136947" lon="3.0931337">
        <ele>0.399994</ele>
        <time>2015-06-21T11:23:59Z</time>
      </trkpt>
      <trkpt lat="39.9137061" lon="3.0932958">
        <ele>0.200012</ele>
        <time>2015-06-21T11:24:01Z</time>
      </trkpt>
      <trkpt lat="39.9137327" lon="3.093894">
        <ele>0</ele>
        <time>2015-06-21T11:24:08Z</time>
      </trkpt>
      <trkpt lat="39.9137488" lon="3.0943489">
        <ele>0</ele>
        <time>2015-06-21T11:24:13Z</time>
      </trkpt>
      <trkpt lat="39.913748" lon="3.0947277">
        <ele>0</ele>
        <time>2015-06-21T11:24:17Z</time>
      </trkpt>
      <trkpt lat="39.9137207" lon="3.0951426">
        <ele>0</ele>
        <time>2015-06-21T11:24:22Z</time>
      </trkpt>
      <trkpt lat="39.9136643" lon="3.0956542">
        <ele>0</ele>
        <time>2015-06-21T11:24:29Z</time>
      </trkpt>
      <trkpt lat="39.9135777" lon="3.0961957">
        <ele>0</ele>
        <time>2015-06-21T11:24:37Z</time>
      </trkpt>
      <trkpt lat="39.9134451" lon="3.096736">
        <ele>0</ele>
        <time>2015-06-21T11:24:45Z</time>
      </trkpt>
      <trkpt lat="39.9134297" lon="3.0968041">
        <ele>0.399994</ele>
        <time>2015-06-21T11:24:46Z</time>
      </trkpt>
      <trkpt lat="39.9133644" lon="3.0970928">
        <ele>1.60001</ele>
        <time>2015-06-21T11:24:50Z</time>
      </trkpt>
      <trkpt lat="39.9132932" lon="3.097384">
        <ele>2</ele>
        <time>2015-06-21T11:24:54Z</time>
      </trkpt>
      <trkpt lat="39.9132469" lon="3.0975935">
        <ele>2.79999</ele>
        <time>2015-06-21T11:24:57Z</time>
      </trkpt>
      <trkpt lat="39.9131523" lon="3.098016">
        <ele>3.79999</ele>
        <time>2015-06-21T11:25:03Z</time>
      </trkpt>
      <trkpt lat="39.91304" lon="3.0985473">
        <ele>5</ele>
        <time>2015-06-21T11:25:10Z</time>
      </trkpt>
      <trkpt lat="39.9129857" lon="3.0987822">
        <ele>5.60001</ele>
        <time>2015-06-21T11:25:13Z</time>
      </trkpt>
      <trkpt lat="39.9129328" lon="3.0989965">
        <ele>6</ele>
        <time>2015-06-21T11:25:16Z</time>
      </trkpt>
      <trkpt lat="39.9128202" lon="3.0993445">
        <ele>7</ele>
        <time>2015-06-21T11:25:21Z</time>
      </trkpt>
      <trkpt lat="39.9127796" lon="3.0994073">
        <ele>6.79999</ele>
        <time>2015-06-21T11:25:22Z</time>
      </trkpt>
      <trkpt lat="39.912702" lon="3.0995386">
        <ele>6.39999</ele>
        <time>2015-06-21T11:25:24Z</time>
      </trkpt>
      <trkpt lat="39.9126795" lon="3.0996851">
        <ele>6.20001</ele>
        <time>2015-06-21T11:25:26Z</time>
      </trkpt>
      <trkpt lat="39.9126748" lon="3.0998497">
        <ele>6</ele>
        <time>2015-06-21T11:25:28Z</time>
      </trkpt>
      <trkpt lat="39.9126634" lon="3.0999334">
        <ele>6.20001</ele>
        <time>2015-06-21T11:25:29Z</time>
      </trkpt>
      <trkpt lat="39.9126329" lon="3.1000844">
        <ele>7.20001</ele>
        <time>2015-06-21T11:25:31Z</time>
      </trkpt>
      <trkpt lat="39.9125969" lon="3.1002409">
        <ele>8.20001</ele>
        <time>2015-06-21T11:25:33Z</time>
      </trkpt>
      <trkpt lat="39.9125227" lon="3.1005555">
        <ele>9.39999</ele>
        <time>2015-06-21T11:25:37Z</time>
      </trkpt>
      <trkpt lat="39.9125041" lon="3.1006369">
        <ele>9.39999</ele>
        <time>2015-06-21T11:25:38Z</time>
      </trkpt>
      <trkpt lat="39.9124364" lon="3.1009469">
        <ele>10.4</ele>
        <time>2015-06-21T11:25:42Z</time>
      </trkpt>
      <trkpt lat="39.9123648" lon="3.1012599">
        <ele>11</ele>
        <time>2015-06-21T11:25:46Z</time>
      </trkpt>
      <trkpt lat="39.9122922" lon="3.1015882">
        <ele>11.4</ele>
        <time>2015-06-21T11:25:50Z</time>
      </trkpt>
      <trkpt lat="39.9122363" lon="3.1019674">
        <ele>12.4</ele>
        <time>2015-06-21T11:25:55Z</time>
      </trkpt>
      <trkpt lat="39.9122331" lon="3.1021057">
        <ele>12.6</ele>
        <time>2015-06-21T11:25:57Z</time>
      </trkpt>
      <trkpt lat="39.9122471" lon="3.1022605">
        <ele>13.8</ele>
        <time>2015-06-21T11:25:59Z</time>
      </trkpt>
      <trkpt lat="39.9122657" lon="3.1023288">
        <ele>14.2</ele>
        <time>2015-06-21T11:26:00Z</time>
      </trkpt>
      <trkpt lat="39.9123106" lon="3.1024566">
        <ele>15</ele>
        <time>2015-06-21T11:26:02Z</time>
      </trkpt>
      <trkpt lat="39.9124124" lon="3.1026091">
        <ele>16.2</ele>
        <time>2015-06-21T11:26:05Z</time>
      </trkpt>
      <trkpt lat="39.9125243" lon="3.1027124">
        <ele>17.4</ele>
        <time>2015-06-21T11:26:08Z</time>
      </trkpt>
      <trkpt lat="39.9125929" lon="3.1027706">
        <ele>18.4</ele>
        <time>2015-06-21T11:26:10Z</time>
      </trkpt>
      <trkpt lat="39.9126282" lon="3.1027967">
        <ele>18.8</ele>
        <time>2015-06-21T11:26:11Z</time>
      </trkpt>
      <trkpt lat="39.9127433" lon="3.1028765">
        <ele>20.2</ele>
        <time>2015-06-21T11:26:14Z</time>
      </trkpt>
      <trkpt lat="39.9128531" lon="3.1029543">
        <ele>21.2</ele>
        <time>2015-06-21T11:26:17Z</time>
      </trkpt>
      <trkpt lat="39.9129225" lon="3.1030017">
        <ele>22</ele>
        <time>2015-06-21T11:26:19Z</time>
      </trkpt>
      <trkpt lat="39.9129559" lon="3.1030257">
        <ele>22.6</ele>
        <time>2015-06-21T11:26:20Z</time>
      </trkpt>
      <trkpt lat="39.9130573" lon="3.1030957">
        <ele>24</ele>
        <time>2015-06-21T11:26:23Z</time>
      </trkpt>
      <trkpt lat="39.9131246" lon="3.1031401">
        <ele>25</ele>
        <time>2015-06-21T11:26:25Z</time>
      </trkpt>
      <trkpt lat="39.913224" lon="3.1032107">
        <ele>26.2</ele>
        <time>2015-06-21T11:26:28Z</time>
      </trkpt>
      <trkpt lat="39.9132577" lon="3.1032379">
        <ele>26.8</ele>
        <time>2015-06-21T11:26:29Z</time>
      </trkpt>
      <trkpt lat="39.9133578" lon="3.1033068">
        <ele>27.6</ele>
        <time>2015-06-21T11:26:32Z</time>
      </trkpt>
      <trkpt lat="39.9135493" lon="3.1034405">
        <ele>28.8</ele>
        <time>2015-06-21T11:26:38Z</time>
      </trkpt>
      <trkpt lat="39.9135772" lon="3.1034612">
        <ele>29</ele>
        <time>2015-06-21T11:26:39Z</time>
      </trkpt>
      <trkpt lat="39.913707" lon="3.1035524">
        <ele>29.8</ele>
        <time>2015-06-21T11:26:43Z</time>
      </trkpt>
      <trkpt lat="39.9138554" lon="3.103657">
        <ele>30.8</ele>
        <time>2015-06-21T11:26:48Z</time>
      </trkpt>
      <trkpt lat="39.9138847" lon="3.1036779">
        <ele>31</ele>
        <time>2015-06-21T11:26:49Z</time>
      </trkpt>
      <trkpt lat="39.914005" lon="3.1037638">
        <ele>31.8</ele>
        <time>2015-06-21T11:26:53Z</time>
      </trkpt>
      <trkpt lat="39.9141172" lon="3.1038455">
        <ele>32.8</ele>
        <time>2015-06-21T11:26:57Z</time>
      </trkpt>
      <trkpt lat="39.9142128" lon="3.10391">
        <ele>33.6</ele>
        <time>2015-06-21T11:27:00Z</time>
      </trkpt>
      <trkpt lat="39.9142722" lon="3.1039524">
        <ele>34</ele>
        <time>2015-06-21T11:27:02Z</time>
      </trkpt>
      <trkpt lat="39.9144156" lon="3.1040556">
        <ele>35</ele>
        <time>2015-06-21T11:27:07Z</time>
      </trkpt>
      <trkpt lat="39.91452" lon="3.1041233">
        <ele>36</ele>
        <time>2015-06-21T11:27:11Z</time>
      </trkpt>
      <trkpt lat="39.9145448" lon="3.1041427">
        <ele>36.2</ele>
        <time>2015-06-21T11:27:12Z</time>
      </trkpt>
      <trkpt lat="39.9146228" lon="3.1041998">
        <ele>37.2</ele>
        <time>2015-06-21T11:27:15Z</time>
      </trkpt>
      <trkpt lat="39.9147656" lon="3.1042998">
        <ele>38.6</ele>
        <time>2015-06-21T11:27:21Z</time>
      </trkpt>
      <trkpt lat="39.9147925" lon="3.1043193">
        <ele>39</ele>
        <time>2015-06-21T11:27:22Z</time>
      </trkpt>
      <trkpt lat="39.91484" lon="3.1043618">
        <ele>39.6</ele>
        <time>2015-06-21T11:27:24Z</time>
      </trkpt>
      <trkpt lat="39.9148584" lon="3.1043848">
        <ele>41</ele>
        <time>2015-06-21T11:27:25Z</time>
      </trkpt>
      <trkpt lat="39.9148957" lon="3.1044998">
        <ele>40.8</ele>
        <time>2015-06-21T11:27:29Z</time>
      </trkpt>
      <trkpt lat="39.9148891" lon="3.1045602">
        <ele>46.4</ele>
        <time>2015-06-21T11:27:31Z</time>
      </trkpt>
      <trkpt lat="39.9148414" lon="3.1046458">
        <ele>47.6</ele>
        <time>2015-06-21T11:27:34Z</time>
      </trkpt>
      <trkpt lat="39.9148165" lon="3.1046663">
        <ele>45.8</ele>
        <time>2015-06-21T11:27:35Z</time>
      </trkpt>
      <trkpt lat="39.9147252" lon="3.1046829">
        <ele>46.2</ele>
        <time>2015-06-21T11:27:38Z</time>
      </trkpt>
      <trkpt lat="39.9146347" lon="3.1046569">
        <ele>47</ele>
        <time>2015-06-21T11:27:41Z</time>
      </trkpt>
      <trkpt lat="39.9145643" lon="3.1046377">
        <ele>47.4</ele>
        <time>2015-06-21T11:27:43Z</time>
      </trkpt>
      <trkpt lat="39.9144645" lon="3.1046108">
        <ele>48</ele>
        <time>2015-06-21T11:27:46Z</time>
      </trkpt>
      <trkpt lat="39.9142522" lon="3.104556">
        <ele>49.2</ele>
        <time>2015-06-21T11:27:52Z</time>
      </trkpt>
      <trkpt lat="39.9141832" lon="3.1045346">
        <ele>49.8</ele>
        <time>2015-06-21T11:27:54Z</time>
      </trkpt>
      <trkpt lat="39.9141157" lon="3.1045181">
        <ele>50.2</ele>
        <time>2015-06-21T11:27:56Z</time>
      </trkpt>
      <trkpt lat="39.9139366" lon="3.1044687">
        <ele>51.2</ele>
        <time>2015-06-21T11:28:01Z</time>
      </trkpt>
      <trkpt lat="39.9138332" lon="3.1044411">
        <ele>51.6</ele>
        <time>2015-06-21T11:28:04Z</time>
      </trkpt>
      <trkpt lat="39.9137149" lon="3.1044103">
        <ele>52.4</ele>
        <time>2015-06-21T11:28:07Z</time>
      </trkpt>
      <trkpt lat="39.9134598" lon="3.104344">
        <ele>53.6</ele>
        <time>2015-06-21T11:28:14Z</time>
      </trkpt>
      <trkpt lat="39.9132053" lon="3.1042782">
        <ele>54.8</ele>
        <time>2015-06-21T11:28:21Z</time>
      </trkpt>
      <trkpt lat="39.9130846" lon="3.1042476">
        <ele>55.2</ele>
        <time>2015-06-21T11:28:24Z</time>
      </trkpt>
      <trkpt lat="39.9126667" lon="3.1041376">
        <ele>55</ele>
        <time>2015-06-21T11:28:35Z</time>
      </trkpt>
      <trkpt lat="39.9122456" lon="3.1040704">
        <ele>55.2</ele>
        <time>2015-06-21T11:28:45Z</time>
      </trkpt>
      <trkpt lat="39.9120039" lon="3.104076">
        <ele>55.8</ele>
        <time>2015-06-21T11:28:51Z</time>
      </trkpt>
      <trkpt lat="39.9119198" lon="3.104082">
        <ele>56.2</ele>
        <time>2015-06-21T11:28:53Z</time>
      </trkpt>
      <trkpt lat="39.9118073" lon="3.1040923">
        <ele>56.8</ele>
        <time>2015-06-21T11:28:56Z</time>
      </trkpt>
      <trkpt lat="39.9115933" lon="3.1041142">
        <ele>57.4</ele>
        <time>2015-06-21T11:29:02Z</time>
      </trkpt>
      <trkpt lat="39.9115041" lon="3.1041682">
        <ele>57.8</ele>
        <time>2015-06-21T11:29:05Z</time>
      </trkpt>
      <trkpt lat="39.9114852" lon="3.1042405">
        <ele>58</ele>
        <time>2015-06-21T11:29:07Z</time>
      </trkpt>
      <trkpt lat="39.91147" lon="3.1042922">
        <ele>58.8</ele>
        <time>2015-06-21T11:29:11Z</time>
      </trkpt>
      <trkpt lat="39.911467" lon="3.1042985">
        <ele>59</ele>
        <time>2015-06-21T11:29:13Z</time>
      </trkpt>
      <trkpt lat="39.911469" lon="3.1042911">
        <ele>59</ele>
        <time>2015-06-21T11:29:17Z</time>
      </trkpt>
      <trkpt lat="39.9114833" lon="3.1042849">
        <ele>58.6</ele>
        <time>2015-06-21T11:29:28Z</time>
      </trkpt>
      <trkpt lat="39.9114828" lon="3.1042497">
        <ele>59</ele>
        <time>2015-06-21T11:29:33Z</time>
      </trkpt>
      <trkpt lat="39.9114835" lon="3.1042285">
        <ele>59</ele>
        <time>2015-06-21T11:29:41Z</time>
      </trkpt>
      <trkpt lat="39.9114855" lon="3.1042223">
        <ele>58.8</ele>
        <time>2015-06-21T11:29:49Z</time>
      </trkpt>
      <trkpt lat="39.9114866" lon="3.1042186">
        <ele>58.2</ele>
        <time>2015-06-21T11:30:07Z</time>
      </trkpt>
      <trkpt lat="39.9114921" lon="3.1042124">
        <ele>58.4</ele>
        <time>2015-06-21T11:30:16Z</time>
      </trkpt>
      <trkpt lat="39.9114996" lon="3.1042036">
        <ele>58.6</ele>
        <time>2015-06-21T11:30:21Z</time>
      </trkpt>
      <trkpt lat="39.9115032" lon="3.104201">
        <ele>58</ele>
        <time>2015-06-21T11:30:28Z</time>
      </trkpt>
      <trkpt lat="39.9115126" lon="3.104193">
        <ele>58</ele>
        <time>2015-06-21T11:30:42Z</time>
      </trkpt>
      <trkpt lat="39.9115141" lon="3.1041922">
        <ele>58</ele>
        <time>2015-06-21T11:30:43Z</time>
      </trkpt>
      <trkpt lat="39.9115125" lon="3.1042321">
        <ele>58.4</ele>
        <time>2015-06-21T11:30:49Z</time>
      </trkpt>
      <trkpt lat="39.9115073" lon="3.1042384">
        <ele>58.4</ele>
        <time>2015-06-21T11:30:50Z</time>
      </trkpt>
      <trkpt lat="39.9115043" lon="3.1042466">
        <ele>59</ele>
        <time>2015-06-21T11:30:53Z</time>
      </trkpt>
      <trkpt lat="39.9114992" lon="3.1042571">
        <ele>59.2</ele>
        <time>2015-06-21T11:30:56Z</time>
      </trkpt>
      <trkpt lat="39.9114983" lon="3.1042777">
        <ele>59.2</ele>
        <time>2015-06-21T11:30:57Z</time>
      </trkpt>
      <trkpt lat="39.9115228" lon="3.1043169">
        <ele>59</ele>
        <time>2015-06-21T11:31:00Z</time>
      </trkpt>
      <trkpt lat="39.911642" lon="3.1043777">
        <ele>59.4</ele>
        <time>2015-06-21T11:31:06Z</time>
      </trkpt>
      <trkpt lat="39.9118708" lon="3.1044032">
        <ele>59.8</ele>
        <time>2015-06-21T11:31:13Z</time>
      </trkpt>
      <trkpt lat="39.9119015" lon="3.1044067">
        <ele>60</ele>
        <time>2015-06-21T11:31:14Z</time>
      </trkpt>
      <trkpt lat="39.9119591" lon="3.104413">
        <ele>55.8</ele>
        <time>2015-06-21T11:31:16Z</time>
      </trkpt>
      <trkpt lat="39.91217" lon="3.1044297">
        <ele>56.6</ele>
        <time>2015-06-21T11:31:23Z</time>
      </trkpt>
      <trkpt lat="39.9121998" lon="3.1044326">
        <ele>57</ele>
        <time>2015-06-21T11:31:24Z</time>
      </trkpt>
      <trkpt lat="39.9123725" lon="3.1044631">
        <ele>58.2</ele>
        <time>2015-06-21T11:31:30Z</time>
      </trkpt>
      <trkpt lat="39.9124522" lon="3.1044854">
        <ele>59</ele>
        <time>2015-06-21T11:31:33Z</time>
      </trkpt>
      <trkpt lat="39.912507" lon="3.1045113">
        <ele>59.4</ele>
        <time>2015-06-21T11:31:35Z</time>
      </trkpt>
      <trkpt lat="39.9126362" lon="3.1045782">
        <ele>60.6</ele>
        <time>2015-06-21T11:31:40Z</time>
      </trkpt>
      <trkpt lat="39.9126844" lon="3.10461">
        <ele>60.8</ele>
        <time>2015-06-21T11:31:42Z</time>
      </trkpt>
      <trkpt lat="39.9127804" lon="3.1046898">
        <ele>61.6</ele>
        <time>2015-06-21T11:31:46Z</time>
      </trkpt>
      <trkpt lat="39.912919" lon="3.1048288">
        <ele>62.6</ele>
        <time>2015-06-21T11:31:52Z</time>
      </trkpt>
      <trkpt lat="39.9129434" lon="3.1048494">
        <ele>62.8</ele>
        <time>2015-06-21T11:31:53Z</time>
      </trkpt>
      <trkpt lat="39.9131132" lon="3.1049478">
        <ele>63.4</ele>
        <time>2015-06-21T11:32:00Z</time>
      </trkpt>
      <trkpt lat="39.9131632" lon="3.1049622">
        <ele>63.8</ele>
        <time>2015-06-21T11:32:02Z</time>
      </trkpt>
      <trkpt lat="39.9133478" lon="3.1049986">
        <ele>64.8</ele>
        <time>2015-06-21T11:32:09Z</time>
      </trkpt>
      <trkpt lat="39.9134044" lon="3.1050141">
        <ele>65.2</ele>
        <time>2015-06-21T11:32:11Z</time>
      </trkpt>
      <trkpt lat="39.9136018" lon="3.1050927">
        <ele>65.8</ele>
        <time>2015-06-21T11:32:18Z</time>
      </trkpt>
      <trkpt lat="39.9136533" lon="3.1051263">
        <ele>66.2</ele>
        <time>2015-06-21T11:32:20Z</time>
      </trkpt>
      <trkpt lat="39.9138599" lon="3.1052982">
        <ele>66.6</ele>
        <time>2015-06-21T11:32:29Z</time>
      </trkpt>
      <trkpt lat="39.9139936" lon="3.1054098">
        <ele>67</ele>
        <time>2015-06-21T11:32:35Z</time>
      </trkpt>
      <trkpt lat="39.914103" lon="3.1055023">
        <ele>68</ele>
        <time>2015-06-21T11:32:40Z</time>
      </trkpt>
      <trkpt lat="39.9141898" lon="3.1055727">
        <ele>69.2</ele>
        <time>2015-06-21T11:32:44Z</time>
      </trkpt>
      <trkpt lat="39.9142777" lon="3.1056448">
        <ele>70.4</ele>
        <time>2015-06-21T11:32:48Z</time>
      </trkpt>
      <trkpt lat="39.9143385" lon="3.1056985">
        <ele>71.4</ele>
        <time>2015-06-21T11:32:51Z</time>
      </trkpt>
      <trkpt lat="39.9143626" lon="3.105718">
        <ele>71.6</ele>
        <time>2015-06-21T11:32:52Z</time>
      </trkpt>
      <trkpt lat="39.9144486" lon="3.1057948">
        <ele>73</ele>
        <time>2015-06-21T11:32:56Z</time>
      </trkpt>
      <trkpt lat="39.9145086" lon="3.1058626">
        <ele>74</ele>
        <time>2015-06-21T11:32:59Z</time>
      </trkpt>
      <trkpt lat="39.9145452" lon="3.105902">
        <ele>74.6</ele>
        <time>2015-06-21T11:33:01Z</time>
      </trkpt>
      <trkpt lat="39.9145833" lon="3.1059455">
        <ele>75.4</ele>
        <time>2015-06-21T11:33:03Z</time>
      </trkpt>
      <trkpt lat="39.9146357" lon="3.1060164">
        <ele>76.4</ele>
        <time>2015-06-21T11:33:06Z</time>
      </trkpt>
      <trkpt lat="39.9147066" lon="3.1061213">
        <ele>77.8</ele>
        <time>2015-06-21T11:33:10Z</time>
      </trkpt>
      <trkpt lat="39.9147217" lon="3.1061457">
        <ele>78</ele>
        <time>2015-06-21T11:33:11Z</time>
      </trkpt>
      <trkpt lat="39.9147673" lon="3.1062277">
        <ele>79</ele>
        <time>2015-06-21T11:33:14Z</time>
      </trkpt>
      <trkpt lat="39.9148154" lon="3.1063031">
        <ele>80.4</ele>
        <time>2015-06-21T11:33:17Z</time>
      </trkpt>
      <trkpt lat="39.9148627" lon="3.1063729">
        <ele>81.2</ele>
        <time>2015-06-21T11:33:20Z</time>
      </trkpt>
      <trkpt lat="39.9148774" lon="3.1063913">
        <ele>81.6</ele>
        <time>2015-06-21T11:33:21Z</time>
      </trkpt>
      <trkpt lat="39.9149691" lon="3.1064963">
        <ele>82.8</ele>
        <time>2015-06-21T11:33:26Z</time>
      </trkpt>
      <trkpt lat="39.9150257" lon="3.106553">
        <ele>83.8</ele>
        <time>2015-06-21T11:33:29Z</time>
      </trkpt>
      <trkpt lat="39.9150821" lon="3.1066088">
        <ele>84.8</ele>
        <time>2015-06-21T11:33:32Z</time>
      </trkpt>
      <trkpt lat="39.9151526" lon="3.1066921">
        <ele>86</ele>
        <time>2015-06-21T11:33:36Z</time>
      </trkpt>
      <trkpt lat="39.9151717" lon="3.1067148">
        <ele>81.6</ele>
        <time>2015-06-21T11:33:37Z</time>
      </trkpt>
      <trkpt lat="39.915226" lon="3.1067738">
        <ele>83</ele>
        <time>2015-06-21T11:33:40Z</time>
      </trkpt>
      <trkpt lat="39.9152612" lon="3.1068138">
        <ele>88.4</ele>
        <time>2015-06-21T11:33:42Z</time>
      </trkpt>
      <trkpt lat="39.9153717" lon="3.1069356">
        <ele>89.4</ele>
        <time>2015-06-21T11:33:48Z</time>
      </trkpt>
      <trkpt lat="39.9154965" lon="3.1070774">
        <ele>90.4</ele>
        <time>2015-06-21T11:33:55Z</time>
      </trkpt>
      <trkpt lat="39.9156006" lon="3.1071916">
        <ele>91.6</ele>
        <time>2015-06-21T11:34:01Z</time>
      </trkpt>
      <trkpt lat="39.9156892" lon="3.1072926">
        <ele>92.8</ele>
        <time>2015-06-21T11:34:06Z</time>
      </trkpt>
      <trkpt lat="39.9157981" lon="3.107412">
        <ele>93.8</ele>
        <time>2015-06-21T11:34:12Z</time>
      </trkpt>
      <trkpt lat="39.915919" lon="3.1075639">
        <ele>94.8</ele>
        <time>2015-06-21T11:34:19Z</time>
      </trkpt>
      <trkpt lat="39.9159829" lon="3.1076503">
        <ele>96</ele>
        <time>2015-06-21T11:34:23Z</time>
      </trkpt>
      <trkpt lat="39.9160001" lon="3.1076714">
        <ele>96.2</ele>
        <time>2015-06-21T11:34:24Z</time>
      </trkpt>
      <trkpt lat="39.916064" lon="3.1077615">
        <ele>97</ele>
        <time>2015-06-21T11:34:28Z</time>
      </trkpt>
      <trkpt lat="39.9161852" lon="3.1079094">
        <ele>98</ele>
        <time>2015-06-21T11:34:35Z</time>
      </trkpt>
      <trkpt lat="39.9162523" lon="3.1079856">
        <ele>99.2</ele>
        <time>2015-06-21T11:34:39Z</time>
      </trkpt>
      <trkpt lat="39.9163474" lon="3.1080226">
        <ele>100.2</ele>
        <time>2015-06-21T11:34:43Z</time>
      </trkpt>
      <trkpt lat="39.916373" lon="3.1080203">
        <ele>100.4</ele>
        <time>2015-06-21T11:34:44Z</time>
      </trkpt>
      <trkpt lat="39.9164987" lon="3.107977">
        <ele>100.8</ele>
        <time>2015-06-21T11:34:49Z</time>
      </trkpt>
      <trkpt lat="39.916625" lon="3.1078346">
        <ele>101</ele>
        <time>2015-06-21T11:34:55Z</time>
      </trkpt>
      <trkpt lat="39.9166615" lon="3.1077883">
        <ele>92.6</ele>
        <time>2015-06-21T11:34:57Z</time>
      </trkpt>
      <trkpt lat="39.9167906" lon="3.1076288">
        <ele>93.6</ele>
        <time>2015-06-21T11:35:04Z</time>
      </trkpt>
      <trkpt lat="39.9168054" lon="3.1076105">
        <ele>93.6</ele>
        <time>2015-06-21T11:35:05Z</time>
      </trkpt>
      <trkpt lat="39.9168605" lon="3.1075374">
        <ele>94.6</ele>
        <time>2015-06-21T11:35:08Z</time>
      </trkpt>
      <trkpt lat="39.9169313" lon="3.1074502">
        <ele>95.8</ele>
        <time>2015-06-21T11:35:12Z</time>
      </trkpt>
      <trkpt lat="39.9170244" lon="3.1073299">
        <ele>96.8</ele>
        <time>2015-06-21T11:35:17Z</time>
      </trkpt>
      <trkpt lat="39.9171096" lon="3.1072239">
        <ele>98</ele>
        <time>2015-06-21T11:35:22Z</time>
      </trkpt>
      <trkpt lat="39.9171726" lon="3.107141">
        <ele>99</ele>
        <time>2015-06-21T11:35:26Z</time>
      </trkpt>
      <trkpt lat="39.9171893" lon="3.1071227">
        <ele>99</ele>
        <time>2015-06-21T11:35:27Z</time>
      </trkpt>
      <trkpt lat="39.9172436" lon="3.1070396">
        <ele>100.2</ele>
        <time>2015-06-21T11:35:31Z</time>
      </trkpt>
      <trkpt lat="39.9172734" lon="3.1069562">
        <ele>100.8</ele>
        <time>2015-06-21T11:35:34Z</time>
      </trkpt>
      <trkpt lat="39.9172762" lon="3.1068945">
        <ele>101.2</ele>
        <time>2015-06-21T11:35:36Z</time>
      </trkpt>
      <trkpt lat="39.917275" lon="3.106759">
        <ele>102</ele>
        <time>2015-06-21T11:35:40Z</time>
      </trkpt>
      <trkpt lat="39.9172608" lon="3.1066914">
        <ele>102.2</ele>
        <time>2015-06-21T11:35:42Z</time>
      </trkpt>
      <trkpt lat="39.9172241" lon="3.1065255">
        <ele>103.4</ele>
        <time>2015-06-21T11:35:47Z</time>
      </trkpt>
      <trkpt lat="39.9172161" lon="3.1064953">
        <ele>103.6</ele>
        <time>2015-06-21T11:35:48Z</time>
      </trkpt>
      <trkpt lat="39.9171961" lon="3.1064082">
        <ele>104.6</ele>
        <time>2015-06-21T11:35:51Z</time>
      </trkpt>
      <trkpt lat="39.9171739" lon="3.1062797">
        <ele>106</ele>
        <time>2015-06-21T11:35:55Z</time>
      </trkpt>
      <trkpt lat="39.9171577" lon="3.1061861">
        <ele>107.2</ele>
        <time>2015-06-21T11:35:58Z</time>
      </trkpt>
      <trkpt lat="39.9171462" lon="3.1060866">
        <ele>108.2</ele>
        <time>2015-06-21T11:36:01Z</time>
      </trkpt>
      <trkpt lat="39.9171367" lon="3.1059531">
        <ele>109.4</ele>
        <time>2015-06-21T11:36:05Z</time>
      </trkpt>
      <trkpt lat="39.9171535" lon="3.1058575">
        <ele>110.2</ele>
        <time>2015-06-21T11:36:08Z</time>
      </trkpt>
      <trkpt lat="39.9171793" lon="3.1058006">
        <ele>110.8</ele>
        <time>2015-06-21T11:36:10Z</time>
      </trkpt>
      <trkpt lat="39.9172413" lon="3.1057353">
        <ele>112</ele>
        <time>2015-06-21T11:36:14Z</time>
      </trkpt>
      <trkpt lat="39.9173885" lon="3.1057023">
        <ele>113</ele>
        <time>2015-06-21T11:36:18Z</time>
      </trkpt>
      <trkpt lat="39.9174893" lon="3.1057271">
        <ele>114.2</ele>
        <time>2015-06-21T11:36:22Z</time>
      </trkpt>
      <trkpt lat="39.917538" lon="3.1057552">
        <ele>115.2</ele>
        <time>2015-06-21T11:36:24Z</time>
      </trkpt>
      <trkpt lat="39.9176614" lon="3.105816">
        <ele>116.4</ele>
        <time>2015-06-21T11:36:29Z</time>
      </trkpt>
      <trkpt lat="39.9177493" lon="3.1058583">
        <ele>117.6</ele>
        <time>2015-06-21T11:36:33Z</time>
      </trkpt>
      <trkpt lat="39.9178596" lon="3.1059139">
        <ele>114.6</ele>
        <time>2015-06-21T11:36:38Z</time>
      </trkpt>
      <trkpt lat="39.9178816" lon="3.1059294">
        <ele>116.2</ele>
        <time>2015-06-21T11:36:39Z</time>
      </trkpt>
      <trkpt lat="39.9178991" lon="3.1059421">
        <ele>118.4</ele>
        <time>2015-06-21T11:36:40Z</time>
      </trkpt>
      <trkpt lat="39.9179586" lon="3.1059879">
        <ele>122</ele>
        <time>2015-06-21T11:36:43Z</time>
      </trkpt>
      <trkpt lat="39.9179768" lon="3.1060063">
        <ele>119.2</ele>
        <time>2015-06-21T11:36:44Z</time>
      </trkpt>
      <trkpt lat="39.9180531" lon="3.1060622">
        <ele>120</ele>
        <time>2015-06-21T11:36:48Z</time>
      </trkpt>
      <trkpt lat="39.918092" lon="3.1060943">
        <ele>120.4</ele>
        <time>2015-06-21T11:36:50Z</time>
      </trkpt>
      <trkpt lat="39.9182489" lon="3.1062157">
        <ele>121.4</ele>
        <time>2015-06-21T11:36:58Z</time>
      </trkpt>
      <trkpt lat="39.9182689" lon="3.1062317">
        <ele>121.4</ele>
        <time>2015-06-21T11:36:59Z</time>
      </trkpt>
      <trkpt lat="39.9184038" lon="3.1063298">
        <ele>122.6</ele>
        <time>2015-06-21T11:37:06Z</time>
      </trkpt>
      <trkpt lat="39.9184623" lon="3.1063701">
        <ele>123</ele>
        <time>2015-06-21T11:37:09Z</time>
      </trkpt>
      <trkpt lat="39.9185466" lon="3.1064181">
        <ele>123.8</ele>
        <time>2015-06-21T11:37:13Z</time>
      </trkpt>
      <trkpt lat="39.9186763" lon="3.1064761">
        <ele>124.8</ele>
        <time>2015-06-21T11:37:19Z</time>
      </trkpt>
      <trkpt lat="39.9186973" lon="3.1064853">
        <ele>125</ele>
        <time>2015-06-21T11:37:20Z</time>
      </trkpt>
      <trkpt lat="39.9188383" lon="3.106571">
        <ele>126.2</ele>
        <time>2015-06-21T11:37:27Z</time>
      </trkpt>
      <trkpt lat="39.9189218" lon="3.1066247">
        <ele>127.2</ele>
        <time>2015-06-21T11:37:31Z</time>
      </trkpt>
      <trkpt lat="39.9190532" lon="3.1067196">
        <ele>121.8</ele>
        <time>2015-06-21T11:37:38Z</time>
      </trkpt>
      <trkpt lat="39.9191094" lon="3.1067578">
        <ele>122</ele>
        <time>2015-06-21T11:37:41Z</time>
      </trkpt>
      <trkpt lat="39.9191485" lon="3.1067833">
        <ele>128.6</ele>
        <time>2015-06-21T11:37:43Z</time>
      </trkpt>
      <trkpt lat="39.919226" lon="3.1068419">
        <ele>129.6</ele>
        <time>2015-06-21T11:37:47Z</time>
      </trkpt>
      <trkpt lat="39.9193468" lon="3.1069221">
        <ele>130.6</ele>
        <time>2015-06-21T11:37:53Z</time>
      </trkpt>
      <trkpt lat="39.9194402" lon="3.1069782">
        <ele>131.8</ele>
        <time>2015-06-21T11:37:58Z</time>
      </trkpt>
      <trkpt lat="39.9195129" lon="3.1070169">
        <ele>125.2</ele>
        <time>2015-06-21T11:38:02Z</time>
      </trkpt>
      <trkpt lat="39.9195528" lon="3.1070331">
        <ele>118.8</ele>
        <time>2015-06-21T11:38:04Z</time>
      </trkpt>
      <trkpt lat="39.9195696" lon="3.1070376">
        <ele>123</ele>
        <time>2015-06-21T11:38:05Z</time>
      </trkpt>
      <trkpt lat="39.9195968" lon="3.1070418">
        <ele>125.4</ele>
        <time>2015-06-21T11:38:06Z</time>
      </trkpt>
      <trkpt lat="39.9196158" lon="3.1070477">
        <ele>129.6</ele>
        <time>2015-06-21T11:38:07Z</time>
      </trkpt>
      <trkpt lat="39.9196555" lon="3.1070615">
        <ele>125.8</ele>
        <time>2015-06-21T11:38:09Z</time>
      </trkpt>
      <trkpt lat="39.9196775" lon="3.1070648">
        <ele>121.8</ele>
        <time>2015-06-21T11:38:10Z</time>
      </trkpt>
      <trkpt lat="39.9196981" lon="3.1070677">
        <ele>120</ele>
        <time>2015-06-21T11:38:11Z</time>
      </trkpt>
      <trkpt lat="39.9197196" lon="3.1070707">
        <ele>123.4</ele>
        <time>2015-06-21T11:38:12Z</time>
      </trkpt>
      <trkpt lat="39.9197427" lon="3.1070714">
        <ele>120.4</ele>
        <time>2015-06-21T11:38:13Z</time>
      </trkpt>
      <trkpt lat="39.9198327" lon="3.1070755">
        <ele>121.6</ele>
        <time>2015-06-21T11:38:17Z</time>
      </trkpt>
      <trkpt lat="39.9198891" lon="3.1070647">
        <ele>122.4</ele>
        <time>2015-06-21T11:38:20Z</time>
      </trkpt>
      <trkpt lat="39.9199057" lon="3.107049">
        <ele>122.6</ele>
        <time>2015-06-21T11:38:21Z</time>
      </trkpt>
      <trkpt lat="39.9199321" lon="3.1070513">
        <ele>123</ele>
        <time>2015-06-21T11:38:22Z</time>
      </trkpt>
      <trkpt lat="39.9199747" lon="3.1070555">
        <ele>123.6</ele>
        <time>2015-06-21T11:38:24Z</time>
      </trkpt>
      <trkpt lat="39.920054" lon="3.1070564">
        <ele>124.8</ele>
        <time>2015-06-21T11:38:28Z</time>
      </trkpt>
      <trkpt lat="39.9201384" lon="3.1070554">
        <ele>126</ele>
        <time>2015-06-21T11:38:32Z</time>
      </trkpt>
      <trkpt lat="39.9201799" lon="3.107052">
        <ele>126.2</ele>
        <time>2015-06-21T11:38:34Z</time>
      </trkpt>
      <trkpt lat="39.9202846" lon="3.1070575">
        <ele>127</ele>
        <time>2015-06-21T11:38:39Z</time>
      </trkpt>
      <trkpt lat="39.9203457" lon="3.1070529">
        <ele>127.4</ele>
        <time>2015-06-21T11:38:42Z</time>
      </trkpt>
      <trkpt lat="39.9204337" lon="3.1070544">
        <ele>128</ele>
        <time>2015-06-21T11:38:46Z</time>
      </trkpt>
      <trkpt lat="39.9205711" lon="3.1070571">
        <ele>129</ele>
        <time>2015-06-21T11:38:52Z</time>
      </trkpt>
      <trkpt lat="39.9205947" lon="3.107057">
        <ele>129.2</ele>
        <time>2015-06-21T11:38:53Z</time>
      </trkpt>
      <trkpt lat="39.9206831" lon="3.107053">
        <ele>130.4</ele>
        <time>2015-06-21T11:38:57Z</time>
      </trkpt>
      <trkpt lat="39.9207523" lon="3.107054">
        <ele>131.4</ele>
        <time>2015-06-21T11:39:00Z</time>
      </trkpt>
      <trkpt lat="39.9208214" lon="3.1070583">
        <ele>132.6</ele>
        <time>2015-06-21T11:39:03Z</time>
      </trkpt>
      <trkpt lat="39.9209171" lon="3.1070696">
        <ele>133.8</ele>
        <time>2015-06-21T11:39:07Z</time>
      </trkpt>
      <trkpt lat="39.920988" lon="3.1070786">
        <ele>135</ele>
        <time>2015-06-21T11:39:10Z</time>
      </trkpt>
      <trkpt lat="39.9210796" lon="3.107089">
        <ele>136.2</ele>
        <time>2015-06-21T11:39:14Z</time>
      </trkpt>
      <trkpt lat="39.9211788" lon="3.1071272">
        <ele>137.6</ele>
        <time>2015-06-21T11:39:19Z</time>
      </trkpt>
      <trkpt lat="39.9212185" lon="3.1071459">
        <ele>138</ele>
        <time>2015-06-21T11:39:21Z</time>
      </trkpt>
      <trkpt lat="39.9212789" lon="3.1071688">
        <ele>138.8</ele>
        <time>2015-06-21T11:39:24Z</time>
      </trkpt>
      <trkpt lat="39.9213362" lon="3.107191">
        <ele>140.2</ele>
        <time>2015-06-21T11:39:27Z</time>
      </trkpt>
      <trkpt lat="39.9213588" lon="3.1072008">
        <ele>140.4</ele>
        <time>2015-06-21T11:39:28Z</time>
      </trkpt>
      <trkpt lat="39.9214205" lon="3.1072246">
        <ele>143.4</ele>
        <time>2015-06-21T11:39:31Z</time>
      </trkpt>
      <trkpt lat="39.9214865" lon="3.1072486">
        <ele>144.6</ele>
        <time>2015-06-21T11:39:34Z</time>
      </trkpt>
      <trkpt lat="39.9215303" lon="3.1072619">
        <ele>143.2</ele>
        <time>2015-06-21T11:39:36Z</time>
      </trkpt>
      <trkpt lat="39.9215543" lon="3.1072683">
        <ele>143.6</ele>
        <time>2015-06-21T11:39:37Z</time>
      </trkpt>
      <trkpt lat="39.9216207" lon="3.1072878">
        <ele>144.4</ele>
        <time>2015-06-21T11:39:40Z</time>
      </trkpt>
      <trkpt lat="39.9216821" lon="3.1073007">
        <ele>145.4</ele>
        <time>2015-06-21T11:39:43Z</time>
      </trkpt>
      <trkpt lat="39.9217418" lon="3.1073238">
        <ele>146.4</ele>
        <time>2015-06-21T11:39:46Z</time>
      </trkpt>
      <trkpt lat="39.9218543" lon="3.1073401">
        <ele>147.6</ele>
        <time>2015-06-21T11:39:51Z</time>
      </trkpt>
      <trkpt lat="39.9219503" lon="3.1073547">
        <ele>148.8</ele>
        <time>2015-06-21T11:39:55Z</time>
      </trkpt>
      <trkpt lat="39.9220412" lon="3.1073719">
        <ele>150</ele>
        <time>2015-06-21T11:39:59Z</time>
      </trkpt>
      <trkpt lat="39.9221046" lon="3.1073837">
        <ele>151</ele>
        <time>2015-06-21T11:40:02Z</time>
      </trkpt>
      <trkpt lat="39.9221467" lon="3.1073923">
        <ele>149.4</ele>
        <time>2015-06-21T11:40:04Z</time>
      </trkpt>
      <trkpt lat="39.9221877" lon="3.1073994">
        <ele>149.8</ele>
        <time>2015-06-21T11:40:06Z</time>
      </trkpt>
      <trkpt lat="39.9222513" lon="3.1074204">
        <ele>152.8</ele>
        <time>2015-06-21T11:40:09Z</time>
      </trkpt>
      <trkpt lat="39.9223347" lon="3.1074515">
        <ele>154</ele>
        <time>2015-06-21T11:40:13Z</time>
      </trkpt>
      <trkpt lat="39.9223735" lon="3.1074763">
        <ele>154.8</ele>
        <time>2015-06-21T11:40:15Z</time>
      </trkpt>
      <trkpt lat="39.9223933" lon="3.1074893">
        <ele>155.2</ele>
        <time>2015-06-21T11:40:16Z</time>
      </trkpt>
      <trkpt lat="39.9224798" lon="3.1075319">
        <ele>156.4</ele>
        <time>2015-06-21T11:40:20Z</time>
      </trkpt>
      <trkpt lat="39.9226204" lon="3.1076085">
        <ele>158</ele>
        <time>2015-06-21T11:40:27Z</time>
      </trkpt>
      <trkpt lat="39.9227202" lon="3.1076639">
        <ele>159</ele>
        <time>2015-06-21T11:40:32Z</time>
      </trkpt>
      <trkpt lat="39.9228435" lon="3.1077217">
        <ele>160.2</ele>
        <time>2015-06-21T11:40:38Z</time>
      </trkpt>
      <trkpt lat="39.9229825" lon="3.1077391">
        <ele>161.2</ele>
        <time>2015-06-21T11:40:44Z</time>
      </trkpt>
      <trkpt lat="39.9231365" lon="3.1077775">
        <ele>162.4</ele>
        <time>2015-06-21T11:40:51Z</time>
      </trkpt>
      <trkpt lat="39.9232692" lon="3.1078092">
        <ele>163.4</ele>
        <time>2015-06-21T11:40:57Z</time>
      </trkpt>
      <trkpt lat="39.9233601" lon="3.1078312">
        <ele>164</ele>
        <time>2015-06-21T11:41:01Z</time>
      </trkpt>
      <trkpt lat="39.9233848" lon="3.1078353">
        <ele>164.2</ele>
        <time>2015-06-21T11:41:02Z</time>
      </trkpt>
      <trkpt lat="39.9234296" lon="3.1078463">
        <ele>164.4</ele>
        <time>2015-06-21T11:41:04Z</time>
      </trkpt>
      <trkpt lat="39.9235673" lon="3.1078544">
        <ele>165.2</ele>
        <time>2015-06-21T11:41:10Z</time>
      </trkpt>
      <trkpt lat="39.9236144" lon="3.1078443">
        <ele>165.4</ele>
        <time>2015-06-21T11:41:12Z</time>
      </trkpt>
      <trkpt lat="39.9237562" lon="3.1078003">
        <ele>166</ele>
        <time>2015-06-21T11:41:18Z</time>
      </trkpt>
      <trkpt lat="39.9238501" lon="3.1077596">
        <ele>166.6</ele>
        <time>2015-06-21T11:41:22Z</time>
      </trkpt>
      <trkpt lat="39.9239343" lon="3.1077327">
        <ele>167</ele>
        <time>2015-06-21T11:41:26Z</time>
      </trkpt>
      <trkpt lat="39.9241099" lon="3.1076355">
        <ele>167.6</ele>
        <time>2015-06-21T11:41:34Z</time>
      </trkpt>
      <trkpt lat="39.9241302" lon="3.1076229">
        <ele>168</ele>
        <time>2015-06-21T11:41:35Z</time>
      </trkpt>
      <trkpt lat="39.924194" lon="3.1075856">
        <ele>168.6</ele>
        <time>2015-06-21T11:41:38Z</time>
      </trkpt>
      <trkpt lat="39.9242898" lon="3.1075567">
        <ele>169.6</ele>
        <time>2015-06-21T11:41:42Z</time>
      </trkpt>
      <trkpt lat="39.9243375" lon="3.1075589">
        <ele>170.2</ele>
        <time>2015-06-21T11:41:44Z</time>
      </trkpt>
      <trkpt lat="39.9243856" lon="3.1075719">
        <ele>170.8</ele>
        <time>2015-06-21T11:41:46Z</time>
      </trkpt>
      <trkpt lat="39.9244467" lon="3.1076171">
        <ele>169.4</ele>
        <time>2015-06-21T11:41:49Z</time>
      </trkpt>
      <trkpt lat="39.924463" lon="3.1076345">
        <ele>169.8</ele>
        <time>2015-06-21T11:41:50Z</time>
      </trkpt>
      <trkpt lat="39.9245285" lon="3.1077247">
        <ele>172.8</ele>
        <time>2015-06-21T11:41:54Z</time>
      </trkpt>
      <trkpt lat="39.924572" lon="3.1078213">
        <ele>173.6</ele>
        <time>2015-06-21T11:41:58Z</time>
      </trkpt>
      <trkpt lat="39.924581" lon="3.1078473">
        <ele>177.2</ele>
        <time>2015-06-21T11:41:59Z</time>
      </trkpt>
      <trkpt lat="39.9245902" lon="3.1078714">
        <ele>179.6</ele>
        <time>2015-06-21T11:42:00Z</time>
      </trkpt>
      <trkpt lat="39.9246012" lon="3.107898">
        <ele>183.2</ele>
        <time>2015-06-21T11:42:01Z</time>
      </trkpt>
      <trkpt lat="39.9246105" lon="3.1079209">
        <ele>184.4</ele>
        <time>2015-06-21T11:42:02Z</time>
      </trkpt>
      <trkpt lat="39.9246201" lon="3.1079488">
        <ele>182.4</ele>
        <time>2015-06-21T11:42:03Z</time>
      </trkpt>
      <trkpt lat="39.9246275" lon="3.1079778">
        <ele>180.4</ele>
        <time>2015-06-21T11:42:04Z</time>
      </trkpt>
      <trkpt lat="39.9246454" lon="3.1080258">
        <ele>180.6</ele>
        <time>2015-06-21T11:42:06Z</time>
      </trkpt>
      <trkpt lat="39.9246988" lon="3.1081407">
        <ele>181.4</ele>
        <time>2015-06-21T11:42:11Z</time>
      </trkpt>
      <trkpt lat="39.9247186" lon="3.1081884">
        <ele>181.8</ele>
        <time>2015-06-21T11:42:13Z</time>
      </trkpt>
      <trkpt lat="39.9247557" lon="3.1082761">
        <ele>182.4</ele>
        <time>2015-06-21T11:42:17Z</time>
      </trkpt>
      <trkpt lat="39.9247982" lon="3.10837">
        <ele>183</ele>
        <time>2015-06-21T11:42:21Z</time>
      </trkpt>
      <trkpt lat="39.924849" lon="3.1084541">
        <ele>183.6</ele>
        <time>2015-06-21T11:42:25Z</time>
      </trkpt>
      <trkpt lat="39.9248863" lon="3.1084908">
        <ele>183.8</ele>
        <time>2015-06-21T11:42:27Z</time>
      </trkpt>
      <trkpt lat="39.9250414" lon="3.1085564">
        <ele>184.8</ele>
        <time>2015-06-21T11:42:34Z</time>
      </trkpt>
      <trkpt lat="39.9252103" lon="3.1085498">
        <ele>185.8</ele>
        <time>2015-06-21T11:42:41Z</time>
      </trkpt>
      <trkpt lat="39.925328" lon="3.1085589">
        <ele>186.8</ele>
        <time>2015-06-21T11:42:46Z</time>
      </trkpt>
      <trkpt lat="39.9253519" lon="3.1085657">
        <ele>187</ele>
        <time>2015-06-21T11:42:47Z</time>
      </trkpt>
      <trkpt lat="39.925472" lon="3.1086664">
        <ele>187.6</ele>
        <time>2015-06-21T11:42:53Z</time>
      </trkpt>
      <trkpt lat="39.9256119" lon="3.1089042">
        <ele>188.2</ele>
        <time>2015-06-21T11:43:03Z</time>
      </trkpt>
      <trkpt lat="39.9256995" lon="3.1090859">
        <ele>188.4</ele>
        <time>2015-06-21T11:43:10Z</time>
      </trkpt>
      <trkpt lat="39.9257783" lon="3.1092523">
        <ele>192.4</ele>
        <time>2015-06-21T11:43:17Z</time>
      </trkpt>
      <trkpt lat="39.9258204" lon="3.1093388">
        <ele>191.2</ele>
        <time>2015-06-21T11:43:21Z</time>
      </trkpt>
      <trkpt lat="39.9258339" lon="3.1093579">
        <ele>190</ele>
        <time>2015-06-21T11:43:22Z</time>
      </trkpt>
      <trkpt lat="39.9258664" lon="3.1093944">
        <ele>190.2</ele>
        <time>2015-06-21T11:43:24Z</time>
      </trkpt>
      <trkpt lat="39.9259676" lon="3.1094476">
        <ele>191</ele>
        <time>2015-06-21T11:43:29Z</time>
      </trkpt>
      <trkpt lat="39.9259898" lon="3.1094481">
        <ele>191.2</ele>
        <time>2015-06-21T11:43:30Z</time>
      </trkpt>
      <trkpt lat="39.9261344" lon="3.1094307">
        <ele>192.2</ele>
        <time>2015-06-21T11:43:36Z</time>
      </trkpt>
      <trkpt lat="39.9262195" lon="3.1094347">
        <ele>192.6</ele>
        <time>2015-06-21T11:43:40Z</time>
      </trkpt>
      <trkpt lat="39.9262807" lon="3.1094373">
        <ele>193.2</ele>
        <time>2015-06-21T11:43:43Z</time>
      </trkpt>
      <trkpt lat="39.9264076" lon="3.109457">
        <ele>194.4</ele>
        <time>2015-06-21T11:43:49Z</time>
      </trkpt>
      <trkpt lat="39.9265059" lon="3.1095045">
        <ele>195.6</ele>
        <time>2015-06-21T11:43:54Z</time>
      </trkpt>
      <trkpt lat="39.9265589" lon="3.1095515">
        <ele>196.2</ele>
        <time>2015-06-21T11:43:57Z</time>
      </trkpt>
      <trkpt lat="39.9265915" lon="3.1095881">
        <ele>196.6</ele>
        <time>2015-06-21T11:43:59Z</time>
      </trkpt>
      <trkpt lat="39.9266703" lon="3.1096961">
        <ele>197.8</ele>
        <time>2015-06-21T11:44:05Z</time>
      </trkpt>
      <trkpt lat="39.9267534" lon="3.1098048">
        <ele>199</ele>
        <time>2015-06-21T11:44:11Z</time>
      </trkpt>
      <trkpt lat="39.9268458" lon="3.1098555">
        <ele>200</ele>
        <time>2015-06-21T11:44:16Z</time>
      </trkpt>
      <trkpt lat="39.9268676" lon="3.109857">
        <ele>200</ele>
        <time>2015-06-21T11:44:17Z</time>
      </trkpt>
      <trkpt lat="39.9269829" lon="3.1098138">
        <ele>200.8</ele>
        <time>2015-06-21T11:44:22Z</time>
      </trkpt>
      <trkpt lat="39.927098" lon="3.1097357">
        <ele>201.2</ele>
        <time>2015-06-21T11:44:27Z</time>
      </trkpt>
      <trkpt lat="39.9271935" lon="3.1097198">
        <ele>201.4</ele>
        <time>2015-06-21T11:44:31Z</time>
      </trkpt>
      <trkpt lat="39.9273187" lon="3.1097732">
        <ele>202.4</ele>
        <time>2015-06-21T11:44:37Z</time>
      </trkpt>
      <trkpt lat="39.9273594" lon="3.1097928">
        <ele>202.8</ele>
        <time>2015-06-21T11:44:39Z</time>
      </trkpt>
      <trkpt lat="39.92742" lon="3.1098168">
        <ele>203.4</ele>
        <time>2015-06-21T11:44:42Z</time>
      </trkpt>
      <trkpt lat="39.9274924" lon="3.1098411">
        <ele>204</ele>
        <time>2015-06-21T11:44:45Z</time>
      </trkpt>
      <trkpt lat="39.9275129" lon="3.1098518">
        <ele>204.8</ele>
        <time>2015-06-21T11:44:46Z</time>
      </trkpt>
      <trkpt lat="39.9276739" lon="3.1099194">
        <ele>205.4</ele>
        <time>2015-06-21T11:44:54Z</time>
      </trkpt>
      <trkpt lat="39.9278008" lon="3.1099772">
        <ele>205.8</ele>
        <time>2015-06-21T11:45:01Z</time>
      </trkpt>
      <trkpt lat="39.9278147" lon="3.1099852">
        <ele>206</ele>
        <time>2015-06-21T11:45:02Z</time>
      </trkpt>
      <trkpt lat="39.9279417" lon="3.1100411">
        <ele>207</ele>
        <time>2015-06-21T11:45:08Z</time>
      </trkpt>
      <trkpt lat="39.9280717" lon="3.1100826">
        <ele>208.2</ele>
        <time>2015-06-21T11:45:14Z</time>
      </trkpt>
      <trkpt lat="39.9282464" lon="3.1100891">
        <ele>209.2</ele>
        <time>2015-06-21T11:45:21Z</time>
      </trkpt>
      <trkpt lat="39.9282929" lon="3.1100925">
        <ele>209.4</ele>
        <time>2015-06-21T11:45:23Z</time>
      </trkpt>
      <trkpt lat="39.9283995" lon="3.1100965">
        <ele>210.4</ele>
        <time>2015-06-21T11:45:28Z</time>
      </trkpt>
      <trkpt lat="39.9284748" lon="3.1101106">
        <ele>210.8</ele>
        <time>2015-06-21T11:45:32Z</time>
      </trkpt>
      <trkpt lat="39.9285307" lon="3.1101483">
        <ele>211.4</ele>
        <time>2015-06-21T11:45:35Z</time>
      </trkpt>
      <trkpt lat="39.9285596" lon="3.1101873">
        <ele>211.8</ele>
        <time>2015-06-21T11:45:37Z</time>
      </trkpt>
      <trkpt lat="39.928604" lon="3.1102695">
        <ele>212.4</ele>
        <time>2015-06-21T11:45:41Z</time>
      </trkpt>
      <trkpt lat="39.9286416" lon="3.1103622">
        <ele>212.8</ele>
        <time>2015-06-21T11:45:46Z</time>
      </trkpt>
      <trkpt lat="39.9286488" lon="3.1104083">
        <ele>212.8</ele>
        <time>2015-06-21T11:45:51Z</time>
      </trkpt>
      <trkpt lat="39.9286535" lon="3.1104059">
        <ele>212.2</ele>
        <time>2015-06-21T11:45:56Z</time>
      </trkpt>
      <trkpt lat="39.9286535" lon="3.1104052">
        <ele>211.4</ele>
        <time>2015-06-21T11:45:59Z</time>
      </trkpt>
      <trkpt lat="39.9286587" lon="3.1103954">
        <ele>211</ele>
        <time>2015-06-21T11:46:03Z</time>
      </trkpt>
      <trkpt lat="39.9286652" lon="3.1103922">
        <ele>210.4</ele>
        <time>2015-06-21T11:46:08Z</time>
      </trkpt>
      <trkpt lat="39.9286669" lon="3.1103901">
        <ele>209.8</ele>
        <time>2015-06-21T11:46:11Z</time>
      </trkpt>
      <trkpt lat="39.9286663" lon="3.1103931">
        <ele>210.2</ele>
        <time>2015-06-21T11:46:21Z</time>
      </trkpt>
      <trkpt lat="39.9286569" lon="3.1103979">
        <ele>210.6</ele>
        <time>2015-06-21T11:46:27Z</time>
      </trkpt>
      <trkpt lat="39.9286588" lon="3.1103949">
        <ele>210.2</ele>
        <time>2015-06-21T11:46:34Z</time>
      </trkpt>
      <trkpt lat="39.9286629" lon="3.1103923">
        <ele>210.2</ele>
        <time>2015-06-21T11:46:46Z</time>
      </trkpt>
      <trkpt lat="39.9286667" lon="3.1103948">
        <ele>210.4</ele>
        <time>2015-06-21T11:46:51Z</time>
      </trkpt>
      <trkpt lat="39.9286641" lon="3.1103944">
        <ele>210.4</ele>
        <time>2015-06-21T11:46:53Z</time>
      </trkpt>
      <trkpt lat="39.9286737" lon="3.1103881">
        <ele>210.2</ele>
        <time>2015-06-21T11:46:59Z</time>
      </trkpt>
      <trkpt lat="39.9286796" lon="3.1103947">
        <ele>210.2</ele>
        <time>2015-06-21T11:47:03Z</time>
      </trkpt>
      <trkpt lat="39.9286947" lon="3.1104145">
        <ele>205</ele>
        <time>2015-06-21T11:47:05Z</time>
      </trkpt>
      <trkpt lat="39.9287062" lon="3.1104275">
        <ele>204</ele>
        <time>2015-06-21T11:47:06Z</time>
      </trkpt>
      <trkpt lat="39.928765" lon="3.1104962">
        <ele>204</ele>
        <time>2015-06-21T11:47:10Z</time>
      </trkpt>
      <trkpt lat="39.9288596" lon="3.1107009">
        <ele>204.6</ele>
        <time>2015-06-21T11:47:18Z</time>
      </trkpt>
      <trkpt lat="39.9288923" lon="3.1108741">
        <ele>205</ele>
        <time>2015-06-21T11:47:25Z</time>
      </trkpt>
      <trkpt lat="39.9288992" lon="3.1108932">
        <ele>205</ele>
        <time>2015-06-21T11:47:26Z</time>
      </trkpt>
      <trkpt lat="39.9289094" lon="3.1109358">
        <ele>204.8</ele>
        <time>2015-06-21T11:47:31Z</time>
      </trkpt>
      <trkpt lat="39.9289117" lon="3.1109432">
        <ele>204.8</ele>
        <time>2015-06-21T11:47:38Z</time>
      </trkpt>
      <trkpt lat="39.9289178" lon="3.1109491">
        <ele>204.8</ele>
        <time>2015-06-21T11:47:44Z</time>
      </trkpt>
      <trkpt lat="39.9289332" lon="3.1109908">
        <ele>204.8</ele>
        <time>2015-06-21T11:47:51Z</time>
      </trkpt>
      <trkpt lat="39.9289412" lon="3.1110242">
        <ele>205.6</ele>
        <time>2015-06-21T11:47:58Z</time>
      </trkpt>
      <trkpt lat="39.9289436" lon="3.1110289">
        <ele>206</ele>
        <time>2015-06-21T11:48:03Z</time>
      </trkpt>
      <trkpt lat="39.9289466" lon="3.111024">
        <ele>206.2</ele>
        <time>2015-06-21T11:48:05Z</time>
      </trkpt>
      <trkpt lat="39.9289472" lon="3.1110405">
        <ele>207</ele>
        <time>2015-06-21T11:48:12Z</time>
      </trkpt>
      <trkpt lat="39.9289422" lon="3.111046">
        <ele>207.2</ele>
        <time>2015-06-21T11:48:13Z</time>
      </trkpt>
      <trkpt lat="39.9289333" lon="3.1110435">
        <ele>207.8</ele>
        <time>2015-06-21T11:48:17Z</time>
      </trkpt>
      <trkpt lat="39.9289358" lon="3.111042">
        <ele>208.6</ele>
        <time>2015-06-21T11:48:21Z</time>
      </trkpt>
      <trkpt lat="39.9289345" lon="3.1110412">
        <ele>208.8</ele>
        <time>2015-06-21T11:48:23Z</time>
      </trkpt>
      <trkpt lat="39.9289333" lon="3.1110461">
        <ele>209.8</ele>
        <time>2015-06-21T11:48:29Z</time>
      </trkpt>
      <trkpt lat="39.9289337" lon="3.11105">
        <ele>210.8</ele>
        <time>2015-06-21T11:48:33Z</time>
      </trkpt>
      <trkpt lat="39.928933" lon="3.1110517">
        <ele>211.2</ele>
        <time>2015-06-21T11:48:35Z</time>
      </trkpt>
      <trkpt lat="39.9289332" lon="3.1110552">
        <ele>211.4</ele>
        <time>2015-06-21T11:48:48Z</time>
      </trkpt>
      <trkpt lat="39.9289376" lon="3.1110717">
        <ele>211.2</ele>
        <time>2015-06-21T11:48:55Z</time>
      </trkpt>
      <trkpt lat="39.9289384" lon="3.1110807">
        <ele>211.4</ele>
        <time>2015-06-21T11:49:02Z</time>
      </trkpt>
      <trkpt lat="39.9289459" lon="3.1110763">
        <ele>211.6</ele>
        <time>2015-06-21T11:49:10Z</time>
      </trkpt>
      <trkpt lat="39.9289397" lon="3.1110683">
        <ele>211.6</ele>
        <time>2015-06-21T11:49:17Z</time>
      </trkpt>
      <trkpt lat="39.9289322" lon="3.1110632">
        <ele>210.8</ele>
        <time>2015-06-21T11:49:25Z</time>
      </trkpt>
      <trkpt lat="39.9289364" lon="3.111058">
        <ele>211.2</ele>
        <time>2015-06-21T11:49:34Z</time>
      </trkpt>
      <trkpt lat="39.9289316" lon="3.11106">
        <ele>211</ele>
        <time>2015-06-21T11:49:43Z</time>
      </trkpt>
      <trkpt lat="39.9289242" lon="3.1110735">
        <ele>211.2</ele>
        <time>2015-06-21T11:49:49Z</time>
      </trkpt>
      <trkpt lat="39.928929" lon="3.1110795">
        <ele>211.8</ele>
        <time>2015-06-21T11:50:06Z</time>
      </trkpt>
      <trkpt lat="39.9289252" lon="3.1110807">
        <ele>211.4</ele>
        <time>2015-06-21T11:50:20Z</time>
      </trkpt>
      <trkpt lat="39.9289285" lon="3.111077">
        <ele>211.6</ele>
        <time>2015-06-21T11:50:27Z</time>
      </trkpt>
      <trkpt lat="39.9289296" lon="3.1110764">
        <ele>204.8</ele>
        <time>2015-06-21T11:50:39Z</time>
      </trkpt>
      <trkpt lat="39.9289295" lon="3.1110763">
        <ele>194</ele>
        <time>2015-06-21T11:50:40Z</time>
      </trkpt>
      <trkpt lat="39.9289296" lon="3.1110761">
        <ele>188.2</ele>
        <time>2015-06-21T11:50:41Z</time>
      </trkpt>
      <trkpt lat="39.9289291" lon="3.1110767">
        <ele>184</ele>
        <time>2015-06-21T11:50:42Z</time>
      </trkpt>
      <trkpt lat="39.9289286" lon="3.1110772">
        <ele>185.8</ele>
        <time>2015-06-21T11:50:43Z</time>
      </trkpt>
      <trkpt lat="39.928929" lon="3.1110769">
        <ele>193.2</ele>
        <time>2015-06-21T11:50:44Z</time>
      </trkpt>
      <trkpt lat="39.9289291" lon="3.1110766">
        <ele>199</ele>
        <time>2015-06-21T11:50:45Z</time>
      </trkpt>
      <trkpt lat="39.9289292" lon="3.1110765">
        <ele>205.6</ele>
        <time>2015-06-21T11:50:46Z</time>
      </trkpt>
      <trkpt lat="39.9289295" lon="3.1110763">
        <ele>210.4</ele>
        <time>2015-06-21T11:50:47Z</time>
      </trkpt>
      <trkpt lat="39.9289297" lon="3.1110765">
        <ele>211.6</ele>
        <time>2015-06-21T11:50:48Z</time>
      </trkpt>
      <trkpt lat="39.9289302" lon="3.1110766">
        <ele>211.6</ele>
        <time>2015-06-21T11:50:53Z</time>
      </trkpt>
      <trkpt lat="39.928932" lon="3.1110725">
        <ele>211.2</ele>
        <time>2015-06-21T11:50:59Z</time>
      </trkpt>
      <trkpt lat="39.9289414" lon="3.1110865">
        <ele>211</ele>
        <time>2015-06-21T11:51:02Z</time>
      </trkpt>
      <trkpt lat="39.9289363" lon="3.111118">
        <ele>211</ele>
        <time>2015-06-21T11:51:05Z</time>
      </trkpt>
      <trkpt lat="39.9289327" lon="3.1111165">
        <ele>211.6</ele>
        <time>2015-06-21T11:51:10Z</time>
      </trkpt>
      <trkpt lat="39.9289331" lon="3.111117">
        <ele>211.4</ele>
        <time>2015-06-21T11:51:18Z</time>
      </trkpt>
      <trkpt lat="39.9289346" lon="3.111102">
        <ele>211.4</ele>
        <time>2015-06-21T11:51:27Z</time>
      </trkpt>
      <trkpt lat="39.9289316" lon="3.1110904">
        <ele>211</ele>
        <time>2015-06-21T11:51:35Z</time>
      </trkpt>
      <trkpt lat="39.9289349" lon="3.1111213">
        <ele>211</ele>
        <time>2015-06-21T11:51:40Z</time>
      </trkpt>
      <trkpt lat="39.9289349" lon="3.1111277">
        <ele>211.2</ele>
        <time>2015-06-21T11:51:46Z</time>
      </trkpt>
      <trkpt lat="39.928931" lon="3.1110921">
        <ele>211.6</ele>
        <time>2015-06-21T11:51:57Z</time>
      </trkpt>
      <trkpt lat="39.9289275" lon="3.1110576">
        <ele>211.6</ele>
        <time>2015-06-21T11:52:03Z</time>
      </trkpt>
      <trkpt lat="39.9289326" lon="3.1110371">
        <ele>210.8</ele>
        <time>2015-06-21T11:52:09Z</time>
      </trkpt>
      <trkpt lat="39.9289219" lon="3.1110335">
        <ele>211</ele>
        <time>2015-06-21T11:52:18Z</time>
      </trkpt>
      <trkpt lat="39.9289187" lon="3.1110139">
        <ele>211.2</ele>
        <time>2015-06-21T11:52:24Z</time>
      </trkpt>
      <trkpt lat="39.9289202" lon="3.1110066">
        <ele>211.4</ele>
        <time>2015-06-21T11:52:32Z</time>
      </trkpt>
      <trkpt lat="39.9289171" lon="3.1110071">
        <ele>211.2</ele>
        <time>2015-06-21T11:52:46Z</time>
      </trkpt>
      <trkpt lat="39.9289192" lon="3.1110165">
        <ele>211.6</ele>
        <time>2015-06-21T11:52:51Z</time>
      </trkpt>
      <trkpt lat="39.9289226" lon="3.1110201">
        <ele>211.6</ele>
        <time>2015-06-21T11:52:53Z</time>
      </trkpt>
      <trkpt lat="39.9289247" lon="3.1110118">
        <ele>211.6</ele>
        <time>2015-06-21T11:53:02Z</time>
      </trkpt>
      <trkpt lat="39.9289294" lon="3.1110147">
        <ele>210.8</ele>
        <time>2015-06-21T11:53:11Z</time>
      </trkpt>
      <trkpt lat="39.928934" lon="3.1110128">
        <ele>211</ele>
        <time>2015-06-21T11:53:19Z</time>
      </trkpt>
      <trkpt lat="39.9289405" lon="3.1109956">
        <ele>211</ele>
        <time>2015-06-21T11:53:38Z</time>
      </trkpt>
      <trkpt lat="39.9289315" lon="3.1109734">
        <ele>211.4</ele>
        <time>2015-06-21T11:53:43Z</time>
      </trkpt>
      <trkpt lat="39.928913" lon="3.1109406">
        <ele>211.4</ele>
        <time>2015-06-21T11:53:50Z</time>
      </trkpt>
      <trkpt lat="39.9289064" lon="3.110949">
        <ele>211.4</ele>
        <time>2015-06-21T11:53:57Z</time>
      </trkpt>
      <trkpt lat="39.9288991" lon="3.1109346">
        <ele>211.6</ele>
        <time>2015-06-21T11:54:04Z</time>
      </trkpt>
      <trkpt lat="39.9288933" lon="3.1109332">
        <ele>211.6</ele>
        <time>2015-06-21T11:54:12Z</time>
      </trkpt>
      <trkpt lat="39.9288932" lon="3.1109327">
        <ele>211.4</ele>
        <time>2015-06-21T11:54:18Z</time>
      </trkpt>
      <trkpt lat="39.9288768" lon="3.1109239">
        <ele>211.4</ele>
        <time>2015-06-21T11:54:25Z</time>
      </trkpt>
      <trkpt lat="39.9288586" lon="3.1109245">
        <ele>211.6</ele>
        <time>2015-06-21T11:54:26Z</time>
      </trkpt>
      <trkpt lat="39.9288192" lon="3.1109635">
        <ele>214.2</ele>
        <time>2015-06-21T11:54:28Z</time>
      </trkpt>
      <trkpt lat="39.928797" lon="3.1109999">
        <ele>214</ele>
        <time>2015-06-21T11:54:29Z</time>
      </trkpt>
      <trkpt lat="39.9287714" lon="3.1110382">
        <ele>213.8</ele>
        <time>2015-06-21T11:54:30Z</time>
      </trkpt>
      <trkpt lat="39.9287473" lon="3.1110807">
        <ele>213.6</ele>
        <time>2015-06-21T11:54:31Z</time>
      </trkpt>
      <trkpt lat="39.9287203" lon="3.1111351">
        <ele>213.2</ele>
        <time>2015-06-21T11:54:32Z</time>
      </trkpt>
      <trkpt lat="39.9286974" lon="3.1111936">
        <ele>210.2</ele>
        <time>2015-06-21T11:54:33Z</time>
      </trkpt>
      <trkpt lat="39.9286763" lon="3.1113223">
        <ele>209.4</ele>
        <time>2015-06-21T11:54:35Z</time>
      </trkpt>
      <trkpt lat="39.9286806" lon="3.1113884">
        <ele>209</ele>
        <time>2015-06-21T11:54:36Z</time>
      </trkpt>
      <trkpt lat="39.9287042" lon="3.1115392">
        <ele>208.6</ele>
        <time>2015-06-21T11:54:38Z</time>
      </trkpt>
      <trkpt lat="39.9287156" lon="3.1116127">
        <ele>208.6</ele>
        <time>2015-06-21T11:54:39Z</time>
      </trkpt>
      <trkpt lat="39.9287393" lon="3.1117446">
        <ele>208</ele>
        <time>2015-06-21T11:54:41Z</time>
      </trkpt>
      <trkpt lat="39.9287959" lon="3.1119623">
        <ele>206.6</ele>
        <time>2015-06-21T11:54:44Z</time>
      </trkpt>
      <trkpt lat="39.9288434" lon="3.1121115">
        <ele>205.6</ele>
        <time>2015-06-21T11:54:46Z</time>
      </trkpt>
      <trkpt lat="39.9288722" lon="3.112197">
        <ele>205.2</ele>
        <time>2015-06-21T11:54:47Z</time>
      </trkpt>
      <trkpt lat="39.9289105" lon="3.1123438">
        <ele>203.8</ele>
        <time>2015-06-21T11:54:49Z</time>
      </trkpt>
      <trkpt lat="39.9289445" lon="3.1124751">
        <ele>202.8</ele>
        <time>2015-06-21T11:54:51Z</time>
      </trkpt>
      <trkpt lat="39.9289905" lon="3.1127003">
        <ele>201.8</ele>
        <time>2015-06-21T11:54:54Z</time>
      </trkpt>
      <trkpt lat="39.9290235" lon="3.1129078">
        <ele>200.6</ele>
        <time>2015-06-21T11:54:57Z</time>
      </trkpt>
      <trkpt lat="39.9290574" lon="3.1130167">
        <ele>199.6</ele>
        <time>2015-06-21T11:54:59Z</time>
      </trkpt>
      <trkpt lat="39.9291047" lon="3.1130761">
        <ele>198.8</ele>
        <time>2015-06-21T11:55:01Z</time>
      </trkpt>
      <trkpt lat="39.9291803" lon="3.1130586">
        <ele>198.4</ele>
        <time>2015-06-21T11:55:03Z</time>
      </trkpt>
      <trkpt lat="39.9292067" lon="3.1130069">
        <ele>198.2</ele>
        <time>2015-06-21T11:55:04Z</time>
      </trkpt>
      <trkpt lat="39.9292033" lon="3.1128523">
        <ele>198</ele>
        <time>2015-06-21T11:55:06Z</time>
      </trkpt>
      <trkpt lat="39.9291889" lon="3.1127649">
        <ele>197.4</ele>
        <time>2015-06-21T11:55:07Z</time>
      </trkpt>
      <trkpt lat="39.9291629" lon="3.1126974">
        <ele>196.8</ele>
        <time>2015-06-21T11:55:08Z</time>
      </trkpt>
      <trkpt lat="39.9291361" lon="3.1125618">
        <ele>195.8</ele>
        <time>2015-06-21T11:55:10Z</time>
      </trkpt>
      <trkpt lat="39.9291195" lon="3.1124302">
        <ele>195.2</ele>
        <time>2015-06-21T11:55:12Z</time>
      </trkpt>
      <trkpt lat="39.9291025" lon="3.1122296">
        <ele>194.8</ele>
        <time>2015-06-21T11:55:15Z</time>
      </trkpt>
      <trkpt lat="39.9290958" lon="3.112167">
        <ele>194.8</ele>
        <time>2015-06-21T11:55:16Z</time>
      </trkpt>
      <trkpt lat="39.9290914" lon="3.1120178">
        <ele>194.4</ele>
        <time>2015-06-21T11:55:18Z</time>
      </trkpt>
      <trkpt lat="39.9291318" lon="3.1118889">
        <ele>194.2</ele>
        <time>2015-06-21T11:55:20Z</time>
      </trkpt>
      <trkpt lat="39.9292212" lon="3.1118262">
        <ele>194.2</ele>
        <time>2015-06-21T11:55:22Z</time>
      </trkpt>
      <trkpt lat="39.9292819" lon="3.1119038">
        <ele>194.2</ele>
        <time>2015-06-21T11:55:23Z</time>
      </trkpt>
      <trkpt lat="39.9293094" lon="3.1120526">
        <ele>194</ele>
        <time>2015-06-21T11:55:25Z</time>
      </trkpt>
      <trkpt lat="39.9293118" lon="3.1121301">
        <ele>193.4</ele>
        <time>2015-06-21T11:55:26Z</time>
      </trkpt>
      <trkpt lat="39.929313" lon="3.1122086">
        <ele>192.4</ele>
        <time>2015-06-21T11:55:27Z</time>
      </trkpt>
      <trkpt lat="39.9293121" lon="3.1122835">
        <ele>191.4</ele>
        <time>2015-06-21T11:55:28Z</time>
      </trkpt>
      <trkpt lat="39.9293099" lon="3.1123505">
        <ele>190</ele>
        <time>2015-06-21T11:55:29Z</time>
      </trkpt>
      <trkpt lat="39.9293092" lon="3.1124078">
        <ele>188.8</ele>
        <time>2015-06-21T11:55:30Z</time>
      </trkpt>
      <trkpt lat="39.9293031" lon="3.1124568">
        <ele>188.2</ele>
        <time>2015-06-21T11:55:31Z</time>
      </trkpt>
      <trkpt lat="39.9292995" lon="3.1125489">
        <ele>188</ele>
        <time>2015-06-21T11:55:34Z</time>
      </trkpt>
      <trkpt lat="39.9292978" lon="3.1125566">
        <ele>188</ele>
        <time>2015-06-21T11:55:37Z</time>
      </trkpt>
      <trkpt lat="39.9292982" lon="3.1125533">
        <ele>194.4</ele>
        <time>2015-06-21T11:55:39Z</time>
      </trkpt>
      <trkpt lat="39.9292957" lon="3.1125514">
        <ele>185.2</ele>
        <time>2015-06-21T11:55:44Z</time>
      </trkpt>
      <trkpt lat="39.9292957" lon="3.1125513">
        <ele>176.2</ele>
        <time>2015-06-21T11:55:45Z</time>
      </trkpt>
      <trkpt lat="39.9292958" lon="3.1125509">
        <ele>167.8</ele>
        <time>2015-06-21T11:55:46Z</time>
      </trkpt>
      <trkpt lat="39.9292963" lon="3.1125506">
        <ele>158.4</ele>
        <time>2015-06-21T11:55:47Z</time>
      </trkpt>
      <trkpt lat="39.9292967" lon="3.1125503">
        <ele>149.6</ele>
        <time>2015-06-21T11:55:48Z</time>
      </trkpt>
      <trkpt lat="39.9292968" lon="3.1125498">
        <ele>163.2</ele>
        <time>2015-06-21T11:55:50Z</time>
      </trkpt>
      <trkpt lat="39.9292974" lon="3.1125498">
        <ele>171.8</ele>
        <time>2015-06-21T11:55:51Z</time>
      </trkpt>
      <trkpt lat="39.9292979" lon="3.1125494">
        <ele>181.2</ele>
        <time>2015-06-21T11:55:52Z</time>
      </trkpt>
      <trkpt lat="39.929298" lon="3.1125492">
        <ele>190</ele>
        <time>2015-06-21T11:55:53Z</time>
      </trkpt>
      <trkpt lat="39.9292982" lon="3.1125491">
        <ele>188</ele>
        <time>2015-06-21T11:55:54Z</time>
      </trkpt>
      <trkpt lat="39.9292937" lon="3.1125513">
        <ele>188</ele>
        <time>2015-06-21T11:56:01Z</time>
      </trkpt>
      <trkpt lat="39.9292974" lon="3.1125513">
        <ele>192.2</ele>
        <time>2015-06-21T11:56:08Z</time>
      </trkpt>
      <trkpt lat="39.9292952" lon="3.1125539">
        <ele>191.2</ele>
        <time>2015-06-21T11:56:10Z</time>
      </trkpt>
      <trkpt lat="39.9293139" lon="3.1125373">
        <ele>191.6</ele>
        <time>2015-06-21T11:56:16Z</time>
      </trkpt>
      <trkpt lat="39.9293027" lon="3.1125577">
        <ele>191.6</ele>
        <time>2015-06-21T11:56:23Z</time>
      </trkpt>
      <trkpt lat="39.9293095" lon="3.1125751">
        <ele>191.4</ele>
        <time>2015-06-21T11:56:24Z</time>
      </trkpt>
      <trkpt lat="39.9293144" lon="3.1126191">
        <ele>191.2</ele>
        <time>2015-06-21T11:56:26Z</time>
      </trkpt>
      <trkpt lat="39.9293067" lon="3.1126473">
        <ele>191</ele>
        <time>2015-06-21T11:56:29Z</time>
      </trkpt>
      <trkpt lat="39.9293067" lon="3.1126529">
        <ele>191.2</ele>
        <time>2015-06-21T11:56:34Z</time>
      </trkpt>
      <trkpt lat="39.929302" lon="3.1126541">
        <ele>191.6</ele>
        <time>2015-06-21T11:56:40Z</time>
      </trkpt>
      <trkpt lat="39.9292994" lon="3.1126565">
        <ele>192</ele>
        <time>2015-06-21T11:56:46Z</time>
      </trkpt>
      <trkpt lat="39.9292744" lon="3.1126729">
        <ele>192</ele>
        <time>2015-06-21T11:56:52Z</time>
      </trkpt>
      <trkpt lat="39.9292886" lon="3.1126621">
        <ele>191.8</ele>
        <time>2015-06-21T11:56:57Z</time>
      </trkpt>
      <trkpt lat="39.9292891" lon="3.1126609">
        <ele>191.6</ele>
        <time>2015-06-21T11:57:06Z</time>
      </trkpt>
      <trkpt lat="39.929301" lon="3.1126534">
        <ele>192.4</ele>
        <time>2015-06-21T11:57:11Z</time>
      </trkpt>
      <trkpt lat="39.9293054" lon="3.1126506">
        <ele>192</ele>
        <time>2015-06-21T11:57:14Z</time>
      </trkpt>
      <trkpt lat="39.929306" lon="3.1126511">
        <ele>189</ele>
        <time>2015-06-21T11:57:19Z</time>
      </trkpt>
      <trkpt lat="39.9293049" lon="3.1126526">
        <ele>185.6</ele>
        <time>2015-06-21T11:57:20Z</time>
      </trkpt>
      <trkpt lat="39.9293093" lon="3.1126498">
        <ele>186.8</ele>
        <time>2015-06-21T11:57:21Z</time>
      </trkpt>
      <trkpt lat="39.9293084" lon="3.1126517">
        <ele>189.6</ele>
        <time>2015-06-21T11:57:22Z</time>
      </trkpt>
      <trkpt lat="39.9293097" lon="3.1126503">
        <ele>198.2</ele>
        <time>2015-06-21T11:57:23Z</time>
      </trkpt>
      <trkpt lat="39.9293058" lon="3.1126544">
        <ele>209.6</ele>
        <time>2015-06-21T11:57:24Z</time>
      </trkpt>
      <trkpt lat="39.9293077" lon="3.1126529">
        <ele>218.4</ele>
        <time>2015-06-21T11:57:25Z</time>
      </trkpt>
      <trkpt lat="39.9293088" lon="3.1126526">
        <ele>227.6</ele>
        <time>2015-06-21T11:57:26Z</time>
      </trkpt>
      <trkpt lat="39.9293091" lon="3.1126528">
        <ele>237.2</ele>
        <time>2015-06-21T11:57:27Z</time>
      </trkpt>
      <trkpt lat="39.9293066" lon="3.1126554">
        <ele>236.2</ele>
        <time>2015-06-21T11:57:29Z</time>
      </trkpt>
      <trkpt lat="39.9293061" lon="3.112656">
        <ele>241.6</ele>
        <time>2015-06-21T11:57:30Z</time>
      </trkpt>
      <trkpt lat="39.9293066" lon="3.112656">
        <ele>239.2</ele>
        <time>2015-06-21T11:57:31Z</time>
      </trkpt>
      <trkpt lat="39.9293084" lon="3.1126554">
        <ele>235.2</ele>
        <time>2015-06-21T11:57:32Z</time>
      </trkpt>
      <trkpt lat="39.9293089" lon="3.1126556">
        <ele>231.8</ele>
        <time>2015-06-21T11:57:33Z</time>
      </trkpt>
      <trkpt lat="39.9293097" lon="3.1126556">
        <ele>230.2</ele>
        <time>2015-06-21T11:57:34Z</time>
      </trkpt>
      <trkpt lat="39.9293108" lon="3.1126549">
        <ele>225.6</ele>
        <time>2015-06-21T11:57:35Z</time>
      </trkpt>
      <trkpt lat="39.9293114" lon="3.1126549">
        <ele>223.6</ele>
        <time>2015-06-21T11:57:36Z</time>
      </trkpt>
      <trkpt lat="39.9293124" lon="3.1126544">
        <ele>220.4</ele>
        <time>2015-06-21T11:57:37Z</time>
      </trkpt>
      <trkpt lat="39.9293159" lon="3.1126527">
        <ele>218.8</ele>
        <time>2015-06-21T11:57:41Z</time>
      </trkpt>
      <trkpt lat="39.9293174" lon="3.1126519">
        <ele>217.6</ele>
        <time>2015-06-21T11:57:43Z</time>
      </trkpt>
      <trkpt lat="39.9293182" lon="3.1126519">
        <ele>215.6</ele>
        <time>2015-06-21T11:57:44Z</time>
      </trkpt>
      <trkpt lat="39.9293191" lon="3.1126516">
        <ele>214</ele>
        <time>2015-06-21T11:57:45Z</time>
      </trkpt>
      <trkpt lat="39.9293197" lon="3.1126512">
        <ele>212.6</ele>
        <time>2015-06-21T11:57:46Z</time>
      </trkpt>
      <trkpt lat="39.9293212" lon="3.1126501">
        <ele>213.8</ele>
        <time>2015-06-21T11:57:48Z</time>
      </trkpt>
      <trkpt lat="39.9293232" lon="3.1126488">
        <ele>213.6</ele>
        <time>2015-06-21T11:57:51Z</time>
      </trkpt>
      <trkpt lat="39.9293306" lon="3.1126634">
        <ele>214.2</ele>
        <time>2015-06-21T11:58:02Z</time>
      </trkpt>
      <trkpt lat="39.9293393" lon="3.1127135">
        <ele>214.6</ele>
        <time>2015-06-21T11:58:05Z</time>
      </trkpt>
      <trkpt lat="39.9293419" lon="3.1127228">
        <ele>214.6</ele>
        <time>2015-06-21T11:58:06Z</time>
      </trkpt>
      <trkpt lat="39.9293562" lon="3.1127701">
        <ele>214.6</ele>
        <time>2015-06-21T11:58:09Z</time>
      </trkpt>
      <trkpt lat="39.9293689" lon="3.1128318">
        <ele>214.2</ele>
        <time>2015-06-21T11:58:11Z</time>
      </trkpt>
      <trkpt lat="39.9293866" lon="3.1130553">
        <ele>213.4</ele>
        <time>2015-06-21T11:58:15Z</time>
      </trkpt>
      <trkpt lat="39.9294062" lon="3.1132481">
        <ele>212.4</ele>
        <time>2015-06-21T11:58:18Z</time>
      </trkpt>
      <trkpt lat="39.9294098" lon="3.1133694">
        <ele>211.8</ele>
        <time>2015-06-21T11:58:20Z</time>
      </trkpt>
      <trkpt lat="39.9294027" lon="3.1134323">
        <ele>211.4</ele>
        <time>2015-06-21T11:58:21Z</time>
      </trkpt>
      <trkpt lat="39.9293947" lon="3.1134992">
        <ele>211.4</ele>
        <time>2015-06-21T11:58:22Z</time>
      </trkpt>
      <trkpt lat="39.9293939" lon="3.1135687">
        <ele>211.4</ele>
        <time>2015-06-21T11:58:23Z</time>
      </trkpt>
      <trkpt lat="39.9294133" lon="3.1137738">
        <ele>211</ele>
        <time>2015-06-21T11:58:26Z</time>
      </trkpt>
      <trkpt lat="39.9294857" lon="3.1139883">
        <ele>210</ele>
        <time>2015-06-21T11:58:29Z</time>
      </trkpt>
      <trkpt lat="39.9295403" lon="3.1141214">
        <ele>209.2</ele>
        <time>2015-06-21T11:58:31Z</time>
      </trkpt>
      <trkpt lat="39.9295635" lon="3.1142035">
        <ele>209</ele>
        <time>2015-06-21T11:58:32Z</time>
      </trkpt>
      <trkpt lat="39.9295695" lon="3.1142882">
        <ele>208.8</ele>
        <time>2015-06-21T11:58:33Z</time>
      </trkpt>
      <trkpt lat="39.9295686" lon="3.1144658">
        <ele>208.4</ele>
        <time>2015-06-21T11:58:35Z</time>
      </trkpt>
      <trkpt lat="39.9296228" lon="3.1146276">
        <ele>208</ele>
        <time>2015-06-21T11:58:37Z</time>
      </trkpt>
      <trkpt lat="39.9296721" lon="3.1146909">
        <ele>207.8</ele>
        <time>2015-06-21T11:58:38Z</time>
      </trkpt>
      <trkpt lat="39.9298241" lon="3.1147781">
        <ele>207.2</ele>
        <time>2015-06-21T11:58:40Z</time>
      </trkpt>
      <trkpt lat="39.9298895" lon="3.1148323">
        <ele>206.2</ele>
        <time>2015-06-21T11:58:41Z</time>
      </trkpt>
      <trkpt lat="39.930015" lon="3.1149536">
        <ele>205</ele>
        <time>2015-06-21T11:58:43Z</time>
      </trkpt>
      <trkpt lat="39.9301344" lon="3.1150761">
        <ele>203.6</ele>
        <time>2015-06-21T11:58:45Z</time>
      </trkpt>
      <trkpt lat="39.9301875" lon="3.1151396">
        <ele>202.2</ele>
        <time>2015-06-21T11:58:46Z</time>
      </trkpt>
      <trkpt lat="39.930243" lon="3.115219">
        <ele>201.6</ele>
        <time>2015-06-21T11:58:47Z</time>
      </trkpt>
      <trkpt lat="39.9302853" lon="3.1152932">
        <ele>201</ele>
        <time>2015-06-21T11:58:48Z</time>
      </trkpt>
      <trkpt lat="39.9303268" lon="3.1153624">
        <ele>200.2</ele>
        <time>2015-06-21T11:58:49Z</time>
      </trkpt>
      <trkpt lat="39.9303671" lon="3.1154322">
        <ele>199.6</ele>
        <time>2015-06-21T11:58:50Z</time>
      </trkpt>
      <trkpt lat="39.9303984" lon="3.1155009">
        <ele>199.4</ele>
        <time>2015-06-21T11:58:51Z</time>
      </trkpt>
      <trkpt lat="39.9304446" lon="3.1156822">
        <ele>198</ele>
        <time>2015-06-21T11:58:53Z</time>
      </trkpt>
      <trkpt lat="39.9304536" lon="3.1158986">
        <ele>196.6</ele>
        <time>2015-06-21T11:58:55Z</time>
      </trkpt>
      <trkpt lat="39.9304782" lon="3.1161052">
        <ele>195</ele>
        <time>2015-06-21T11:58:57Z</time>
      </trkpt>
      <trkpt lat="39.9305281" lon="3.1163416">
        <ele>193.6</ele>
        <time>2015-06-21T11:58:59Z</time>
      </trkpt>
      <trkpt lat="39.9305993" lon="3.1165544">
        <ele>191.8</ele>
        <time>2015-06-21T11:59:01Z</time>
      </trkpt>
      <trkpt lat="39.9306338" lon="3.1166679">
        <ele>190.8</ele>
        <time>2015-06-21T11:59:02Z</time>
      </trkpt>
      <trkpt lat="39.9306602" lon="3.1167751">
        <ele>189.6</ele>
        <time>2015-06-21T11:59:03Z</time>
      </trkpt>
      <trkpt lat="39.930674" lon="3.1168733">
        <ele>188.6</ele>
        <time>2015-06-21T11:59:04Z</time>
      </trkpt>
      <trkpt lat="39.9306843" lon="3.1169793">
        <ele>187.8</ele>
        <time>2015-06-21T11:59:05Z</time>
      </trkpt>
      <trkpt lat="39.9306825" lon="3.1170765">
        <ele>187</ele>
        <time>2015-06-21T11:59:06Z</time>
      </trkpt>
      <trkpt lat="39.9306576" lon="3.117284">
        <ele>186.2</ele>
        <time>2015-06-21T11:59:08Z</time>
      </trkpt>
      <trkpt lat="39.9306494" lon="3.1173729">
        <ele>186</ele>
        <time>2015-06-21T11:59:09Z</time>
      </trkpt>
      <trkpt lat="39.9306343" lon="3.117459">
        <ele>186</ele>
        <time>2015-06-21T11:59:10Z</time>
      </trkpt>
      <trkpt lat="39.9306107" lon="3.1175451">
        <ele>185.8</ele>
        <time>2015-06-21T11:59:11Z</time>
      </trkpt>
      <trkpt lat="39.9305411" lon="3.1178024">
        <ele>185.2</ele>
        <time>2015-06-21T11:59:14Z</time>
      </trkpt>
      <trkpt lat="39.930488" lon="3.1179461">
        <ele>184.8</ele>
        <time>2015-06-21T11:59:16Z</time>
      </trkpt>
      <trkpt lat="39.9304216" lon="3.1180888">
        <ele>184.4</ele>
        <time>2015-06-21T11:59:18Z</time>
      </trkpt>
      <trkpt lat="39.9303942" lon="3.1181556">
        <ele>184.4</ele>
        <time>2015-06-21T11:59:19Z</time>
      </trkpt>
      <trkpt lat="39.9303323" lon="3.1183548">
        <ele>184</ele>
        <time>2015-06-21T11:59:22Z</time>
      </trkpt>
      <trkpt lat="39.9303253" lon="3.1184258">
        <ele>183.8</ele>
        <time>2015-06-21T11:59:23Z</time>
      </trkpt>
      <trkpt lat="39.930313" lon="3.1184994">
        <ele>183.6</ele>
        <time>2015-06-21T11:59:24Z</time>
      </trkpt>
      <trkpt lat="39.9303098" lon="3.1185687">
        <ele>183.2</ele>
        <time>2015-06-21T11:59:25Z</time>
      </trkpt>
      <trkpt lat="39.9303064" lon="3.1187944">
        <ele>182.4</ele>
        <time>2015-06-21T11:59:28Z</time>
      </trkpt>
      <trkpt lat="39.9303028" lon="3.1188745">
        <ele>182</ele>
        <time>2015-06-21T11:59:29Z</time>
      </trkpt>
      <trkpt lat="39.9303005" lon="3.1190265">
        <ele>181.4</ele>
        <time>2015-06-21T11:59:31Z</time>
      </trkpt>
      <trkpt lat="39.9303003" lon="3.1193386">
        <ele>180.2</ele>
        <time>2015-06-21T11:59:35Z</time>
      </trkpt>
      <trkpt lat="39.9302874" lon="3.1195694">
        <ele>179.2</ele>
        <time>2015-06-21T11:59:38Z</time>
      </trkpt>
      <trkpt lat="39.9302846" lon="3.1196425">
        <ele>179</ele>
        <time>2015-06-21T11:59:39Z</time>
      </trkpt>
      <trkpt lat="39.9302942" lon="3.1197725">
        <ele>178.6</ele>
        <time>2015-06-21T11:59:41Z</time>
      </trkpt>
      <trkpt lat="39.9303313" lon="3.1199053">
        <ele>178.2</ele>
        <time>2015-06-21T11:59:43Z</time>
      </trkpt>
      <trkpt lat="39.9303789" lon="3.1200401">
        <ele>177.8</ele>
        <time>2015-06-21T11:59:45Z</time>
      </trkpt>
      <trkpt lat="39.9304044" lon="3.120098">
        <ele>177.4</ele>
        <time>2015-06-21T11:59:46Z</time>
      </trkpt>
      <trkpt lat="39.9304632" lon="3.1202299">
        <ele>176.4</ele>
        <time>2015-06-21T11:59:48Z</time>
      </trkpt>
      <trkpt lat="39.930473" lon="3.1203119">
        <ele>175.8</ele>
        <time>2015-06-21T11:59:49Z</time>
      </trkpt>
      <trkpt lat="39.9304968" lon="3.1203867">
        <ele>175.2</ele>
        <time>2015-06-21T11:59:50Z</time>
      </trkpt>
      <trkpt lat="39.930523" lon="3.12046">
        <ele>174.6</ele>
        <time>2015-06-21T11:59:51Z</time>
      </trkpt>
      <trkpt lat="39.9305541" lon="3.1205453">
        <ele>173.8</ele>
        <time>2015-06-21T11:59:52Z</time>
      </trkpt>
      <trkpt lat="39.9306151" lon="3.1207079">
        <ele>172</ele>
        <time>2015-06-21T11:59:54Z</time>
      </trkpt>
      <trkpt lat="39.9306815" lon="3.1208298">
        <ele>170.4</ele>
        <time>2015-06-21T11:59:56Z</time>
      </trkpt>
      <trkpt lat="39.9307653" lon="3.1209158">
        <ele>168.8</ele>
        <time>2015-06-21T11:59:58Z</time>
      </trkpt>
      <trkpt lat="39.9307945" lon="3.1210086">
        <ele>167.2</ele>
        <time>2015-06-21T12:00:00Z</time>
      </trkpt>
      <trkpt lat="39.9307302" lon="3.1211151">
        <ele>166.4</ele>
        <time>2015-06-21T12:00:01Z</time>
      </trkpt>
      <trkpt lat="39.9307124" lon="3.1212099">
        <ele>165.6</ele>
        <time>2015-06-21T12:00:02Z</time>
      </trkpt>
      <trkpt lat="39.9307045" lon="3.1213917">
        <ele>163.8</ele>
        <time>2015-06-21T12:00:04Z</time>
      </trkpt>
      <trkpt lat="39.9307058" lon="3.1214835">
        <ele>163</ele>
        <time>2015-06-21T12:00:05Z</time>
      </trkpt>
      <trkpt lat="39.9307208" lon="3.1215553">
        <ele>162.4</ele>
        <time>2015-06-21T12:00:06Z</time>
      </trkpt>
      <trkpt lat="39.9308032" lon="3.1216648">
        <ele>161.6</ele>
        <time>2015-06-21T12:00:08Z</time>
      </trkpt>
      <trkpt lat="39.9308547" lon="3.121699">
        <ele>161</ele>
        <time>2015-06-21T12:00:09Z</time>
      </trkpt>
      <trkpt lat="39.9309075" lon="3.1217253">
        <ele>159.8</ele>
        <time>2015-06-21T12:00:10Z</time>
      </trkpt>
      <trkpt lat="39.9309293" lon="3.1217584">
        <ele>159</ele>
        <time>2015-06-21T12:00:11Z</time>
      </trkpt>
      <trkpt lat="39.9309565" lon="3.121794">
        <ele>158</ele>
        <time>2015-06-21T12:00:12Z</time>
      </trkpt>
      <trkpt lat="39.9309985" lon="3.1218336">
        <ele>156.8</ele>
        <time>2015-06-21T12:00:13Z</time>
      </trkpt>
      <trkpt lat="39.9310675" lon="3.1219123">
        <ele>155.2</ele>
        <time>2015-06-21T12:00:15Z</time>
      </trkpt>
      <trkpt lat="39.9311002" lon="3.1220102">
        <ele>153.8</ele>
        <time>2015-06-21T12:00:17Z</time>
      </trkpt>
      <trkpt lat="39.9310807" lon="3.1221262">
        <ele>152.8</ele>
        <time>2015-06-21T12:00:19Z</time>
      </trkpt>
      <trkpt lat="39.9310417" lon="3.1221734">
        <ele>152</ele>
        <time>2015-06-21T12:00:20Z</time>
      </trkpt>
      <trkpt lat="39.9309928" lon="3.1222091">
        <ele>151.2</ele>
        <time>2015-06-21T12:00:21Z</time>
      </trkpt>
      <trkpt lat="39.9308689" lon="3.122274">
        <ele>149.6</ele>
        <time>2015-06-21T12:00:23Z</time>
      </trkpt>
      <trkpt lat="39.9308039" lon="3.122312">
        <ele>148.6</ele>
        <time>2015-06-21T12:00:24Z</time>
      </trkpt>
      <trkpt lat="39.9307387" lon="3.1223605">
        <ele>147.8</ele>
        <time>2015-06-21T12:00:25Z</time>
      </trkpt>
      <trkpt lat="39.9306844" lon="3.1224129">
        <ele>147</ele>
        <time>2015-06-21T12:00:26Z</time>
      </trkpt>
      <trkpt lat="39.9306304" lon="3.122474">
        <ele>146.2</ele>
        <time>2015-06-21T12:00:27Z</time>
      </trkpt>
      <trkpt lat="39.930579" lon="3.1225375">
        <ele>145.4</ele>
        <time>2015-06-21T12:00:28Z</time>
      </trkpt>
      <trkpt lat="39.9304746" lon="3.1226454">
        <ele>143.6</ele>
        <time>2015-06-21T12:00:30Z</time>
      </trkpt>
      <trkpt lat="39.9303785" lon="3.1227468">
        <ele>142.2</ele>
        <time>2015-06-21T12:00:32Z</time>
      </trkpt>
      <trkpt lat="39.9303341" lon="3.1228037">
        <ele>141.8</ele>
        <time>2015-06-21T12:00:33Z</time>
      </trkpt>
      <trkpt lat="39.9302819" lon="3.1229434">
        <ele>141</ele>
        <time>2015-06-21T12:00:35Z</time>
      </trkpt>
      <trkpt lat="39.9302755" lon="3.1230215">
        <ele>140.4</ele>
        <time>2015-06-21T12:00:36Z</time>
      </trkpt>
      <trkpt lat="39.930272" lon="3.1231168">
        <ele>139.8</ele>
        <time>2015-06-21T12:00:37Z</time>
      </trkpt>
      <trkpt lat="39.9302767" lon="3.1233089">
        <ele>138.4</ele>
        <time>2015-06-21T12:00:39Z</time>
      </trkpt>
      <trkpt lat="39.930284" lon="3.1234047">
        <ele>137.6</ele>
        <time>2015-06-21T12:00:40Z</time>
      </trkpt>
      <trkpt lat="39.9302915" lon="3.1234964">
        <ele>136.6</ele>
        <time>2015-06-21T12:00:41Z</time>
      </trkpt>
      <trkpt lat="39.9303023" lon="3.1236836">
        <ele>134.6</ele>
        <time>2015-06-21T12:00:43Z</time>
      </trkpt>
      <trkpt lat="39.9302978" lon="3.1237638">
        <ele>133.8</ele>
        <time>2015-06-21T12:00:44Z</time>
      </trkpt>
      <trkpt lat="39.9302933" lon="3.1238393">
        <ele>133.4</ele>
        <time>2015-06-21T12:00:45Z</time>
      </trkpt>
      <trkpt lat="39.9302868" lon="3.1239077">
        <ele>133</ele>
        <time>2015-06-21T12:00:46Z</time>
      </trkpt>
      <trkpt lat="39.9302704" lon="3.1239942">
        <ele>132.6</ele>
        <time>2015-06-21T12:00:47Z</time>
      </trkpt>
      <trkpt lat="39.9302596" lon="3.1240673">
        <ele>132</ele>
        <time>2015-06-21T12:00:48Z</time>
      </trkpt>
      <trkpt lat="39.930239" lon="3.1242279">
        <ele>131.4</ele>
        <time>2015-06-21T12:00:50Z</time>
      </trkpt>
      <trkpt lat="39.9302299" lon="3.1243717">
        <ele>130.8</ele>
        <time>2015-06-21T12:00:52Z</time>
      </trkpt>
      <trkpt lat="39.9302236" lon="3.1245036">
        <ele>130.6</ele>
        <time>2015-06-21T12:00:54Z</time>
      </trkpt>
      <trkpt lat="39.9302231" lon="3.1245713">
        <ele>130.4</ele>
        <time>2015-06-21T12:00:55Z</time>
      </trkpt>
      <trkpt lat="39.9302551" lon="3.1247157">
        <ele>129.8</ele>
        <time>2015-06-21T12:00:58Z</time>
      </trkpt>
      <trkpt lat="39.930329" lon="3.1247859">
        <ele>129</ele>
        <time>2015-06-21T12:01:02Z</time>
      </trkpt>
      <trkpt lat="39.9304034" lon="3.1247095">
        <ele>128.8</ele>
        <time>2015-06-21T12:01:07Z</time>
      </trkpt>
      <trkpt lat="39.9304135" lon="3.1246626">
        <ele>128.6</ele>
        <time>2015-06-21T12:01:08Z</time>
      </trkpt>
      <trkpt lat="39.9304126" lon="3.1245387">
        <ele>127.8</ele>
        <time>2015-06-21T12:01:10Z</time>
      </trkpt>
      <trkpt lat="39.9304065" lon="3.1244637">
        <ele>127.6</ele>
        <time>2015-06-21T12:01:11Z</time>
      </trkpt>
      <trkpt lat="39.9303988" lon="3.1242971">
        <ele>127.2</ele>
        <time>2015-06-21T12:01:13Z</time>
      </trkpt>
      <trkpt lat="39.9304033" lon="3.124217">
        <ele>126.8</ele>
        <time>2015-06-21T12:01:14Z</time>
      </trkpt>
      <trkpt lat="39.930424" lon="3.1240622">
        <ele>126</ele>
        <time>2015-06-21T12:01:16Z</time>
      </trkpt>
      <trkpt lat="39.9304673" lon="3.1238827">
        <ele>124.2</ele>
        <time>2015-06-21T12:01:18Z</time>
      </trkpt>
      <trkpt lat="39.9304928" lon="3.1237963">
        <ele>123.6</ele>
        <time>2015-06-21T12:01:19Z</time>
      </trkpt>
      <trkpt lat="39.9305127" lon="3.1237119">
        <ele>123</ele>
        <time>2015-06-21T12:01:20Z</time>
      </trkpt>
      <trkpt lat="39.9305866" lon="3.123454">
        <ele>121.4</ele>
        <time>2015-06-21T12:01:23Z</time>
      </trkpt>
      <trkpt lat="39.9306072" lon="3.1233757">
        <ele>120.8</ele>
        <time>2015-06-21T12:01:24Z</time>
      </trkpt>
      <trkpt lat="39.9306273" lon="3.1233071">
        <ele>120</ele>
        <time>2015-06-21T12:01:25Z</time>
      </trkpt>
      <trkpt lat="39.9306887" lon="3.1231861">
        <ele>119.2</ele>
        <time>2015-06-21T12:01:27Z</time>
      </trkpt>
      <trkpt lat="39.9307236" lon="3.1231327">
        <ele>119.2</ele>
        <time>2015-06-21T12:01:28Z</time>
      </trkpt>
      <trkpt lat="39.9307868" lon="3.1231172">
        <ele>119.2</ele>
        <time>2015-06-21T12:01:29Z</time>
      </trkpt>
      <trkpt lat="39.9308407" lon="3.1231155">
        <ele>119.2</ele>
        <time>2015-06-21T12:01:30Z</time>
      </trkpt>
      <trkpt lat="39.9310097" lon="3.1231744">
        <ele>119</ele>
        <time>2015-06-21T12:01:33Z</time>
      </trkpt>
      <trkpt lat="39.9310627" lon="3.1231993">
        <ele>118.8</ele>
        <time>2015-06-21T12:01:34Z</time>
      </trkpt>
      <trkpt lat="39.9311226" lon="3.1231904">
        <ele>118.4</ele>
        <time>2015-06-21T12:01:35Z</time>
      </trkpt>
      <trkpt lat="39.931186" lon="3.1231767">
        <ele>118</ele>
        <time>2015-06-21T12:01:36Z</time>
      </trkpt>
      <trkpt lat="39.9312511" lon="3.1231577">
        <ele>117.4</ele>
        <time>2015-06-21T12:01:37Z</time>
      </trkpt>
      <trkpt lat="39.9313595" lon="3.123123">
        <ele>116.6</ele>
        <time>2015-06-21T12:01:39Z</time>
      </trkpt>
      <trkpt lat="39.9314674" lon="3.1230995">
        <ele>115.6</ele>
        <time>2015-06-21T12:01:41Z</time>
      </trkpt>
      <trkpt lat="39.9315237" lon="3.123105">
        <ele>115.2</ele>
        <time>2015-06-21T12:01:42Z</time>
      </trkpt>
      <trkpt lat="39.9316797" lon="3.1232054">
        <ele>114.4</ele>
        <time>2015-06-21T12:01:45Z</time>
      </trkpt>
      <trkpt lat="39.9317456" lon="3.1233211">
        <ele>114</ele>
        <time>2015-06-21T12:01:47Z</time>
      </trkpt>
      <trkpt lat="39.9317659" lon="3.1233965">
        <ele>113.6</ele>
        <time>2015-06-21T12:01:48Z</time>
      </trkpt>
      <trkpt lat="39.9317951" lon="3.1235682">
        <ele>113</ele>
        <time>2015-06-21T12:01:50Z</time>
      </trkpt>
      <trkpt lat="39.9318094" lon="3.1236473">
        <ele>112.6</ele>
        <time>2015-06-21T12:01:51Z</time>
      </trkpt>
      <trkpt lat="39.9318252" lon="3.123732">
        <ele>112.2</ele>
        <time>2015-06-21T12:01:52Z</time>
      </trkpt>
      <trkpt lat="39.931858" lon="3.1239029">
        <ele>111.4</ele>
        <time>2015-06-21T12:01:54Z</time>
      </trkpt>
      <trkpt lat="39.9318909" lon="3.1240693">
        <ele>110.2</ele>
        <time>2015-06-21T12:01:56Z</time>
      </trkpt>
      <trkpt lat="39.9319246" lon="3.1242459">
        <ele>108.8</ele>
        <time>2015-06-21T12:01:58Z</time>
      </trkpt>
      <trkpt lat="39.9319613" lon="3.1244407">
        <ele>108</ele>
        <time>2015-06-21T12:02:00Z</time>
      </trkpt>
      <trkpt lat="39.9319786" lon="3.1245265">
        <ele>107.4</ele>
        <time>2015-06-21T12:02:01Z</time>
      </trkpt>
      <trkpt lat="39.9319907" lon="3.1246254">
        <ele>107</ele>
        <time>2015-06-21T12:02:02Z</time>
      </trkpt>
      <trkpt lat="39.9320073" lon="3.1247152">
        <ele>106.2</ele>
        <time>2015-06-21T12:02:03Z</time>
      </trkpt>
      <trkpt lat="39.9320722" lon="3.1248817">
        <ele>104.4</ele>
        <time>2015-06-21T12:02:05Z</time>
      </trkpt>
      <trkpt lat="39.9321033" lon="3.1249601">
        <ele>103.2</ele>
        <time>2015-06-21T12:02:06Z</time>
      </trkpt>
      <trkpt lat="39.9322042" lon="3.125188">
        <ele>101.4</ele>
        <time>2015-06-21T12:02:09Z</time>
      </trkpt>
      <trkpt lat="39.9322515" lon="3.1252324">
        <ele>101.2</ele>
        <time>2015-06-21T12:02:10Z</time>
      </trkpt>
      <trkpt lat="39.932366" lon="3.1253103">
        <ele>100.2</ele>
        <time>2015-06-21T12:02:12Z</time>
      </trkpt>
      <trkpt lat="39.9324798" lon="3.1253742">
        <ele>99.2</ele>
        <time>2015-06-21T12:02:14Z</time>
      </trkpt>
      <trkpt lat="39.932556" lon="3.1253796">
        <ele>98.6</ele>
        <time>2015-06-21T12:02:15Z</time>
      </trkpt>
      <trkpt lat="39.9327401" lon="3.1253624">
        <ele>97.2</ele>
        <time>2015-06-21T12:02:17Z</time>
      </trkpt>
      <trkpt lat="39.933029" lon="3.1253373">
        <ele>96</ele>
        <time>2015-06-21T12:02:20Z</time>
      </trkpt>
      <trkpt lat="39.9331104" lon="3.1253337">
        <ele>96</ele>
        <time>2015-06-21T12:02:21Z</time>
      </trkpt>
      <trkpt lat="39.9331871" lon="3.1253328">
        <ele>95</ele>
        <time>2015-06-21T12:02:22Z</time>
      </trkpt>
      <trkpt lat="39.9332634" lon="3.1253305">
        <ele>93.8</ele>
        <time>2015-06-21T12:02:23Z</time>
      </trkpt>
      <trkpt lat="39.933336" lon="3.1253352">
        <ele>92.6</ele>
        <time>2015-06-21T12:02:24Z</time>
      </trkpt>
      <trkpt lat="39.9334661" lon="3.125376">
        <ele>91.8</ele>
        <time>2015-06-21T12:02:26Z</time>
      </trkpt>
      <trkpt lat="39.933588" lon="3.1255498">
        <ele>91.8</ele>
        <time>2015-06-21T12:02:29Z</time>
      </trkpt>
      <trkpt lat="39.9335998" lon="3.1256254">
        <ele>87</ele>
        <time>2015-06-21T12:02:30Z</time>
      </trkpt>
      <trkpt lat="39.9335921" lon="3.1257002">
        <ele>76.4</ele>
        <time>2015-06-21T12:02:31Z</time>
      </trkpt>
      <trkpt lat="39.9335699" lon="3.1257883">
        <ele>69.8</ele>
        <time>2015-06-21T12:02:32Z</time>
      </trkpt>
      <trkpt lat="39.9335428" lon="3.1258705">
        <ele>73.4</ele>
        <time>2015-06-21T12:02:33Z</time>
      </trkpt>
      <trkpt lat="39.9334668" lon="3.1260256">
        <ele>73</ele>
        <time>2015-06-21T12:02:35Z</time>
      </trkpt>
      <trkpt lat="39.9334297" lon="3.1260907">
        <ele>72.6</ele>
        <time>2015-06-21T12:02:36Z</time>
      </trkpt>
      <trkpt lat="39.9333848" lon="3.1261726">
        <ele>72.2</ele>
        <time>2015-06-21T12:02:37Z</time>
      </trkpt>
      <trkpt lat="39.933205" lon="3.126487">
        <ele>71.4</ele>
        <time>2015-06-21T12:02:41Z</time>
      </trkpt>
      <trkpt lat="39.9331596" lon="3.1265717">
        <ele>71</ele>
        <time>2015-06-21T12:02:42Z</time>
      </trkpt>
      <trkpt lat="39.9330633" lon="3.1267359">
        <ele>69.8</ele>
        <time>2015-06-21T12:02:44Z</time>
      </trkpt>
      <trkpt lat="39.9329684" lon="3.1268668">
        <ele>69</ele>
        <time>2015-06-21T12:02:46Z</time>
      </trkpt>
      <trkpt lat="39.9329015" lon="3.1269431">
        <ele>68.8</ele>
        <time>2015-06-21T12:02:47Z</time>
      </trkpt>
      <trkpt lat="39.9327209" lon="3.1271409">
        <ele>67.8</ele>
        <time>2015-06-21T12:02:50Z</time>
      </trkpt>
      <trkpt lat="39.9326124" lon="3.127271">
        <ele>66.6</ele>
        <time>2015-06-21T12:02:52Z</time>
      </trkpt>
      <trkpt lat="39.9325059" lon="3.1274231">
        <ele>65.6</ele>
        <time>2015-06-21T12:02:54Z</time>
      </trkpt>
      <trkpt lat="39.9324121" lon="3.1275726">
        <ele>64.6</ele>
        <time>2015-06-21T12:02:56Z</time>
      </trkpt>
      <trkpt lat="39.9323178" lon="3.1277381">
        <ele>63.4</ele>
        <time>2015-06-21T12:02:58Z</time>
      </trkpt>
      <trkpt lat="39.9322782" lon="3.127833">
        <ele>63</ele>
        <time>2015-06-21T12:02:59Z</time>
      </trkpt>
      <trkpt lat="39.9322547" lon="3.1279205">
        <ele>61.8</ele>
        <time>2015-06-21T12:03:00Z</time>
      </trkpt>
      <trkpt lat="39.9322174" lon="3.1281042">
        <ele>60.8</ele>
        <time>2015-06-21T12:03:02Z</time>
      </trkpt>
      <trkpt lat="39.9321706" lon="3.1283824">
        <ele>59.4</ele>
        <time>2015-06-21T12:03:05Z</time>
      </trkpt>
      <trkpt lat="39.9321557" lon="3.1284732">
        <ele>58.8</ele>
        <time>2015-06-21T12:03:06Z</time>
      </trkpt>
      <trkpt lat="39.9321409" lon="3.1285687">
        <ele>58</ele>
        <time>2015-06-21T12:03:07Z</time>
      </trkpt>
      <trkpt lat="39.932119" lon="3.128735">
        <ele>56.8</ele>
        <time>2015-06-21T12:03:09Z</time>
      </trkpt>
      <trkpt lat="39.9321185" lon="3.1288097">
        <ele>56</ele>
        <time>2015-06-21T12:03:10Z</time>
      </trkpt>
      <trkpt lat="39.932128" lon="3.1288912">
        <ele>55.6</ele>
        <time>2015-06-21T12:03:11Z</time>
      </trkpt>
      <trkpt lat="39.9322236" lon="3.1291331">
        <ele>54.4</ele>
        <time>2015-06-21T12:03:14Z</time>
      </trkpt>
      <trkpt lat="39.932266" lon="3.129213">
        <ele>53.8</ele>
        <time>2015-06-21T12:03:15Z</time>
      </trkpt>
      <trkpt lat="39.9323463" lon="3.1293523">
        <ele>52.6</ele>
        <time>2015-06-21T12:03:17Z</time>
      </trkpt>
      <trkpt lat="39.9324246" lon="3.1295001">
        <ele>51</ele>
        <time>2015-06-21T12:03:19Z</time>
      </trkpt>
      <trkpt lat="39.9324998" lon="3.129651">
        <ele>49.8</ele>
        <time>2015-06-21T12:03:21Z</time>
      </trkpt>
      <trkpt lat="39.9325733" lon="3.1298138">
        <ele>48.8</ele>
        <time>2015-06-21T12:03:23Z</time>
      </trkpt>
      <trkpt lat="39.9326666" lon="3.1300352">
        <ele>47.6</ele>
        <time>2015-06-21T12:03:26Z</time>
      </trkpt>
      <trkpt lat="39.9327578" lon="3.1302512">
        <ele>46.4</ele>
        <time>2015-06-21T12:03:29Z</time>
      </trkpt>
      <trkpt lat="39.9328316" lon="3.1304397">
        <ele>45.2</ele>
        <time>2015-06-21T12:03:32Z</time>
      </trkpt>
      <trkpt lat="39.9328634" lon="3.1304932">
        <ele>44.8</ele>
        <time>2015-06-21T12:03:33Z</time>
      </trkpt>
      <trkpt lat="39.9329675" lon="3.1306447">
        <ele>44</ele>
        <time>2015-06-21T12:03:36Z</time>
      </trkpt>
      <trkpt lat="39.9330518" lon="3.1307786">
        <ele>43.4</ele>
        <time>2015-06-21T12:03:39Z</time>
      </trkpt>
      <trkpt lat="39.9330434" lon="3.1308311">
        <ele>43</ele>
        <time>2015-06-21T12:03:40Z</time>
      </trkpt>
      <trkpt lat="39.9330124" lon="3.1308728">
        <ele>42.8</ele>
        <time>2015-06-21T12:03:41Z</time>
      </trkpt>
      <trkpt lat="39.9329673" lon="3.1308731">
        <ele>42.6</ele>
        <time>2015-06-21T12:03:42Z</time>
      </trkpt>
      <trkpt lat="39.9328756" lon="3.1307792">
        <ele>42.4</ele>
        <time>2015-06-21T12:03:44Z</time>
      </trkpt>
      <trkpt lat="39.9328041" lon="3.1306632">
        <ele>42</ele>
        <time>2015-06-21T12:03:46Z</time>
      </trkpt>
      <trkpt lat="39.9327517" lon="3.1305859">
        <ele>41.6</ele>
        <time>2015-06-21T12:03:47Z</time>
      </trkpt>
      <trkpt lat="39.9327051" lon="3.1305174">
        <ele>41.4</ele>
        <time>2015-06-21T12:03:48Z</time>
      </trkpt>
      <trkpt lat="39.9325762" lon="3.1303346">
        <ele>40.4</ele>
        <time>2015-06-21T12:03:51Z</time>
      </trkpt>
      <trkpt lat="39.9324909" lon="3.1302073">
        <ele>40</ele>
        <time>2015-06-21T12:03:53Z</time>
      </trkpt>
      <trkpt lat="39.9324008" lon="3.1300953">
        <ele>39.2</ele>
        <time>2015-06-21T12:03:55Z</time>
      </trkpt>
      <trkpt lat="39.9323069" lon="3.1299905">
        <ele>38.2</ele>
        <time>2015-06-21T12:03:57Z</time>
      </trkpt>
      <trkpt lat="39.9322195" lon="3.1299011">
        <ele>37</ele>
        <time>2015-06-21T12:03:59Z</time>
      </trkpt>
      <trkpt lat="39.9319648" lon="3.129655">
        <ele>36.2</ele>
        <time>2015-06-21T12:04:04Z</time>
      </trkpt>
      <trkpt lat="39.9318983" lon="3.1296009">
        <ele>36</ele>
        <time>2015-06-21T12:04:05Z</time>
      </trkpt>
      <trkpt lat="39.9317128" lon="3.1294669">
        <ele>34.6</ele>
        <time>2015-06-21T12:04:08Z</time>
      </trkpt>
      <trkpt lat="39.9316498" lon="3.1294319">
        <ele>34.2</ele>
        <time>2015-06-21T12:04:09Z</time>
      </trkpt>
      <trkpt lat="39.9315267" lon="3.1293591">
        <ele>33.4</ele>
        <time>2015-06-21T12:04:11Z</time>
      </trkpt>
      <trkpt lat="39.9313835" lon="3.1293038">
        <ele>32.8</ele>
        <time>2015-06-21T12:04:13Z</time>
      </trkpt>
      <trkpt lat="39.931307" lon="3.1293093">
        <ele>32.6</ele>
        <time>2015-06-21T12:04:14Z</time>
      </trkpt>
      <trkpt lat="39.9312323" lon="3.1293411">
        <ele>32.2</ele>
        <time>2015-06-21T12:04:15Z</time>
      </trkpt>
      <trkpt lat="39.9310826" lon="3.1294395">
        <ele>31.4</ele>
        <time>2015-06-21T12:04:17Z</time>
      </trkpt>
      <trkpt lat="39.9310072" lon="3.1294979">
        <ele>31</ele>
        <time>2015-06-21T12:04:18Z</time>
      </trkpt>
      <trkpt lat="39.9306784" lon="3.1297632">
        <ele>29.6</ele>
        <time>2015-06-21T12:04:22Z</time>
      </trkpt>
      <trkpt lat="39.9304292" lon="3.129959">
        <ele>28.2</ele>
        <time>2015-06-21T12:04:25Z</time>
      </trkpt>
      <trkpt lat="39.9303666" lon="3.1300082">
        <ele>27.8</ele>
        <time>2015-06-21T12:04:26Z</time>
      </trkpt>
      <trkpt lat="39.9302392" lon="3.1301139">
        <ele>26.8</ele>
        <time>2015-06-21T12:04:28Z</time>
      </trkpt>
      <trkpt lat="39.9301072" lon="3.1302201">
        <ele>26</ele>
        <time>2015-06-21T12:04:31Z</time>
      </trkpt>
      <trkpt lat="39.9300427" lon="3.1302535">
        <ele>25.4</ele>
        <time>2015-06-21T12:04:34Z</time>
      </trkpt>
      <trkpt lat="39.9300285" lon="3.1302621">
        <ele>24.8</ele>
        <time>2015-06-21T12:04:35Z</time>
      </trkpt>
      <trkpt lat="39.9300282" lon="3.1302754">
        <ele>25</ele>
        <time>2015-06-21T12:04:40Z</time>
      </trkpt>
      <trkpt lat="39.9300204" lon="3.1302936">
        <ele>25.8</ele>
        <time>2015-06-21T12:04:42Z</time>
      </trkpt>
      <trkpt lat="39.929975" lon="3.1303503">
        <ele>26.2</ele>
        <time>2015-06-21T12:04:45Z</time>
      </trkpt>
      <trkpt lat="39.9298675" lon="3.1304855">
        <ele>25</ele>
        <time>2015-06-21T12:04:49Z</time>
      </trkpt>
      <trkpt lat="39.9298449" lon="3.1305474">
        <ele>24.6</ele>
        <time>2015-06-21T12:04:50Z</time>
      </trkpt>
      <trkpt lat="39.9298237" lon="3.1306169">
        <ele>24.4</ele>
        <time>2015-06-21T12:04:51Z</time>
      </trkpt>
      <trkpt lat="39.9298074" lon="3.1306884">
        <ele>24.2</ele>
        <time>2015-06-21T12:04:52Z</time>
      </trkpt>
      <trkpt lat="39.9297621" lon="3.1308656">
        <ele>23.4</ele>
        <time>2015-06-21T12:04:54Z</time>
      </trkpt>
      <trkpt lat="39.9297354" lon="3.1309683">
        <ele>23</ele>
        <time>2015-06-21T12:04:55Z</time>
      </trkpt>
      <trkpt lat="39.9296902" lon="3.1311671">
        <ele>21.6</ele>
        <time>2015-06-21T12:04:57Z</time>
      </trkpt>
      <trkpt lat="39.9296414" lon="3.1313581">
        <ele>20.6</ele>
        <time>2015-06-21T12:04:59Z</time>
      </trkpt>
      <trkpt lat="39.9296162" lon="3.1314622">
        <ele>20.2</ele>
        <time>2015-06-21T12:05:00Z</time>
      </trkpt>
      <trkpt lat="39.9295209" lon="3.1318769">
        <ele>19.6</ele>
        <time>2015-06-21T12:05:04Z</time>
      </trkpt>
      <trkpt lat="39.9294913" lon="3.1319952">
        <ele>18.8</ele>
        <time>2015-06-21T12:05:05Z</time>
      </trkpt>
      <trkpt lat="39.9293896" lon="3.1324111">
        <ele>17.8</ele>
        <time>2015-06-21T12:05:09Z</time>
      </trkpt>
      <trkpt lat="39.9293462" lon="3.1326204">
        <ele>16.6</ele>
        <time>2015-06-21T12:05:11Z</time>
      </trkpt>
      <trkpt lat="39.9292958" lon="3.1328592">
        <ele>14.6</ele>
        <time>2015-06-21T12:05:13Z</time>
      </trkpt>
      <trkpt lat="39.9292374" lon="3.1330614">
        <ele>13.6</ele>
        <time>2015-06-21T12:05:15Z</time>
      </trkpt>
      <trkpt lat="39.9292124" lon="3.1331479">
        <ele>13</ele>
        <time>2015-06-21T12:05:16Z</time>
      </trkpt>
      <trkpt lat="39.9291213" lon="3.133493">
        <ele>12.4</ele>
        <time>2015-06-21T12:05:20Z</time>
      </trkpt>
      <trkpt lat="39.9291086" lon="3.1335602">
        <ele>12.4</ele>
        <time>2015-06-21T12:05:21Z</time>
      </trkpt>
      <trkpt lat="39.9291144" lon="3.1337035">
        <ele>12.4</ele>
        <time>2015-06-21T12:05:23Z</time>
      </trkpt>
      <trkpt lat="39.9291368" lon="3.1337604">
        <ele>12.4</ele>
        <time>2015-06-21T12:05:24Z</time>
      </trkpt>
      <trkpt lat="39.9292537" lon="3.1339215">
        <ele>12.6</ele>
        <time>2015-06-21T12:05:28Z</time>
      </trkpt>
      <trkpt lat="39.9294033" lon="3.133956">
        <ele>13.2</ele>
        <time>2015-06-21T12:05:32Z</time>
      </trkpt>
      <trkpt lat="39.9294714" lon="3.1339777">
        <ele>13.6</ele>
        <time>2015-06-21T12:05:34Z</time>
      </trkpt>
      <trkpt lat="39.9295626" lon="3.1340094">
        <ele>13.4</ele>
        <time>2015-06-21T12:05:37Z</time>
      </trkpt>
      <trkpt lat="39.9295836" lon="3.1340298">
        <ele>13.4</ele>
        <time>2015-06-21T12:05:38Z</time>
      </trkpt>
      <trkpt lat="39.9296327" lon="3.1340762">
        <ele>14</ele>
        <time>2015-06-21T12:05:40Z</time>
      </trkpt>
      <trkpt lat="39.9296646" lon="3.1340958">
        <ele>14.2</ele>
        <time>2015-06-21T12:05:41Z</time>
      </trkpt>
      <trkpt lat="39.9298762" lon="3.1341808">
        <ele>14.6</ele>
        <time>2015-06-21T12:05:47Z</time>
      </trkpt>
      <trkpt lat="39.930066" lon="3.1342284">
        <ele>15</ele>
        <time>2015-06-21T12:05:52Z</time>
      </trkpt>
      <trkpt lat="39.9301117" lon="3.1342424">
        <ele>15</ele>
        <time>2015-06-21T12:05:53Z</time>
      </trkpt>
      <trkpt lat="39.9302899" lon="3.1343259">
        <ele>15.8</ele>
        <time>2015-06-21T12:05:58Z</time>
      </trkpt>
      <trkpt lat="39.9303883" lon="3.1344003">
        <ele>16.2</ele>
        <time>2015-06-21T12:06:01Z</time>
      </trkpt>
      <trkpt lat="39.9304997" lon="3.1344818">
        <ele>16.4</ele>
        <time>2015-06-21T12:06:04Z</time>
      </trkpt>
      <trkpt lat="39.9307134" lon="3.134658">
        <ele>16.8</ele>
        <time>2015-06-21T12:06:10Z</time>
      </trkpt>
      <trkpt lat="39.9308527" lon="3.1347833">
        <ele>17.4</ele>
        <time>2015-06-21T12:06:14Z</time>
      </trkpt>
      <trkpt lat="39.9309302" lon="3.1348231">
        <ele>17.8</ele>
        <time>2015-06-21T12:06:16Z</time>
      </trkpt>
      <trkpt lat="39.9310936" lon="3.1348881">
        <ele>18.6</ele>
        <time>2015-06-21T12:06:20Z</time>
      </trkpt>
      <trkpt lat="39.931123" lon="3.134901">
        <ele>18.8</ele>
        <time>2015-06-21T12:06:21Z</time>
      </trkpt>
      <trkpt lat="39.931342" lon="3.1350119">
        <ele>19.2</ele>
        <time>2015-06-21T12:06:27Z</time>
      </trkpt>
      <trkpt lat="39.9314648" lon="3.1350602">
        <ele>19.6</ele>
        <time>2015-06-21T12:06:30Z</time>
      </trkpt>
      <trkpt lat="39.9316373" lon="3.1350677">
        <ele>19.8</ele>
        <time>2015-06-21T12:06:33Z</time>
      </trkpt>
      <trkpt lat="39.9319364" lon="3.1351085">
        <ele>20.2</ele>
        <time>2015-06-21T12:06:39Z</time>
      </trkpt>
      <trkpt lat="39.9320071" lon="3.1351381">
        <ele>20.8</ele>
        <time>2015-06-21T12:06:41Z</time>
      </trkpt>
      <trkpt lat="39.9322111" lon="3.1352301">
        <ele>21.4</ele>
        <time>2015-06-21T12:06:47Z</time>
      </trkpt>
      <trkpt lat="39.9322701" lon="3.1352603">
        <ele>21.8</ele>
        <time>2015-06-21T12:06:49Z</time>
      </trkpt>
      <trkpt lat="39.9323632" lon="3.135349">
        <ele>22</ele>
        <time>2015-06-21T12:06:53Z</time>
      </trkpt>
      <trkpt lat="39.932496" lon="3.1354486">
        <ele>22.6</ele>
        <time>2015-06-21T12:06:58Z</time>
      </trkpt>
      <trkpt lat="39.9325278" lon="3.1354678">
        <ele>23</ele>
        <time>2015-06-21T12:06:59Z</time>
      </trkpt>
      <trkpt lat="39.9326895" lon="3.135553">
        <ele>23.8</ele>
        <time>2015-06-21T12:07:04Z</time>
      </trkpt>
      <trkpt lat="39.9327272" lon="3.1355698">
        <ele>24</ele>
        <time>2015-06-21T12:07:05Z</time>
      </trkpt>
      <trkpt lat="39.9328671" lon="3.1356278">
        <ele>25.2</ele>
        <time>2015-06-21T12:07:09Z</time>
      </trkpt>
      <trkpt lat="39.9330073" lon="3.1356888">
        <ele>25.6</ele>
        <time>2015-06-21T12:07:13Z</time>
      </trkpt>
      <trkpt lat="39.9331565" lon="3.1358199">
        <ele>26.2</ele>
        <time>2015-06-21T12:07:18Z</time>
      </trkpt>
      <trkpt lat="39.9331827" lon="3.1358494">
        <ele>26.4</ele>
        <time>2015-06-21T12:07:19Z</time>
      </trkpt>
      <trkpt lat="39.9333022" lon="3.1360553">
        <ele>27.4</ele>
        <time>2015-06-21T12:07:25Z</time>
      </trkpt>
      <trkpt lat="39.9333153" lon="3.1360922">
        <ele>27.6</ele>
        <time>2015-06-21T12:07:26Z</time>
      </trkpt>
      <trkpt lat="39.933369" lon="3.1363876">
        <ele>28.4</ele>
        <time>2015-06-21T12:07:33Z</time>
      </trkpt>
      <trkpt lat="39.9333725" lon="3.1364284">
        <ele>28.4</ele>
        <time>2015-06-21T12:07:34Z</time>
      </trkpt>
      <trkpt lat="39.9333923" lon="3.1366256">
        <ele>29.2</ele>
        <time>2015-06-21T12:07:39Z</time>
      </trkpt>
      <trkpt lat="39.933399" lon="3.1367875">
        <ele>29.6</ele>
        <time>2015-06-21T12:07:43Z</time>
      </trkpt>
      <trkpt lat="39.9334047" lon="3.1369001">
        <ele>30.4</ele>
        <time>2015-06-21T12:07:46Z</time>
      </trkpt>
      <trkpt lat="39.9334123" lon="3.1371787">
        <ele>31.6</ele>
        <time>2015-06-21T12:07:54Z</time>
      </trkpt>
      <trkpt lat="39.9334345" lon="3.1373921">
        <ele>32.4</ele>
        <time>2015-06-21T12:08:01Z</time>
      </trkpt>
      <trkpt lat="39.9334801" lon="3.1375507">
        <ele>32.2</ele>
        <time>2015-06-21T12:08:06Z</time>
      </trkpt>
      <trkpt lat="39.9335161" lon="3.1376391">
        <ele>32.8</ele>
        <time>2015-06-21T12:08:09Z</time>
      </trkpt>
      <trkpt lat="39.9335684" lon="3.1377437">
        <ele>34</ele>
        <time>2015-06-21T12:08:13Z</time>
      </trkpt>
      <trkpt lat="39.9336807" lon="3.1379179">
        <ele>35.2</ele>
        <time>2015-06-21T12:08:20Z</time>
      </trkpt>
      <trkpt lat="39.9337113" lon="3.1379689">
        <ele>35.6</ele>
        <time>2015-06-21T12:08:22Z</time>
      </trkpt>
      <trkpt lat="39.9337814" lon="3.1380993">
        <ele>36.4</ele>
        <time>2015-06-21T12:08:27Z</time>
      </trkpt>
      <trkpt lat="39.9338558" lon="3.1382272">
        <ele>37</ele>
        <time>2015-06-21T12:08:32Z</time>
      </trkpt>
      <trkpt lat="39.9338849" lon="3.1382742">
        <ele>37.4</ele>
        <time>2015-06-21T12:08:34Z</time>
      </trkpt>
      <trkpt lat="39.9339418" lon="3.1383878">
        <ele>38.2</ele>
        <time>2015-06-21T12:08:38Z</time>
      </trkpt>
      <trkpt lat="39.9339739" lon="3.1384355">
        <ele>38.6</ele>
        <time>2015-06-21T12:08:40Z</time>
      </trkpt>
      <trkpt lat="39.9340413" lon="3.1385604">
        <ele>39.4</ele>
        <time>2015-06-21T12:08:45Z</time>
      </trkpt>
      <trkpt lat="39.9340739" lon="3.1386065">
        <ele>39.8</ele>
        <time>2015-06-21T12:08:47Z</time>
      </trkpt>
      <trkpt lat="39.9341358" lon="3.1387048">
        <ele>40.6</ele>
        <time>2015-06-21T12:08:51Z</time>
      </trkpt>
      <trkpt lat="39.934152" lon="3.1387313">
        <ele>40.8</ele>
        <time>2015-06-21T12:08:52Z</time>
      </trkpt>
      <trkpt lat="39.9342499" lon="3.138883">
        <ele>42</ele>
        <time>2015-06-21T12:08:58Z</time>
      </trkpt>
      <trkpt lat="39.9342806" lon="3.138938">
        <ele>42.4</ele>
        <time>2015-06-21T12:09:00Z</time>
      </trkpt>
      <trkpt lat="39.9343303" lon="3.1390104">
        <ele>43.2</ele>
        <time>2015-06-21T12:09:03Z</time>
      </trkpt>
      <trkpt lat="39.9344279" lon="3.1391642">
        <ele>44.2</ele>
        <time>2015-06-21T12:09:09Z</time>
      </trkpt>
      <trkpt lat="39.9344438" lon="3.1391919">
        <ele>44.2</ele>
        <time>2015-06-21T12:09:10Z</time>
      </trkpt>
      <trkpt lat="39.9345616" lon="3.1394159">
        <ele>44</ele>
        <time>2015-06-21T12:09:16Z</time>
      </trkpt>
      <trkpt lat="39.9346743" lon="3.1396831">
        <ele>44.6</ele>
        <time>2015-06-21T12:09:22Z</time>
      </trkpt>
      <trkpt lat="39.9348054" lon="3.1399717">
        <ele>43.8</ele>
        <time>2015-06-21T12:09:29Z</time>
      </trkpt>
      <trkpt lat="39.9349455" lon="3.1403141">
        <ele>45.2</ele>
        <time>2015-06-21T12:09:37Z</time>
      </trkpt>
      <trkpt lat="39.934962" lon="3.1403547">
        <ele>45.2</ele>
        <time>2015-06-21T12:09:38Z</time>
      </trkpt>
      <trkpt lat="39.9351332" lon="3.1407619">
        <ele>46.2</ele>
        <time>2015-06-21T12:09:48Z</time>
      </trkpt>
      <trkpt lat="39.9351538" lon="3.1407965">
        <ele>46.2</ele>
        <time>2015-06-21T12:09:49Z</time>
      </trkpt>
      <trkpt lat="39.9352985" lon="3.1409887">
        <ele>47.4</ele>
        <time>2015-06-21T12:09:55Z</time>
      </trkpt>
      <trkpt lat="39.9354629" lon="3.141204">
        <ele>48</ele>
        <time>2015-06-21T12:10:02Z</time>
      </trkpt>
      <trkpt lat="39.9355173" lon="3.1412549">
        <ele>48.6</ele>
        <time>2015-06-21T12:10:04Z</time>
      </trkpt>
      <trkpt lat="39.9356423" lon="3.1413687">
        <ele>49.4</ele>
        <time>2015-06-21T12:10:08Z</time>
      </trkpt>
      <trkpt lat="39.9358807" lon="3.1415826">
        <ele>49.8</ele>
        <time>2015-06-21T12:10:15Z</time>
      </trkpt>
      <trkpt lat="39.9359502" lon="3.1416468">
        <ele>49.8</ele>
        <time>2015-06-21T12:10:17Z</time>
      </trkpt>
      <trkpt lat="39.9361372" lon="3.1418414">
        <ele>49.6</ele>
        <time>2015-06-21T12:10:23Z</time>
      </trkpt>
      <trkpt lat="39.9363206" lon="3.1419955">
        <ele>50.2</ele>
        <time>2015-06-21T12:10:29Z</time>
      </trkpt>
      <trkpt lat="39.936507" lon="3.1421676">
        <ele>50.4</ele>
        <time>2015-06-21T12:10:35Z</time>
      </trkpt>
      <trkpt lat="39.9365414" lon="3.1421978">
        <ele>50.2</ele>
        <time>2015-06-21T12:10:36Z</time>
      </trkpt>
      <trkpt lat="39.9367096" lon="3.1423261">
        <ele>50.4</ele>
        <time>2015-06-21T12:10:40Z</time>
      </trkpt>
      <trkpt lat="39.9367437" lon="3.1423627">
        <ele>50.6</ele>
        <time>2015-06-21T12:10:41Z</time>
      </trkpt>
      <trkpt lat="39.9367771" lon="3.1424032">
        <ele>50.8</ele>
        <time>2015-06-21T12:10:42Z</time>
      </trkpt>
      <trkpt lat="39.9368155" lon="3.142435">
        <ele>50.8</ele>
        <time>2015-06-21T12:10:43Z</time>
      </trkpt>
      <trkpt lat="39.9369273" lon="3.1425227">
        <ele>51.2</ele>
        <time>2015-06-21T12:10:46Z</time>
      </trkpt>
      <trkpt lat="39.9371911" lon="3.1427793">
        <ele>51.8</ele>
        <time>2015-06-21T12:10:54Z</time>
      </trkpt>
      <trkpt lat="39.9372203" lon="3.1428121">
        <ele>52</ele>
        <time>2015-06-21T12:10:55Z</time>
      </trkpt>
      <trkpt lat="39.9374316" lon="3.143029">
        <ele>52.4</ele>
        <time>2015-06-21T12:11:02Z</time>
      </trkpt>
      <trkpt lat="39.9375029" lon="3.1431194">
        <ele>53</ele>
        <time>2015-06-21T12:11:05Z</time>
      </trkpt>
      <trkpt lat="39.9375784" lon="3.1432004">
        <ele>53.8</ele>
        <time>2015-06-21T12:11:08Z</time>
      </trkpt>
      <trkpt lat="39.9375993" lon="3.1432248">
        <ele>54</ele>
        <time>2015-06-21T12:11:09Z</time>
      </trkpt>
      <trkpt lat="39.9376942" lon="3.1433271">
        <ele>54.8</ele>
        <time>2015-06-21T12:11:13Z</time>
      </trkpt>
      <trkpt lat="39.9377307" lon="3.1433851">
        <ele>55</ele>
        <time>2015-06-21T12:11:15Z</time>
      </trkpt>
      <trkpt lat="39.9377963" lon="3.1434698">
        <ele>55.8</ele>
        <time>2015-06-21T12:11:18Z</time>
      </trkpt>
      <trkpt lat="39.9378652" lon="3.1435485">
        <ele>56.2</ele>
        <time>2015-06-21T12:11:21Z</time>
      </trkpt>
      <trkpt lat="39.9379281" lon="3.1436311">
        <ele>56.4</ele>
        <time>2015-06-21T12:11:24Z</time>
      </trkpt>
      <trkpt lat="39.9380228" lon="3.1437239">
        <ele>57.4</ele>
        <time>2015-06-21T12:11:28Z</time>
      </trkpt>
      <trkpt lat="39.9380476" lon="3.143747">
        <ele>57.6</ele>
        <time>2015-06-21T12:11:29Z</time>
      </trkpt>
      <trkpt lat="39.9381595" lon="3.1438703">
        <ele>58.4</ele>
        <time>2015-06-21T12:11:34Z</time>
      </trkpt>
      <trkpt lat="39.9382413" lon="3.1439495">
        <ele>59</ele>
        <time>2015-06-21T12:11:37Z</time>
      </trkpt>
      <trkpt lat="39.9383109" lon="3.1440266">
        <ele>59.6</ele>
        <time>2015-06-21T12:11:40Z</time>
      </trkpt>
      <trkpt lat="39.9383869" lon="3.1441047">
        <ele>60</ele>
        <time>2015-06-21T12:11:43Z</time>
      </trkpt>
      <trkpt lat="39.9384532" lon="3.1441891">
        <ele>60.6</ele>
        <time>2015-06-21T12:11:46Z</time>
      </trkpt>
      <trkpt lat="39.938588" lon="3.1443869">
        <ele>61.8</ele>
        <time>2015-06-21T12:11:52Z</time>
      </trkpt>
      <trkpt lat="39.9387095" lon="3.1445932">
        <ele>66.2</ele>
        <time>2015-06-21T12:11:58Z</time>
      </trkpt>
      <trkpt lat="39.9387524" lon="3.1446664">
        <ele>66.8</ele>
        <time>2015-06-21T12:12:00Z</time>
      </trkpt>
      <trkpt lat="39.9388173" lon="3.1447808">
        <ele>63.6</ele>
        <time>2015-06-21T12:12:03Z</time>
      </trkpt>
      <trkpt lat="39.9389189" lon="3.1449478">
        <ele>63.6</ele>
        <time>2015-06-21T12:12:07Z</time>
      </trkpt>
      <trkpt lat="39.9390995" lon="3.1452574">
        <ele>63.8</ele>
        <time>2015-06-21T12:12:13Z</time>
      </trkpt>
      <trkpt lat="39.939239" lon="3.1454887">
        <ele>63.4</ele>
        <time>2015-06-21T12:12:17Z</time>
      </trkpt>
      <trkpt lat="39.9393064" lon="3.1456023">
        <ele>63</ele>
        <time>2015-06-21T12:12:19Z</time>
      </trkpt>
      <trkpt lat="39.9394414" lon="3.1458459">
        <ele>62.6</ele>
        <time>2015-06-21T12:12:23Z</time>
      </trkpt>
      <trkpt lat="39.9394666" lon="3.1459022">
        <ele>62.6</ele>
        <time>2015-06-21T12:12:24Z</time>
      </trkpt>
      <trkpt lat="39.9395105" lon="3.1460108">
        <ele>62.6</ele>
        <time>2015-06-21T12:12:26Z</time>
      </trkpt>
      <trkpt lat="39.9395426" lon="3.1460648">
        <ele>62.6</ele>
        <time>2015-06-21T12:12:27Z</time>
      </trkpt>
      <trkpt lat="39.9396587" lon="3.1462578">
        <ele>63</ele>
        <time>2015-06-21T12:12:31Z</time>
      </trkpt>
      <trkpt lat="39.9398551" lon="3.1465935">
        <ele>63.6</ele>
        <time>2015-06-21T12:12:38Z</time>
      </trkpt>
      <trkpt lat="39.9400784" lon="3.1469753">
        <ele>63.4</ele>
        <time>2015-06-21T12:12:46Z</time>
      </trkpt>
      <trkpt lat="39.9401656" lon="3.1471276">
        <ele>64</ele>
        <time>2015-06-21T12:12:49Z</time>
      </trkpt>
      <trkpt lat="39.9402472" lon="3.1472657">
        <ele>64.4</ele>
        <time>2015-06-21T12:12:52Z</time>
      </trkpt>
      <trkpt lat="39.9404246" lon="3.1475818">
        <ele>64.6</ele>
        <time>2015-06-21T12:12:58Z</time>
      </trkpt>
      <trkpt lat="39.9406411" lon="3.1479687">
        <ele>65</ele>
        <time>2015-06-21T12:13:05Z</time>
      </trkpt>
      <trkpt lat="39.9409112" lon="3.148425">
        <ele>65.4</ele>
        <time>2015-06-21T12:13:13Z</time>
      </trkpt>
      <trkpt lat="39.9409443" lon="3.1484845">
        <ele>65.8</ele>
        <time>2015-06-21T12:13:14Z</time>
      </trkpt>
      <trkpt lat="39.9411125" lon="3.1487852">
        <ele>66.2</ele>
        <time>2015-06-21T12:13:19Z</time>
      </trkpt>
      <trkpt lat="39.9411474" lon="3.1488447">
        <ele>66</ele>
        <time>2015-06-21T12:13:20Z</time>
      </trkpt>
      <trkpt lat="39.9412167" lon="3.1489679">
        <ele>66</ele>
        <time>2015-06-21T12:13:22Z</time>
      </trkpt>
      <trkpt lat="39.9413196" lon="3.1491551">
        <ele>65.8</ele>
        <time>2015-06-21T12:13:25Z</time>
      </trkpt>
      <trkpt lat="39.9415229" lon="3.1495396">
        <ele>65.2</ele>
        <time>2015-06-21T12:13:32Z</time>
      </trkpt>
      <trkpt lat="39.9416207" lon="3.1497153">
        <ele>66.8</ele>
        <time>2015-06-21T12:13:36Z</time>
      </trkpt>
      <trkpt lat="39.9416408" lon="3.1497658">
        <ele>68.6</ele>
        <time>2015-06-21T12:13:37Z</time>
      </trkpt>
      <trkpt lat="39.9417351" lon="3.1499809">
        <ele>68.6</ele>
        <time>2015-06-21T12:13:42Z</time>
      </trkpt>
      <trkpt lat="39.9418429" lon="3.1501734">
        <ele>70</ele>
        <time>2015-06-21T12:13:47Z</time>
      </trkpt>
      <trkpt lat="39.9419242" lon="3.1503659">
        <ele>70.8</ele>
        <time>2015-06-21T12:13:52Z</time>
      </trkpt>
      <trkpt lat="39.941946" lon="3.150407">
        <ele>71.2</ele>
        <time>2015-06-21T12:13:53Z</time>
      </trkpt>
      <trkpt lat="39.9420606" lon="3.1506017">
        <ele>72</ele>
        <time>2015-06-21T12:13:58Z</time>
      </trkpt>
      <trkpt lat="39.9421088" lon="3.1506826">
        <ele>72.2</ele>
        <time>2015-06-21T12:14:00Z</time>
      </trkpt>
      <trkpt lat="39.9422742" lon="3.1509712">
        <ele>72.6</ele>
        <time>2015-06-21T12:14:07Z</time>
      </trkpt>
      <trkpt lat="39.9423967" lon="3.151183">
        <ele>73.4</ele>
        <time>2015-06-21T12:14:12Z</time>
      </trkpt>
      <trkpt lat="39.9425302" lon="3.151406">
        <ele>74.4</ele>
        <time>2015-06-21T12:14:17Z</time>
      </trkpt>
      <trkpt lat="39.9425592" lon="3.1514536">
        <ele>74.2</ele>
        <time>2015-06-21T12:14:18Z</time>
      </trkpt>
      <trkpt lat="39.9426756" lon="3.1516371">
        <ele>72.8</ele>
        <time>2015-06-21T12:14:22Z</time>
      </trkpt>
      <trkpt lat="39.9427948" lon="3.1518216">
        <ele>72.8</ele>
        <time>2015-06-21T12:14:26Z</time>
      </trkpt>
      <trkpt lat="39.9431371" lon="3.15241">
        <ele>73.2</ele>
        <time>2015-06-21T12:14:38Z</time>
      </trkpt>
      <trkpt lat="39.9432453" lon="3.1526031">
        <ele>73.8</ele>
        <time>2015-06-21T12:14:42Z</time>
      </trkpt>
      <trkpt lat="39.9433646" lon="3.1527834">
        <ele>74.4</ele>
        <time>2015-06-21T12:14:46Z</time>
      </trkpt>
      <trkpt lat="39.9434037" lon="3.1528328">
        <ele>74.4</ele>
        <time>2015-06-21T12:14:47Z</time>
      </trkpt>
      <trkpt lat="39.9434328" lon="3.1528821">
        <ele>74.6</ele>
        <time>2015-06-21T12:14:48Z</time>
      </trkpt>
      <trkpt lat="39.9434928" lon="3.1529796">
        <ele>74.8</ele>
        <time>2015-06-21T12:14:50Z</time>
      </trkpt>
      <trkpt lat="39.9435137" lon="3.1530276">
        <ele>75</ele>
        <time>2015-06-21T12:14:51Z</time>
      </trkpt>
      <trkpt lat="39.9435378" lon="3.1530819">
        <ele>75.2</ele>
        <time>2015-06-21T12:14:52Z</time>
      </trkpt>
      <trkpt lat="39.943585" lon="3.1532409">
        <ele>75.2</ele>
        <time>2015-06-21T12:14:55Z</time>
      </trkpt>
      <trkpt lat="39.9436439" lon="3.1533413">
        <ele>75.6</ele>
        <time>2015-06-21T12:14:57Z</time>
      </trkpt>
      <trkpt lat="39.9437031" lon="3.1534405">
        <ele>76</ele>
        <time>2015-06-21T12:14:59Z</time>
      </trkpt>
      <trkpt lat="39.9438353" lon="3.1536913">
        <ele>76</ele>
        <time>2015-06-21T12:15:04Z</time>
      </trkpt>
      <trkpt lat="39.9438546" lon="3.1537533">
        <ele>76</ele>
        <time>2015-06-21T12:15:05Z</time>
      </trkpt>
      <trkpt lat="39.9439358" lon="3.1538867">
        <ele>76.2</ele>
        <time>2015-06-21T12:15:08Z</time>
      </trkpt>
      <trkpt lat="39.943963" lon="3.1539222">
        <ele>76.2</ele>
        <time>2015-06-21T12:15:09Z</time>
      </trkpt>
      <trkpt lat="39.9440663" lon="3.1540961">
        <ele>77.2</ele>
        <time>2015-06-21T12:15:13Z</time>
      </trkpt>
      <trkpt lat="39.9441715" lon="3.1542351">
        <ele>77.8</ele>
        <time>2015-06-21T12:15:17Z</time>
      </trkpt>
      <trkpt lat="39.9442553" lon="3.1543925">
        <ele>78.2</ele>
        <time>2015-06-21T12:15:21Z</time>
      </trkpt>
      <trkpt lat="39.9442786" lon="3.1544344">
        <ele>78.4</ele>
        <time>2015-06-21T12:15:22Z</time>
      </trkpt>
      <trkpt lat="39.94439" lon="3.1546547">
        <ele>78.8</ele>
        <time>2015-06-21T12:15:27Z</time>
      </trkpt>
      <trkpt lat="39.9444736" lon="3.1547883">
        <ele>79.4</ele>
        <time>2015-06-21T12:15:30Z</time>
      </trkpt>
      <trkpt lat="39.9445289" lon="3.1548773">
        <ele>79.8</ele>
        <time>2015-06-21T12:15:32Z</time>
      </trkpt>
      <trkpt lat="39.9445752" lon="3.1549658">
        <ele>80</ele>
        <time>2015-06-21T12:15:34Z</time>
      </trkpt>
      <trkpt lat="39.9446317" lon="3.1550572">
        <ele>79.8</ele>
        <time>2015-06-21T12:15:36Z</time>
      </trkpt>
      <trkpt lat="39.94471" lon="3.1551982">
        <ele>79.6</ele>
        <time>2015-06-21T12:15:39Z</time>
      </trkpt>
      <trkpt lat="39.9449015" lon="3.1555166">
        <ele>80.2</ele>
        <time>2015-06-21T12:15:46Z</time>
      </trkpt>
      <trkpt lat="39.9449879" lon="3.1556508">
        <ele>80.4</ele>
        <time>2015-06-21T12:15:49Z</time>
      </trkpt>
      <trkpt lat="39.9451214" lon="3.1558888">
        <ele>80</ele>
        <time>2015-06-21T12:15:54Z</time>
      </trkpt>
      <trkpt lat="39.9452911" lon="3.156189">
        <ele>80.4</ele>
        <time>2015-06-21T12:16:00Z</time>
      </trkpt>
      <trkpt lat="39.9455103" lon="3.1566081">
        <ele>80.6</ele>
        <time>2015-06-21T12:16:08Z</time>
      </trkpt>
      <trkpt lat="39.9457136" lon="3.1569799">
        <ele>80</ele>
        <time>2015-06-21T12:16:15Z</time>
      </trkpt>
      <trkpt lat="39.9457765" lon="3.1570842">
        <ele>80.2</ele>
        <time>2015-06-21T12:16:17Z</time>
      </trkpt>
      <trkpt lat="39.9458395" lon="3.1571828">
        <ele>80.4</ele>
        <time>2015-06-21T12:16:19Z</time>
      </trkpt>
      <trkpt lat="39.9458996" lon="3.1572894">
        <ele>80.8</ele>
        <time>2015-06-21T12:16:21Z</time>
      </trkpt>
      <trkpt lat="39.9461008" lon="3.1576526">
        <ele>80.8</ele>
        <time>2015-06-21T12:16:28Z</time>
      </trkpt>
      <trkpt lat="39.946204" lon="3.1578634">
        <ele>81.6</ele>
        <time>2015-06-21T12:16:32Z</time>
      </trkpt>
      <trkpt lat="39.9462617" lon="3.1579588">
        <ele>81.8</ele>
        <time>2015-06-21T12:16:34Z</time>
      </trkpt>
      <trkpt lat="39.9462886" lon="3.1580144">
        <ele>81.8</ele>
        <time>2015-06-21T12:16:35Z</time>
      </trkpt>
      <trkpt lat="39.9463963" lon="3.1582053">
        <ele>81.8</ele>
        <time>2015-06-21T12:16:39Z</time>
      </trkpt>
      <trkpt lat="39.9465039" lon="3.1583843">
        <ele>82.6</ele>
        <time>2015-06-21T12:16:43Z</time>
      </trkpt>
      <trkpt lat="39.9465274" lon="3.1584343">
        <ele>83</ele>
        <time>2015-06-21T12:16:44Z</time>
      </trkpt>
      <trkpt lat="39.9465526" lon="3.1584753">
        <ele>83.2</ele>
        <time>2015-06-21T12:16:45Z</time>
      </trkpt>
      <trkpt lat="39.9466243" lon="3.1585988">
        <ele>83.8</ele>
        <time>2015-06-21T12:16:48Z</time>
      </trkpt>
      <trkpt lat="39.9467351" lon="3.158791">
        <ele>84.4</ele>
        <time>2015-06-21T12:16:53Z</time>
      </trkpt>
      <trkpt lat="39.9467703" lon="3.1588658">
        <ele>85</ele>
        <time>2015-06-21T12:16:55Z</time>
      </trkpt>
      <trkpt lat="39.9468322" lon="3.1589711">
        <ele>85.4</ele>
        <time>2015-06-21T12:16:58Z</time>
      </trkpt>
      <trkpt lat="39.946889" lon="3.1590779">
        <ele>86</ele>
        <time>2015-06-21T12:17:01Z</time>
      </trkpt>
      <trkpt lat="39.9469656" lon="3.1592318">
        <ele>86.8</ele>
        <time>2015-06-21T12:17:05Z</time>
      </trkpt>
      <trkpt lat="39.94698" lon="3.159264">
        <ele>87</ele>
        <time>2015-06-21T12:17:06Z</time>
      </trkpt>
      <trkpt lat="39.9470436" lon="3.159368">
        <ele>87.6</ele>
        <time>2015-06-21T12:17:09Z</time>
      </trkpt>
      <trkpt lat="39.9470638" lon="3.1594041">
        <ele>80.2</ele>
        <time>2015-06-21T12:17:10Z</time>
      </trkpt>
      <trkpt lat="39.9470905" lon="3.1594466">
        <ele>78.6</ele>
        <time>2015-06-21T12:17:11Z</time>
      </trkpt>
      <trkpt lat="39.9471193" lon="3.1594875">
        <ele>84.8</ele>
        <time>2015-06-21T12:17:12Z</time>
      </trkpt>
      <trkpt lat="39.9471418" lon="3.1595251">
        <ele>83.8</ele>
        <time>2015-06-21T12:17:13Z</time>
      </trkpt>
      <trkpt lat="39.9471717" lon="3.1595611">
        <ele>83.2</ele>
        <time>2015-06-21T12:17:14Z</time>
      </trkpt>
      <trkpt lat="39.9473372" lon="3.1597774">
        <ele>85</ele>
        <time>2015-06-21T12:17:20Z</time>
      </trkpt>
      <trkpt lat="39.947408" lon="3.1598861">
        <ele>86.2</ele>
        <time>2015-06-21T12:17:23Z</time>
      </trkpt>
      <trkpt lat="39.9474966" lon="3.1600351">
        <ele>87.2</ele>
        <time>2015-06-21T12:17:27Z</time>
      </trkpt>
      <trkpt lat="39.9475173" lon="3.1600726">
        <ele>87.6</ele>
        <time>2015-06-21T12:17:28Z</time>
      </trkpt>
      <trkpt lat="39.9476232" lon="3.1603087">
        <ele>87.8</ele>
        <time>2015-06-21T12:17:34Z</time>
      </trkpt>
      <trkpt lat="39.9476634" lon="3.1605843">
        <ele>88</ele>
        <time>2015-06-21T12:17:40Z</time>
      </trkpt>
      <trkpt lat="39.9476633" lon="3.1607338">
        <ele>88.4</ele>
        <time>2015-06-21T12:17:43Z</time>
      </trkpt>
      <trkpt lat="39.9476479" lon="3.1609275">
        <ele>89</ele>
        <time>2015-06-21T12:17:47Z</time>
      </trkpt>
      <trkpt lat="39.9476212" lon="3.1611892">
        <ele>89</ele>
        <time>2015-06-21T12:17:53Z</time>
      </trkpt>
      <trkpt lat="39.9475995" lon="3.1613484">
        <ele>89.4</ele>
        <time>2015-06-21T12:17:57Z</time>
      </trkpt>
      <trkpt lat="39.9475799" lon="3.1614348">
        <ele>89.8</ele>
        <time>2015-06-21T12:17:59Z</time>
      </trkpt>
      <trkpt lat="39.9475648" lon="3.1615625">
        <ele>90.6</ele>
        <time>2015-06-21T12:18:02Z</time>
      </trkpt>
      <trkpt lat="39.9475494" lon="3.1616892">
        <ele>90.8</ele>
        <time>2015-06-21T12:18:05Z</time>
      </trkpt>
      <trkpt lat="39.9475153" lon="3.1619251">
        <ele>91.8</ele>
        <time>2015-06-21T12:18:11Z</time>
      </trkpt>
      <trkpt lat="39.9475116" lon="3.1619642">
        <ele>91.8</ele>
        <time>2015-06-21T12:18:12Z</time>
      </trkpt>
      <trkpt lat="39.9475339" lon="3.162219">
        <ele>92.4</ele>
        <time>2015-06-21T12:18:19Z</time>
      </trkpt>
      <trkpt lat="39.9476567" lon="3.162446">
        <ele>92.4</ele>
        <time>2015-06-21T12:18:26Z</time>
      </trkpt>
      <trkpt lat="39.9478038" lon="3.1626361">
        <ele>91.4</ele>
        <time>2015-06-21T12:18:34Z</time>
      </trkpt>
      <trkpt lat="39.947975" lon="3.1628364">
        <ele>91.8</ele>
        <time>2015-06-21T12:18:42Z</time>
      </trkpt>
      <trkpt lat="39.9480898" lon="3.1629789">
        <ele>92.8</ele>
        <time>2015-06-21T12:18:48Z</time>
      </trkpt>
      <trkpt lat="39.9481735" lon="3.1630614">
        <ele>94</ele>
        <time>2015-06-21T12:18:52Z</time>
      </trkpt>
      <trkpt lat="39.9481917" lon="3.1630848">
        <ele>94.4</ele>
        <time>2015-06-21T12:18:53Z</time>
      </trkpt>
      <trkpt lat="39.9482822" lon="3.163207">
        <ele>95.2</ele>
        <time>2015-06-21T12:18:58Z</time>
      </trkpt>
      <trkpt lat="39.948313" lon="3.1632729">
        <ele>95.8</ele>
        <time>2015-06-21T12:19:00Z</time>
      </trkpt>
      <trkpt lat="39.9483554" lon="3.1634321">
        <ele>96.4</ele>
        <time>2015-06-21T12:19:04Z</time>
      </trkpt>
      <trkpt lat="39.9483834" lon="3.1635832">
        <ele>96.2</ele>
        <time>2015-06-21T12:19:07Z</time>
      </trkpt>
      <trkpt lat="39.9483953" lon="3.1636911">
        <ele>96</ele>
        <time>2015-06-21T12:19:09Z</time>
      </trkpt>
      <trkpt lat="39.9484206" lon="3.1639051">
        <ele>95.8</ele>
        <time>2015-06-21T12:19:13Z</time>
      </trkpt>
      <trkpt lat="39.9484215" lon="3.1639608">
        <ele>95.8</ele>
        <time>2015-06-21T12:19:14Z</time>
      </trkpt>
      <trkpt lat="39.948455" lon="3.1641174">
        <ele>95.6</ele>
        <time>2015-06-21T12:19:17Z</time>
      </trkpt>
      <trkpt lat="39.9484612" lon="3.164168">
        <ele>95.6</ele>
        <time>2015-06-21T12:19:18Z</time>
      </trkpt>
      <trkpt lat="39.9484939" lon="3.1642658">
        <ele>95.2</ele>
        <time>2015-06-21T12:19:20Z</time>
      </trkpt>
      <trkpt lat="39.9485057" lon="3.164323">
        <ele>95.2</ele>
        <time>2015-06-21T12:19:21Z</time>
      </trkpt>
      <trkpt lat="39.9485944" lon="3.1647156">
        <ele>94.6</ele>
        <time>2015-06-21T12:19:27Z</time>
      </trkpt>
      <trkpt lat="39.948613" lon="3.1647844">
        <ele>94.2</ele>
        <time>2015-06-21T12:19:28Z</time>
      </trkpt>
      <trkpt lat="39.9487048" lon="3.1651662">
        <ele>93.6</ele>
        <time>2015-06-21T12:19:33Z</time>
      </trkpt>
      <trkpt lat="39.9487423" lon="3.1653233">
        <ele>93.2</ele>
        <time>2015-06-21T12:19:35Z</time>
      </trkpt>
      <trkpt lat="39.9488816" lon="3.165871">
        <ele>92.2</ele>
        <time>2015-06-21T12:19:42Z</time>
      </trkpt>
      <trkpt lat="39.9489657" lon="3.1662904">
        <ele>90.8</ele>
        <time>2015-06-21T12:19:47Z</time>
      </trkpt>
      <trkpt lat="39.9489826" lon="3.1663824">
        <ele>90.6</ele>
        <time>2015-06-21T12:19:48Z</time>
      </trkpt>
      <trkpt lat="39.9490095" lon="3.1665831">
        <ele>89.8</ele>
        <time>2015-06-21T12:19:50Z</time>
      </trkpt>
      <trkpt lat="39.9490205" lon="3.1666849">
        <ele>89.4</ele>
        <time>2015-06-21T12:19:51Z</time>
      </trkpt>
      <trkpt lat="39.9490463" lon="3.166903">
        <ele>88.8</ele>
        <time>2015-06-21T12:19:53Z</time>
      </trkpt>
      <trkpt lat="39.9490538" lon="3.1670153">
        <ele>88.4</ele>
        <time>2015-06-21T12:19:54Z</time>
      </trkpt>
      <trkpt lat="39.9491371" lon="3.1676841">
        <ele>88.4</ele>
        <time>2015-06-21T12:20:00Z</time>
      </trkpt>
      <trkpt lat="39.9491664" lon="3.1679033">
        <ele>87.8</ele>
        <time>2015-06-21T12:20:02Z</time>
      </trkpt>
      <trkpt lat="39.9492226" lon="3.16823">
        <ele>86.4</ele>
        <time>2015-06-21T12:20:05Z</time>
      </trkpt>
      <trkpt lat="39.9492579" lon="3.168436">
        <ele>85.6</ele>
        <time>2015-06-21T12:20:07Z</time>
      </trkpt>
      <trkpt lat="39.9492695" lon="3.1685318">
        <ele>85</ele>
        <time>2015-06-21T12:20:08Z</time>
      </trkpt>
      <trkpt lat="39.9492933" lon="3.1687984">
        <ele>84.8</ele>
        <time>2015-06-21T12:20:11Z</time>
      </trkpt>
      <trkpt lat="39.9492926" lon="3.1688914">
        <ele>85</ele>
        <time>2015-06-21T12:20:12Z</time>
      </trkpt>
      <trkpt lat="39.949231" lon="3.1693248">
        <ele>84</ele>
        <time>2015-06-21T12:20:17Z</time>
      </trkpt>
      <trkpt lat="39.9491703" lon="3.1697293">
        <ele>84</ele>
        <time>2015-06-21T12:20:22Z</time>
      </trkpt>
      <trkpt lat="39.9491475" lon="3.1699171">
        <ele>85</ele>
        <time>2015-06-21T12:20:25Z</time>
      </trkpt>
      <trkpt lat="39.949146" lon="3.1699527">
        <ele>85.4</ele>
        <time>2015-06-21T12:20:26Z</time>
      </trkpt>
      <trkpt lat="39.9491421" lon="3.1700588">
        <ele>86.6</ele>
        <time>2015-06-21T12:20:29Z</time>
      </trkpt>
      <trkpt lat="39.9491449" lon="3.170092">
        <ele>83.8</ele>
        <time>2015-06-21T12:20:30Z</time>
      </trkpt>
      <trkpt lat="39.9491522" lon="3.17016">
        <ele>84.4</ele>
        <time>2015-06-21T12:20:32Z</time>
      </trkpt>
      <trkpt lat="39.9491608" lon="3.1702241">
        <ele>85</ele>
        <time>2015-06-21T12:20:34Z</time>
      </trkpt>
      <trkpt lat="39.9491667" lon="3.1702586">
        <ele>88.2</ele>
        <time>2015-06-21T12:20:35Z</time>
      </trkpt>
      <trkpt lat="39.9491888" lon="3.1704087">
        <ele>89.4</ele>
        <time>2015-06-21T12:20:40Z</time>
      </trkpt>
      <trkpt lat="39.9491923" lon="3.1704384">
        <ele>89.6</ele>
        <time>2015-06-21T12:20:41Z</time>
      </trkpt>
      <trkpt lat="39.9492084" lon="3.1705641">
        <ele>90.6</ele>
        <time>2015-06-21T12:20:45Z</time>
      </trkpt>
      <trkpt lat="39.9492191" lon="3.1707135">
        <ele>91.4</ele>
        <time>2015-06-21T12:20:50Z</time>
      </trkpt>
      <trkpt lat="39.9491979" lon="3.1708832">
        <ele>90.2</ele>
        <time>2015-06-21T12:20:56Z</time>
      </trkpt>
      <trkpt lat="39.9491451" lon="3.1710656">
        <ele>91.6</ele>
        <time>2015-06-21T12:21:03Z</time>
      </trkpt>
      <trkpt lat="39.949135" lon="3.1710903">
        <ele>91.8</ele>
        <time>2015-06-21T12:21:04Z</time>
      </trkpt>
      <trkpt lat="39.9490445" lon="3.1712663">
        <ele>93</ele>
        <time>2015-06-21T12:21:11Z</time>
      </trkpt>
      <trkpt lat="39.9489191" lon="3.1713206">
        <ele>93.6</ele>
        <time>2015-06-21T12:21:17Z</time>
      </trkpt>
      <trkpt lat="39.9488773" lon="3.1713288">
        <ele>94</ele>
        <time>2015-06-21T12:21:19Z</time>
      </trkpt>
      <trkpt lat="39.9487579" lon="3.171331">
        <ele>95</ele>
        <time>2015-06-21T12:21:25Z</time>
      </trkpt>
      <trkpt lat="39.9487062" lon="3.1713549">
        <ele>95.2</ele>
        <time>2015-06-21T12:21:29Z</time>
      </trkpt>
      <trkpt lat="39.9487056" lon="3.1713843">
        <ele>95.6</ele>
        <time>2015-06-21T12:21:31Z</time>
      </trkpt>
      <trkpt lat="39.9487128" lon="3.1714175">
        <ele>95.2</ele>
        <time>2015-06-21T12:21:36Z</time>
      </trkpt>
      <trkpt lat="39.9487309" lon="3.1714387">
        <ele>95.2</ele>
        <time>2015-06-21T12:21:41Z</time>
      </trkpt>
      <trkpt lat="39.9487382" lon="3.1714549">
        <ele>101.4</ele>
        <time>2015-06-21T12:21:43Z</time>
      </trkpt>
      <trkpt lat="39.9487384" lon="3.1714664">
        <ele>101</ele>
        <time>2015-06-21T12:21:44Z</time>
      </trkpt>
      <trkpt lat="39.9487391" lon="3.1714745">
        <ele>100.4</ele>
        <time>2015-06-21T12:21:46Z</time>
      </trkpt>
      <trkpt lat="39.9487497" lon="3.1714916">
        <ele>100.2</ele>
        <time>2015-06-21T12:21:48Z</time>
      </trkpt>
      <trkpt lat="39.9487717" lon="3.171505">
        <ele>100.4</ele>
        <time>2015-06-21T12:21:52Z</time>
      </trkpt>
      <trkpt lat="39.9487879" lon="3.1715248">
        <ele>100.6</ele>
        <time>2015-06-21T12:21:59Z</time>
      </trkpt>
      <trkpt lat="39.9488016" lon="3.171547">
        <ele>100.8</ele>
        <time>2015-06-21T12:22:10Z</time>
      </trkpt>
      <trkpt lat="39.9488305" lon="3.1715617">
        <ele>100.4</ele>
        <time>2015-06-21T12:22:14Z</time>
      </trkpt>
      <trkpt lat="39.9488481" lon="3.1715689">
        <ele>100.2</ele>
        <time>2015-06-21T12:22:16Z</time>
      </trkpt>
      <trkpt lat="39.9489388" lon="3.1716122">
        <ele>101</ele>
        <time>2015-06-21T12:22:24Z</time>
      </trkpt>
      <trkpt lat="39.9489884" lon="3.1716622">
        <ele>101.4</ele>
        <time>2015-06-21T12:22:30Z</time>
      </trkpt>
      <trkpt lat="39.9490036" lon="3.171677">
        <ele>101.6</ele>
        <time>2015-06-21T12:22:32Z</time>
      </trkpt>
      <trkpt lat="39.9490655" lon="3.1717189">
        <ele>102</ele>
        <time>2015-06-21T12:22:39Z</time>
      </trkpt>
      <trkpt lat="39.9491039" lon="3.1717421">
        <ele>102.6</ele>
        <time>2015-06-21T12:22:44Z</time>
      </trkpt>
      <trkpt lat="39.9491226" lon="3.1717542">
        <ele>102.6</ele>
        <time>2015-06-21T12:22:46Z</time>
      </trkpt>
      <trkpt lat="39.9491629" lon="3.171792">
        <ele>102.4</ele>
        <time>2015-06-21T12:22:51Z</time>
      </trkpt>
      <trkpt lat="39.9491858" lon="3.1718134">
        <ele>102.8</ele>
        <time>2015-06-21T12:22:54Z</time>
      </trkpt>
      <trkpt lat="39.9492333" lon="3.171839">
        <ele>102.6</ele>
        <time>2015-06-21T12:22:59Z</time>
      </trkpt>
      <trkpt lat="39.9492417" lon="3.1718471">
        <ele>102.6</ele>
        <time>2015-06-21T12:23:00Z</time>
      </trkpt>
      <trkpt lat="39.9492956" lon="3.1719019">
        <ele>102.6</ele>
        <time>2015-06-21T12:23:07Z</time>
      </trkpt>
      <trkpt lat="39.9493236" lon="3.1719222">
        <ele>102.6</ele>
        <time>2015-06-21T12:23:11Z</time>
      </trkpt>
      <trkpt lat="39.9493301" lon="3.1719315">
        <ele>102.6</ele>
        <time>2015-06-21T12:23:12Z</time>
      </trkpt>
      <trkpt lat="39.949381" lon="3.1719958">
        <ele>102.6</ele>
        <time>2015-06-21T12:23:21Z</time>
      </trkpt>
      <trkpt lat="39.9494319" lon="3.1720324">
        <ele>102.6</ele>
        <time>2015-06-21T12:23:30Z</time>
      </trkpt>
      <trkpt lat="39.9494629" lon="3.1720308">
        <ele>102.6</ele>
        <time>2015-06-21T12:23:35Z</time>
      </trkpt>
      <trkpt lat="39.9494732" lon="3.1720276">
        <ele>102.4</ele>
        <time>2015-06-21T12:23:49Z</time>
      </trkpt>
      <trkpt lat="39.9494528" lon="3.1720402">
        <ele>102.6</ele>
        <time>2015-06-21T12:23:54Z</time>
      </trkpt>
      <trkpt lat="39.9494386" lon="3.1720373">
        <ele>103</ele>
        <time>2015-06-21T12:23:59Z</time>
      </trkpt>
      <trkpt lat="39.9494189" lon="3.1719912">
        <ele>102.8</ele>
        <time>2015-06-21T12:24:06Z</time>
      </trkpt>
      <trkpt lat="39.9493756" lon="3.1719473">
        <ele>102.6</ele>
        <time>2015-06-21T12:24:12Z</time>
      </trkpt>
      <trkpt lat="39.9493488" lon="3.1719323">
        <ele>102.8</ele>
        <time>2015-06-21T12:24:16Z</time>
      </trkpt>
      <trkpt lat="39.949342" lon="3.171928">
        <ele>103</ele>
        <time>2015-06-21T12:24:17Z</time>
      </trkpt>
      <trkpt lat="39.9492999" lon="3.171909">
        <ele>103</ele>
        <time>2015-06-21T12:24:23Z</time>
      </trkpt>
      <trkpt lat="39.9492532" lon="3.1718779">
        <ele>103.2</ele>
        <time>2015-06-21T12:24:31Z</time>
      </trkpt>
      <trkpt lat="39.9492268" lon="3.1718609">
        <ele>103.4</ele>
        <time>2015-06-21T12:24:35Z</time>
      </trkpt>
      <trkpt lat="39.9492215" lon="3.1718521">
        <ele>103.4</ele>
        <time>2015-06-21T12:24:38Z</time>
      </trkpt>
      <trkpt lat="39.9492247" lon="3.1718033">
        <ele>103.4</ele>
        <time>2015-06-21T12:24:44Z</time>
      </trkpt>
      <trkpt lat="39.9492153" lon="3.171792">
        <ele>103.2</ele>
        <time>2015-06-21T12:24:51Z</time>
      </trkpt>
      <trkpt lat="39.9491744" lon="3.1717458">
        <ele>103.2</ele>
        <time>2015-06-21T12:25:01Z</time>
      </trkpt>
      <trkpt lat="39.9491678" lon="3.1717392">
        <ele>103.2</ele>
        <time>2015-06-21T12:25:08Z</time>
      </trkpt>
      <trkpt lat="39.9491585" lon="3.1717251">
        <ele>103</ele>
        <time>2015-06-21T12:25:15Z</time>
      </trkpt>
      <trkpt lat="39.9491527" lon="3.1717091">
        <ele>103.4</ele>
        <time>2015-06-21T12:25:17Z</time>
      </trkpt>
      <trkpt lat="39.9491142" lon="3.1716751">
        <ele>103.2</ele>
        <time>2015-06-21T12:25:25Z</time>
      </trkpt>
      <trkpt lat="39.9490656" lon="3.1716471">
        <ele>103</ele>
        <time>2015-06-21T12:25:32Z</time>
      </trkpt>
      <trkpt lat="39.9490212" lon="3.171617">
        <ele>102.8</ele>
        <time>2015-06-21T12:25:41Z</time>
      </trkpt>
      <trkpt lat="39.948977" lon="3.1715988">
        <ele>102.2</ele>
        <time>2015-06-21T12:25:48Z</time>
      </trkpt>
      <trkpt lat="39.948945" lon="3.1715903">
        <ele>102</ele>
        <time>2015-06-21T12:25:54Z</time>
      </trkpt>
      <trkpt lat="39.9489215" lon="3.1715915">
        <ele>101.6</ele>
        <time>2015-06-21T12:25:57Z</time>
      </trkpt>
      <trkpt lat="39.9489057" lon="3.1715897">
        <ele>101.6</ele>
        <time>2015-06-21T12:25:59Z</time>
      </trkpt>
      <trkpt lat="39.9488952" lon="3.171578">
        <ele>101.4</ele>
        <time>2015-06-21T12:26:01Z</time>
      </trkpt>
      <trkpt lat="39.9488631" lon="3.1715524">
        <ele>101.2</ele>
        <time>2015-06-21T12:26:05Z</time>
      </trkpt>
      <trkpt lat="39.9488062" lon="3.1715211">
        <ele>100.8</ele>
        <time>2015-06-21T12:26:14Z</time>
      </trkpt>
      <trkpt lat="39.9487813" lon="3.1714985">
        <ele>100.8</ele>
        <time>2015-06-21T12:26:19Z</time>
      </trkpt>
      <trkpt lat="39.9488028" lon="3.1714641">
        <ele>100.4</ele>
        <time>2015-06-21T12:26:24Z</time>
      </trkpt>
      <trkpt lat="39.9488089" lon="3.171463">
        <ele>100.4</ele>
        <time>2015-06-21T12:26:25Z</time>
      </trkpt>
      <trkpt lat="39.9488088" lon="3.1714552">
        <ele>100</ele>
        <time>2015-06-21T12:26:33Z</time>
      </trkpt>
      <trkpt lat="39.9488088" lon="3.171463">
        <ele>100</ele>
        <time>2015-06-21T12:26:39Z</time>
      </trkpt>
      <trkpt lat="39.9488055" lon="3.1714696">
        <ele>100</ele>
        <time>2015-06-21T12:26:50Z</time>
      </trkpt>
      <trkpt lat="39.948802" lon="3.1714584">
        <ele>100</ele>
        <time>2015-06-21T12:26:57Z</time>
      </trkpt>
      <trkpt lat="39.9488009" lon="3.1714505">
        <ele>100</ele>
        <time>2015-06-21T12:27:03Z</time>
      </trkpt>
      <trkpt lat="39.9487787" lon="3.1714335">
        <ele>100</ele>
        <time>2015-06-21T12:27:12Z</time>
      </trkpt>
      <trkpt lat="39.9487752" lon="3.1714107">
        <ele>99.8</ele>
        <time>2015-06-21T12:27:23Z</time>
      </trkpt>
      <trkpt lat="39.9487606" lon="3.1713999">
        <ele>95.6</ele>
        <time>2015-06-21T12:27:27Z</time>
      </trkpt>
      <trkpt lat="39.9487536" lon="3.1713859">
        <ele>94.6</ele>
        <time>2015-06-21T12:27:28Z</time>
      </trkpt>
      <trkpt lat="39.9487566" lon="3.1713626">
        <ele>97.4</ele>
        <time>2015-06-21T12:27:29Z</time>
      </trkpt>
      <trkpt lat="39.948824" lon="3.1713527">
        <ele>101.8</ele>
        <time>2015-06-21T12:27:32Z</time>
      </trkpt>
      <trkpt lat="39.9488932" lon="3.1713534">
        <ele>100.4</ele>
        <time>2015-06-21T12:27:34Z</time>
      </trkpt>
      <trkpt lat="39.9489418" lon="3.171346">
        <ele>100.2</ele>
        <time>2015-06-21T12:27:35Z</time>
      </trkpt>
      <trkpt lat="39.948988" lon="3.1713282">
        <ele>100</ele>
        <time>2015-06-21T12:27:36Z</time>
      </trkpt>
      <trkpt lat="39.94913" lon="3.1711658">
        <ele>99</ele>
        <time>2015-06-21T12:27:39Z</time>
      </trkpt>
      <trkpt lat="39.94919" lon="3.1709927">
        <ele>97.8</ele>
        <time>2015-06-21T12:27:41Z</time>
      </trkpt>
      <trkpt lat="39.9492371" lon="3.1708179">
        <ele>96.2</ele>
        <time>2015-06-21T12:27:43Z</time>
      </trkpt>
      <trkpt lat="39.9492489" lon="3.1706411">
        <ele>95.2</ele>
        <time>2015-06-21T12:27:45Z</time>
      </trkpt>
      <trkpt lat="39.9492244" lon="3.1704379">
        <ele>93.8</ele>
        <time>2015-06-21T12:27:47Z</time>
      </trkpt>
      <trkpt lat="39.9491921" lon="3.1702009">
        <ele>92</ele>
        <time>2015-06-21T12:27:49Z</time>
      </trkpt>
      <trkpt lat="39.9491787" lon="3.1699381">
        <ele>90</ele>
        <time>2015-06-21T12:27:51Z</time>
      </trkpt>
      <trkpt lat="39.9491889" lon="3.1698007">
        <ele>89</ele>
        <time>2015-06-21T12:27:52Z</time>
      </trkpt>
      <trkpt lat="39.9492102" lon="3.1696417">
        <ele>87.8</ele>
        <time>2015-06-21T12:27:53Z</time>
      </trkpt>
      <trkpt lat="39.9492345" lon="3.1694964">
        <ele>86.8</ele>
        <time>2015-06-21T12:27:54Z</time>
      </trkpt>
      <trkpt lat="39.9492592" lon="3.1693538">
        <ele>85.6</ele>
        <time>2015-06-21T12:27:55Z</time>
      </trkpt>
      <trkpt lat="39.9493011" lon="3.1690827">
        <ele>84</ele>
        <time>2015-06-21T12:27:57Z</time>
      </trkpt>
      <trkpt lat="39.9493201" lon="3.1688368">
        <ele>84</ele>
        <time>2015-06-21T12:27:59Z</time>
      </trkpt>
      <trkpt lat="39.9493072" lon="3.1686171">
        <ele>85.2</ele>
        <time>2015-06-21T12:28:01Z</time>
      </trkpt>
      <trkpt lat="39.9492779" lon="3.1684011">
        <ele>86</ele>
        <time>2015-06-21T12:28:03Z</time>
      </trkpt>
      <trkpt lat="39.9492679" lon="3.1683086">
        <ele>86.4</ele>
        <time>2015-06-21T12:28:04Z</time>
      </trkpt>
      <trkpt lat="39.9492389" lon="3.1681205">
        <ele>87.6</ele>
        <time>2015-06-21T12:28:06Z</time>
      </trkpt>
      <trkpt lat="39.9492061" lon="3.1679526">
        <ele>88.2</ele>
        <time>2015-06-21T12:28:08Z</time>
      </trkpt>
      <trkpt lat="39.9491692" lon="3.1677447">
        <ele>88.8</ele>
        <time>2015-06-21T12:28:11Z</time>
      </trkpt>
      <trkpt lat="39.9491432" lon="3.1676152">
        <ele>88.8</ele>
        <time>2015-06-21T12:28:13Z</time>
      </trkpt>
      <trkpt lat="39.9491128" lon="3.1674397">
        <ele>82.4</ele>
        <time>2015-06-21T12:28:16Z</time>
      </trkpt>
      <trkpt lat="39.9490672" lon="3.1671342">
        <ele>89.6</ele>
        <time>2015-06-21T12:28:21Z</time>
      </trkpt>
      <trkpt lat="39.949052" lon="3.1670063">
        <ele>90</ele>
        <time>2015-06-21T12:28:23Z</time>
      </trkpt>
      <trkpt lat="39.9490346" lon="3.1668753">
        <ele>90.6</ele>
        <time>2015-06-21T12:28:25Z</time>
      </trkpt>
      <trkpt lat="39.9489929" lon="3.1665605">
        <ele>91.6</ele>
        <time>2015-06-21T12:28:30Z</time>
      </trkpt>
      <trkpt lat="39.9489871" lon="3.1665026">
        <ele>91.8</ele>
        <time>2015-06-21T12:28:31Z</time>
      </trkpt>
      <trkpt lat="39.9489651" lon="3.1662999">
        <ele>92.8</ele>
        <time>2015-06-21T12:28:35Z</time>
      </trkpt>
      <trkpt lat="39.9489535" lon="3.1662021">
        <ele>91.8</ele>
        <time>2015-06-21T12:28:37Z</time>
      </trkpt>
      <trkpt lat="39.9489318" lon="3.1660447">
        <ele>92.8</ele>
        <time>2015-06-21T12:28:41Z</time>
      </trkpt>
      <trkpt lat="39.9489253" lon="3.1660018">
        <ele>94.8</ele>
        <time>2015-06-21T12:28:42Z</time>
      </trkpt>
      <trkpt lat="39.948902" lon="3.1658834">
        <ele>95.6</ele>
        <time>2015-06-21T12:28:45Z</time>
      </trkpt>
      <trkpt lat="39.9488864" lon="3.1658034">
        <ele>96</ele>
        <time>2015-06-21T12:28:47Z</time>
      </trkpt>
      <trkpt lat="39.9488184" lon="3.1655234">
        <ele>97.2</ele>
        <time>2015-06-21T12:28:54Z</time>
      </trkpt>
      <trkpt lat="39.9487543" lon="3.1652287">
        <ele>98.2</ele>
        <time>2015-06-21T12:29:01Z</time>
      </trkpt>
      <trkpt lat="39.9487367" lon="3.1651425">
        <ele>98.2</ele>
        <time>2015-06-21T12:29:03Z</time>
      </trkpt>
      <trkpt lat="39.9486802" lon="3.1648614">
        <ele>99.4</ele>
        <time>2015-06-21T12:29:10Z</time>
      </trkpt>
      <trkpt lat="39.9486727" lon="3.1648209">
        <ele>99.4</ele>
        <time>2015-06-21T12:29:11Z</time>
      </trkpt>
      <trkpt lat="39.9486343" lon="3.1646545">
        <ele>100.6</ele>
        <time>2015-06-21T12:29:15Z</time>
      </trkpt>
      <trkpt lat="39.9486071" lon="3.1645346">
        <ele>101</ele>
        <time>2015-06-21T12:29:18Z</time>
      </trkpt>
      <trkpt lat="39.9485984" lon="3.1644937">
        <ele>97.2</ele>
        <time>2015-06-21T12:29:19Z</time>
      </trkpt>
      <trkpt lat="39.9485921" lon="3.1644555">
        <ele>99.6</ele>
        <time>2015-06-21T12:29:20Z</time>
      </trkpt>
      <trkpt lat="39.948584" lon="3.1644188">
        <ele>101.2</ele>
        <time>2015-06-21T12:29:21Z</time>
      </trkpt>
      <trkpt lat="39.9485494" lon="3.1642463">
        <ele>101.4</ele>
        <time>2015-06-21T12:29:25Z</time>
      </trkpt>
      <trkpt lat="39.9484828" lon="3.1639078">
        <ele>102.2</ele>
        <time>2015-06-21T12:29:32Z</time>
      </trkpt>
      <trkpt lat="39.9484692" lon="3.1638053">
        <ele>102.4</ele>
        <time>2015-06-21T12:29:34Z</time>
      </trkpt>
      <trkpt lat="39.9484374" lon="3.1635936">
        <ele>103.6</ele>
        <time>2015-06-21T12:29:38Z</time>
      </trkpt>
      <trkpt lat="39.9484237" lon="3.1634972">
        <ele>104.2</ele>
        <time>2015-06-21T12:29:40Z</time>
      </trkpt>
      <trkpt lat="39.9484135" lon="3.163449">
        <ele>104.6</ele>
        <time>2015-06-21T12:29:41Z</time>
      </trkpt>
      <trkpt lat="39.9483904" lon="3.1633163">
        <ele>105.6</ele>
        <time>2015-06-21T12:29:44Z</time>
      </trkpt>
      <trkpt lat="39.9483783" lon="3.1632776">
        <ele>105.8</ele>
        <time>2015-06-21T12:29:45Z</time>
      </trkpt>
      <trkpt lat="39.9482916" lon="3.1631222">
        <ele>106.6</ele>
        <time>2015-06-21T12:29:49Z</time>
      </trkpt>
      <trkpt lat="39.9482596" lon="3.1630825">
        <ele>106.6</ele>
        <time>2015-06-21T12:29:50Z</time>
      </trkpt>
      <trkpt lat="39.9481307" lon="3.1629427">
        <ele>105.8</ele>
        <time>2015-06-21T12:29:53Z</time>
      </trkpt>
      <trkpt lat="39.9478659" lon="3.1626502">
        <ele>104.6</ele>
        <time>2015-06-21T12:29:58Z</time>
      </trkpt>
      <trkpt lat="39.9478101" lon="3.1625773">
        <ele>104</ele>
        <time>2015-06-21T12:29:59Z</time>
      </trkpt>
      <trkpt lat="39.9477491" lon="3.1625172">
        <ele>103.6</ele>
        <time>2015-06-21T12:30:00Z</time>
      </trkpt>
      <trkpt lat="39.9476283" lon="3.1623559">
        <ele>102.6</ele>
        <time>2015-06-21T12:30:02Z</time>
      </trkpt>
      <trkpt lat="39.947584" lon="3.1622524">
        <ele>102</ele>
        <time>2015-06-21T12:30:03Z</time>
      </trkpt>
      <trkpt lat="39.9475547" lon="3.1620157">
        <ele>100.8</ele>
        <time>2015-06-21T12:30:05Z</time>
      </trkpt>
      <trkpt lat="39.9475852" lon="3.1617731">
        <ele>99</ele>
        <time>2015-06-21T12:30:07Z</time>
      </trkpt>
      <trkpt lat="39.9476044" lon="3.1616523">
        <ele>97.8</ele>
        <time>2015-06-21T12:30:08Z</time>
      </trkpt>
      <trkpt lat="39.9476256" lon="3.1615287">
        <ele>97</ele>
        <time>2015-06-21T12:30:09Z</time>
      </trkpt>
      <trkpt lat="39.9476437" lon="3.1614197">
        <ele>96</ele>
        <time>2015-06-21T12:30:10Z</time>
      </trkpt>
      <trkpt lat="39.9476821" lon="3.1611801">
        <ele>94.8</ele>
        <time>2015-06-21T12:30:12Z</time>
      </trkpt>
      <trkpt lat="39.9476994" lon="3.1609578">
        <ele>94</ele>
        <time>2015-06-21T12:30:14Z</time>
      </trkpt>
      <trkpt lat="39.9477091" lon="3.1606278">
        <ele>93.8</ele>
        <time>2015-06-21T12:30:17Z</time>
      </trkpt>
      <trkpt lat="39.9476983" lon="3.1605165">
        <ele>93.8</ele>
        <time>2015-06-21T12:30:18Z</time>
      </trkpt>
      <trkpt lat="39.9476736" lon="3.1604067">
        <ele>93.4</ele>
        <time>2015-06-21T12:30:19Z</time>
      </trkpt>
      <trkpt lat="39.9475997" lon="3.1602125">
        <ele>91.8</ele>
        <time>2015-06-21T12:30:21Z</time>
      </trkpt>
      <trkpt lat="39.9475059" lon="3.1600199">
        <ele>90.6</ele>
        <time>2015-06-21T12:30:23Z</time>
      </trkpt>
      <trkpt lat="39.9473536" lon="3.1597384">
        <ele>89.4</ele>
        <time>2015-06-21T12:30:26Z</time>
      </trkpt>
      <trkpt lat="39.9472943" lon="3.1596302">
        <ele>89.2</ele>
        <time>2015-06-21T12:30:27Z</time>
      </trkpt>
      <trkpt lat="39.9470581" lon="3.1592178">
        <ele>88.4</ele>
        <time>2015-06-21T12:30:31Z</time>
      </trkpt>
      <trkpt lat="39.9469228" lon="3.1589914">
        <ele>87.2</ele>
        <time>2015-06-21T12:30:33Z</time>
      </trkpt>
      <trkpt lat="39.9467827" lon="3.1587548">
        <ele>86</ele>
        <time>2015-06-21T12:30:35Z</time>
      </trkpt>
      <trkpt lat="39.9465711" lon="3.1584015">
        <ele>84.8</ele>
        <time>2015-06-21T12:30:38Z</time>
      </trkpt>
      <trkpt lat="39.9463733" lon="3.1580506">
        <ele>83.2</ele>
        <time>2015-06-21T12:30:41Z</time>
      </trkpt>
      <trkpt lat="39.9462347" lon="3.1578044">
        <ele>82</ele>
        <time>2015-06-21T12:30:43Z</time>
      </trkpt>
      <trkpt lat="39.9461053" lon="3.1575744">
        <ele>81.2</ele>
        <time>2015-06-21T12:30:45Z</time>
      </trkpt>
      <trkpt lat="39.9460481" lon="3.1574742">
        <ele>81</ele>
        <time>2015-06-21T12:30:46Z</time>
      </trkpt>
      <trkpt lat="39.9457416" lon="3.156923">
        <ele>79.8</ele>
        <time>2015-06-21T12:30:51Z</time>
      </trkpt>
      <trkpt lat="39.945398" lon="3.1563121">
        <ele>79.2</ele>
        <time>2015-06-21T12:30:57Z</time>
      </trkpt>
      <trkpt lat="39.945294" lon="3.1561294">
        <ele>79.6</ele>
        <time>2015-06-21T12:30:59Z</time>
      </trkpt>
      <trkpt lat="39.9451501" lon="3.1558779">
        <ele>82</ele>
        <time>2015-06-21T12:31:02Z</time>
      </trkpt>
      <trkpt lat="39.9451009" lon="3.155796">
        <ele>88.4</ele>
        <time>2015-06-21T12:31:03Z</time>
      </trkpt>
      <trkpt lat="39.9450013" lon="3.1556268">
        <ele>89</ele>
        <time>2015-06-21T12:31:05Z</time>
      </trkpt>
      <trkpt lat="39.944899" lon="3.1554521">
        <ele>86.4</ele>
        <time>2015-06-21T12:31:07Z</time>
      </trkpt>
      <trkpt lat="39.9448487" lon="3.1553634">
        <ele>79.8</ele>
        <time>2015-06-21T12:31:08Z</time>
      </trkpt>
      <trkpt lat="39.9445958" lon="3.1549095">
        <ele>79</ele>
        <time>2015-06-21T12:31:13Z</time>
      </trkpt>
      <trkpt lat="39.9443391" lon="3.1544467">
        <ele>78.8</ele>
        <time>2015-06-21T12:31:18Z</time>
      </trkpt>
      <trkpt lat="39.9441361" lon="3.154074">
        <ele>77.6</ele>
        <time>2015-06-21T12:31:22Z</time>
      </trkpt>
      <trkpt lat="39.944024" lon="3.1538734">
        <ele>77</ele>
        <time>2015-06-21T12:31:24Z</time>
      </trkpt>
      <trkpt lat="39.9439168" lon="3.1536769">
        <ele>76.2</ele>
        <time>2015-06-21T12:31:26Z</time>
      </trkpt>
      <trkpt lat="39.9436442" lon="3.1531893">
        <ele>75.2</ele>
        <time>2015-06-21T12:31:31Z</time>
      </trkpt>
      <trkpt lat="39.9433312" lon="3.1526212">
        <ele>75.2</ele>
        <time>2015-06-21T12:31:37Z</time>
      </trkpt>
      <trkpt lat="39.9432241" lon="3.1524323">
        <ele>74</ele>
        <time>2015-06-21T12:31:39Z</time>
      </trkpt>
      <trkpt lat="39.9429044" lon="3.151862">
        <ele>73</ele>
        <time>2015-06-21T12:31:45Z</time>
      </trkpt>
      <trkpt lat="39.9428588" lon="3.1517799">
        <ele>72.8</ele>
        <time>2015-06-21T12:31:46Z</time>
      </trkpt>
      <trkpt lat="39.9424867" lon="3.1511251">
        <ele>72.2</ele>
        <time>2015-06-21T12:31:53Z</time>
      </trkpt>
      <trkpt lat="39.9424357" lon="3.151037">
        <ele>72.2</ele>
        <time>2015-06-21T12:31:54Z</time>
      </trkpt>
      <trkpt lat="39.9420684" lon="3.1503867">
        <ele>72</ele>
        <time>2015-06-21T12:32:01Z</time>
      </trkpt>
      <trkpt lat="39.9420105" lon="3.150281">
        <ele>71.6</ele>
        <time>2015-06-21T12:32:02Z</time>
      </trkpt>
      <trkpt lat="39.9417939" lon="3.14989">
        <ele>70.6</ele>
        <time>2015-06-21T12:32:06Z</time>
      </trkpt>
      <trkpt lat="39.9416058" lon="3.1495598">
        <ele>70</ele>
        <time>2015-06-21T12:32:09Z</time>
      </trkpt>
      <trkpt lat="39.9415487" lon="3.1494546">
        <ele>69.6</ele>
        <time>2015-06-21T12:32:10Z</time>
      </trkpt>
      <trkpt lat="39.9413617" lon="3.1491104">
        <ele>68.2</ele>
        <time>2015-06-21T12:32:13Z</time>
      </trkpt>
      <trkpt lat="39.9412383" lon="3.1488901">
        <ele>67</ele>
        <time>2015-06-21T12:32:15Z</time>
      </trkpt>
      <trkpt lat="39.9411132" lon="3.1486763">
        <ele>65.8</ele>
        <time>2015-06-21T12:32:17Z</time>
      </trkpt>
      <trkpt lat="39.9408976" lon="3.1482883">
        <ele>64.8</ele>
        <time>2015-06-21T12:32:21Z</time>
      </trkpt>
      <trkpt lat="39.940846" lon="3.1481944">
        <ele>64.8</ele>
        <time>2015-06-21T12:32:22Z</time>
      </trkpt>
      <trkpt lat="39.9404905" lon="3.1475635">
        <ele>64.6</ele>
        <time>2015-06-21T12:32:29Z</time>
      </trkpt>
      <trkpt lat="39.9401612" lon="3.1469853">
        <ele>64.2</ele>
        <time>2015-06-21T12:32:36Z</time>
      </trkpt>
      <trkpt lat="39.9401124" lon="3.146899">
        <ele>64.4</ele>
        <time>2015-06-21T12:32:37Z</time>
      </trkpt>
      <trkpt lat="39.9399297" lon="3.1465939">
        <ele>64.4</ele>
        <time>2015-06-21T12:32:41Z</time>
      </trkpt>
      <trkpt lat="39.9398283" lon="3.1464269">
        <ele>64</ele>
        <time>2015-06-21T12:32:43Z</time>
      </trkpt>
      <trkpt lat="39.9397034" lon="3.1461995">
        <ele>63.8</ele>
        <time>2015-06-21T12:32:46Z</time>
      </trkpt>
      <trkpt lat="39.939512" lon="3.1458641">
        <ele>63.2</ele>
        <time>2015-06-21T12:32:50Z</time>
      </trkpt>
      <trkpt lat="39.9394661" lon="3.1457856">
        <ele>62.8</ele>
        <time>2015-06-21T12:32:51Z</time>
      </trkpt>
      <trkpt lat="39.9391585" lon="3.1452289">
        <ele>62.8</ele>
        <time>2015-06-21T12:32:58Z</time>
      </trkpt>
      <trkpt lat="39.9388853" lon="3.1447575">
        <ele>63.4</ele>
        <time>2015-06-21T12:33:05Z</time>
      </trkpt>
      <trkpt lat="39.9385607" lon="3.1441952">
        <ele>62.2</ele>
        <time>2015-06-21T12:33:13Z</time>
      </trkpt>
      <trkpt lat="39.9383993" lon="3.143988">
        <ele>61.6</ele>
        <time>2015-06-21T12:33:16Z</time>
      </trkpt>
      <trkpt lat="39.9382602" lon="3.1438334">
        <ele>61.6</ele>
        <time>2015-06-21T12:33:18Z</time>
      </trkpt>
      <trkpt lat="39.9378657" lon="3.1434432">
        <ele>60.2</ele>
        <time>2015-06-21T12:33:23Z</time>
      </trkpt>
      <trkpt lat="39.9376964" lon="3.1432758">
        <ele>58.4</ele>
        <time>2015-06-21T12:33:25Z</time>
      </trkpt>
      <trkpt lat="39.9375168" lon="3.1430994">
        <ele>56.6</ele>
        <time>2015-06-21T12:33:27Z</time>
      </trkpt>
      <trkpt lat="39.937341" lon="3.142919">
        <ele>55.4</ele>
        <time>2015-06-21T12:33:29Z</time>
      </trkpt>
      <trkpt lat="39.9371693" lon="3.1427435">
        <ele>54.8</ele>
        <time>2015-06-21T12:33:31Z</time>
      </trkpt>
      <trkpt lat="39.9369913" lon="3.1425633">
        <ele>54.2</ele>
        <time>2015-06-21T12:33:33Z</time>
      </trkpt>
      <trkpt lat="39.9368178" lon="3.142388">
        <ele>53</ele>
        <time>2015-06-21T12:33:35Z</time>
      </trkpt>
      <trkpt lat="39.9366472" lon="3.1422182">
        <ele>51.4</ele>
        <time>2015-06-21T12:33:37Z</time>
      </trkpt>
      <trkpt lat="39.9365628" lon="3.1421331">
        <ele>50.6</ele>
        <time>2015-06-21T12:33:38Z</time>
      </trkpt>
      <trkpt lat="39.9364805" lon="3.1420488">
        <ele>50</ele>
        <time>2015-06-21T12:33:39Z</time>
      </trkpt>
      <trkpt lat="39.9360945" lon="3.1416607">
        <ele>49</ele>
        <time>2015-06-21T12:33:44Z</time>
      </trkpt>
      <trkpt lat="39.9360166" lon="3.1415854">
        <ele>48.6</ele>
        <time>2015-06-21T12:33:45Z</time>
      </trkpt>
      <trkpt lat="39.9354834" lon="3.1410482">
        <ele>49</ele>
        <time>2015-06-21T12:33:52Z</time>
      </trkpt>
      <trkpt lat="39.9352491" lon="3.1407876">
        <ele>47.4</ele>
        <time>2015-06-21T12:33:55Z</time>
      </trkpt>
      <trkpt lat="39.9351957" lon="3.1406836">
        <ele>47</ele>
        <time>2015-06-21T12:33:56Z</time>
      </trkpt>
      <trkpt lat="39.9351" lon="3.1404441">
        <ele>46.2</ele>
        <time>2015-06-21T12:33:58Z</time>
      </trkpt>
      <trkpt lat="39.9349715" lon="3.1400825">
        <ele>45</ele>
        <time>2015-06-21T12:34:01Z</time>
      </trkpt>
      <trkpt lat="39.9348381" lon="3.1397405">
        <ele>45</ele>
        <time>2015-06-21T12:34:04Z</time>
      </trkpt>
      <trkpt lat="39.9347356" lon="3.1395377">
        <ele>44.4</ele>
        <time>2015-06-21T12:34:06Z</time>
      </trkpt>
      <trkpt lat="39.9346128" lon="3.1393393">
        <ele>43.8</ele>
        <time>2015-06-21T12:34:08Z</time>
      </trkpt>
      <trkpt lat="39.9343972" lon="3.1389806">
        <ele>42.4</ele>
        <time>2015-06-21T12:34:12Z</time>
      </trkpt>
      <trkpt lat="39.9343411" lon="3.1388834">
        <ele>40</ele>
        <time>2015-06-21T12:34:13Z</time>
      </trkpt>
      <trkpt lat="39.9342821" lon="3.1387841">
        <ele>42.4</ele>
        <time>2015-06-21T12:34:14Z</time>
      </trkpt>
      <trkpt lat="39.9341659" lon="3.138587">
        <ele>41</ele>
        <time>2015-06-21T12:34:16Z</time>
      </trkpt>
      <trkpt lat="39.9340948" lon="3.1384678">
        <ele>41.2</ele>
        <time>2015-06-21T12:34:17Z</time>
      </trkpt>
      <trkpt lat="39.934024" lon="3.1383604">
        <ele>43.6</ele>
        <time>2015-06-21T12:34:18Z</time>
      </trkpt>
      <trkpt lat="39.9339576" lon="3.1382545">
        <ele>38</ele>
        <time>2015-06-21T12:34:19Z</time>
      </trkpt>
      <trkpt lat="39.9338376" lon="3.1380572">
        <ele>36.8</ele>
        <time>2015-06-21T12:34:21Z</time>
      </trkpt>
      <trkpt lat="39.9337756" lon="3.1379574">
        <ele>35.8</ele>
        <time>2015-06-21T12:34:22Z</time>
      </trkpt>
      <trkpt lat="39.9337145" lon="3.1378577">
        <ele>34.2</ele>
        <time>2015-06-21T12:34:23Z</time>
      </trkpt>
      <trkpt lat="39.933658" lon="3.1377626">
        <ele>35.6</ele>
        <time>2015-06-21T12:34:24Z</time>
      </trkpt>
      <trkpt lat="39.9335549" lon="3.1375796">
        <ele>33.2</ele>
        <time>2015-06-21T12:34:26Z</time>
      </trkpt>
      <trkpt lat="39.9335039" lon="3.1374631">
        <ele>34.4</ele>
        <time>2015-06-21T12:34:27Z</time>
      </trkpt>
      <trkpt lat="39.9334741" lon="3.1373542">
        <ele>34</ele>
        <time>2015-06-21T12:34:28Z</time>
      </trkpt>
      <trkpt lat="39.9334583" lon="3.1372171">
        <ele>33</ele>
        <time>2015-06-21T12:34:29Z</time>
      </trkpt>
      <trkpt lat="39.9334441" lon="3.1369648">
        <ele>31.8</ele>
        <time>2015-06-21T12:34:31Z</time>
      </trkpt>
      <trkpt lat="39.9334363" lon="3.1367007">
        <ele>30.6</ele>
        <time>2015-06-21T12:34:33Z</time>
      </trkpt>
      <trkpt lat="39.9334255" lon="3.1361959">
        <ele>29.2</ele>
        <time>2015-06-21T12:34:37Z</time>
      </trkpt>
      <trkpt lat="39.9334048" lon="3.1360726">
        <ele>29</ele>
        <time>2015-06-21T12:34:38Z</time>
      </trkpt>
      <trkpt lat="39.9333063" lon="3.1358572">
        <ele>28.4</ele>
        <time>2015-06-21T12:34:40Z</time>
      </trkpt>
      <trkpt lat="39.9331558" lon="3.1356832">
        <ele>28</ele>
        <time>2015-06-21T12:34:42Z</time>
      </trkpt>
      <trkpt lat="39.9330645" lon="3.1356201">
        <ele>27.8</ele>
        <time>2015-06-21T12:34:43Z</time>
      </trkpt>
      <trkpt lat="39.9329703" lon="3.1355637">
        <ele>27.4</ele>
        <time>2015-06-21T12:34:44Z</time>
      </trkpt>
      <trkpt lat="39.9328728" lon="3.1355085">
        <ele>27</ele>
        <time>2015-06-21T12:34:45Z</time>
      </trkpt>
      <trkpt lat="39.9325761" lon="3.1353557">
        <ele>25.6</ele>
        <time>2015-06-21T12:34:48Z</time>
      </trkpt>
      <trkpt lat="39.9324733" lon="3.1353044">
        <ele>24.6</ele>
        <time>2015-06-21T12:34:49Z</time>
      </trkpt>
      <trkpt lat="39.9322656" lon="3.1351992">
        <ele>23.2</ele>
        <time>2015-06-21T12:34:51Z</time>
      </trkpt>
      <trkpt lat="39.9319369" lon="3.1350327">
        <ele>21.8</ele>
        <time>2015-06-21T12:34:54Z</time>
      </trkpt>
      <trkpt lat="39.9317253" lon="3.1349338">
        <ele>20.6</ele>
        <time>2015-06-21T12:34:56Z</time>
      </trkpt>
      <trkpt lat="39.9316093" lon="3.13488">
        <ele>20</ele>
        <time>2015-06-21T12:34:57Z</time>
      </trkpt>
      <trkpt lat="39.9315082" lon="3.1348231">
        <ele>19.4</ele>
        <time>2015-06-21T12:34:58Z</time>
      </trkpt>
      <trkpt lat="39.9311912" lon="3.1346361">
        <ele>18.4</ele>
        <time>2015-06-21T12:35:01Z</time>
      </trkpt>
      <trkpt lat="39.9310824" lon="3.1345658">
        <ele>18</ele>
        <time>2015-06-21T12:35:02Z</time>
      </trkpt>
      <trkpt lat="39.9307814" lon="3.1343639">
        <ele>17.2</ele>
        <time>2015-06-21T12:35:05Z</time>
      </trkpt>
      <trkpt lat="39.9304036" lon="3.1341323">
        <ele>16.2</ele>
        <time>2015-06-21T12:35:09Z</time>
      </trkpt>
      <trkpt lat="39.9303062" lon="3.1341014">
        <ele>15.8</ele>
        <time>2015-06-21T12:35:10Z</time>
      </trkpt>
      <trkpt lat="39.9301032" lon="3.1340259">
        <ele>15</ele>
        <time>2015-06-21T12:35:12Z</time>
      </trkpt>
      <trkpt lat="39.9300086" lon="3.1339979">
        <ele>14.8</ele>
        <time>2015-06-21T12:35:13Z</time>
      </trkpt>
      <trkpt lat="39.9297097" lon="3.1339229">
        <ele>13.6</ele>
        <time>2015-06-21T12:35:16Z</time>
      </trkpt>
      <trkpt lat="39.929518" lon="3.133881">
        <ele>12.4</ele>
        <time>2015-06-21T12:35:18Z</time>
      </trkpt>
      <trkpt lat="39.9294258" lon="3.1338667">
        <ele>12.2</ele>
        <time>2015-06-21T12:35:19Z</time>
      </trkpt>
      <trkpt lat="39.9293387" lon="3.1338348">
        <ele>12</ele>
        <time>2015-06-21T12:35:20Z</time>
      </trkpt>
      <trkpt lat="39.9292109" lon="3.1337186">
        <ele>11.8</ele>
        <time>2015-06-21T12:35:22Z</time>
      </trkpt>
      <trkpt lat="39.9291641" lon="3.1335314">
        <ele>11.8</ele>
        <time>2015-06-21T12:35:24Z</time>
      </trkpt>
      <trkpt lat="39.9291786" lon="3.133442">
        <ele>11.4</ele>
        <time>2015-06-21T12:35:25Z</time>
      </trkpt>
      <trkpt lat="39.9292141" lon="3.1332962">
        <ele>11.2</ele>
        <time>2015-06-21T12:35:27Z</time>
      </trkpt>
      <trkpt lat="39.9292489" lon="3.1331631">
        <ele>10.4</ele>
        <time>2015-06-21T12:35:29Z</time>
      </trkpt>
      <trkpt lat="39.9292987" lon="3.1329952">
        <ele>10.4</ele>
        <time>2015-06-21T12:35:32Z</time>
      </trkpt>
      <trkpt lat="39.9293608" lon="3.1327667">
        <ele>10.8</ele>
        <time>2015-06-21T12:35:37Z</time>
      </trkpt>
      <trkpt lat="39.92941" lon="3.1325229">
        <ele>10.2</ele>
        <time>2015-06-21T12:35:43Z</time>
      </trkpt>
      <trkpt lat="39.9294723" lon="3.1322673">
        <ele>11</ele>
        <time>2015-06-21T12:35:50Z</time>
      </trkpt>
      <trkpt lat="39.929518" lon="3.1320564">
        <ele>11.4</ele>
        <time>2015-06-21T12:35:56Z</time>
      </trkpt>
      <trkpt lat="39.9295346" lon="3.1319832">
        <ele>11.6</ele>
        <time>2015-06-21T12:35:58Z</time>
      </trkpt>
      <trkpt lat="39.9295662" lon="3.1318337">
        <ele>12.4</ele>
        <time>2015-06-21T12:36:02Z</time>
      </trkpt>
      <trkpt lat="39.9295973" lon="3.1316943">
        <ele>13.6</ele>
        <time>2015-06-21T12:36:06Z</time>
      </trkpt>
      <trkpt lat="39.9296233" lon="3.1315824">
        <ele>14.8</ele>
        <time>2015-06-21T12:36:09Z</time>
      </trkpt>
      <trkpt lat="39.9296515" lon="3.1314477">
        <ele>15.8</ele>
        <time>2015-06-21T12:36:13Z</time>
      </trkpt>
      <trkpt lat="39.9296616" lon="3.1314177">
        <ele>16</ele>
        <time>2015-06-21T12:36:14Z</time>
      </trkpt>
      <trkpt lat="39.9296925" lon="3.1313257">
        <ele>17</ele>
        <time>2015-06-21T12:36:17Z</time>
      </trkpt>
      <trkpt lat="39.9297204" lon="3.1312279">
        <ele>18</ele>
        <time>2015-06-21T12:36:20Z</time>
      </trkpt>
      <trkpt lat="39.9297542" lon="3.1310487">
        <ele>19.2</ele>
        <time>2015-06-21T12:36:25Z</time>
      </trkpt>
      <trkpt lat="39.9297745" lon="3.1309526">
        <ele>20.2</ele>
        <time>2015-06-21T12:36:28Z</time>
      </trkpt>
      <trkpt lat="39.9298068" lon="3.1307849">
        <ele>21.6</ele>
        <time>2015-06-21T12:36:33Z</time>
      </trkpt>
      <trkpt lat="39.9298304" lon="3.130695">
        <ele>22.6</ele>
        <time>2015-06-21T12:36:36Z</time>
      </trkpt>
      <trkpt lat="39.9298413" lon="3.1306641">
        <ele>23.2</ele>
        <time>2015-06-21T12:36:37Z</time>
      </trkpt>
      <trkpt lat="39.929856" lon="3.1306033">
        <ele>24</ele>
        <time>2015-06-21T12:36:39Z</time>
      </trkpt>
      <trkpt lat="39.929884" lon="3.1305148">
        <ele>25.4</ele>
        <time>2015-06-21T12:36:42Z</time>
      </trkpt>
      <trkpt lat="39.9298977" lon="3.1304875">
        <ele>25.6</ele>
        <time>2015-06-21T12:36:43Z</time>
      </trkpt>
      <trkpt lat="39.9299604" lon="3.1303976">
        <ele>30.8</ele>
        <time>2015-06-21T12:36:47Z</time>
      </trkpt>
      <trkpt lat="39.9299979" lon="3.1303535">
        <ele>32</ele>
        <time>2015-06-21T12:36:49Z</time>
      </trkpt>
      <trkpt lat="39.9300568" lon="3.1303008">
        <ele>28.6</ele>
        <time>2015-06-21T12:36:52Z</time>
      </trkpt>
      <trkpt lat="39.9301179" lon="3.1302401">
        <ele>29.6</ele>
        <time>2015-06-21T12:36:55Z</time>
      </trkpt>
      <trkpt lat="39.9301393" lon="3.130223">
        <ele>29.8</ele>
        <time>2015-06-21T12:36:56Z</time>
      </trkpt>
      <trkpt lat="39.9302427" lon="3.1301465">
        <ele>30.8</ele>
        <time>2015-06-21T12:37:00Z</time>
      </trkpt>
      <trkpt lat="39.9302878" lon="3.1301118">
        <ele>31</ele>
        <time>2015-06-21T12:37:02Z</time>
      </trkpt>
      <trkpt lat="39.9303712" lon="3.1300364">
        <ele>31.4</ele>
        <time>2015-06-21T12:37:06Z</time>
      </trkpt>
      <trkpt lat="39.9304486" lon="3.129979">
        <ele>31.8</ele>
        <time>2015-06-21T12:37:09Z</time>
      </trkpt>
      <trkpt lat="39.9305329" lon="3.1299054">
        <ele>32.2</ele>
        <time>2015-06-21T12:37:13Z</time>
      </trkpt>
      <trkpt lat="39.9306408" lon="3.1298394">
        <ele>32.8</ele>
        <time>2015-06-21T12:37:17Z</time>
      </trkpt>
      <trkpt lat="39.9306865" lon="3.1298101">
        <ele>33</ele>
        <time>2015-06-21T12:37:19Z</time>
      </trkpt>
      <trkpt lat="39.9308099" lon="3.1297249">
        <ele>34</ele>
        <time>2015-06-21T12:37:25Z</time>
      </trkpt>
      <trkpt lat="39.9309315" lon="3.1296369">
        <ele>34.8</ele>
        <time>2015-06-21T12:37:30Z</time>
      </trkpt>
      <trkpt lat="39.9309773" lon="3.1295984">
        <ele>35</ele>
        <time>2015-06-21T12:37:32Z</time>
      </trkpt>
      <trkpt lat="39.931085" lon="3.1295133">
        <ele>35.8</ele>
        <time>2015-06-21T12:37:37Z</time>
      </trkpt>
      <trkpt lat="39.9311606" lon="3.1294635">
        <ele>36.2</ele>
        <time>2015-06-21T12:37:40Z</time>
      </trkpt>
      <trkpt lat="39.931244" lon="3.1294151">
        <ele>37</ele>
        <time>2015-06-21T12:37:44Z</time>
      </trkpt>
      <trkpt lat="39.9313098" lon="3.1293989">
        <ele>37.2</ele>
        <time>2015-06-21T12:37:47Z</time>
      </trkpt>
      <trkpt lat="39.9313636" lon="3.1293997">
        <ele>37.2</ele>
        <time>2015-06-21T12:37:49Z</time>
      </trkpt>
      <trkpt lat="39.9314585" lon="3.1294181">
        <ele>38.4</ele>
        <time>2015-06-21T12:37:53Z</time>
      </trkpt>
      <trkpt lat="39.9315197" lon="3.1294401">
        <ele>39.6</ele>
        <time>2015-06-21T12:37:56Z</time>
      </trkpt>
      <trkpt lat="39.9316038" lon="3.129475">
        <ele>40.8</ele>
        <time>2015-06-21T12:38:00Z</time>
      </trkpt>
      <trkpt lat="39.9316153" lon="3.1294771">
        <ele>40.8</ele>
        <time>2015-06-21T12:38:01Z</time>
      </trkpt>
      <trkpt lat="39.9316781" lon="3.1295071">
        <ele>41.8</ele>
        <time>2015-06-21T12:38:04Z</time>
      </trkpt>
      <trkpt lat="39.9317236" lon="3.1295322">
        <ele>42.4</ele>
        <time>2015-06-21T12:38:06Z</time>
      </trkpt>
      <trkpt lat="39.9317939" lon="3.1295728">
        <ele>43</ele>
        <time>2015-06-21T12:38:09Z</time>
      </trkpt>
      <trkpt lat="39.9318763" lon="3.1296294">
        <ele>43.8</ele>
        <time>2015-06-21T12:38:13Z</time>
      </trkpt>
      <trkpt lat="39.9318947" lon="3.12964">
        <ele>44.4</ele>
        <time>2015-06-21T12:38:14Z</time>
      </trkpt>
      <trkpt lat="39.9319713" lon="3.1296959">
        <ele>45.2</ele>
        <time>2015-06-21T12:38:18Z</time>
      </trkpt>
      <trkpt lat="39.9320104" lon="3.1297301">
        <ele>45.4</ele>
        <time>2015-06-21T12:38:20Z</time>
      </trkpt>
      <trkpt lat="39.9321122" lon="3.1298233">
        <ele>46.6</ele>
        <time>2015-06-21T12:38:25Z</time>
      </trkpt>
      <trkpt lat="39.9321292" lon="3.1298411">
        <ele>46.8</ele>
        <time>2015-06-21T12:38:26Z</time>
      </trkpt>
      <trkpt lat="39.9322313" lon="3.1299394">
        <ele>47.2</ele>
        <time>2015-06-21T12:38:32Z</time>
      </trkpt>
      <trkpt lat="39.9323731" lon="3.1300824">
        <ele>47.4</ele>
        <time>2015-06-21T12:38:40Z</time>
      </trkpt>
      <trkpt lat="39.9324401" lon="3.1301569">
        <ele>47.6</ele>
        <time>2015-06-21T12:38:44Z</time>
      </trkpt>
      <trkpt lat="39.9325015" lon="3.1302359">
        <ele>48.4</ele>
        <time>2015-06-21T12:38:48Z</time>
      </trkpt>
      <trkpt lat="39.9325318" lon="3.130276">
        <ele>49</ele>
        <time>2015-06-21T12:38:50Z</time>
      </trkpt>
      <trkpt lat="39.9326239" lon="3.130402">
        <ele>49.8</ele>
        <time>2015-06-21T12:38:56Z</time>
      </trkpt>
      <trkpt lat="39.9326399" lon="3.1304242">
        <ele>50</ele>
        <time>2015-06-21T12:38:57Z</time>
      </trkpt>
      <trkpt lat="39.9327107" lon="3.1305212">
        <ele>51</ele>
        <time>2015-06-21T12:39:02Z</time>
      </trkpt>
      <trkpt lat="39.9327211" lon="3.1305379">
        <ele>51.2</ele>
        <time>2015-06-21T12:39:03Z</time>
      </trkpt>
      <trkpt lat="39.9327791" lon="3.1306452">
        <ele>52</ele>
        <time>2015-06-21T12:39:08Z</time>
      </trkpt>
      <trkpt lat="39.9328072" lon="3.1306861">
        <ele>52.2</ele>
        <time>2015-06-21T12:39:10Z</time>
      </trkpt>
      <trkpt lat="39.9328416" lon="3.1307397">
        <ele>52.6</ele>
        <time>2015-06-21T12:39:13Z</time>
      </trkpt>
      <trkpt lat="39.9328777" lon="3.1307888">
        <ele>53.4</ele>
        <time>2015-06-21T12:39:16Z</time>
      </trkpt>
      <trkpt lat="39.9329266" lon="3.130829">
        <ele>53.8</ele>
        <time>2015-06-21T12:39:19Z</time>
      </trkpt>
      <trkpt lat="39.9329926" lon="3.1308312">
        <ele>54.4</ele>
        <time>2015-06-21T12:39:23Z</time>
      </trkpt>
      <trkpt lat="39.9330139" lon="3.1308213">
        <ele>54.6</ele>
        <time>2015-06-21T12:39:24Z</time>
      </trkpt>
      <trkpt lat="39.9330756" lon="3.1307221">
        <ele>55.2</ele>
        <time>2015-06-21T12:39:28Z</time>
      </trkpt>
      <trkpt lat="39.9330668" lon="3.1306313">
        <ele>55.4</ele>
        <time>2015-06-21T12:39:31Z</time>
      </trkpt>
      <trkpt lat="39.9330551" lon="3.1306092">
        <ele>55.6</ele>
        <time>2015-06-21T12:39:32Z</time>
      </trkpt>
      <trkpt lat="39.9330237" lon="3.1305703">
        <ele>55.6</ele>
        <time>2015-06-21T12:39:34Z</time>
      </trkpt>
      <trkpt lat="39.9329593" lon="3.1305015">
        <ele>53.2</ele>
        <time>2015-06-21T12:39:38Z</time>
      </trkpt>
      <trkpt lat="39.9328894" lon="3.130397">
        <ele>56</ele>
        <time>2015-06-21T12:39:43Z</time>
      </trkpt>
      <trkpt lat="39.9328535" lon="3.1303253">
        <ele>56.8</ele>
        <time>2015-06-21T12:39:46Z</time>
      </trkpt>
      <trkpt lat="39.9328424" lon="3.1302936">
        <ele>57</ele>
        <time>2015-06-21T12:39:47Z</time>
      </trkpt>
      <trkpt lat="39.9328008" lon="3.130189">
        <ele>58</ele>
        <time>2015-06-21T12:39:51Z</time>
      </trkpt>
      <trkpt lat="39.9327629" lon="3.1300922">
        <ele>58.8</ele>
        <time>2015-06-21T12:39:55Z</time>
      </trkpt>
      <trkpt lat="39.9327434" lon="3.1300428">
        <ele>59.2</ele>
        <time>2015-06-21T12:39:57Z</time>
      </trkpt>
      <trkpt lat="39.9326855" lon="3.1298914">
        <ele>60.4</ele>
        <time>2015-06-21T12:40:03Z</time>
      </trkpt>
      <trkpt lat="39.9326379" lon="3.1297489">
        <ele>61.4</ele>
        <time>2015-06-21T12:40:09Z</time>
      </trkpt>
      <trkpt lat="39.9326325" lon="3.129728">
        <ele>61.8</ele>
        <time>2015-06-21T12:40:11Z</time>
      </trkpt>
      <trkpt lat="39.9326286" lon="3.1297233">
        <ele>62.2</ele>
        <time>2015-06-21T12:40:20Z</time>
      </trkpt>
      <trkpt lat="39.9326302" lon="3.1297318">
        <ele>62</ele>
        <time>2015-06-21T12:40:35Z</time>
      </trkpt>
      <trkpt lat="39.9325931" lon="3.1296634">
        <ele>62.2</ele>
        <time>2015-06-21T12:40:43Z</time>
      </trkpt>
      <trkpt lat="39.9325313" lon="3.1295279">
        <ele>62.6</ele>
        <time>2015-06-21T12:40:48Z</time>
      </trkpt>
      <trkpt lat="39.9324798" lon="3.1294276">
        <ele>63.2</ele>
        <time>2015-06-21T12:40:52Z</time>
      </trkpt>
      <trkpt lat="39.9324383" lon="3.1293561">
        <ele>63.6</ele>
        <time>2015-06-21T12:40:55Z</time>
      </trkpt>
      <trkpt lat="39.932356" lon="3.12921">
        <ele>64.6</ele>
        <time>2015-06-21T12:41:01Z</time>
      </trkpt>
      <trkpt lat="39.9323417" lon="3.1291846">
        <ele>64.8</ele>
        <time>2015-06-21T12:41:02Z</time>
      </trkpt>
      <trkpt lat="39.9322854" lon="3.1290696">
        <ele>65.8</ele>
        <time>2015-06-21T12:41:07Z</time>
      </trkpt>
      <trkpt lat="39.9322432" lon="3.1289992">
        <ele>66.4</ele>
        <time>2015-06-21T12:41:10Z</time>
      </trkpt>
      <trkpt lat="39.9322106" lon="3.1289181">
        <ele>66.8</ele>
        <time>2015-06-21T12:41:13Z</time>
      </trkpt>
      <trkpt lat="39.9322065" lon="3.1288352">
        <ele>61.6</ele>
        <time>2015-06-21T12:41:16Z</time>
      </trkpt>
      <trkpt lat="39.9322073" lon="3.1288057">
        <ele>61.8</ele>
        <time>2015-06-21T12:41:17Z</time>
      </trkpt>
      <trkpt lat="39.9322392" lon="3.1285931">
        <ele>62</ele>
        <time>2015-06-21T12:41:25Z</time>
      </trkpt>
      <trkpt lat="39.9322823" lon="3.1283435">
        <ele>61.8</ele>
        <time>2015-06-21T12:41:34Z</time>
      </trkpt>
      <trkpt lat="39.9323465" lon="3.1280207">
        <ele>62</ele>
        <time>2015-06-21T12:41:45Z</time>
      </trkpt>
      <trkpt lat="39.9324329" lon="3.1278075">
        <ele>61.8</ele>
        <time>2015-06-21T12:41:53Z</time>
      </trkpt>
      <trkpt lat="39.9325233" lon="3.1276615">
        <ele>62.8</ele>
        <time>2015-06-21T12:41:59Z</time>
      </trkpt>
      <trkpt lat="39.9325644" lon="3.1275892">
        <ele>63.2</ele>
        <time>2015-06-21T12:42:02Z</time>
      </trkpt>
      <trkpt lat="39.932629" lon="3.1274958">
        <ele>63.8</ele>
        <time>2015-06-21T12:42:06Z</time>
      </trkpt>
      <trkpt lat="39.9327123" lon="3.1273809">
        <ele>64.8</ele>
        <time>2015-06-21T12:42:11Z</time>
      </trkpt>
      <trkpt lat="39.9327313" lon="3.1273555">
        <ele>65.2</ele>
        <time>2015-06-21T12:42:12Z</time>
      </trkpt>
      <trkpt lat="39.9327996" lon="3.1272758">
        <ele>66</ele>
        <time>2015-06-21T12:42:16Z</time>
      </trkpt>
      <trkpt lat="39.9328514" lon="3.1272177">
        <ele>66.8</ele>
        <time>2015-06-21T12:42:19Z</time>
      </trkpt>
      <trkpt lat="39.9329003" lon="3.1271687">
        <ele>67.2</ele>
        <time>2015-06-21T12:42:22Z</time>
      </trkpt>
      <trkpt lat="39.932966" lon="3.1270919">
        <ele>67.8</ele>
        <time>2015-06-21T12:42:26Z</time>
      </trkpt>
      <trkpt lat="39.9330017" lon="3.1270464">
        <ele>68.6</ele>
        <time>2015-06-21T12:42:28Z</time>
      </trkpt>
      <trkpt lat="39.933064" lon="3.1269679">
        <ele>69.6</ele>
        <time>2015-06-21T12:42:32Z</time>
      </trkpt>
      <trkpt lat="39.9330939" lon="3.1269255">
        <ele>70.2</ele>
        <time>2015-06-21T12:42:34Z</time>
      </trkpt>
      <trkpt lat="39.9331669" lon="3.1268062">
        <ele>70.6</ele>
        <time>2015-06-21T12:42:39Z</time>
      </trkpt>
      <trkpt lat="39.9331925" lon="3.1267583">
        <ele>71</ele>
        <time>2015-06-21T12:42:41Z</time>
      </trkpt>
      <trkpt lat="39.9332735" lon="3.1266033">
        <ele>71.8</ele>
        <time>2015-06-21T12:42:47Z</time>
      </trkpt>
      <trkpt lat="39.9332856" lon="3.126579">
        <ele>72</ele>
        <time>2015-06-21T12:42:48Z</time>
      </trkpt>
      <trkpt lat="39.9333374" lon="3.1264869">
        <ele>73</ele>
        <time>2015-06-21T12:42:52Z</time>
      </trkpt>
      <trkpt lat="39.9333746" lon="3.1264226">
        <ele>73.6</ele>
        <time>2015-06-21T12:42:55Z</time>
      </trkpt>
      <trkpt lat="39.9334013" lon="3.1263775">
        <ele>74</ele>
        <time>2015-06-21T12:42:57Z</time>
      </trkpt>
      <trkpt lat="39.9334544" lon="3.126287">
        <ele>75.4</ele>
        <time>2015-06-21T12:43:01Z</time>
      </trkpt>
      <trkpt lat="39.9334829" lon="3.126243">
        <ele>76</ele>
        <time>2015-06-21T12:43:03Z</time>
      </trkpt>
      <trkpt lat="39.9335047" lon="3.1262009">
        <ele>76.4</ele>
        <time>2015-06-21T12:43:05Z</time>
      </trkpt>
      <trkpt lat="39.9335434" lon="3.1261296">
        <ele>77.6</ele>
        <time>2015-06-21T12:43:08Z</time>
      </trkpt>
      <trkpt lat="39.9335719" lon="3.1260636">
        <ele>78.4</ele>
        <time>2015-06-21T12:43:11Z</time>
      </trkpt>
      <trkpt lat="39.9335839" lon="3.1260384">
        <ele>78.8</ele>
        <time>2015-06-21T12:43:12Z</time>
      </trkpt>
      <trkpt lat="39.9336333" lon="3.1259269">
        <ele>79.8</ele>
        <time>2015-06-21T12:43:17Z</time>
      </trkpt>
      <trkpt lat="39.9336697" lon="3.1258089">
        <ele>80.6</ele>
        <time>2015-06-21T12:43:22Z</time>
      </trkpt>
      <trkpt lat="39.9336813" lon="3.1257577">
        <ele>81</ele>
        <time>2015-06-21T12:43:24Z</time>
      </trkpt>
      <trkpt lat="39.9336882" lon="3.1256205">
        <ele>82.2</ele>
        <time>2015-06-21T12:43:29Z</time>
      </trkpt>
      <trkpt lat="39.9336219" lon="3.1254398">
        <ele>82.8</ele>
        <time>2015-06-21T12:43:35Z</time>
      </trkpt>
      <trkpt lat="39.9335368" lon="3.1253593">
        <ele>83.4</ele>
        <time>2015-06-21T12:43:39Z</time>
      </trkpt>
      <trkpt lat="39.9334938" lon="3.1253334">
        <ele>84</ele>
        <time>2015-06-21T12:43:41Z</time>
      </trkpt>
      <trkpt lat="39.9334452" lon="3.1253161">
        <ele>84.4</ele>
        <time>2015-06-21T12:43:43Z</time>
      </trkpt>
      <trkpt lat="39.9334226" lon="3.1253118">
        <ele>77.8</ele>
        <time>2015-06-21T12:43:44Z</time>
      </trkpt>
      <trkpt lat="39.9333366" lon="3.1252984">
        <ele>79</ele>
        <time>2015-06-21T12:43:48Z</time>
      </trkpt>
      <trkpt lat="39.9333148" lon="3.1252957">
        <ele>86.2</ele>
        <time>2015-06-21T12:43:49Z</time>
      </trkpt>
      <trkpt lat="39.933233" lon="3.125287">
        <ele>87.2</ele>
        <time>2015-06-21T12:43:53Z</time>
      </trkpt>
      <trkpt lat="39.9331498" lon="3.1252822">
        <ele>88.6</ele>
        <time>2015-06-21T12:43:57Z</time>
      </trkpt>
      <trkpt lat="39.933111" lon="3.1252728">
        <ele>89</ele>
        <time>2015-06-21T12:43:59Z</time>
      </trkpt>
      <trkpt lat="39.9330602" lon="3.1252691">
        <ele>89.6</ele>
        <time>2015-06-21T12:44:01Z</time>
      </trkpt>
      <trkpt lat="39.9329298" lon="3.1252484">
        <ele>90.6</ele>
        <time>2015-06-21T12:44:07Z</time>
      </trkpt>
      <trkpt lat="39.9328216" lon="3.1252451">
        <ele>91.8</ele>
        <time>2015-06-21T12:44:12Z</time>
      </trkpt>
      <trkpt lat="39.9327245" lon="3.1252381">
        <ele>92.8</ele>
        <time>2015-06-21T12:44:17Z</time>
      </trkpt>
      <trkpt lat="39.9327047" lon="3.125235">
        <ele>92.8</ele>
        <time>2015-06-21T12:44:18Z</time>
      </trkpt>
      <trkpt lat="39.9325654" lon="3.1252058">
        <ele>93.6</ele>
        <time>2015-06-21T12:44:25Z</time>
      </trkpt>
      <trkpt lat="39.9325473" lon="3.1252013">
        <ele>94</ele>
        <time>2015-06-21T12:44:26Z</time>
      </trkpt>
      <trkpt lat="39.9323802" lon="3.1251323">
        <ele>94.8</ele>
        <time>2015-06-21T12:44:34Z</time>
      </trkpt>
      <trkpt lat="39.9323238" lon="3.1250955">
        <ele>95</ele>
        <time>2015-06-21T12:44:37Z</time>
      </trkpt>
      <trkpt lat="39.9322445" lon="3.1249991">
        <ele>95.2</ele>
        <time>2015-06-21T12:44:42Z</time>
      </trkpt>
      <trkpt lat="39.9321532" lon="3.1248008">
        <ele>96.4</ele>
        <time>2015-06-21T12:44:50Z</time>
      </trkpt>
      <trkpt lat="39.932126" lon="3.1247187">
        <ele>97.4</ele>
        <time>2015-06-21T12:44:53Z</time>
      </trkpt>
      <trkpt lat="39.9321027" lon="3.1246139">
        <ele>98.4</ele>
        <time>2015-06-21T12:44:57Z</time>
      </trkpt>
      <trkpt lat="39.9320977" lon="3.1245895">
        <ele>99.2</ele>
        <time>2015-06-21T12:44:58Z</time>
      </trkpt>
      <trkpt lat="39.9320848" lon="3.1245269">
        <ele>92.8</ele>
        <time>2015-06-21T12:45:01Z</time>
      </trkpt>
      <trkpt lat="39.9320701" lon="3.1244572">
        <ele>83.6</ele>
        <time>2015-06-21T12:45:04Z</time>
      </trkpt>
      <trkpt lat="39.9320635" lon="3.1244325">
        <ele>76.4</ele>
        <time>2015-06-21T12:45:05Z</time>
      </trkpt>
      <trkpt lat="39.9320566" lon="3.1244085">
        <ele>85.6</ele>
        <time>2015-06-21T12:45:06Z</time>
      </trkpt>
      <trkpt lat="39.93205" lon="3.1243831">
        <ele>81.8</ele>
        <time>2015-06-21T12:45:07Z</time>
      </trkpt>
      <trkpt lat="39.9320259" lon="3.1242502">
        <ele>82.8</ele>
        <time>2015-06-21T12:45:12Z</time>
      </trkpt>
      <trkpt lat="39.9320198" lon="3.1242217">
        <ele>83</ele>
        <time>2015-06-21T12:45:13Z</time>
      </trkpt>
      <trkpt lat="39.9319859" lon="3.1240486">
        <ele>84.2</ele>
        <time>2015-06-21T12:45:19Z</time>
      </trkpt>
      <trkpt lat="39.9319746" lon="3.1239937">
        <ele>85.2</ele>
        <time>2015-06-21T12:45:21Z</time>
      </trkpt>
      <trkpt lat="39.9319693" lon="3.1239641">
        <ele>85.6</ele>
        <time>2015-06-21T12:45:22Z</time>
      </trkpt>
      <trkpt lat="39.9319486" lon="3.1238241">
        <ele>86.6</ele>
        <time>2015-06-21T12:45:28Z</time>
      </trkpt>
      <trkpt lat="39.9319164" lon="3.1236948">
        <ele>87.8</ele>
        <time>2015-06-21T12:45:33Z</time>
      </trkpt>
      <trkpt lat="39.9319119" lon="3.1236715">
        <ele>88.2</ele>
        <time>2015-06-21T12:45:34Z</time>
      </trkpt>
      <trkpt lat="39.9318926" lon="3.1235958">
        <ele>89</ele>
        <time>2015-06-21T12:45:37Z</time>
      </trkpt>
      <trkpt lat="39.9318784" lon="3.1234953">
        <ele>90</ele>
        <time>2015-06-21T12:45:41Z</time>
      </trkpt>
      <trkpt lat="39.9318703" lon="3.1234423">
        <ele>90.4</ele>
        <time>2015-06-21T12:45:43Z</time>
      </trkpt>
      <trkpt lat="39.9318564" lon="3.1233933">
        <ele>91.2</ele>
        <time>2015-06-21T12:45:45Z</time>
      </trkpt>
      <trkpt lat="39.9318326" lon="3.1233214">
        <ele>92.4</ele>
        <time>2015-06-21T12:45:48Z</time>
      </trkpt>
      <trkpt lat="39.9318116" lon="3.1232814">
        <ele>92.8</ele>
        <time>2015-06-21T12:45:50Z</time>
      </trkpt>
      <trkpt lat="39.9317762" lon="3.1232135">
        <ele>93.4</ele>
        <time>2015-06-21T12:45:53Z</time>
      </trkpt>
      <trkpt lat="39.9317095" lon="3.1231471">
        <ele>94.6</ele>
        <time>2015-06-21T12:45:57Z</time>
      </trkpt>
      <trkpt lat="39.9316201" lon="3.1231234">
        <ele>95.4</ele>
        <time>2015-06-21T12:46:02Z</time>
      </trkpt>
      <trkpt lat="39.9315382" lon="3.1231281">
        <ele>95.6</ele>
        <time>2015-06-21T12:46:05Z</time>
      </trkpt>
      <trkpt lat="39.9315149" lon="3.1231278">
        <ele>95.6</ele>
        <time>2015-06-21T12:46:06Z</time>
      </trkpt>
      <trkpt lat="39.9314691" lon="3.1231361">
        <ele>95.8</ele>
        <time>2015-06-21T12:46:08Z</time>
      </trkpt>
      <trkpt lat="39.9313653" lon="3.1231536">
        <ele>96.8</ele>
        <time>2015-06-21T12:46:12Z</time>
      </trkpt>
      <trkpt lat="39.9313206" lon="3.1231624">
        <ele>97.2</ele>
        <time>2015-06-21T12:46:14Z</time>
      </trkpt>
      <trkpt lat="39.931209" lon="3.1231739">
        <ele>98</ele>
        <time>2015-06-21T12:46:19Z</time>
      </trkpt>
      <trkpt lat="39.9311855" lon="3.1231743">
        <ele>98.2</ele>
        <time>2015-06-21T12:46:20Z</time>
      </trkpt>
      <trkpt lat="39.9310852" lon="3.1231576">
        <ele>99.4</ele>
        <time>2015-06-21T12:46:24Z</time>
      </trkpt>
      <trkpt lat="39.9310486" lon="3.1231424">
        <ele>100</ele>
        <time>2015-06-21T12:46:26Z</time>
      </trkpt>
      <trkpt lat="39.9310093" lon="3.1231279">
        <ele>100.4</ele>
        <time>2015-06-21T12:46:28Z</time>
      </trkpt>
      <trkpt lat="39.9309566" lon="3.1231053">
        <ele>101.4</ele>
        <time>2015-06-21T12:46:31Z</time>
      </trkpt>
      <trkpt lat="39.9309358" lon="3.1230985">
        <ele>101.6</ele>
        <time>2015-06-21T12:46:32Z</time>
      </trkpt>
      <trkpt lat="39.9308741" lon="3.1230854">
        <ele>102.8</ele>
        <time>2015-06-21T12:46:35Z</time>
      </trkpt>
      <trkpt lat="39.9308143" lon="3.1230908">
        <ele>104</ele>
        <time>2015-06-21T12:46:38Z</time>
      </trkpt>
      <trkpt lat="39.9307271" lon="3.1231375">
        <ele>105</ele>
        <time>2015-06-21T12:46:42Z</time>
      </trkpt>
      <trkpt lat="39.9307088" lon="3.1231558">
        <ele>105.2</ele>
        <time>2015-06-21T12:46:43Z</time>
      </trkpt>
      <trkpt lat="39.9307005" lon="3.1231778">
        <ele>105.4</ele>
        <time>2015-06-21T12:46:44Z</time>
      </trkpt>
      <trkpt lat="39.930667" lon="3.1232374">
        <ele>106</ele>
        <time>2015-06-21T12:46:47Z</time>
      </trkpt>
      <trkpt lat="39.9306618" lon="3.1232576">
        <ele>106.2</ele>
        <time>2015-06-21T12:46:48Z</time>
      </trkpt>
      <trkpt lat="39.9306097" lon="3.1233531">
        <ele>106.8</ele>
        <time>2015-06-21T12:46:52Z</time>
      </trkpt>
      <trkpt lat="39.9305932" lon="3.1234083">
        <ele>107.2</ele>
        <time>2015-06-21T12:46:54Z</time>
      </trkpt>
      <trkpt lat="39.9305432" lon="3.1235317">
        <ele>108.4</ele>
        <time>2015-06-21T12:46:59Z</time>
      </trkpt>
      <trkpt lat="39.9305128" lon="3.1236438">
        <ele>109.4</ele>
        <time>2015-06-21T12:47:03Z</time>
      </trkpt>
      <trkpt lat="39.9304867" lon="3.12372">
        <ele>110.2</ele>
        <time>2015-06-21T12:47:06Z</time>
      </trkpt>
      <trkpt lat="39.9304769" lon="3.1237732">
        <ele>110.8</ele>
        <time>2015-06-21T12:47:08Z</time>
      </trkpt>
      <trkpt lat="39.9304548" lon="3.1238455">
        <ele>112</ele>
        <time>2015-06-21T12:47:11Z</time>
      </trkpt>
      <trkpt lat="39.9304454" lon="3.123871">
        <ele>112.4</ele>
        <time>2015-06-21T12:47:12Z</time>
      </trkpt>
      <trkpt lat="39.930424" lon="3.1239457">
        <ele>113.4</ele>
        <time>2015-06-21T12:47:15Z</time>
      </trkpt>
      <trkpt lat="39.9303973" lon="3.1240156">
        <ele>114.4</ele>
        <time>2015-06-21T12:47:18Z</time>
      </trkpt>
      <trkpt lat="39.9303925" lon="3.1240413">
        <ele>114.8</ele>
        <time>2015-06-21T12:47:19Z</time>
      </trkpt>
      <trkpt lat="39.9303766" lon="3.1240876">
        <ele>115.4</ele>
        <time>2015-06-21T12:47:21Z</time>
      </trkpt>
      <trkpt lat="39.9303488" lon="3.1241853">
        <ele>116.6</ele>
        <time>2015-06-21T12:47:25Z</time>
      </trkpt>
      <trkpt lat="39.9303405" lon="3.1242375">
        <ele>117.2</ele>
        <time>2015-06-21T12:47:27Z</time>
      </trkpt>
      <trkpt lat="39.9303386" lon="3.1242928">
        <ele>117.8</ele>
        <time>2015-06-21T12:47:29Z</time>
      </trkpt>
      <trkpt lat="39.9303327" lon="3.1243757">
        <ele>119</ele>
        <time>2015-06-21T12:47:32Z</time>
      </trkpt>
      <trkpt lat="39.9303438" lon="3.1244297">
        <ele>119.6</ele>
        <time>2015-06-21T12:47:34Z</time>
      </trkpt>
      <trkpt lat="39.930342" lon="3.124461">
        <ele>119.8</ele>
        <time>2015-06-21T12:47:35Z</time>
      </trkpt>
      <trkpt lat="39.930343" lon="3.1244887">
        <ele>120</ele>
        <time>2015-06-21T12:47:36Z</time>
      </trkpt>
      <trkpt lat="39.9303453" lon="3.1245468">
        <ele>120.4</ele>
        <time>2015-06-21T12:47:38Z</time>
      </trkpt>
      <trkpt lat="39.9303294" lon="3.1246255">
        <ele>121.2</ele>
        <time>2015-06-21T12:47:41Z</time>
      </trkpt>
      <trkpt lat="39.9303124" lon="3.1246422">
        <ele>127.2</ele>
        <time>2015-06-21T12:47:42Z</time>
      </trkpt>
      <trkpt lat="39.930292" lon="3.1246427">
        <ele>123.6</ele>
        <time>2015-06-21T12:47:43Z</time>
      </trkpt>
      <trkpt lat="39.9302506" lon="3.1245805">
        <ele>124.2</ele>
        <time>2015-06-21T12:47:46Z</time>
      </trkpt>
      <trkpt lat="39.9302433" lon="3.1245193">
        <ele>124.8</ele>
        <time>2015-06-21T12:47:48Z</time>
      </trkpt>
      <trkpt lat="39.9302456" lon="3.1244643">
        <ele>125.2</ele>
        <time>2015-06-21T12:47:50Z</time>
      </trkpt>
      <trkpt lat="39.9302454" lon="3.1244388">
        <ele>125.4</ele>
        <time>2015-06-21T12:47:51Z</time>
      </trkpt>
      <trkpt lat="39.9302496" lon="3.1243563">
        <ele>125.8</ele>
        <time>2015-06-21T12:47:54Z</time>
      </trkpt>
      <trkpt lat="39.9302767" lon="3.1241661">
        <ele>126.6</ele>
        <time>2015-06-21T12:48:01Z</time>
      </trkpt>
      <trkpt lat="39.9302826" lon="3.1241054">
        <ele>126.8</ele>
        <time>2015-06-21T12:48:03Z</time>
      </trkpt>
      <trkpt lat="39.9302986" lon="3.1240249">
        <ele>127.4</ele>
        <time>2015-06-21T12:48:06Z</time>
      </trkpt>
      <trkpt lat="39.9303027" lon="3.1239933">
        <ele>128</ele>
        <time>2015-06-21T12:48:07Z</time>
      </trkpt>
      <trkpt lat="39.9303074" lon="3.1239646">
        <ele>128</ele>
        <time>2015-06-21T12:48:08Z</time>
      </trkpt>
      <trkpt lat="39.9303172" lon="3.1238254">
        <ele>129.2</ele>
        <time>2015-06-21T12:48:13Z</time>
      </trkpt>
      <trkpt lat="39.9303148" lon="3.1237393">
        <ele>129.6</ele>
        <time>2015-06-21T12:48:16Z</time>
      </trkpt>
      <trkpt lat="39.9303068" lon="3.1235851">
        <ele>130.2</ele>
        <time>2015-06-21T12:48:21Z</time>
      </trkpt>
      <trkpt lat="39.9303057" lon="3.1235179">
        <ele>130.4</ele>
        <time>2015-06-21T12:48:23Z</time>
      </trkpt>
      <trkpt lat="39.9302991" lon="3.123364">
        <ele>131.4</ele>
        <time>2015-06-21T12:48:28Z</time>
      </trkpt>
      <trkpt lat="39.9302971" lon="3.123302">
        <ele>131.8</ele>
        <time>2015-06-21T12:48:30Z</time>
      </trkpt>
      <trkpt lat="39.9302925" lon="3.1232115">
        <ele>132.6</ele>
        <time>2015-06-21T12:48:33Z</time>
      </trkpt>
      <trkpt lat="39.9302872" lon="3.1231547">
        <ele>133</ele>
        <time>2015-06-21T12:48:35Z</time>
      </trkpt>
      <trkpt lat="39.9302912" lon="3.1230944">
        <ele>133.4</ele>
        <time>2015-06-21T12:48:37Z</time>
      </trkpt>
      <trkpt lat="39.9302915" lon="3.1230633">
        <ele>133.6</ele>
        <time>2015-06-21T12:48:38Z</time>
      </trkpt>
      <trkpt lat="39.9303191" lon="3.1229093">
        <ele>134.4</ele>
        <time>2015-06-21T12:48:43Z</time>
      </trkpt>
      <trkpt lat="39.9303436" lon="3.1228565">
        <ele>134.8</ele>
        <time>2015-06-21T12:48:45Z</time>
      </trkpt>
      <trkpt lat="39.9304184" lon="3.1227577">
        <ele>135.4</ele>
        <time>2015-06-21T12:48:49Z</time>
      </trkpt>
      <trkpt lat="39.9304841" lon="3.1226907">
        <ele>135.8</ele>
        <time>2015-06-21T12:48:52Z</time>
      </trkpt>
      <trkpt lat="39.9305924" lon="3.1225518">
        <ele>136.8</ele>
        <time>2015-06-21T12:48:58Z</time>
      </trkpt>
      <trkpt lat="39.9306115" lon="3.1225293">
        <ele>136.8</ele>
        <time>2015-06-21T12:48:59Z</time>
      </trkpt>
      <trkpt lat="39.9306719" lon="3.1224684">
        <ele>137.4</ele>
        <time>2015-06-21T12:49:02Z</time>
      </trkpt>
      <trkpt lat="39.9307105" lon="3.1224275">
        <ele>138</ele>
        <time>2015-06-21T12:49:04Z</time>
      </trkpt>
      <trkpt lat="39.9308323" lon="3.1223335">
        <ele>138.8</ele>
        <time>2015-06-21T12:49:10Z</time>
      </trkpt>
      <trkpt lat="39.9308796" lon="3.1223153">
        <ele>136</ele>
        <time>2015-06-21T12:49:12Z</time>
      </trkpt>
      <trkpt lat="39.9309241" lon="3.122298">
        <ele>127.8</ele>
        <time>2015-06-21T12:49:14Z</time>
      </trkpt>
      <trkpt lat="39.930942" lon="3.1222917">
        <ele>122.6</ele>
        <time>2015-06-21T12:49:15Z</time>
      </trkpt>
      <trkpt lat="39.9309591" lon="3.1222858">
        <ele>129.8</ele>
        <time>2015-06-21T12:49:16Z</time>
      </trkpt>
      <trkpt lat="39.9309775" lon="3.122278">
        <ele>133</ele>
        <time>2015-06-21T12:49:17Z</time>
      </trkpt>
      <trkpt lat="39.9309958" lon="3.1222702">
        <ele>134</ele>
        <time>2015-06-21T12:49:18Z</time>
      </trkpt>
      <trkpt lat="39.9310132" lon="3.1222614">
        <ele>141.8</ele>
        <time>2015-06-21T12:49:19Z</time>
      </trkpt>
      <trkpt lat="39.9310315" lon="3.1222542">
        <ele>147.4</ele>
        <time>2015-06-21T12:49:20Z</time>
      </trkpt>
      <trkpt lat="39.9310468" lon="3.1222451">
        <ele>140.8</ele>
        <time>2015-06-21T12:49:21Z</time>
      </trkpt>
      <trkpt lat="39.9310953" lon="3.1222056">
        <ele>141.4</ele>
        <time>2015-06-21T12:49:24Z</time>
      </trkpt>
      <trkpt lat="39.9311332" lon="3.1221453">
        <ele>141.8</ele>
        <time>2015-06-21T12:49:27Z</time>
      </trkpt>
      <trkpt lat="39.9311563" lon="3.1220686">
        <ele>142</ele>
        <time>2015-06-21T12:49:30Z</time>
      </trkpt>
      <trkpt lat="39.9311549" lon="3.1220444">
        <ele>142.2</ele>
        <time>2015-06-21T12:49:31Z</time>
      </trkpt>
      <trkpt lat="39.9311285" lon="3.1219417">
        <ele>142.8</ele>
        <time>2015-06-21T12:49:35Z</time>
      </trkpt>
      <trkpt lat="39.9311182" lon="3.1219222">
        <ele>142.8</ele>
        <time>2015-06-21T12:49:36Z</time>
      </trkpt>
      <trkpt lat="39.9310431" lon="3.1218468">
        <ele>143.8</ele>
        <time>2015-06-21T12:49:41Z</time>
      </trkpt>
      <trkpt lat="39.9310234" lon="3.1218327">
        <ele>144</ele>
        <time>2015-06-21T12:49:42Z</time>
      </trkpt>
      <trkpt lat="39.930998" lon="3.1218149">
        <ele>144.2</ele>
        <time>2015-06-21T12:49:44Z</time>
      </trkpt>
      <trkpt lat="39.9309702" lon="3.1217869">
        <ele>144.4</ele>
        <time>2015-06-21T12:49:46Z</time>
      </trkpt>
      <trkpt lat="39.930914" lon="3.1217536">
        <ele>145.2</ele>
        <time>2015-06-21T12:49:49Z</time>
      </trkpt>
      <trkpt lat="39.9308282" lon="3.1217169">
        <ele>146</ele>
        <time>2015-06-21T12:49:53Z</time>
      </trkpt>
      <trkpt lat="39.9307827" lon="3.1217027">
        <ele>146.2</ele>
        <time>2015-06-21T12:49:55Z</time>
      </trkpt>
      <trkpt lat="39.9306852" lon="3.1216284">
        <ele>147</ele>
        <time>2015-06-21T12:50:00Z</time>
      </trkpt>
      <trkpt lat="39.9306561" lon="3.1215807">
        <ele>147.4</ele>
        <time>2015-06-21T12:50:02Z</time>
      </trkpt>
      <trkpt lat="39.9306238" lon="3.1214659">
        <ele>148.2</ele>
        <time>2015-06-21T12:50:06Z</time>
      </trkpt>
      <trkpt lat="39.9306192" lon="3.1214342">
        <ele>148.4</ele>
        <time>2015-06-21T12:50:07Z</time>
      </trkpt>
      <trkpt lat="39.9306193" lon="3.121254">
        <ele>149.4</ele>
        <time>2015-06-21T12:50:13Z</time>
      </trkpt>
      <trkpt lat="39.930628" lon="3.1212273">
        <ele>149.6</ele>
        <time>2015-06-21T12:50:14Z</time>
      </trkpt>
      <trkpt lat="39.9306734" lon="3.1211338">
        <ele>150.6</ele>
        <time>2015-06-21T12:50:18Z</time>
      </trkpt>
      <trkpt lat="39.9306978" lon="3.12107">
        <ele>151.4</ele>
        <time>2015-06-21T12:50:21Z</time>
      </trkpt>
      <trkpt lat="39.9307038" lon="3.1210216">
        <ele>151.8</ele>
        <time>2015-06-21T12:50:23Z</time>
      </trkpt>
      <trkpt lat="39.9307049" lon="3.1209962">
        <ele>155.8</ele>
        <time>2015-06-21T12:50:24Z</time>
      </trkpt>
      <trkpt lat="39.9307049" lon="3.1209702">
        <ele>161.6</ele>
        <time>2015-06-21T12:50:25Z</time>
      </trkpt>
      <trkpt lat="39.9307056" lon="3.1209449">
        <ele>166</ele>
        <time>2015-06-21T12:50:26Z</time>
      </trkpt>
      <trkpt lat="39.9307052" lon="3.1209195">
        <ele>168</ele>
        <time>2015-06-21T12:50:27Z</time>
      </trkpt>
      <trkpt lat="39.9307043" lon="3.1208973">
        <ele>171</ele>
        <time>2015-06-21T12:50:28Z</time>
      </trkpt>
      <trkpt lat="39.9306983" lon="3.1208474">
        <ele>165.2</ele>
        <time>2015-06-21T12:50:30Z</time>
      </trkpt>
      <trkpt lat="39.9306956" lon="3.1208221">
        <ele>161</ele>
        <time>2015-06-21T12:50:31Z</time>
      </trkpt>
      <trkpt lat="39.9306914" lon="3.1207965">
        <ele>159.6</ele>
        <time>2015-06-21T12:50:32Z</time>
      </trkpt>
      <trkpt lat="39.9306878" lon="3.120772">
        <ele>156.8</ele>
        <time>2015-06-21T12:50:33Z</time>
      </trkpt>
      <trkpt lat="39.9306847" lon="3.1207461">
        <ele>154</ele>
        <time>2015-06-21T12:50:34Z</time>
      </trkpt>
      <trkpt lat="39.9306627" lon="3.1206732">
        <ele>154.6</ele>
        <time>2015-06-21T12:50:37Z</time>
      </trkpt>
      <trkpt lat="39.9306367" lon="3.1205992">
        <ele>155</ele>
        <time>2015-06-21T12:50:40Z</time>
      </trkpt>
      <trkpt lat="39.9305888" lon="3.1204789">
        <ele>156</ele>
        <time>2015-06-21T12:50:45Z</time>
      </trkpt>
      <trkpt lat="39.9305791" lon="3.1204557">
        <ele>156.2</ele>
        <time>2015-06-21T12:50:46Z</time>
      </trkpt>
      <trkpt lat="39.9305333" lon="3.120267">
        <ele>157.2</ele>
        <time>2015-06-21T12:50:53Z</time>
      </trkpt>
      <trkpt lat="39.9305159" lon="3.120129">
        <ele>158.2</ele>
        <time>2015-06-21T12:50:58Z</time>
      </trkpt>
      <trkpt lat="39.9305008" lon="3.1200736">
        <ele>158.8</ele>
        <time>2015-06-21T12:51:00Z</time>
      </trkpt>
      <trkpt lat="39.9304541" lon="3.1199692">
        <ele>159.4</ele>
        <time>2015-06-21T12:51:04Z</time>
      </trkpt>
      <trkpt lat="39.9304347" lon="3.1199114">
        <ele>159.6</ele>
        <time>2015-06-21T12:51:06Z</time>
      </trkpt>
      <trkpt lat="39.9303492" lon="3.1196564">
        <ele>160</ele>
        <time>2015-06-21T12:51:14Z</time>
      </trkpt>
      <trkpt lat="39.9303434" lon="3.1194965">
        <ele>160.4</ele>
        <time>2015-06-21T12:51:18Z</time>
      </trkpt>
      <trkpt lat="39.9303435" lon="3.119371">
        <ele>160.6</ele>
        <time>2015-06-21T12:51:21Z</time>
      </trkpt>
      <trkpt lat="39.930345" lon="3.1190746">
        <ele>161.4</ele>
        <time>2015-06-21T12:51:27Z</time>
      </trkpt>
      <trkpt lat="39.9303415" lon="3.1189711">
        <ele>161.6</ele>
        <time>2015-06-21T12:51:29Z</time>
      </trkpt>
      <trkpt lat="39.9303264" lon="3.1184994">
        <ele>162.4</ele>
        <time>2015-06-21T12:51:38Z</time>
      </trkpt>
      <trkpt lat="39.930338" lon="3.1183902">
        <ele>162.4</ele>
        <time>2015-06-21T12:51:40Z</time>
      </trkpt>
      <trkpt lat="39.9303571" lon="3.1182769">
        <ele>162.6</ele>
        <time>2015-06-21T12:51:42Z</time>
      </trkpt>
      <trkpt lat="39.9304166" lon="3.1181251">
        <ele>162.8</ele>
        <time>2015-06-21T12:51:45Z</time>
      </trkpt>
      <trkpt lat="39.9305185" lon="3.1179099">
        <ele>163.2</ele>
        <time>2015-06-21T12:51:49Z</time>
      </trkpt>
      <trkpt lat="39.9305368" lon="3.1178557">
        <ele>163.2</ele>
        <time>2015-06-21T12:51:50Z</time>
      </trkpt>
      <trkpt lat="39.9305783" lon="3.117618">
        <ele>163.2</ele>
        <time>2015-06-21T12:51:54Z</time>
      </trkpt>
      <trkpt lat="39.9306562" lon="3.1171365">
        <ele>161.6</ele>
        <time>2015-06-21T12:52:00Z</time>
      </trkpt>
      <trkpt lat="39.9306639" lon="3.1170637">
        <ele>161.4</ele>
        <time>2015-06-21T12:52:01Z</time>
      </trkpt>
      <trkpt lat="39.9306637" lon="3.1169157">
        <ele>161.2</ele>
        <time>2015-06-21T12:52:03Z</time>
      </trkpt>
      <trkpt lat="39.9306524" lon="3.1167819">
        <ele>161.2</ele>
        <time>2015-06-21T12:52:05Z</time>
      </trkpt>
      <trkpt lat="39.9306408" lon="3.1167242">
        <ele>161.2</ele>
        <time>2015-06-21T12:52:06Z</time>
      </trkpt>
      <trkpt lat="39.930578" lon="3.116499">
        <ele>161</ele>
        <time>2015-06-21T12:52:10Z</time>
      </trkpt>
      <trkpt lat="39.9305304" lon="3.1162866">
        <ele>162</ele>
        <time>2015-06-21T12:52:15Z</time>
      </trkpt>
      <trkpt lat="39.9305132" lon="3.1162075">
        <ele>162.4</ele>
        <time>2015-06-21T12:52:17Z</time>
      </trkpt>
      <trkpt lat="39.9304802" lon="3.1160429">
        <ele>163.2</ele>
        <time>2015-06-21T12:52:21Z</time>
      </trkpt>
      <trkpt lat="39.9304795" lon="3.1159566">
        <ele>163.4</ele>
        <time>2015-06-21T12:52:23Z</time>
      </trkpt>
      <trkpt lat="39.9304855" lon="3.1157655">
        <ele>164.6</ele>
        <time>2015-06-21T12:52:28Z</time>
      </trkpt>
      <trkpt lat="39.93049" lon="3.1156178">
        <ele>165.8</ele>
        <time>2015-06-21T12:52:32Z</time>
      </trkpt>
      <trkpt lat="39.9304657" lon="3.115518">
        <ele>166.2</ele>
        <time>2015-06-21T12:52:35Z</time>
      </trkpt>
      <trkpt lat="39.9304182" lon="3.115433">
        <ele>166.8</ele>
        <time>2015-06-21T12:52:38Z</time>
      </trkpt>
      <trkpt lat="39.9303283" lon="3.1152973">
        <ele>167.8</ele>
        <time>2015-06-21T12:52:43Z</time>
      </trkpt>
      <trkpt lat="39.9303107" lon="3.115271">
        <ele>168</ele>
        <time>2015-06-21T12:52:44Z</time>
      </trkpt>
      <trkpt lat="39.9302051" lon="3.1151138">
        <ele>169.2</ele>
        <time>2015-06-21T12:52:50Z</time>
      </trkpt>
      <trkpt lat="39.9301498" lon="3.1150445">
        <ele>169.8</ele>
        <time>2015-06-21T12:52:53Z</time>
      </trkpt>
      <trkpt lat="39.9300912" lon="3.1149847">
        <ele>170.4</ele>
        <time>2015-06-21T12:52:56Z</time>
      </trkpt>
      <trkpt lat="39.9300025" lon="3.1149015">
        <ele>171</ele>
        <time>2015-06-21T12:53:00Z</time>
      </trkpt>
      <trkpt lat="39.9299442" lon="3.1148428">
        <ele>171.6</ele>
        <time>2015-06-21T12:53:03Z</time>
      </trkpt>
      <trkpt lat="39.9298694" lon="3.1147734">
        <ele>172.2</ele>
        <time>2015-06-21T12:53:07Z</time>
      </trkpt>
      <trkpt lat="39.9298294" lon="3.114745">
        <ele>172.8</ele>
        <time>2015-06-21T12:53:09Z</time>
      </trkpt>
      <trkpt lat="39.9297044" lon="3.1146675">
        <ele>173.2</ele>
        <time>2015-06-21T12:53:15Z</time>
      </trkpt>
      <trkpt lat="39.9296629" lon="3.1146391">
        <ele>174.2</ele>
        <time>2015-06-21T12:53:17Z</time>
      </trkpt>
      <trkpt lat="39.9295641" lon="3.114532">
        <ele>175.2</ele>
        <time>2015-06-21T12:53:23Z</time>
      </trkpt>
      <trkpt lat="39.9295533" lon="3.1143701">
        <ele>176.2</ele>
        <time>2015-06-21T12:53:28Z</time>
      </trkpt>
      <trkpt lat="39.9295586" lon="3.1143367">
        <ele>176.2</ele>
        <time>2015-06-21T12:53:29Z</time>
      </trkpt>
      <trkpt lat="39.9295533" lon="3.1141639">
        <ele>176.8</ele>
        <time>2015-06-21T12:53:35Z</time>
      </trkpt>
      <trkpt lat="39.9295323" lon="3.1141065">
        <ele>177.2</ele>
        <time>2015-06-21T12:53:37Z</time>
      </trkpt>
      <trkpt lat="39.9294581" lon="3.1139146">
        <ele>178.2</ele>
        <time>2015-06-21T12:53:44Z</time>
      </trkpt>
      <trkpt lat="39.9294478" lon="3.1138873">
        <ele>178.4</ele>
        <time>2015-06-21T12:53:45Z</time>
      </trkpt>
      <trkpt lat="39.9294083" lon="3.1137102">
        <ele>179.4</ele>
        <time>2015-06-21T12:53:51Z</time>
      </trkpt>
      <trkpt lat="39.9294078" lon="3.1136473">
        <ele>179.8</ele>
        <time>2015-06-21T12:53:53Z</time>
      </trkpt>
      <trkpt lat="39.9294162" lon="3.1134894">
        <ele>180.4</ele>
        <time>2015-06-21T12:53:58Z</time>
      </trkpt>
      <trkpt lat="39.9294246" lon="3.1134112">
        <ele>181</ele>
        <time>2015-06-21T12:54:01Z</time>
      </trkpt>
      <trkpt lat="39.9294331" lon="3.1132734">
        <ele>181.6</ele>
        <time>2015-06-21T12:54:06Z</time>
      </trkpt>
      <trkpt lat="39.929432" lon="3.1132429">
        <ele>181.8</ele>
        <time>2015-06-21T12:54:07Z</time>
      </trkpt>
      <trkpt lat="39.9294216" lon="3.1130941">
        <ele>182.8</ele>
        <time>2015-06-21T12:54:12Z</time>
      </trkpt>
      <trkpt lat="39.9294169" lon="3.1130071">
        <ele>183.8</ele>
        <time>2015-06-21T12:54:15Z</time>
      </trkpt>
      <trkpt lat="39.929415" lon="3.1129799">
        <ele>184.2</ele>
        <time>2015-06-21T12:54:16Z</time>
      </trkpt>
      <trkpt lat="39.9294081" lon="3.112887">
        <ele>185.2</ele>
        <time>2015-06-21T12:54:19Z</time>
      </trkpt>
      <trkpt lat="39.9294018" lon="3.1127982">
        <ele>186.4</ele>
        <time>2015-06-21T12:54:22Z</time>
      </trkpt>
      <trkpt lat="39.9293925" lon="3.1127076">
        <ele>187.6</ele>
        <time>2015-06-21T12:54:25Z</time>
      </trkpt>
      <trkpt lat="39.92939" lon="3.1126805">
        <ele>187.8</ele>
        <time>2015-06-21T12:54:26Z</time>
      </trkpt>
      <trkpt lat="39.9293809" lon="3.1125575">
        <ele>188.6</ele>
        <time>2015-06-21T12:54:30Z</time>
      </trkpt>
      <trkpt lat="39.9293694" lon="3.1123823">
        <ele>189.8</ele>
        <time>2015-06-21T12:54:36Z</time>
      </trkpt>
      <trkpt lat="39.9293589" lon="3.1121499">
        <ele>191</ele>
        <time>2015-06-21T12:54:44Z</time>
      </trkpt>
      <trkpt lat="39.9293502" lon="3.1120307">
        <ele>191.4</ele>
        <time>2015-06-21T12:54:48Z</time>
      </trkpt>
      <trkpt lat="39.9293123" lon="3.1118199">
        <ele>192</ele>
        <time>2015-06-21T12:54:56Z</time>
      </trkpt>
      <trkpt lat="39.9293011" lon="3.1117973">
        <ele>192</ele>
        <time>2015-06-21T12:54:57Z</time>
      </trkpt>
      <trkpt lat="39.9292375" lon="3.1117542">
        <ele>192.4</ele>
        <time>2015-06-21T12:55:01Z</time>
      </trkpt>
      <trkpt lat="39.9292159" lon="3.1117577">
        <ele>192.2</ele>
        <time>2015-06-21T12:55:02Z</time>
      </trkpt>
      <trkpt lat="39.929108" lon="3.1118533">
        <ele>192.6</ele>
        <time>2015-06-21T12:55:08Z</time>
      </trkpt>
      <trkpt lat="39.9290902" lon="3.1120391">
        <ele>193</ele>
        <time>2015-06-21T12:55:14Z</time>
      </trkpt>
      <trkpt lat="39.9290922" lon="3.1121433">
        <ele>193</ele>
        <time>2015-06-21T12:55:17Z</time>
      </trkpt>
      <trkpt lat="39.9290972" lon="3.1122433">
        <ele>192.8</ele>
        <time>2015-06-21T12:55:20Z</time>
      </trkpt>
      <trkpt lat="39.9291067" lon="3.1124316">
        <ele>193.2</ele>
        <time>2015-06-21T12:55:26Z</time>
      </trkpt>
      <trkpt lat="39.9291223" lon="3.1125806">
        <ele>193.4</ele>
        <time>2015-06-21T12:55:30Z</time>
      </trkpt>
      <trkpt lat="39.9291463" lon="3.1126796">
        <ele>193.6</ele>
        <time>2015-06-21T12:55:33Z</time>
      </trkpt>
      <trkpt lat="39.9291952" lon="3.1128739">
        <ele>194.2</ele>
        <time>2015-06-21T12:55:39Z</time>
      </trkpt>
      <trkpt lat="39.9291999" lon="3.1129058">
        <ele>194.2</ele>
        <time>2015-06-21T12:55:40Z</time>
      </trkpt>
      <trkpt lat="39.929193" lon="3.1129673">
        <ele>194</ele>
        <time>2015-06-21T12:55:42Z</time>
      </trkpt>
      <trkpt lat="39.9291523" lon="3.1129927">
        <ele>194.6</ele>
        <time>2015-06-21T12:55:44Z</time>
      </trkpt>
      <trkpt lat="39.9291176" lon="3.1129543">
        <ele>195.4</ele>
        <time>2015-06-21T12:55:46Z</time>
      </trkpt>
      <trkpt lat="39.9291094" lon="3.112923">
        <ele>196.2</ele>
        <time>2015-06-21T12:55:47Z</time>
      </trkpt>
      <trkpt lat="39.9291034" lon="3.1128916">
        <ele>196.4</ele>
        <time>2015-06-21T12:55:48Z</time>
      </trkpt>
      <trkpt lat="39.929077" lon="3.11278">
        <ele>197.4</ele>
        <time>2015-06-21T12:55:52Z</time>
      </trkpt>
      <trkpt lat="39.9290409" lon="3.1126373">
        <ele>198.4</ele>
        <time>2015-06-21T12:55:57Z</time>
      </trkpt>
      <trkpt lat="39.929026" lon="3.112577">
        <ele>198.6</ele>
        <time>2015-06-21T12:55:59Z</time>
      </trkpt>
      <trkpt lat="39.9289908" lon="3.1124349">
        <ele>202</ele>
        <time>2015-06-21T12:56:04Z</time>
      </trkpt>
      <trkpt lat="39.92897" lon="3.1123525">
        <ele>206.6</ele>
        <time>2015-06-21T12:56:07Z</time>
      </trkpt>
      <trkpt lat="39.9289548" lon="3.1122918">
        <ele>204.4</ele>
        <time>2015-06-21T12:56:09Z</time>
      </trkpt>
      <trkpt lat="39.9289276" lon="3.1122069">
        <ele>198.4</ele>
        <time>2015-06-21T12:56:12Z</time>
      </trkpt>
      <trkpt lat="39.9289179" lon="3.1121789">
        <ele>202.6</ele>
        <time>2015-06-21T12:56:13Z</time>
      </trkpt>
      <trkpt lat="39.9288996" lon="3.1121206">
        <ele>203</ele>
        <time>2015-06-21T12:56:15Z</time>
      </trkpt>
      <trkpt lat="39.9288496" lon="3.1119525">
        <ele>203.6</ele>
        <time>2015-06-21T12:56:21Z</time>
      </trkpt>
      <trkpt lat="39.9288363" lon="3.1118951">
        <ele>204.6</ele>
        <time>2015-06-21T12:56:23Z</time>
      </trkpt>
      <trkpt lat="39.9288317" lon="3.1118678">
        <ele>204.8</ele>
        <time>2015-06-21T12:56:24Z</time>
      </trkpt>
      <trkpt lat="39.928808" lon="3.1117822">
        <ele>206.2</ele>
        <time>2015-06-21T12:56:27Z</time>
      </trkpt>
      <trkpt lat="39.9287797" lon="3.1116457">
        <ele>206.6</ele>
        <time>2015-06-21T12:56:32Z</time>
      </trkpt>
      <trkpt lat="39.9287666" lon="3.1115785">
        <ele>207.2</ele>
        <time>2015-06-21T12:56:35Z</time>
      </trkpt>
      <trkpt lat="39.9287586" lon="3.1115319">
        <ele>208</ele>
        <time>2015-06-21T12:56:38Z</time>
      </trkpt>
      <trkpt lat="39.928754" lon="3.1115201">
        <ele>208.2</ele>
        <time>2015-06-21T12:56:39Z</time>
      </trkpt>
      <trkpt lat="39.9287191" lon="3.1114221">
        <ele>209</ele>
        <time>2015-06-21T12:56:43Z</time>
      </trkpt>
      <trkpt lat="39.9287146" lon="3.1113763">
        <ele>209.4</ele>
        <time>2015-06-21T12:56:45Z</time>
      </trkpt>
      <trkpt lat="39.9287172" lon="3.1113093">
        <ele>209.8</ele>
        <time>2015-06-21T12:56:49Z</time>
      </trkpt>
      <trkpt lat="39.9287508" lon="3.1112075">
        <ele>210</ele>
        <time>2015-06-21T12:56:55Z</time>
      </trkpt>
      <trkpt lat="39.9287759" lon="3.1111526">
        <ele>210.6</ele>
        <time>2015-06-21T12:56:57Z</time>
      </trkpt>
      <trkpt lat="39.92884" lon="3.1110435">
        <ele>211.2</ele>
        <time>2015-06-21T12:57:02Z</time>
      </trkpt>
      <trkpt lat="39.9288961" lon="3.1109505">
        <ele>206.2</ele>
        <time>2015-06-21T12:57:07Z</time>
      </trkpt>
      <trkpt lat="39.9289327" lon="3.1108745">
        <ele>206.2</ele>
        <time>2015-06-21T12:57:11Z</time>
      </trkpt>
      <trkpt lat="39.9289477" lon="3.110729">
        <ele>206.4</ele>
        <time>2015-06-21T12:57:18Z</time>
      </trkpt>
      <trkpt lat="39.9288988" lon="3.1106456">
        <ele>206.8</ele>
        <time>2015-06-21T12:57:23Z</time>
      </trkpt>
      <trkpt lat="39.9288828" lon="3.1106121">
        <ele>207.2</ele>
        <time>2015-06-21T12:57:25Z</time>
      </trkpt>
      <trkpt lat="39.92883" lon="3.1105198">
        <ele>208</ele>
        <time>2015-06-21T12:57:29Z</time>
      </trkpt>
      <trkpt lat="39.9287208" lon="3.1103313">
        <ele>208.2</ele>
        <time>2015-06-21T12:57:34Z</time>
      </trkpt>
      <trkpt lat="39.9285669" lon="3.1100764">
        <ele>207.8</ele>
        <time>2015-06-21T12:57:40Z</time>
      </trkpt>
      <trkpt lat="39.9285347" lon="3.1100514">
        <ele>207.8</ele>
        <time>2015-06-21T12:57:41Z</time>
      </trkpt>
      <trkpt lat="39.9283916" lon="3.1100126">
        <ele>207.2</ele>
        <time>2015-06-21T12:57:44Z</time>
      </trkpt>
      <trkpt lat="39.9283412" lon="3.1100102">
        <ele>207</ele>
        <time>2015-06-21T12:57:45Z</time>
      </trkpt>
      <trkpt lat="39.9281726" lon="3.1100082">
        <ele>206.2</ele>
        <time>2015-06-21T12:57:48Z</time>
      </trkpt>
      <trkpt lat="39.9280613" lon="3.1099969">
        <ele>205.4</ele>
        <time>2015-06-21T12:57:50Z</time>
      </trkpt>
      <trkpt lat="39.9280127" lon="3.1099825">
        <ele>205.2</ele>
        <time>2015-06-21T12:57:51Z</time>
      </trkpt>
      <trkpt lat="39.9279534" lon="3.1099599">
        <ele>205</ele>
        <time>2015-06-21T12:57:52Z</time>
      </trkpt>
      <trkpt lat="39.9277794" lon="3.1098852">
        <ele>204.2</ele>
        <time>2015-06-21T12:57:55Z</time>
      </trkpt>
      <trkpt lat="39.927729" lon="3.1098627">
        <ele>203.8</ele>
        <time>2015-06-21T12:57:56Z</time>
      </trkpt>
      <trkpt lat="39.9275261" lon="3.1097718">
        <ele>202.6</ele>
        <time>2015-06-21T12:57:59Z</time>
      </trkpt>
      <trkpt lat="39.9273922" lon="3.1097074">
        <ele>202</ele>
        <time>2015-06-21T12:58:01Z</time>
      </trkpt>
      <trkpt lat="39.9273235" lon="3.1096747">
        <ele>201.6</ele>
        <time>2015-06-21T12:58:02Z</time>
      </trkpt>
      <trkpt lat="39.9272034" lon="3.1096339">
        <ele>200.8</ele>
        <time>2015-06-21T12:58:04Z</time>
      </trkpt>
      <trkpt lat="39.9271383" lon="3.1096421">
        <ele>200.4</ele>
        <time>2015-06-21T12:58:05Z</time>
      </trkpt>
      <trkpt lat="39.9268895" lon="3.1097323">
        <ele>199.8</ele>
        <time>2015-06-21T12:58:09Z</time>
      </trkpt>
      <trkpt lat="39.9267109" lon="3.1096263">
        <ele>199.4</ele>
        <time>2015-06-21T12:58:12Z</time>
      </trkpt>
      <trkpt lat="39.9265966" lon="3.109494">
        <ele>198.8</ele>
        <time>2015-06-21T12:58:14Z</time>
      </trkpt>
      <trkpt lat="39.9265374" lon="3.1094363">
        <ele>198.2</ele>
        <time>2015-06-21T12:58:15Z</time>
      </trkpt>
      <trkpt lat="39.9264725" lon="3.1093924">
        <ele>197.8</ele>
        <time>2015-06-21T12:58:16Z</time>
      </trkpt>
      <trkpt lat="39.926395" lon="3.1093619">
        <ele>197.2</ele>
        <time>2015-06-21T12:58:17Z</time>
      </trkpt>
      <trkpt lat="39.9261671" lon="3.1093381">
        <ele>195.4</ele>
        <time>2015-06-21T12:58:20Z</time>
      </trkpt>
      <trkpt lat="39.9261065" lon="3.1093412">
        <ele>194.8</ele>
        <time>2015-06-21T12:58:21Z</time>
      </trkpt>
      <trkpt lat="39.9260283" lon="3.1093448">
        <ele>194</ele>
        <time>2015-06-21T12:58:22Z</time>
      </trkpt>
      <trkpt lat="39.9259669" lon="3.1093405">
        <ele>193.4</ele>
        <time>2015-06-21T12:58:23Z</time>
      </trkpt>
      <trkpt lat="39.9259075" lon="3.1093214">
        <ele>192.4</ele>
        <time>2015-06-21T12:58:24Z</time>
      </trkpt>
      <trkpt lat="39.9258542" lon="3.1092848">
        <ele>191.8</ele>
        <time>2015-06-21T12:58:25Z</time>
      </trkpt>
      <trkpt lat="39.9258127" lon="3.1092385">
        <ele>191.2</ele>
        <time>2015-06-21T12:58:26Z</time>
      </trkpt>
      <trkpt lat="39.9257257" lon="3.1090907">
        <ele>190.2</ele>
        <time>2015-06-21T12:58:28Z</time>
      </trkpt>
      <trkpt lat="39.9256578" lon="3.1089239">
        <ele>189.6</ele>
        <time>2015-06-21T12:58:30Z</time>
      </trkpt>
      <trkpt lat="39.9255835" lon="3.1087641">
        <ele>188.8</ele>
        <time>2015-06-21T12:58:32Z</time>
      </trkpt>
      <trkpt lat="39.925542" lon="3.1086927">
        <ele>188.2</ele>
        <time>2015-06-21T12:58:33Z</time>
      </trkpt>
      <trkpt lat="39.9254952" lon="3.1086217">
        <ele>187.6</ele>
        <time>2015-06-21T12:58:34Z</time>
      </trkpt>
      <trkpt lat="39.925445" lon="3.1085584">
        <ele>187</ele>
        <time>2015-06-21T12:58:35Z</time>
      </trkpt>
      <trkpt lat="39.9253869" lon="3.1085141">
        <ele>186.2</ele>
        <time>2015-06-21T12:58:36Z</time>
      </trkpt>
      <trkpt lat="39.9253088" lon="3.1084919">
        <ele>185.6</ele>
        <time>2015-06-21T12:58:37Z</time>
      </trkpt>
      <trkpt lat="39.9252251" lon="3.1084834">
        <ele>185</ele>
        <time>2015-06-21T12:58:38Z</time>
      </trkpt>
      <trkpt lat="39.9251461" lon="3.1084798">
        <ele>184.4</ele>
        <time>2015-06-21T12:58:39Z</time>
      </trkpt>
      <trkpt lat="39.9250668" lon="3.1084782">
        <ele>183.6</ele>
        <time>2015-06-21T12:58:40Z</time>
      </trkpt>
      <trkpt lat="39.9249996" lon="3.1084647">
        <ele>182.6</ele>
        <time>2015-06-21T12:58:41Z</time>
      </trkpt>
      <trkpt lat="39.9248589" lon="3.1083745">
        <ele>180.8</ele>
        <time>2015-06-21T12:58:43Z</time>
      </trkpt>
      <trkpt lat="39.9248104" lon="3.108308">
        <ele>180.2</ele>
        <time>2015-06-21T12:58:44Z</time>
      </trkpt>
      <trkpt lat="39.9247708" lon="3.108233">
        <ele>179.4</ele>
        <time>2015-06-21T12:58:45Z</time>
      </trkpt>
      <trkpt lat="39.924698" lon="3.1080597">
        <ele>178.6</ele>
        <time>2015-06-21T12:58:47Z</time>
      </trkpt>
      <trkpt lat="39.9246641" lon="3.1079732">
        <ele>178</ele>
        <time>2015-06-21T12:58:48Z</time>
      </trkpt>
      <trkpt lat="39.9246034" lon="3.1078061">
        <ele>176.6</ele>
        <time>2015-06-21T12:58:50Z</time>
      </trkpt>
      <trkpt lat="39.9245292" lon="3.1076404">
        <ele>175.2</ele>
        <time>2015-06-21T12:58:52Z</time>
      </trkpt>
      <trkpt lat="39.9244845" lon="3.1075723">
        <ele>174.6</ele>
        <time>2015-06-21T12:58:53Z</time>
      </trkpt>
      <trkpt lat="39.9244327" lon="3.1075208">
        <ele>174</ele>
        <time>2015-06-21T12:58:54Z</time>
      </trkpt>
      <trkpt lat="39.9243294" lon="3.1074618">
        <ele>172.4</ele>
        <time>2015-06-21T12:58:56Z</time>
      </trkpt>
      <trkpt lat="39.9242635" lon="3.1074535">
        <ele>172</ele>
        <time>2015-06-21T12:58:57Z</time>
      </trkpt>
      <trkpt lat="39.9242006" lon="3.1074605">
        <ele>171.2</ele>
        <time>2015-06-21T12:58:58Z</time>
      </trkpt>
      <trkpt lat="39.9240922" lon="3.1075059">
        <ele>168</ele>
        <time>2015-06-21T12:59:00Z</time>
      </trkpt>
      <trkpt lat="39.9240405" lon="3.1075331">
        <ele>168.6</ele>
        <time>2015-06-21T12:59:01Z</time>
      </trkpt>
      <trkpt lat="39.9239788" lon="3.1075634">
        <ele>171.6</ele>
        <time>2015-06-21T12:59:02Z</time>
      </trkpt>
      <trkpt lat="39.9239207" lon="3.1075966">
        <ele>174.4</ele>
        <time>2015-06-21T12:59:03Z</time>
      </trkpt>
      <trkpt lat="39.9237956" lon="3.1076635">
        <ele>177</ele>
        <time>2015-06-21T12:59:05Z</time>
      </trkpt>
      <trkpt lat="39.9237438" lon="3.1076883">
        <ele>178.2</ele>
        <time>2015-06-21T12:59:06Z</time>
      </trkpt>
      <trkpt lat="39.9236039" lon="3.107747">
        <ele>181.4</ele>
        <time>2015-06-21T12:59:08Z</time>
      </trkpt>
      <trkpt lat="39.9235402" lon="3.107766">
        <ele>179</ele>
        <time>2015-06-21T12:59:09Z</time>
      </trkpt>
      <trkpt lat="39.9234733" lon="3.1077748">
        <ele>178.6</ele>
        <time>2015-06-21T12:59:10Z</time>
      </trkpt>
      <trkpt lat="39.9234137" lon="3.1077722">
        <ele>175.6</ele>
        <time>2015-06-21T12:59:11Z</time>
      </trkpt>
      <trkpt lat="39.9233397" lon="3.1077625">
        <ele>170.6</ele>
        <time>2015-06-21T12:59:12Z</time>
      </trkpt>
      <trkpt lat="39.9232703" lon="3.1077509">
        <ele>162</ele>
        <time>2015-06-21T12:59:13Z</time>
      </trkpt>
      <trkpt lat="39.9231983" lon="3.1077369">
        <ele>148.8</ele>
        <time>2015-06-21T12:59:14Z</time>
      </trkpt>
      <trkpt lat="39.9231237" lon="3.1077191">
        <ele>144.4</ele>
        <time>2015-06-21T12:59:15Z</time>
      </trkpt>
      <trkpt lat="39.9228878" lon="3.1076571">
        <ele>151.8</ele>
        <time>2015-06-21T12:59:18Z</time>
      </trkpt>
      <trkpt lat="39.9228119" lon="3.1076295">
        <ele>164.4</ele>
        <time>2015-06-21T12:59:19Z</time>
      </trkpt>
      <trkpt lat="39.9227349" lon="3.1075967">
        <ele>166.8</ele>
        <time>2015-06-21T12:59:20Z</time>
      </trkpt>
      <trkpt lat="39.9225077" lon="3.1074795">
        <ele>157.4</ele>
        <time>2015-06-21T12:59:23Z</time>
      </trkpt>
      <trkpt lat="39.922365" lon="3.107403">
        <ele>156.4</ele>
        <time>2015-06-21T12:59:25Z</time>
      </trkpt>
      <trkpt lat="39.9223021" lon="3.1073739">
        <ele>151.6</ele>
        <time>2015-06-21T12:59:26Z</time>
      </trkpt>
      <trkpt lat="39.9222272" lon="3.1073431">
        <ele>149.8</ele>
        <time>2015-06-21T12:59:27Z</time>
      </trkpt>
      <trkpt lat="39.9220764" lon="3.1073">
        <ele>149.2</ele>
        <time>2015-06-21T12:59:29Z</time>
      </trkpt>
      <trkpt lat="39.921923" lon="3.1072775">
        <ele>152.4</ele>
        <time>2015-06-21T12:59:31Z</time>
      </trkpt>
      <trkpt lat="39.9218389" lon="3.1072665">
        <ele>158.6</ele>
        <time>2015-06-21T12:59:32Z</time>
      </trkpt>
      <trkpt lat="39.9217633" lon="3.1072516">
        <ele>161</ele>
        <time>2015-06-21T12:59:33Z</time>
      </trkpt>
      <trkpt lat="39.9216815" lon="3.1072324">
        <ele>166.6</ele>
        <time>2015-06-21T12:59:34Z</time>
      </trkpt>
      <trkpt lat="39.9216029" lon="3.1072129">
        <ele>170.8</ele>
        <time>2015-06-21T12:59:35Z</time>
      </trkpt>
      <trkpt lat="39.9214552" lon="3.1071691">
        <ele>164.6</ele>
        <time>2015-06-21T12:59:37Z</time>
      </trkpt>
      <trkpt lat="39.9213806" lon="3.1071428">
        <ele>160.2</ele>
        <time>2015-06-21T12:59:38Z</time>
      </trkpt>
      <trkpt lat="39.9213107" lon="3.1071143">
        <ele>158.2</ele>
        <time>2015-06-21T12:59:39Z</time>
      </trkpt>
      <trkpt lat="39.921236" lon="3.107083">
        <ele>156.6</ele>
        <time>2015-06-21T12:59:40Z</time>
      </trkpt>
      <trkpt lat="39.9211727" lon="3.1070552">
        <ele>151.6</ele>
        <time>2015-06-21T12:59:41Z</time>
      </trkpt>
      <trkpt lat="39.9210935" lon="3.1070261">
        <ele>154</ele>
        <time>2015-06-21T12:59:42Z</time>
      </trkpt>
      <trkpt lat="39.9210217" lon="3.1070102">
        <ele>153.4</ele>
        <time>2015-06-21T12:59:43Z</time>
      </trkpt>
      <trkpt lat="39.9209457" lon="3.1069986">
        <ele>148.6</ele>
        <time>2015-06-21T12:59:44Z</time>
      </trkpt>
      <trkpt lat="39.9207976" lon="3.1069884">
        <ele>153.4</ele>
        <time>2015-06-21T12:59:46Z</time>
      </trkpt>
      <trkpt lat="39.9204537" lon="3.1069817">
        <ele>150.6</ele>
        <time>2015-06-21T12:59:50Z</time>
      </trkpt>
      <trkpt lat="39.9203727" lon="3.1069812">
        <ele>146.2</ele>
        <time>2015-06-21T12:59:51Z</time>
      </trkpt>
      <trkpt lat="39.9202747" lon="3.1069801">
        <ele>141.4</ele>
        <time>2015-06-21T12:59:52Z</time>
      </trkpt>
      <trkpt lat="39.9200001" lon="3.1069761">
        <ele>139</ele>
        <time>2015-06-21T12:59:55Z</time>
      </trkpt>
      <trkpt lat="39.9198193" lon="3.1069709">
        <ele>137.6</ele>
        <time>2015-06-21T12:59:57Z</time>
      </trkpt>
      <trkpt lat="39.9196389" lon="3.1069549">
        <ele>136</ele>
        <time>2015-06-21T12:59:59Z</time>
      </trkpt>
      <trkpt lat="39.9194695" lon="3.1069168">
        <ele>134.4</ele>
        <time>2015-06-21T13:00:01Z</time>
      </trkpt>
      <trkpt lat="39.919302" lon="3.1068252">
        <ele>133.4</ele>
        <time>2015-06-21T13:00:03Z</time>
      </trkpt>
      <trkpt lat="39.9191269" lon="3.1067142">
        <ele>132</ele>
        <time>2015-06-21T13:00:05Z</time>
      </trkpt>
      <trkpt lat="39.9190496" lon="3.1066606">
        <ele>131</ele>
        <time>2015-06-21T13:00:06Z</time>
      </trkpt>
      <trkpt lat="39.9188817" lon="3.106545">
        <ele>129.2</ele>
        <time>2015-06-21T13:00:08Z</time>
      </trkpt>
      <trkpt lat="39.918805" lon="3.1064935">
        <ele>128.2</ele>
        <time>2015-06-21T13:00:09Z</time>
      </trkpt>
      <trkpt lat="39.9186593" lon="3.106405">
        <ele>126.6</ele>
        <time>2015-06-21T13:00:11Z</time>
      </trkpt>
      <trkpt lat="39.9185032" lon="3.1063217">
        <ele>125.4</ele>
        <time>2015-06-21T13:00:13Z</time>
      </trkpt>
      <trkpt lat="39.9183591" lon="3.1062326">
        <ele>124</ele>
        <time>2015-06-21T13:00:15Z</time>
      </trkpt>
      <trkpt lat="39.9181329" lon="3.1060621">
        <ele>122.4</ele>
        <time>2015-06-21T13:00:18Z</time>
      </trkpt>
      <trkpt lat="39.9179889" lon="3.1059507">
        <ele>121.2</ele>
        <time>2015-06-21T13:00:20Z</time>
      </trkpt>
      <trkpt lat="39.9179277" lon="3.1059034">
        <ele>120.8</ele>
        <time>2015-06-21T13:00:21Z</time>
      </trkpt>
      <trkpt lat="39.9178613" lon="3.1058502">
        <ele>120.2</ele>
        <time>2015-06-21T13:00:22Z</time>
      </trkpt>
      <trkpt lat="39.917767" lon="3.1057753">
        <ele>118.4</ele>
        <time>2015-06-21T13:00:24Z</time>
      </trkpt>
      <trkpt lat="39.9177246" lon="3.1057456">
        <ele>117.4</ele>
        <time>2015-06-21T13:00:25Z</time>
      </trkpt>
      <trkpt lat="39.9176854" lon="3.1057234">
        <ele>123.2</ele>
        <time>2015-06-21T13:00:26Z</time>
      </trkpt>
      <trkpt lat="39.9176362" lon="3.1056993">
        <ele>126</ele>
        <time>2015-06-21T13:00:27Z</time>
      </trkpt>
      <trkpt lat="39.9175872" lon="3.1056777">
        <ele>128.8</ele>
        <time>2015-06-21T13:00:28Z</time>
      </trkpt>
      <trkpt lat="39.9175385" lon="3.1056554">
        <ele>130.4</ele>
        <time>2015-06-21T13:00:29Z</time>
      </trkpt>
      <trkpt lat="39.9174857" lon="3.1056306">
        <ele>127.2</ele>
        <time>2015-06-21T13:00:30Z</time>
      </trkpt>
      <trkpt lat="39.917435" lon="3.1056106">
        <ele>122</ele>
        <time>2015-06-21T13:00:31Z</time>
      </trkpt>
      <trkpt lat="39.9173799" lon="3.1055929">
        <ele>118.4</ele>
        <time>2015-06-21T13:00:32Z</time>
      </trkpt>
      <trkpt lat="39.9173353" lon="3.10558">
        <ele>115.4</ele>
        <time>2015-06-21T13:00:33Z</time>
      </trkpt>
      <trkpt lat="39.9172852" lon="3.1055716">
        <ele>115</ele>
        <time>2015-06-21T13:00:34Z</time>
      </trkpt>
      <trkpt lat="39.9172387" lon="3.1055722">
        <ele>114.4</ele>
        <time>2015-06-21T13:00:35Z</time>
      </trkpt>
      <trkpt lat="39.9171967" lon="3.1055784">
        <ele>114</ele>
        <time>2015-06-21T13:00:36Z</time>
      </trkpt>
      <trkpt lat="39.9170895" lon="3.1056573">
        <ele>113</ele>
        <time>2015-06-21T13:00:39Z</time>
      </trkpt>
      <trkpt lat="39.91704" lon="3.1058147">
        <ele>111.8</ele>
        <time>2015-06-21T13:00:42Z</time>
      </trkpt>
      <trkpt lat="39.9170388" lon="3.1058807">
        <ele>111.4</ele>
        <time>2015-06-21T13:00:43Z</time>
      </trkpt>
      <trkpt lat="39.9170508" lon="3.106012">
        <ele>109.8</ele>
        <time>2015-06-21T13:00:45Z</time>
      </trkpt>
      <trkpt lat="39.917059" lon="3.1060864">
        <ele>104.6</ele>
        <time>2015-06-21T13:00:46Z</time>
      </trkpt>
      <trkpt lat="39.9170718" lon="3.1061689">
        <ele>104.2</ele>
        <time>2015-06-21T13:00:47Z</time>
      </trkpt>
      <trkpt lat="39.9171251" lon="3.1064145">
        <ele>106.4</ele>
        <time>2015-06-21T13:00:50Z</time>
      </trkpt>
      <trkpt lat="39.9171403" lon="3.106492">
        <ele>110</ele>
        <time>2015-06-21T13:00:51Z</time>
      </trkpt>
      <trkpt lat="39.9171585" lon="3.1065835">
        <ele>110.2</ele>
        <time>2015-06-21T13:00:52Z</time>
      </trkpt>
      <trkpt lat="39.9171986" lon="3.1068273">
        <ele>108.8</ele>
        <time>2015-06-21T13:00:55Z</time>
      </trkpt>
      <trkpt lat="39.917198" lon="3.1069001">
        <ele>108</ele>
        <time>2015-06-21T13:00:56Z</time>
      </trkpt>
      <trkpt lat="39.917182" lon="3.1069822">
        <ele>107.4</ele>
        <time>2015-06-21T13:00:57Z</time>
      </trkpt>
      <trkpt lat="39.917096" lon="3.1071188">
        <ele>106.2</ele>
        <time>2015-06-21T13:00:59Z</time>
      </trkpt>
      <trkpt lat="39.9170481" lon="3.1071738">
        <ele>105.4</ele>
        <time>2015-06-21T13:01:00Z</time>
      </trkpt>
      <trkpt lat="39.9170025" lon="3.1072272">
        <ele>104.4</ele>
        <time>2015-06-21T13:01:01Z</time>
      </trkpt>
      <trkpt lat="39.9169125" lon="3.1073344">
        <ele>103</ele>
        <time>2015-06-21T13:01:03Z</time>
      </trkpt>
      <trkpt lat="39.916829" lon="3.1074474">
        <ele>102</ele>
        <time>2015-06-21T13:01:05Z</time>
      </trkpt>
      <trkpt lat="39.916753" lon="3.1075489">
        <ele>101.4</ele>
        <time>2015-06-21T13:01:07Z</time>
      </trkpt>
      <trkpt lat="39.9165507" lon="3.107813">
        <ele>100.6</ele>
        <time>2015-06-21T13:01:12Z</time>
      </trkpt>
      <trkpt lat="39.9164665" lon="3.1079114">
        <ele>99.8</ele>
        <time>2015-06-21T13:01:14Z</time>
      </trkpt>
      <trkpt lat="39.9164141" lon="3.1079432">
        <ele>99.4</ele>
        <time>2015-06-21T13:01:15Z</time>
      </trkpt>
      <trkpt lat="39.916228" lon="3.1079089">
        <ele>98.6</ele>
        <time>2015-06-21T13:01:18Z</time>
      </trkpt>
      <trkpt lat="39.9161269" lon="3.1077706">
        <ele>98.4</ele>
        <time>2015-06-21T13:01:20Z</time>
      </trkpt>
      <trkpt lat="39.9160798" lon="3.1077044">
        <ele>97.8</ele>
        <time>2015-06-21T13:01:21Z</time>
      </trkpt>
      <trkpt lat="39.9159277" lon="3.1074884">
        <ele>96</ele>
        <time>2015-06-21T13:01:24Z</time>
      </trkpt>
      <trkpt lat="39.9158359" lon="3.1073767">
        <ele>95</ele>
        <time>2015-06-21T13:01:26Z</time>
      </trkpt>
      <trkpt lat="39.9157318" lon="3.1072596">
        <ele>93.8</ele>
        <time>2015-06-21T13:01:28Z</time>
      </trkpt>
      <trkpt lat="39.9156305" lon="3.1071465">
        <ele>92.6</ele>
        <time>2015-06-21T13:01:30Z</time>
      </trkpt>
      <trkpt lat="39.9154769" lon="3.1069755">
        <ele>91.2</ele>
        <time>2015-06-21T13:01:33Z</time>
      </trkpt>
      <trkpt lat="39.9153648" lon="3.1068499">
        <ele>90</ele>
        <time>2015-06-21T13:01:35Z</time>
      </trkpt>
      <trkpt lat="39.9153111" lon="3.1067911">
        <ele>89.6</ele>
        <time>2015-06-21T13:01:36Z</time>
      </trkpt>
      <trkpt lat="39.9151984" lon="3.106664">
        <ele>88.6</ele>
        <time>2015-06-21T13:01:38Z</time>
      </trkpt>
      <trkpt lat="39.9150442" lon="3.1064915">
        <ele>87</ele>
        <time>2015-06-21T13:01:41Z</time>
      </trkpt>
      <trkpt lat="39.9149196" lon="3.1063558">
        <ele>86</ele>
        <time>2015-06-21T13:01:43Z</time>
      </trkpt>
      <trkpt lat="39.9148643" lon="3.1062872">
        <ele>85.4</ele>
        <time>2015-06-21T13:01:44Z</time>
      </trkpt>
      <trkpt lat="39.9147683" lon="3.106145">
        <ele>84</ele>
        <time>2015-06-21T13:01:46Z</time>
      </trkpt>
      <trkpt lat="39.9146609" lon="3.1059831">
        <ele>82.8</ele>
        <time>2015-06-21T13:01:48Z</time>
      </trkpt>
      <trkpt lat="39.9145512" lon="3.1058374">
        <ele>79.6</ele>
        <time>2015-06-21T13:01:50Z</time>
      </trkpt>
      <trkpt lat="39.9144995" lon="3.1057773">
        <ele>81.2</ele>
        <time>2015-06-21T13:01:51Z</time>
      </trkpt>
      <trkpt lat="39.9143693" lon="3.1056493">
        <ele>80</ele>
        <time>2015-06-21T13:01:53Z</time>
      </trkpt>
      <trkpt lat="39.9142381" lon="3.1055344">
        <ele>81</ele>
        <time>2015-06-21T13:01:55Z</time>
      </trkpt>
      <trkpt lat="39.9141798" lon="3.1054832">
        <ele>76.6</ele>
        <time>2015-06-21T13:01:56Z</time>
      </trkpt>
      <trkpt lat="39.9141124" lon="3.1054234">
        <ele>81.6</ele>
        <time>2015-06-21T13:01:57Z</time>
      </trkpt>
      <trkpt lat="39.9139247" lon="3.1052585">
        <ele>80</ele>
        <time>2015-06-21T13:02:00Z</time>
      </trkpt>
      <trkpt lat="39.9138706" lon="3.105211">
        <ele>81.2</ele>
        <time>2015-06-21T13:02:01Z</time>
      </trkpt>
      <trkpt lat="39.9138119" lon="3.1051616">
        <ele>75.2</ele>
        <time>2015-06-21T13:02:02Z</time>
      </trkpt>
      <trkpt lat="39.9136991" lon="3.1050715">
        <ele>77.4</ele>
        <time>2015-06-21T13:02:04Z</time>
      </trkpt>
      <trkpt lat="39.913642" lon="3.1050306">
        <ele>80.6</ele>
        <time>2015-06-21T13:02:05Z</time>
      </trkpt>
      <trkpt lat="39.9135933" lon="3.1050023">
        <ele>83.2</ele>
        <time>2015-06-21T13:02:06Z</time>
      </trkpt>
      <trkpt lat="39.9135227" lon="3.1049684">
        <ele>84.2</ele>
        <time>2015-06-21T13:02:07Z</time>
      </trkpt>
      <trkpt lat="39.9134609" lon="3.1049429">
        <ele>86.8</ele>
        <time>2015-06-21T13:02:08Z</time>
      </trkpt>
      <trkpt lat="39.9133982" lon="3.1049213">
        <ele>84.8</ele>
        <time>2015-06-21T13:02:09Z</time>
      </trkpt>
      <trkpt lat="39.913335" lon="3.1049035">
        <ele>83</ele>
        <time>2015-06-21T13:02:10Z</time>
      </trkpt>
      <trkpt lat="39.9132775" lon="3.104891">
        <ele>81</ele>
        <time>2015-06-21T13:02:11Z</time>
      </trkpt>
      <trkpt lat="39.9132075" lon="3.1048781">
        <ele>79.4</ele>
        <time>2015-06-21T13:02:12Z</time>
      </trkpt>
      <trkpt lat="39.9131423" lon="3.1048654">
        <ele>76</ele>
        <time>2015-06-21T13:02:13Z</time>
      </trkpt>
      <trkpt lat="39.913075" lon="3.104847">
        <ele>72.8</ele>
        <time>2015-06-21T13:02:14Z</time>
      </trkpt>
      <trkpt lat="39.9130105" lon="3.1048199">
        <ele>76.8</ele>
        <time>2015-06-21T13:02:15Z</time>
      </trkpt>
      <trkpt lat="39.9129499" lon="3.1047817">
        <ele>74.8</ele>
        <time>2015-06-21T13:02:16Z</time>
      </trkpt>
      <trkpt lat="39.9128878" lon="3.1047311">
        <ele>74.6</ele>
        <time>2015-06-21T13:02:17Z</time>
      </trkpt>
      <trkpt lat="39.912834" lon="3.1046796">
        <ele>70.4</ele>
        <time>2015-06-21T13:02:18Z</time>
      </trkpt>
      <trkpt lat="39.9127792" lon="3.1046268">
        <ele>65.8</ele>
        <time>2015-06-21T13:02:19Z</time>
      </trkpt>
      <trkpt lat="39.9127239" lon="3.1045764">
        <ele>57.8</ele>
        <time>2015-06-21T13:02:20Z</time>
      </trkpt>
      <trkpt lat="39.9126751" lon="3.1045337">
        <ele>55.6</ele>
        <time>2015-06-21T13:02:21Z</time>
      </trkpt>
      <trkpt lat="39.9126169" lon="3.1044882">
        <ele>53.8</ele>
        <time>2015-06-21T13:02:22Z</time>
      </trkpt>
      <trkpt lat="39.9125587" lon="3.1044528">
        <ele>49</ele>
        <time>2015-06-21T13:02:23Z</time>
      </trkpt>
      <trkpt lat="39.9124993" lon="3.1044247">
        <ele>45.8</ele>
        <time>2015-06-21T13:02:24Z</time>
      </trkpt>
      <trkpt lat="39.9124413" lon="3.104401">
        <ele>43.8</ele>
        <time>2015-06-21T13:02:25Z</time>
      </trkpt>
      <trkpt lat="39.9123891" lon="3.1043832">
        <ele>37.4</ele>
        <time>2015-06-21T13:02:26Z</time>
      </trkpt>
      <trkpt lat="39.9123289" lon="3.1043642">
        <ele>33.8</ele>
        <time>2015-06-21T13:02:27Z</time>
      </trkpt>
      <trkpt lat="39.912274" lon="3.1043508">
        <ele>36.2</ele>
        <time>2015-06-21T13:02:28Z</time>
      </trkpt>
      <trkpt lat="39.9122206" lon="3.1043429">
        <ele>27.2</ele>
        <time>2015-06-21T13:02:29Z</time>
      </trkpt>
      <trkpt lat="39.9121721" lon="3.1043381">
        <ele>28.2</ele>
        <time>2015-06-21T13:02:30Z</time>
      </trkpt>
      <trkpt lat="39.9121287" lon="3.1043333">
        <ele>36.2</ele>
        <time>2015-06-21T13:02:31Z</time>
      </trkpt>
      <trkpt lat="39.9120823" lon="3.1043299">
        <ele>42.8</ele>
        <time>2015-06-21T13:02:32Z</time>
      </trkpt>
      <trkpt lat="39.9120414" lon="3.1043261">
        <ele>45.4</ele>
        <time>2015-06-21T13:02:33Z</time>
      </trkpt>
      <trkpt lat="39.9119967" lon="3.1043241">
        <ele>59.4</ele>
        <time>2015-06-21T13:02:34Z</time>
      </trkpt>
      <trkpt lat="39.9119536" lon="3.1043234">
        <ele>61.6</ele>
        <time>2015-06-21T13:02:35Z</time>
      </trkpt>
      <trkpt lat="39.9117444" lon="3.1043192">
        <ele>60.8</ele>
        <time>2015-06-21T13:02:40Z</time>
      </trkpt>
      <trkpt lat="39.9116494" lon="3.1043185">
        <ele>60.4</ele>
        <time>2015-06-21T13:02:42Z</time>
      </trkpt>
      <trkpt lat="39.9114949" lon="3.1042797">
        <ele>59.8</ele>
        <time>2015-06-21T13:02:46Z</time>
      </trkpt>
      <trkpt lat="39.9115042" lon="3.1041334">
        <ele>59</ele>
        <time>2015-06-21T13:02:49Z</time>
      </trkpt>
      <trkpt lat="39.9116462" lon="3.1040897">
        <ele>58</ele>
        <time>2015-06-21T13:02:52Z</time>
      </trkpt>
      <trkpt lat="39.9116968" lon="3.1040873">
        <ele>57.6</ele>
        <time>2015-06-21T13:02:53Z</time>
      </trkpt>
      <trkpt lat="39.9118519" lon="3.1040782">
        <ele>56.8</ele>
        <time>2015-06-21T13:02:56Z</time>
      </trkpt>
      <trkpt lat="39.9120955" lon="3.1040655">
        <ele>55.6</ele>
        <time>2015-06-21T13:03:00Z</time>
      </trkpt>
      <trkpt lat="39.9123477" lon="3.1040734">
        <ele>54.4</ele>
        <time>2015-06-21T13:03:04Z</time>
      </trkpt>
      <trkpt lat="39.9125394" lon="3.1041067">
        <ele>53.6</ele>
        <time>2015-06-21T13:03:07Z</time>
      </trkpt>
      <trkpt lat="39.912604" lon="3.1041207">
        <ele>53.4</ele>
        <time>2015-06-21T13:03:08Z</time>
      </trkpt>
      <trkpt lat="39.9128671" lon="3.1041844">
        <ele>52.4</ele>
        <time>2015-06-21T13:03:12Z</time>
      </trkpt>
      <trkpt lat="39.9132006" lon="3.1042672">
        <ele>51.2</ele>
        <time>2015-06-21T13:03:17Z</time>
      </trkpt>
      <trkpt lat="39.9134551" lon="3.1043329">
        <ele>49.6</ele>
        <time>2015-06-21T13:03:21Z</time>
      </trkpt>
      <trkpt lat="39.9137327" lon="3.1044048">
        <ele>48.6</ele>
        <time>2015-06-21T13:03:25Z</time>
      </trkpt>
      <trkpt lat="39.9137952" lon="3.1044214">
        <ele>48.2</ele>
        <time>2015-06-21T13:03:26Z</time>
      </trkpt>
      <trkpt lat="39.9139439" lon="3.1044574">
        <ele>46.8</ele>
        <time>2015-06-21T13:03:28Z</time>
      </trkpt>
      <trkpt lat="39.9142318" lon="3.1045341">
        <ele>45.6</ele>
        <time>2015-06-21T13:03:32Z</time>
      </trkpt>
      <trkpt lat="39.9142973" lon="3.1045517">
        <ele>45.2</ele>
        <time>2015-06-21T13:03:33Z</time>
      </trkpt>
      <trkpt lat="39.914369" lon="3.1045685">
        <ele>44.4</ele>
        <time>2015-06-21T13:03:34Z</time>
      </trkpt>
      <trkpt lat="39.9145755" lon="3.1046208">
        <ele>43.2</ele>
        <time>2015-06-21T13:03:37Z</time>
      </trkpt>
      <trkpt lat="39.9146901" lon="3.1046569">
        <ele>42.8</ele>
        <time>2015-06-21T13:03:39Z</time>
      </trkpt>
      <trkpt lat="39.9147997" lon="3.1046377">
        <ele>42</ele>
        <time>2015-06-21T13:03:41Z</time>
      </trkpt>
      <trkpt lat="39.9148479" lon="3.1045862">
        <ele>41.8</ele>
        <time>2015-06-21T13:03:42Z</time>
      </trkpt>
      <trkpt lat="39.9148723" lon="3.1043601">
        <ele>42</ele>
        <time>2015-06-21T13:03:45Z</time>
      </trkpt>
      <trkpt lat="39.9147617" lon="3.1042154">
        <ele>42</ele>
        <time>2015-06-21T13:03:47Z</time>
      </trkpt>
      <trkpt lat="39.9146016" lon="3.1040963">
        <ele>40.6</ele>
        <time>2015-06-21T13:03:49Z</time>
      </trkpt>
      <trkpt lat="39.9144276" lon="3.1039744">
        <ele>38.2</ele>
        <time>2015-06-21T13:03:51Z</time>
      </trkpt>
      <trkpt lat="39.9143173" lon="3.1038981">
        <ele>36.8</ele>
        <time>2015-06-21T13:03:52Z</time>
      </trkpt>
      <trkpt lat="39.9142161" lon="3.1038281">
        <ele>35.6</ele>
        <time>2015-06-21T13:03:53Z</time>
      </trkpt>
      <trkpt lat="39.9141124" lon="3.103754">
        <ele>34.4</ele>
        <time>2015-06-21T13:03:54Z</time>
      </trkpt>
      <trkpt lat="39.9139231" lon="3.1036203">
        <ele>33.2</ele>
        <time>2015-06-21T13:03:56Z</time>
      </trkpt>
      <trkpt lat="39.913813" lon="3.1035434">
        <ele>32.6</ele>
        <time>2015-06-21T13:03:57Z</time>
      </trkpt>
      <trkpt lat="39.9137131" lon="3.103473">
        <ele>31.8</ele>
        <time>2015-06-21T13:03:58Z</time>
      </trkpt>
      <trkpt lat="39.9135307" lon="3.1033472">
        <ele>30.6</ele>
        <time>2015-06-21T13:04:00Z</time>
      </trkpt>
      <trkpt lat="39.9133483" lon="3.1032174">
        <ele>29.2</ele>
        <time>2015-06-21T13:04:02Z</time>
      </trkpt>
      <trkpt lat="39.9131711" lon="3.103093">
        <ele>28</ele>
        <time>2015-06-21T13:04:04Z</time>
      </trkpt>
      <trkpt lat="39.9129988" lon="3.1029705">
        <ele>26.6</ele>
        <time>2015-06-21T13:04:06Z</time>
      </trkpt>
      <trkpt lat="39.9128266" lon="3.1028498">
        <ele>25.6</ele>
        <time>2015-06-21T13:04:08Z</time>
      </trkpt>
      <trkpt lat="39.912606" lon="3.1026719">
        <ele>25</ele>
        <time>2015-06-21T13:04:11Z</time>
      </trkpt>
      <trkpt lat="39.9125292" lon="3.1025991">
        <ele>24.4</ele>
        <time>2015-06-21T13:04:12Z</time>
      </trkpt>
      <trkpt lat="39.9124012" lon="3.1024476">
        <ele>23</ele>
        <time>2015-06-21T13:04:14Z</time>
      </trkpt>
      <trkpt lat="39.9123507" lon="3.1023623">
        <ele>22.6</ele>
        <time>2015-06-21T13:04:15Z</time>
      </trkpt>
      <trkpt lat="39.912278" lon="3.1021476">
        <ele>21.6</ele>
        <time>2015-06-21T13:04:17Z</time>
      </trkpt>
      <trkpt lat="39.9122624" lon="3.1020355">
        <ele>21</ele>
        <time>2015-06-21T13:04:18Z</time>
      </trkpt>
      <trkpt lat="39.9122613" lon="3.101921">
        <ele>20.4</ele>
        <time>2015-06-21T13:04:19Z</time>
      </trkpt>
      <trkpt lat="39.9122888" lon="3.1017132">
        <ele>19.2</ele>
        <time>2015-06-21T13:04:21Z</time>
      </trkpt>
      <trkpt lat="39.9123097" lon="3.101594">
        <ele>18.8</ele>
        <time>2015-06-21T13:04:22Z</time>
      </trkpt>
      <trkpt lat="39.9124216" lon="3.1011196">
        <ele>19.2</ele>
        <time>2015-06-21T13:04:27Z</time>
      </trkpt>
      <trkpt lat="39.9125381" lon="3.100641">
        <ele>20.2</ele>
        <time>2015-06-21T13:04:33Z</time>
      </trkpt>
      <trkpt lat="39.9126708" lon="3.1001103">
        <ele>20.4</ele>
        <time>2015-06-21T13:04:41Z</time>
      </trkpt>
      <trkpt lat="39.9127905" lon="3.0998387">
        <ele>20</ele>
        <time>2015-06-21T13:04:46Z</time>
      </trkpt>
      <trkpt lat="39.9128222" lon="3.0997948">
        <ele>19.6</ele>
        <time>2015-06-21T13:04:47Z</time>
      </trkpt>
      <trkpt lat="39.9128838" lon="3.0997228">
        <ele>19.2</ele>
        <time>2015-06-21T13:04:49Z</time>
      </trkpt>
      <trkpt lat="39.9129629" lon="3.0995481">
        <ele>19.8</ele>
        <time>2015-06-21T13:04:53Z</time>
      </trkpt>
      <trkpt lat="39.912968" lon="3.0994954">
        <ele>20.2</ele>
        <time>2015-06-21T13:04:54Z</time>
      </trkpt>
      <trkpt lat="39.9129771" lon="3.099338">
        <ele>19.8</ele>
        <time>2015-06-21T13:04:57Z</time>
      </trkpt>
      <trkpt lat="39.9129987" lon="3.0992303">
        <ele>19.8</ele>
        <time>2015-06-21T13:04:59Z</time>
      </trkpt>
      <trkpt lat="39.9130762" lon="3.0989365">
        <ele>19.2</ele>
        <time>2015-06-21T13:05:04Z</time>
      </trkpt>
      <trkpt lat="39.9131101" lon="3.0988129">
        <ele>18.8</ele>
        <time>2015-06-21T13:05:06Z</time>
      </trkpt>
      <trkpt lat="39.9132567" lon="3.0982017">
        <ele>19.2</ele>
        <time>2015-06-21T13:05:15Z</time>
      </trkpt>
      <trkpt lat="39.9132658" lon="3.0981316">
        <ele>19.2</ele>
        <time>2015-06-21T13:05:16Z</time>
      </trkpt>
      <trkpt lat="39.9132918" lon="3.0979897">
        <ele>19.2</ele>
        <time>2015-06-21T13:05:18Z</time>
      </trkpt>
      <trkpt lat="39.9133077" lon="3.0979236">
        <ele>19.4</ele>
        <time>2015-06-21T13:05:19Z</time>
      </trkpt>
      <trkpt lat="39.9134274" lon="3.0973688">
        <ele>19.4</ele>
        <time>2015-06-21T13:05:27Z</time>
      </trkpt>
      <trkpt lat="39.9135565" lon="3.0968598">
        <ele>19.4</ele>
        <time>2015-06-21T13:05:34Z</time>
      </trkpt>
      <trkpt lat="39.913697" lon="3.0962229">
        <ele>20.2</ele>
        <time>2015-06-21T13:05:42Z</time>
      </trkpt>
      <trkpt lat="39.9138156" lon="3.0955167">
        <ele>20.8</ele>
        <time>2015-06-21T13:05:51Z</time>
      </trkpt>
      <trkpt lat="39.9138747" lon="3.0948853">
        <ele>20</ele>
        <time>2015-06-21T13:05:58Z</time>
      </trkpt>
      <trkpt lat="39.9138954" lon="3.094357">
        <ele>19.2</ele>
        <time>2015-06-21T13:06:04Z</time>
      </trkpt>
      <trkpt lat="39.913898" lon="3.0942604">
        <ele>19.2</ele>
        <time>2015-06-21T13:06:05Z</time>
      </trkpt>
      <trkpt lat="39.9138807" lon="3.0937785">
        <ele>19</ele>
        <time>2015-06-21T13:06:10Z</time>
      </trkpt>
      <trkpt lat="39.9138422" lon="3.0929945">
        <ele>19</ele>
        <time>2015-06-21T13:06:18Z</time>
      </trkpt>
      <trkpt lat="39.913816" lon="3.0923754">
        <ele>20</ele>
        <time>2015-06-21T13:06:25Z</time>
      </trkpt>
      <trkpt lat="39.9138119" lon="3.0923003">
        <ele>20.6</ele>
        <time>2015-06-21T13:06:26Z</time>
      </trkpt>
      <trkpt lat="39.9138032" lon="3.0920465">
        <ele>21.6</ele>
        <time>2015-06-21T13:06:29Z</time>
      </trkpt>
      <trkpt lat="39.9137934" lon="3.0917335">
        <ele>22.2</ele>
        <time>2015-06-21T13:06:33Z</time>
      </trkpt>
      <trkpt lat="39.91378" lon="3.0914975">
        <ele>22.6</ele>
        <time>2015-06-21T13:06:36Z</time>
      </trkpt>
      <trkpt lat="39.9137588" lon="3.0911057">
        <ele>23</ele>
        <time>2015-06-21T13:06:41Z</time>
      </trkpt>
      <trkpt lat="39.9137234" lon="3.0904741">
        <ele>23</ele>
        <time>2015-06-21T13:06:49Z</time>
      </trkpt>
      <trkpt lat="39.9136729" lon="3.0897061">
        <ele>22.2</ele>
        <time>2015-06-21T13:06:58Z</time>
      </trkpt>
      <trkpt lat="39.9136663" lon="3.0896131">
        <ele>22</ele>
        <time>2015-06-21T13:06:59Z</time>
      </trkpt>
      <trkpt lat="39.9136525" lon="3.0893321">
        <ele>21.2</ele>
        <time>2015-06-21T13:07:02Z</time>
      </trkpt>
      <trkpt lat="39.9136346" lon="3.0890547">
        <ele>20.4</ele>
        <time>2015-06-21T13:07:05Z</time>
      </trkpt>
      <trkpt lat="39.9136138" lon="3.0884635">
        <ele>21.6</ele>
        <time>2015-06-21T13:07:12Z</time>
      </trkpt>
      <trkpt lat="39.9136016" lon="3.0881645">
        <ele>19.8</ele>
        <time>2015-06-21T13:07:16Z</time>
      </trkpt>
      <trkpt lat="39.9135932" lon="3.088027">
        <ele>20.2</ele>
        <time>2015-06-21T13:07:18Z</time>
      </trkpt>
      <trkpt lat="39.9135801" lon="3.0878385">
        <ele>21</ele>
        <time>2015-06-21T13:07:21Z</time>
      </trkpt>
      <trkpt lat="39.9135739" lon="3.0875166">
        <ele>20.8</ele>
        <time>2015-06-21T13:07:26Z</time>
      </trkpt>
      <trkpt lat="39.9135166" lon="3.0869731">
        <ele>20.6</ele>
        <time>2015-06-21T13:07:34Z</time>
      </trkpt>
      <trkpt lat="39.9134397" lon="3.0865369">
        <ele>19.8</ele>
        <time>2015-06-21T13:07:40Z</time>
      </trkpt>
      <trkpt lat="39.9134271" lon="3.0864681">
        <ele>19.6</ele>
        <time>2015-06-21T13:07:41Z</time>
      </trkpt>
      <trkpt lat="39.9132993" lon="3.0859303">
        <ele>20.6</ele>
        <time>2015-06-21T13:07:48Z</time>
      </trkpt>
      <trkpt lat="39.9131292" lon="3.0853589">
        <ele>19</ele>
        <time>2015-06-21T13:07:56Z</time>
      </trkpt>
      <trkpt lat="39.9129026" lon="3.0847803">
        <ele>19.6</ele>
        <time>2015-06-21T13:08:04Z</time>
      </trkpt>
      <trkpt lat="39.9128224" lon="3.0845598">
        <ele>20.2</ele>
        <time>2015-06-21T13:08:07Z</time>
      </trkpt>
      <trkpt lat="39.9128142" lon="3.0844124">
        <ele>20</ele>
        <time>2015-06-21T13:08:09Z</time>
      </trkpt>
      <trkpt lat="39.9128117" lon="3.0841913">
        <ele>19.6</ele>
        <time>2015-06-21T13:08:12Z</time>
      </trkpt>
      <trkpt lat="39.9127697" lon="3.0840569">
        <ele>19.6</ele>
        <time>2015-06-21T13:08:14Z</time>
      </trkpt>
      <trkpt lat="39.9126392" lon="3.0839093">
        <ele>20.4</ele>
        <time>2015-06-21T13:08:17Z</time>
      </trkpt>
      <trkpt lat="39.9125844" lon="3.0838714">
        <ele>20.4</ele>
        <time>2015-06-21T13:08:18Z</time>
      </trkpt>
      <trkpt lat="39.9124831" lon="3.0837685">
        <ele>20.2</ele>
        <time>2015-06-21T13:08:20Z</time>
      </trkpt>
      <trkpt lat="39.9124465" lon="3.0837107">
        <ele>20</ele>
        <time>2015-06-21T13:08:21Z</time>
      </trkpt>
      <trkpt lat="39.9121951" lon="3.0832223">
        <ele>19</ele>
        <time>2015-06-21T13:08:28Z</time>
      </trkpt>
      <trkpt lat="39.912018" lon="3.0828958">
        <ele>18.8</ele>
        <time>2015-06-21T13:08:33Z</time>
      </trkpt>
      <trkpt lat="39.9119043" lon="3.082695">
        <ele>17.6</ele>
        <time>2015-06-21T13:08:36Z</time>
      </trkpt>
      <trkpt lat="39.9115651" lon="3.0820965">
        <ele>18.2</ele>
        <time>2015-06-21T13:08:45Z</time>
      </trkpt>
      <trkpt lat="39.9115239" lon="3.0820307">
        <ele>18.2</ele>
        <time>2015-06-21T13:08:46Z</time>
      </trkpt>
      <trkpt lat="39.9111481" lon="3.0814398">
        <ele>18.4</ele>
        <time>2015-06-21T13:08:55Z</time>
      </trkpt>
      <trkpt lat="39.91111" lon="3.0813798">
        <ele>18.4</ele>
        <time>2015-06-21T13:08:56Z</time>
      </trkpt>
      <trkpt lat="39.910745" lon="3.0808429">
        <ele>18.6</ele>
        <time>2015-06-21T13:09:04Z</time>
      </trkpt>
      <trkpt lat="39.9103526" lon="3.0803135">
        <ele>18.2</ele>
        <time>2015-06-21T13:09:12Z</time>
      </trkpt>
      <trkpt lat="39.9099447" lon="3.0797825">
        <ele>17.8</ele>
        <time>2015-06-21T13:09:20Z</time>
      </trkpt>
      <trkpt lat="39.9095805" lon="3.0793491">
        <ele>17.4</ele>
        <time>2015-06-21T13:09:27Z</time>
      </trkpt>
      <trkpt lat="39.9094393" lon="3.079146">
        <ele>17</ele>
        <time>2015-06-21T13:09:30Z</time>
      </trkpt>
      <trkpt lat="39.9093826" lon="3.0789898">
        <ele>16.6</ele>
        <time>2015-06-21T13:09:32Z</time>
      </trkpt>
      <trkpt lat="39.9093644" lon="3.0789165">
        <ele>16.6</ele>
        <time>2015-06-21T13:09:33Z</time>
      </trkpt>
      <trkpt lat="39.9093431" lon="3.078832">
        <ele>16.6</ele>
        <time>2015-06-21T13:09:34Z</time>
      </trkpt>
      <trkpt lat="39.9092761" lon="3.0786226">
        <ele>16.6</ele>
        <time>2015-06-21T13:09:37Z</time>
      </trkpt>
      <trkpt lat="39.9092399" lon="3.0785657">
        <ele>16.4</ele>
        <time>2015-06-21T13:09:38Z</time>
      </trkpt>
      <trkpt lat="39.9090727" lon="3.0784853">
        <ele>16.2</ele>
        <time>2015-06-21T13:09:41Z</time>
      </trkpt>
      <trkpt lat="39.908932" lon="3.0784756">
        <ele>16.2</ele>
        <time>2015-06-21T13:09:43Z</time>
      </trkpt>
      <trkpt lat="39.9087222" lon="3.0784397">
        <ele>16</ele>
        <time>2015-06-21T13:09:46Z</time>
      </trkpt>
      <trkpt lat="39.9084634" lon="3.0782474">
        <ele>15.8</ele>
        <time>2015-06-21T13:09:50Z</time>
      </trkpt>
      <trkpt lat="39.9082849" lon="3.0780804">
        <ele>15.4</ele>
        <time>2015-06-21T13:09:53Z</time>
      </trkpt>
      <trkpt lat="39.9079841" lon="3.0778065">
        <ele>15.2</ele>
        <time>2015-06-21T13:09:58Z</time>
      </trkpt>
      <trkpt lat="39.907516" lon="3.0773936">
        <ele>14.8</ele>
        <time>2015-06-21T13:10:05Z</time>
      </trkpt>
      <trkpt lat="39.9072229" lon="3.0771481">
        <ele>14.4</ele>
        <time>2015-06-21T13:10:09Z</time>
      </trkpt>
      <trkpt lat="39.9069189" lon="3.0769127">
        <ele>13.2</ele>
        <time>2015-06-21T13:10:13Z</time>
      </trkpt>
      <trkpt lat="39.9068447" lon="3.0768577">
        <ele>13</ele>
        <time>2015-06-21T13:10:14Z</time>
      </trkpt>
      <trkpt lat="39.9063398" lon="3.0764901">
        <ele>12.8</ele>
        <time>2015-06-21T13:10:21Z</time>
      </trkpt>
      <trkpt lat="39.9061779" lon="3.0763736">
        <ele>13.2</ele>
        <time>2015-06-21T13:10:23Z</time>
      </trkpt>
      <trkpt lat="39.9058403" lon="3.0761446">
        <ele>13.2</ele>
        <time>2015-06-21T13:10:28Z</time>
      </trkpt>
      <trkpt lat="39.9053664" lon="3.075796">
        <ele>13.2</ele>
        <time>2015-06-21T13:10:35Z</time>
      </trkpt>
      <trkpt lat="39.9049991" lon="3.0755422">
        <ele>13</ele>
        <time>2015-06-21T13:10:41Z</time>
      </trkpt>
      <trkpt lat="39.9049011" lon="3.0754458">
        <ele>13.2</ele>
        <time>2015-06-21T13:10:43Z</time>
      </trkpt>
      <trkpt lat="39.9048319" lon="3.0753301">
        <ele>13.8</ele>
        <time>2015-06-21T13:10:45Z</time>
      </trkpt>
      <trkpt lat="39.9047922" lon="3.0751743">
        <ele>14.4</ele>
        <time>2015-06-21T13:10:47Z</time>
      </trkpt>
      <trkpt lat="39.9047381" lon="3.0750243">
        <ele>14.6</ele>
        <time>2015-06-21T13:10:49Z</time>
      </trkpt>
      <trkpt lat="39.9045899" lon="3.0749018">
        <ele>14.2</ele>
        <time>2015-06-21T13:10:52Z</time>
      </trkpt>
      <trkpt lat="39.9044263" lon="3.0749032">
        <ele>14</ele>
        <time>2015-06-21T13:10:55Z</time>
      </trkpt>
      <trkpt lat="39.9042896" lon="3.0750106">
        <ele>13.8</ele>
        <time>2015-06-21T13:10:58Z</time>
      </trkpt>
      <trkpt lat="39.9042485" lon="3.0750596">
        <ele>13.8</ele>
        <time>2015-06-21T13:10:59Z</time>
      </trkpt>
      <trkpt lat="39.9041566" lon="3.0751377">
        <ele>13.6</ele>
        <time>2015-06-21T13:11:01Z</time>
      </trkpt>
      <trkpt lat="39.9040446" lon="3.0751492">
        <ele>13.6</ele>
        <time>2015-06-21T13:11:03Z</time>
      </trkpt>
      <trkpt lat="39.9039296" lon="3.0751107">
        <ele>14</ele>
        <time>2015-06-21T13:11:05Z</time>
      </trkpt>
      <trkpt lat="39.9037579" lon="3.0750425">
        <ele>14.4</ele>
        <time>2015-06-21T13:11:08Z</time>
      </trkpt>
      <trkpt lat="39.9032076" lon="3.0748134">
        <ele>15</ele>
        <time>2015-06-21T13:11:17Z</time>
      </trkpt>
      <trkpt lat="39.9029597" lon="3.0747108">
        <ele>15.4</ele>
        <time>2015-06-21T13:11:21Z</time>
      </trkpt>
      <trkpt lat="39.9025132" lon="3.0745396">
        <ele>15.6</ele>
        <time>2015-06-21T13:11:28Z</time>
      </trkpt>
      <trkpt lat="39.9019407" lon="3.0743319">
        <ele>16</ele>
        <time>2015-06-21T13:11:37Z</time>
      </trkpt>
      <trkpt lat="39.9015585" lon="3.0741994">
        <ele>16.6</ele>
        <time>2015-06-21T13:11:43Z</time>
      </trkpt>
      <trkpt lat="39.9012898" lon="3.0741103">
        <ele>16.8</ele>
        <time>2015-06-21T13:11:47Z</time>
      </trkpt>
      <trkpt lat="39.9007568" lon="3.0739439">
        <ele>16.4</ele>
        <time>2015-06-21T13:11:55Z</time>
      </trkpt>
      <trkpt lat="39.9003507" lon="3.0738295">
        <ele>16.4</ele>
        <time>2015-06-21T13:12:01Z</time>
      </trkpt>
      <trkpt lat="39.900147" lon="3.07376">
        <ele>15.6</ele>
        <time>2015-06-21T13:12:04Z</time>
      </trkpt>
      <trkpt lat="39.9000837" lon="3.0737203">
        <ele>15.6</ele>
        <time>2015-06-21T13:12:05Z</time>
      </trkpt>
      <trkpt lat="39.9000303" lon="3.0736707">
        <ele>15.4</ele>
        <time>2015-06-21T13:12:06Z</time>
      </trkpt>
      <trkpt lat="39.8998706" lon="3.0735008">
        <ele>15.8</ele>
        <time>2015-06-21T13:12:09Z</time>
      </trkpt>
      <trkpt lat="39.8996831" lon="3.0735177">
        <ele>15.2</ele>
        <time>2015-06-21T13:12:12Z</time>
      </trkpt>
      <trkpt lat="39.8995028" lon="3.0735812">
        <ele>15</ele>
        <time>2015-06-21T13:12:15Z</time>
      </trkpt>
      <trkpt lat="39.8993875" lon="3.0735592">
        <ele>15.2</ele>
        <time>2015-06-21T13:12:17Z</time>
      </trkpt>
      <trkpt lat="39.8990093" lon="3.0735088">
        <ele>15</ele>
        <time>2015-06-21T13:12:23Z</time>
      </trkpt>
      <trkpt lat="39.8986009" lon="3.0734855">
        <ele>14.8</ele>
        <time>2015-06-21T13:12:29Z</time>
      </trkpt>
      <trkpt lat="39.8982453" lon="3.0734665">
        <ele>14.4</ele>
        <time>2015-06-21T13:12:34Z</time>
      </trkpt>
      <trkpt lat="39.8981028" lon="3.0734627">
        <ele>13.8</ele>
        <time>2015-06-21T13:12:36Z</time>
      </trkpt>
      <trkpt lat="39.8977404" lon="3.0734578">
        <ele>14.2</ele>
        <time>2015-06-21T13:12:41Z</time>
      </trkpt>
      <trkpt lat="39.8972475" lon="3.073469">
        <ele>14.4</ele>
        <time>2015-06-21T13:12:48Z</time>
      </trkpt>
      <trkpt lat="39.8967056" lon="3.0735001">
        <ele>14.2</ele>
        <time>2015-06-21T13:12:56Z</time>
      </trkpt>
      <trkpt lat="39.8966402" lon="3.0735059">
        <ele>14.2</ele>
        <time>2015-06-21T13:12:57Z</time>
      </trkpt>
      <trkpt lat="39.8963177" lon="3.0735077">
        <ele>14.6</ele>
        <time>2015-06-21T13:13:02Z</time>
      </trkpt>
      <trkpt lat="39.8962618" lon="3.0734887">
        <ele>14.8</ele>
        <time>2015-06-21T13:13:03Z</time>
      </trkpt>
      <trkpt lat="39.8960905" lon="3.0733879">
        <ele>15.2</ele>
        <time>2015-06-21T13:13:06Z</time>
      </trkpt>
      <trkpt lat="39.8960252" lon="3.0733766">
        <ele>15.2</ele>
        <time>2015-06-21T13:13:07Z</time>
      </trkpt>
      <trkpt lat="39.8959019" lon="3.0734127">
        <ele>15.4</ele>
        <time>2015-06-21T13:13:09Z</time>
      </trkpt>
      <trkpt lat="39.8958411" lon="3.0734587">
        <ele>15.6</ele>
        <time>2015-06-21T13:13:10Z</time>
      </trkpt>
      <trkpt lat="39.8955954" lon="3.073569">
        <ele>14.4</ele>
        <time>2015-06-21T13:13:14Z</time>
      </trkpt>
      <trkpt lat="39.8955257" lon="3.0735706">
        <ele>14</ele>
        <time>2015-06-21T13:13:15Z</time>
      </trkpt>
      <trkpt lat="39.8954464" lon="3.0735732">
        <ele>13.6</ele>
        <time>2015-06-21T13:13:16Z</time>
      </trkpt>
      <trkpt lat="39.8951978" lon="3.0735783">
        <ele>13.4</ele>
        <time>2015-06-21T13:13:19Z</time>
      </trkpt>
      <trkpt lat="39.8946487" lon="3.0735914">
        <ele>14</ele>
        <time>2015-06-21T13:13:26Z</time>
      </trkpt>
      <trkpt lat="39.894573" lon="3.0735891">
        <ele>14</ele>
        <time>2015-06-21T13:13:27Z</time>
      </trkpt>
      <trkpt lat="39.8939857" lon="3.0735961">
        <ele>13.6</ele>
        <time>2015-06-21T13:13:35Z</time>
      </trkpt>
      <trkpt lat="39.8933848" lon="3.0736029">
        <ele>14.2</ele>
        <time>2015-06-21T13:13:43Z</time>
      </trkpt>
      <trkpt lat="39.8931625" lon="3.0736053">
        <ele>14</ele>
        <time>2015-06-21T13:13:46Z</time>
      </trkpt>
      <trkpt lat="39.8925585" lon="3.0736165">
        <ele>14.6</ele>
        <time>2015-06-21T13:13:54Z</time>
      </trkpt>
      <trkpt lat="39.8924839" lon="3.0736184">
        <ele>14.4</ele>
        <time>2015-06-21T13:13:55Z</time>
      </trkpt>
      <trkpt lat="39.8920445" lon="3.0736241">
        <ele>15.2</ele>
        <time>2015-06-21T13:14:01Z</time>
      </trkpt>
      <trkpt lat="39.8919654" lon="3.073621">
        <ele>15.2</ele>
        <time>2015-06-21T13:14:02Z</time>
      </trkpt>
      <trkpt lat="39.8913711" lon="3.0736281">
        <ele>15.2</ele>
        <time>2015-06-21T13:14:10Z</time>
      </trkpt>
      <trkpt lat="39.8907911" lon="3.0736089">
        <ele>16</ele>
        <time>2015-06-21T13:14:18Z</time>
      </trkpt>
      <trkpt lat="39.8907218" lon="3.0735851">
        <ele>16.4</ele>
        <time>2015-06-21T13:14:19Z</time>
      </trkpt>
      <trkpt lat="39.8904268" lon="3.0733998">
        <ele>16.4</ele>
        <time>2015-06-21T13:14:24Z</time>
      </trkpt>
      <trkpt lat="39.8902679" lon="3.0733378">
        <ele>16.6</ele>
        <time>2015-06-21T13:14:27Z</time>
      </trkpt>
      <trkpt lat="39.890215" lon="3.0733545">
        <ele>17</ele>
        <time>2015-06-21T13:14:28Z</time>
      </trkpt>
      <trkpt lat="39.8900548" lon="3.073522">
        <ele>17</ele>
        <time>2015-06-21T13:14:32Z</time>
      </trkpt>
      <trkpt lat="39.890033" lon="3.0735842">
        <ele>16.8</ele>
        <time>2015-06-21T13:14:33Z</time>
      </trkpt>
      <trkpt lat="39.8899827" lon="3.0737135">
        <ele>15.8</ele>
        <time>2015-06-21T13:14:35Z</time>
      </trkpt>
      <trkpt lat="39.8898725" lon="3.0737796">
        <ele>16</ele>
        <time>2015-06-21T13:14:37Z</time>
      </trkpt>
      <trkpt lat="39.8897319" lon="3.0738013">
        <ele>16.4</ele>
        <time>2015-06-21T13:14:39Z</time>
      </trkpt>
      <trkpt lat="39.8895725" lon="3.0738231">
        <ele>16.8</ele>
        <time>2015-06-21T13:14:41Z</time>
      </trkpt>
      <trkpt lat="39.8892427" lon="3.0738726">
        <ele>15.2</ele>
        <time>2015-06-21T13:14:45Z</time>
      </trkpt>
      <trkpt lat="39.8890756" lon="3.0739001">
        <ele>14.2</ele>
        <time>2015-06-21T13:14:47Z</time>
      </trkpt>
      <trkpt lat="39.8889183" lon="3.0739257">
        <ele>13.8</ele>
        <time>2015-06-21T13:14:49Z</time>
      </trkpt>
      <trkpt lat="39.8886097" lon="3.073967">
        <ele>14.2</ele>
        <time>2015-06-21T13:14:53Z</time>
      </trkpt>
      <trkpt lat="39.8883092" lon="3.0740131">
        <ele>14.2</ele>
        <time>2015-06-21T13:14:57Z</time>
      </trkpt>
      <trkpt lat="39.8877563" lon="3.0740982">
        <ele>14.4</ele>
        <time>2015-06-21T13:15:04Z</time>
      </trkpt>
      <trkpt lat="39.8876041" lon="3.0741224">
        <ele>14.6</ele>
        <time>2015-06-21T13:15:06Z</time>
      </trkpt>
      <trkpt lat="39.8870575" lon="3.0742042">
        <ele>14.8</ele>
        <time>2015-06-21T13:15:13Z</time>
      </trkpt>
      <trkpt lat="39.8869828" lon="3.0742157">
        <ele>15</ele>
        <time>2015-06-21T13:15:14Z</time>
      </trkpt>
      <trkpt lat="39.8865285" lon="3.0742836">
        <ele>15.4</ele>
        <time>2015-06-21T13:15:20Z</time>
      </trkpt>
      <trkpt lat="39.8861621" lon="3.0743393">
        <ele>14.8</ele>
        <time>2015-06-21T13:15:25Z</time>
      </trkpt>
      <trkpt lat="39.8856064" lon="3.0744369">
        <ele>15.2</ele>
        <time>2015-06-21T13:15:33Z</time>
      </trkpt>
      <trkpt lat="39.8850655" lon="3.0746272">
        <ele>15.6</ele>
        <time>2015-06-21T13:15:41Z</time>
      </trkpt>
      <trkpt lat="39.8846096" lon="3.0749353">
        <ele>15.2</ele>
        <time>2015-06-21T13:15:48Z</time>
      </trkpt>
      <trkpt lat="39.8842623" lon="3.0753007">
        <ele>14.8</ele>
        <time>2015-06-21T13:15:54Z</time>
      </trkpt>
      <trkpt lat="39.8842098" lon="3.0753669">
        <ele>14.2</ele>
        <time>2015-06-21T13:15:55Z</time>
      </trkpt>
      <trkpt lat="39.8839686" lon="3.0757387">
        <ele>14</ele>
        <time>2015-06-21T13:16:00Z</time>
      </trkpt>
      <trkpt lat="39.8837822" lon="3.0761465">
        <ele>12.8</ele>
        <time>2015-06-21T13:16:05Z</time>
      </trkpt>
      <trkpt lat="39.8837182" lon="3.0763124">
        <ele>12.6</ele>
        <time>2015-06-21T13:16:07Z</time>
      </trkpt>
      <trkpt lat="39.8835804" lon="3.0768617">
        <ele>13.4</ele>
        <time>2015-06-21T13:16:13Z</time>
      </trkpt>
      <trkpt lat="39.8835133" lon="3.0775296">
        <ele>12.2</ele>
        <time>2015-06-21T13:16:20Z</time>
      </trkpt>
      <trkpt lat="39.8835075" lon="3.0778138">
        <ele>11.8</ele>
        <time>2015-06-21T13:16:23Z</time>
      </trkpt>
      <trkpt lat="39.8835106" lon="3.0780876">
        <ele>10.8</ele>
        <time>2015-06-21T13:16:26Z</time>
      </trkpt>
      <trkpt lat="39.8835146" lon="3.0783756">
        <ele>11.2</ele>
        <time>2015-06-21T13:16:29Z</time>
      </trkpt>
      <trkpt lat="39.8835176" lon="3.0790044">
        <ele>11</ele>
        <time>2015-06-21T13:16:36Z</time>
      </trkpt>
      <trkpt lat="39.8834925" lon="3.0790821">
        <ele>11.4</ele>
        <time>2015-06-21T13:16:37Z</time>
      </trkpt>
      <trkpt lat="39.8833708" lon="3.0792657">
        <ele>12</ele>
        <time>2015-06-21T13:16:40Z</time>
      </trkpt>
      <trkpt lat="39.8833429" lon="3.0794733">
        <ele>12.6</ele>
        <time>2015-06-21T13:16:43Z</time>
      </trkpt>
      <trkpt lat="39.8833468" lon="3.0795332">
        <ele>12.6</ele>
        <time>2015-06-21T13:16:44Z</time>
      </trkpt>
      <trkpt lat="39.8833612" lon="3.0796312">
        <ele>12.2</ele>
        <time>2015-06-21T13:16:46Z</time>
      </trkpt>
      <trkpt lat="39.8833894" lon="3.0796671">
        <ele>12.4</ele>
        <time>2015-06-21T13:16:47Z</time>
      </trkpt>
      <trkpt lat="39.8834667" lon="3.0798043">
        <ele>13</ele>
        <time>2015-06-21T13:16:51Z</time>
      </trkpt>
      <trkpt lat="39.8834229" lon="3.0798679">
        <ele>13.2</ele>
        <time>2015-06-21T13:16:53Z</time>
      </trkpt>
      <trkpt lat="39.8834014" lon="3.0799014">
        <ele>13.4</ele>
        <time>2015-06-21T13:16:54Z</time>
      </trkpt>
      <trkpt lat="39.8833706" lon="3.0799414">
        <ele>13.4</ele>
        <time>2015-06-21T13:16:55Z</time>
      </trkpt>
      <trkpt lat="39.8831563" lon="3.0801494">
        <ele>14</ele>
        <time>2015-06-21T13:17:01Z</time>
      </trkpt>
      <trkpt lat="39.8828951" lon="3.0802952">
        <ele>13.8</ele>
        <time>2015-06-21T13:17:06Z</time>
      </trkpt>
      <trkpt lat="39.8824532" lon="3.0804593">
        <ele>13.4</ele>
        <time>2015-06-21T13:17:12Z</time>
      </trkpt>
      <trkpt lat="39.8819098" lon="3.0806576">
        <ele>13.4</ele>
        <time>2015-06-21T13:17:19Z</time>
      </trkpt>
      <trkpt lat="39.8816621" lon="3.0807463">
        <ele>13.2</ele>
        <time>2015-06-21T13:17:22Z</time>
      </trkpt>
      <trkpt lat="39.8813283" lon="3.0808727">
        <ele>12</ele>
        <time>2015-06-21T13:17:26Z</time>
      </trkpt>
      <trkpt lat="39.8808292" lon="3.0810572">
        <ele>11.8</ele>
        <time>2015-06-21T13:17:32Z</time>
      </trkpt>
      <trkpt lat="39.8804542" lon="3.0812067">
        <ele>12</ele>
        <time>2015-06-21T13:17:37Z</time>
      </trkpt>
      <trkpt lat="39.8803752" lon="3.0812329">
        <ele>12</ele>
        <time>2015-06-21T13:17:38Z</time>
      </trkpt>
      <trkpt lat="39.8798286" lon="3.0814186">
        <ele>12.2</ele>
        <time>2015-06-21T13:17:45Z</time>
      </trkpt>
      <trkpt lat="39.8792452" lon="3.0816384">
        <ele>12.4</ele>
        <time>2015-06-21T13:17:53Z</time>
      </trkpt>
      <trkpt lat="39.8786652" lon="3.0818955">
        <ele>12.4</ele>
        <time>2015-06-21T13:18:01Z</time>
      </trkpt>
      <trkpt lat="39.8784502" lon="3.082002">
        <ele>12.4</ele>
        <time>2015-06-21T13:18:04Z</time>
      </trkpt>
      <trkpt lat="39.8779363" lon="3.0822761">
        <ele>12.2</ele>
        <time>2015-06-21T13:18:11Z</time>
      </trkpt>
      <trkpt lat="39.8777875" lon="3.0823529">
        <ele>12.4</ele>
        <time>2015-06-21T13:18:13Z</time>
      </trkpt>
      <trkpt lat="39.8772488" lon="3.0826275">
        <ele>12.4</ele>
        <time>2015-06-21T13:18:21Z</time>
      </trkpt>
      <trkpt lat="39.8771847" lon="3.0826595">
        <ele>12.4</ele>
        <time>2015-06-21T13:18:22Z</time>
      </trkpt>
      <trkpt lat="39.8769245" lon="3.0827857">
        <ele>13.2</ele>
        <time>2015-06-21T13:18:26Z</time>
      </trkpt>
      <trkpt lat="39.8765905" lon="3.0829569">
        <ele>14</ele>
        <time>2015-06-21T13:18:31Z</time>
      </trkpt>
      <trkpt lat="39.8760415" lon="3.0832474">
        <ele>14</ele>
        <time>2015-06-21T13:18:39Z</time>
      </trkpt>
      <trkpt lat="39.8758283" lon="3.0833789">
        <ele>14.2</ele>
        <time>2015-06-21T13:18:42Z</time>
      </trkpt>
      <trkpt lat="39.8757532" lon="3.0834191">
        <ele>14.2</ele>
        <time>2015-06-21T13:18:43Z</time>
      </trkpt>
      <trkpt lat="39.8753108" lon="3.0836639">
        <ele>14.2</ele>
        <time>2015-06-21T13:18:49Z</time>
      </trkpt>
      <trkpt lat="39.874804" lon="3.0839515">
        <ele>14.2</ele>
        <time>2015-06-21T13:18:56Z</time>
      </trkpt>
      <trkpt lat="39.8744316" lon="3.0841681">
        <ele>14</ele>
        <time>2015-06-21T13:19:01Z</time>
      </trkpt>
      <trkpt lat="39.873905" lon="3.0844762">
        <ele>13.8</ele>
        <time>2015-06-21T13:19:08Z</time>
      </trkpt>
      <trkpt lat="39.8733734" lon="3.084795">
        <ele>14</ele>
        <time>2015-06-21T13:19:15Z</time>
      </trkpt>
      <trkpt lat="39.8730751" lon="3.0849766">
        <ele>14</ele>
        <time>2015-06-21T13:19:19Z</time>
      </trkpt>
      <trkpt lat="39.8725193" lon="3.0853211">
        <ele>13.2</ele>
        <time>2015-06-21T13:19:27Z</time>
      </trkpt>
      <trkpt lat="39.8724599" lon="3.0853578">
        <ele>13</ele>
        <time>2015-06-21T13:19:28Z</time>
      </trkpt>
      <trkpt lat="39.8722717" lon="3.0854739">
        <ele>12</ele>
        <time>2015-06-21T13:19:31Z</time>
      </trkpt>
      <trkpt lat="39.8718967" lon="3.0856961">
        <ele>12.2</ele>
        <time>2015-06-21T13:19:37Z</time>
      </trkpt>
      <trkpt lat="39.8714061" lon="3.0859979">
        <ele>12</ele>
        <time>2015-06-21T13:19:45Z</time>
      </trkpt>
      <trkpt lat="39.8712295" lon="3.0861078">
        <ele>12.2</ele>
        <time>2015-06-21T13:19:48Z</time>
      </trkpt>
      <trkpt lat="39.8710198" lon="3.0862326">
        <ele>12.4</ele>
        <time>2015-06-21T13:19:52Z</time>
      </trkpt>
      <trkpt lat="39.8705545" lon="3.0865077">
        <ele>12.6</ele>
        <time>2015-06-21T13:20:00Z</time>
      </trkpt>
      <trkpt lat="39.8700487" lon="3.0868625">
        <ele>12.4</ele>
        <time>2015-06-21T13:20:09Z</time>
      </trkpt>
      <trkpt lat="39.8699945" lon="3.0869047">
        <ele>12.4</ele>
        <time>2015-06-21T13:20:10Z</time>
      </trkpt>
      <trkpt lat="39.8698181" lon="3.0870473">
        <ele>13</ele>
        <time>2015-06-21T13:20:13Z</time>
      </trkpt>
      <trkpt lat="39.8696499" lon="3.0871844">
        <ele>14.2</ele>
        <time>2015-06-21T13:20:16Z</time>
      </trkpt>
      <trkpt lat="39.8695289" lon="3.0872838">
        <ele>14.2</ele>
        <time>2015-06-21T13:20:18Z</time>
      </trkpt>
      <trkpt lat="39.8690547" lon="3.0876708">
        <ele>14.2</ele>
        <time>2015-06-21T13:20:26Z</time>
      </trkpt>
      <trkpt lat="39.8689313" lon="3.0877725">
        <ele>14.2</ele>
        <time>2015-06-21T13:20:28Z</time>
      </trkpt>
      <trkpt lat="39.8684248" lon="3.0881878">
        <ele>14.2</ele>
        <time>2015-06-21T13:20:36Z</time>
      </trkpt>
      <trkpt lat="39.8682887" lon="3.0882999">
        <ele>14</ele>
        <time>2015-06-21T13:20:38Z</time>
      </trkpt>
      <trkpt lat="39.8678065" lon="3.0886953">
        <ele>14.6</ele>
        <time>2015-06-21T13:20:45Z</time>
      </trkpt>
      <trkpt lat="39.8675292" lon="3.0889248">
        <ele>13.6</ele>
        <time>2015-06-21T13:20:49Z</time>
      </trkpt>
      <trkpt lat="39.8673932" lon="3.0890359">
        <ele>12.8</ele>
        <time>2015-06-21T13:20:51Z</time>
      </trkpt>
      <trkpt lat="39.8669066" lon="3.0894314">
        <ele>12.2</ele>
        <time>2015-06-21T13:20:58Z</time>
      </trkpt>
      <trkpt lat="39.8667634" lon="3.0895436">
        <ele>11.8</ele>
        <time>2015-06-21T13:21:00Z</time>
      </trkpt>
      <trkpt lat="39.8662972" lon="3.0899668">
        <ele>11.8</ele>
        <time>2015-06-21T13:21:07Z</time>
      </trkpt>
      <trkpt lat="39.866233" lon="3.0900308">
        <ele>11.8</ele>
        <time>2015-06-21T13:21:08Z</time>
      </trkpt>
      <trkpt lat="39.8661083" lon="3.0901594">
        <ele>11.4</ele>
        <time>2015-06-21T13:21:10Z</time>
      </trkpt>
      <trkpt lat="39.8656726" lon="3.0906421">
        <ele>12</ele>
        <time>2015-06-21T13:21:17Z</time>
      </trkpt>
      <trkpt lat="39.8656121" lon="3.0907119">
        <ele>12.2</ele>
        <time>2015-06-21T13:21:18Z</time>
      </trkpt>
      <trkpt lat="39.8652223" lon="3.0912622">
        <ele>12</ele>
        <time>2015-06-21T13:21:25Z</time>
      </trkpt>
      <trkpt lat="39.8648635" lon="3.0918576">
        <ele>11.8</ele>
        <time>2015-06-21T13:21:32Z</time>
      </trkpt>
      <trkpt lat="39.8646191" lon="3.0922882">
        <ele>12</ele>
        <time>2015-06-21T13:21:37Z</time>
      </trkpt>
      <trkpt lat="39.8642881" lon="3.0928807">
        <ele>12</ele>
        <time>2015-06-21T13:21:44Z</time>
      </trkpt>
      <trkpt lat="39.8640564" lon="3.0932918">
        <ele>12.4</ele>
        <time>2015-06-21T13:21:49Z</time>
      </trkpt>
      <trkpt lat="39.8636759" lon="3.0939309">
        <ele>12.2</ele>
        <time>2015-06-21T13:21:57Z</time>
      </trkpt>
      <trkpt lat="39.8635796" lon="3.0940861">
        <ele>12.2</ele>
        <time>2015-06-21T13:21:59Z</time>
      </trkpt>
      <trkpt lat="39.8632258" lon="3.0946119">
        <ele>12.6</ele>
        <time>2015-06-21T13:22:06Z</time>
      </trkpt>
      <trkpt lat="39.8630653" lon="3.0948426">
        <ele>12.6</ele>
        <time>2015-06-21T13:22:09Z</time>
      </trkpt>
      <trkpt lat="39.8626856" lon="3.0953586">
        <ele>12.6</ele>
        <time>2015-06-21T13:22:16Z</time>
      </trkpt>
      <trkpt lat="39.8624059" lon="3.0957417">
        <ele>12.4</ele>
        <time>2015-06-21T13:22:21Z</time>
      </trkpt>
      <trkpt lat="39.8620172" lon="3.0962713">
        <ele>12.6</ele>
        <time>2015-06-21T13:22:28Z</time>
      </trkpt>
      <trkpt lat="39.8618088" lon="3.0965716">
        <ele>12.4</ele>
        <time>2015-06-21T13:22:32Z</time>
      </trkpt>
      <trkpt lat="39.8615468" lon="3.0969199">
        <ele>12</ele>
        <time>2015-06-21T13:22:37Z</time>
      </trkpt>
      <trkpt lat="39.8611307" lon="3.0973959">
        <ele>12</ele>
        <time>2015-06-21T13:22:45Z</time>
      </trkpt>
      <trkpt lat="39.8607772" lon="3.0976949">
        <ele>13</ele>
        <time>2015-06-21T13:22:52Z</time>
      </trkpt>
      <trkpt lat="39.8605352" lon="3.0979005">
        <ele>13.4</ele>
        <time>2015-06-21T13:22:57Z</time>
      </trkpt>
      <trkpt lat="39.8604249" lon="3.097986">
        <ele>13.6</ele>
        <time>2015-06-21T13:22:59Z</time>
      </trkpt>
      <trkpt lat="39.8602102" lon="3.098148">
        <ele>14.8</ele>
        <time>2015-06-21T13:23:03Z</time>
      </trkpt>
      <trkpt lat="39.8599876" lon="3.0983148">
        <ele>14.8</ele>
        <time>2015-06-21T13:23:07Z</time>
      </trkpt>
      <trkpt lat="39.8595944" lon="3.0986069">
        <ele>14.2</ele>
        <time>2015-06-21T13:23:14Z</time>
      </trkpt>
      <trkpt lat="39.8591648" lon="3.0990055">
        <ele>14.8</ele>
        <time>2015-06-21T13:23:22Z</time>
      </trkpt>
      <trkpt lat="39.858872" lon="3.0994903">
        <ele>15.2</ele>
        <time>2015-06-21T13:23:29Z</time>
      </trkpt>
      <trkpt lat="39.8587203" lon="3.0999442">
        <ele>15</ele>
        <time>2015-06-21T13:23:35Z</time>
      </trkpt>
      <trkpt lat="39.858612" lon="3.1006077">
        <ele>15.2</ele>
        <time>2015-06-21T13:23:43Z</time>
      </trkpt>
      <trkpt lat="39.8585435" lon="3.1010987">
        <ele>13.6</ele>
        <time>2015-06-21T13:23:50Z</time>
      </trkpt>
      <trkpt lat="39.8585263" lon="3.1012065">
        <ele>12.4</ele>
        <time>2015-06-21T13:23:52Z</time>
      </trkpt>
      <trkpt lat="39.8584507" lon="3.1015792">
        <ele>12.2</ele>
        <time>2015-06-21T13:23:58Z</time>
      </trkpt>
      <trkpt lat="39.8582943" lon="3.1021243">
        <ele>12</ele>
        <time>2015-06-21T13:24:06Z</time>
      </trkpt>
      <trkpt lat="39.85812" lon="3.1027135">
        <ele>11.4</ele>
        <time>2015-06-21T13:24:15Z</time>
      </trkpt>
      <trkpt lat="39.8581047" lon="3.1027651">
        <ele>11.2</ele>
        <time>2015-06-21T13:24:16Z</time>
      </trkpt>
      <trkpt lat="39.8580121" lon="3.1030874">
        <ele>11.4</ele>
        <time>2015-06-21T13:24:22Z</time>
      </trkpt>
      <trkpt lat="39.8579595" lon="3.103254">
        <ele>12.4</ele>
        <time>2015-06-21T13:24:25Z</time>
      </trkpt>
      <trkpt lat="39.8578726" lon="3.1035447">
        <ele>13.4</ele>
        <time>2015-06-21T13:24:30Z</time>
      </trkpt>
      <trkpt lat="39.8578543" lon="3.1035995">
        <ele>13.8</ele>
        <time>2015-06-21T13:24:31Z</time>
      </trkpt>
      <trkpt lat="39.8576478" lon="3.1041199">
        <ele>14.4</ele>
        <time>2015-06-21T13:24:40Z</time>
      </trkpt>
      <trkpt lat="39.8576229" lon="3.1041775">
        <ele>14.6</ele>
        <time>2015-06-21T13:24:41Z</time>
      </trkpt>
      <trkpt lat="39.8573962" lon="3.1046944">
        <ele>14.6</ele>
        <time>2015-06-21T13:24:49Z</time>
      </trkpt>
      <trkpt lat="39.8570981" lon="3.1053691">
        <ele>14</ele>
        <time>2015-06-21T13:24:59Z</time>
      </trkpt>
      <trkpt lat="39.8570391" lon="3.1055054">
        <ele>13.8</ele>
        <time>2015-06-21T13:25:01Z</time>
      </trkpt>
      <trkpt lat="39.8567628" lon="3.1061404">
        <ele>14.4</ele>
        <time>2015-06-21T13:25:10Z</time>
      </trkpt>
      <trkpt lat="39.8566977" lon="3.1062905">
        <ele>14.6</ele>
        <time>2015-06-21T13:25:12Z</time>
      </trkpt>
      <trkpt lat="39.8564149" lon="3.106947">
        <ele>14.2</ele>
        <time>2015-06-21T13:25:21Z</time>
      </trkpt>
      <trkpt lat="39.8563489" lon="3.1070947">
        <ele>14</ele>
        <time>2015-06-21T13:25:23Z</time>
      </trkpt>
      <trkpt lat="39.85607" lon="3.1077287">
        <ele>14.6</ele>
        <time>2015-06-21T13:25:32Z</time>
      </trkpt>
      <trkpt lat="39.8560417" lon="3.1077929">
        <ele>14.6</ele>
        <time>2015-06-21T13:25:33Z</time>
      </trkpt>
      <trkpt lat="39.8558068" lon="3.1083199">
        <ele>13.4</ele>
        <time>2015-06-21T13:25:41Z</time>
      </trkpt>
      <trkpt lat="39.8557449" lon="3.1084618">
        <ele>13.6</ele>
        <time>2015-06-21T13:25:43Z</time>
      </trkpt>
      <trkpt lat="39.8554797" lon="3.1090821">
        <ele>12.4</ele>
        <time>2015-06-21T13:25:52Z</time>
      </trkpt>
      <trkpt lat="39.8554478" lon="3.1091561">
        <ele>12.2</ele>
        <time>2015-06-21T13:25:53Z</time>
      </trkpt>
      <trkpt lat="39.8553566" lon="3.1093609">
        <ele>12.6</ele>
        <time>2015-06-21T13:25:56Z</time>
      </trkpt>
      <trkpt lat="39.8552656" lon="3.1095712">
        <ele>13.4</ele>
        <time>2015-06-21T13:25:59Z</time>
      </trkpt>
      <trkpt lat="39.855064" lon="3.1100416">
        <ele>13.8</ele>
        <time>2015-06-21T13:26:06Z</time>
      </trkpt>
      <trkpt lat="39.8547873" lon="3.1106635">
        <ele>13.4</ele>
        <time>2015-06-21T13:26:15Z</time>
      </trkpt>
      <trkpt lat="39.8546929" lon="3.1108716">
        <ele>13.4</ele>
        <time>2015-06-21T13:26:18Z</time>
      </trkpt>
      <trkpt lat="39.8543996" lon="3.1114864">
        <ele>14.2</ele>
        <time>2015-06-21T13:26:27Z</time>
      </trkpt>
      <trkpt lat="39.8543293" lon="3.1116193">
        <ele>14.6</ele>
        <time>2015-06-21T13:26:29Z</time>
      </trkpt>
      <trkpt lat="39.854006" lon="3.1121902">
        <ele>15.4</ele>
        <time>2015-06-21T13:26:38Z</time>
      </trkpt>
      <trkpt lat="39.8539322" lon="3.1123047">
        <ele>15.6</ele>
        <time>2015-06-21T13:26:40Z</time>
      </trkpt>
      <trkpt lat="39.8536526" lon="3.1127309">
        <ele>16.4</ele>
        <time>2015-06-21T13:26:48Z</time>
      </trkpt>
      <trkpt lat="39.8534693" lon="3.1129918">
        <ele>16</ele>
        <time>2015-06-21T13:26:54Z</time>
      </trkpt>
      <trkpt lat="39.8532903" lon="3.1132689">
        <ele>16</ele>
        <time>2015-06-21T13:27:01Z</time>
      </trkpt>
      <trkpt lat="39.8532268" lon="3.1133574">
        <ele>15.8</ele>
        <time>2015-06-21T13:27:03Z</time>
      </trkpt>
      <trkpt lat="39.8531075" lon="3.1135273">
        <ele>16.2</ele>
        <time>2015-06-21T13:27:07Z</time>
      </trkpt>
      <trkpt lat="39.8530133" lon="3.1136638">
        <ele>16.6</ele>
        <time>2015-06-21T13:27:10Z</time>
      </trkpt>
      <trkpt lat="39.8528624" lon="3.1138808">
        <ele>17</ele>
        <time>2015-06-21T13:27:14Z</time>
      </trkpt>
      <trkpt lat="39.8525545" lon="3.1143394">
        <ele>16.6</ele>
        <time>2015-06-21T13:27:22Z</time>
      </trkpt>
      <trkpt lat="39.852308" lon="3.1147008">
        <ele>17.2</ele>
        <time>2015-06-21T13:27:29Z</time>
      </trkpt>
      <trkpt lat="39.8521873" lon="3.1148692">
        <ele>17.8</ele>
        <time>2015-06-21T13:27:33Z</time>
      </trkpt>
      <trkpt lat="39.8521686" lon="3.1149028">
        <ele>18</ele>
        <time>2015-06-21T13:27:34Z</time>
      </trkpt>
      <trkpt lat="39.8520642" lon="3.1150565">
        <ele>17.4</ele>
        <time>2015-06-21T13:27:40Z</time>
      </trkpt>
      <trkpt lat="39.85206" lon="3.1150814">
        <ele>17.4</ele>
        <time>2015-06-21T13:27:41Z</time>
      </trkpt>
      <trkpt lat="39.8520147" lon="3.1151647">
        <ele>18</ele>
        <time>2015-06-21T13:27:44Z</time>
      </trkpt>
      <trkpt lat="39.8519165" lon="3.1152986">
        <ele>18.6</ele>
        <time>2015-06-21T13:27:48Z</time>
      </trkpt>
      <trkpt lat="39.8518637" lon="3.1153703">
        <ele>18.8</ele>
        <time>2015-06-21T13:27:50Z</time>
      </trkpt>
      <trkpt lat="39.8517585" lon="3.1156333">
        <ele>18.4</ele>
        <time>2015-06-21T13:27:56Z</time>
      </trkpt>
      <trkpt lat="39.8517581" lon="3.1158735">
        <ele>17.6</ele>
        <time>2015-06-21T13:28:01Z</time>
      </trkpt>
      <trkpt lat="39.851884" lon="3.1161289">
        <ele>19</ele>
        <time>2015-06-21T13:28:08Z</time>
      </trkpt>
      <trkpt lat="39.8519877" lon="3.1163157">
        <ele>19.4</ele>
        <time>2015-06-21T13:28:14Z</time>
      </trkpt>
      <trkpt lat="39.8520657" lon="3.1164273">
        <ele>19.4</ele>
        <time>2015-06-21T13:28:19Z</time>
      </trkpt>
      <trkpt lat="39.8520827" lon="3.1165264">
        <ele>18.8</ele>
        <time>2015-06-21T13:28:22Z</time>
      </trkpt>
      <trkpt lat="39.8520754" lon="3.1165726">
        <ele>19</ele>
        <time>2015-06-21T13:28:23Z</time>
      </trkpt>
      <trkpt lat="39.8521125" lon="3.1167291">
        <ele>19.4</ele>
        <time>2015-06-21T13:28:26Z</time>
      </trkpt>
      <trkpt lat="39.8521386" lon="3.1167849">
        <ele>19.6</ele>
        <time>2015-06-21T13:28:27Z</time>
      </trkpt>
      <trkpt lat="39.8521935" lon="3.1168858">
        <ele>19.8</ele>
        <time>2015-06-21T13:28:29Z</time>
      </trkpt>
      <trkpt lat="39.8523032" lon="3.1170316">
        <ele>20</ele>
        <time>2015-06-21T13:28:32Z</time>
      </trkpt>
      <trkpt lat="39.8523388" lon="3.1170791">
        <ele>20</ele>
        <time>2015-06-21T13:28:33Z</time>
      </trkpt>
      <trkpt lat="39.8523658" lon="3.1171263">
        <ele>20.2</ele>
        <time>2015-06-21T13:28:34Z</time>
      </trkpt>
      <trkpt lat="39.8524808" lon="3.1173175">
        <ele>20.4</ele>
        <time>2015-06-21T13:28:38Z</time>
      </trkpt>
      <trkpt lat="39.852649" lon="3.1176101">
        <ele>20.8</ele>
        <time>2015-06-21T13:28:44Z</time>
      </trkpt>
      <trkpt lat="39.8526779" lon="3.1176611">
        <ele>21</ele>
        <time>2015-06-21T13:28:45Z</time>
      </trkpt>
      <trkpt lat="39.8527469" lon="3.1177645">
        <ele>21.4</ele>
        <time>2015-06-21T13:28:47Z</time>
      </trkpt>
      <trkpt lat="39.8528085" lon="3.1178636">
        <ele>21.8</ele>
        <time>2015-06-21T13:28:49Z</time>
      </trkpt>
      <trkpt lat="39.8528356" lon="3.1179135">
        <ele>22</ele>
        <time>2015-06-21T13:28:50Z</time>
      </trkpt>
      <trkpt lat="39.8528867" lon="3.1180113">
        <ele>22.2</ele>
        <time>2015-06-21T13:28:52Z</time>
      </trkpt>
      <trkpt lat="39.8529711" lon="3.1181663">
        <ele>22</ele>
        <time>2015-06-21T13:28:55Z</time>
      </trkpt>
      <trkpt lat="39.8529973" lon="3.1182115">
        <ele>22.2</ele>
        <time>2015-06-21T13:28:56Z</time>
      </trkpt>
      <trkpt lat="39.8530663" lon="3.1184102">
        <ele>23</ele>
        <time>2015-06-21T13:29:00Z</time>
      </trkpt>
      <trkpt lat="39.8530568" lon="3.1184642">
        <ele>22.8</ele>
        <time>2015-06-21T13:29:01Z</time>
      </trkpt>
      <trkpt lat="39.852972" lon="3.1186079">
        <ele>22.4</ele>
        <time>2015-06-21T13:29:04Z</time>
      </trkpt>
      <trkpt lat="39.852775" lon="3.1187048">
        <ele>23</ele>
        <time>2015-06-21T13:29:08Z</time>
      </trkpt>
      <trkpt lat="39.8525569" lon="3.1188">
        <ele>22.8</ele>
        <time>2015-06-21T13:29:12Z</time>
      </trkpt>
      <trkpt lat="39.8525079" lon="3.1188403">
        <ele>22.6</ele>
        <time>2015-06-21T13:29:13Z</time>
      </trkpt>
      <trkpt lat="39.8523591" lon="3.1190596">
        <ele>21.6</ele>
        <time>2015-06-21T13:29:17Z</time>
      </trkpt>
      <trkpt lat="39.852216" lon="3.1193818">
        <ele>21.6</ele>
        <time>2015-06-21T13:29:23Z</time>
      </trkpt>
      <trkpt lat="39.8521687" lon="3.1194605">
        <ele>22.8</ele>
        <time>2015-06-21T13:29:27Z</time>
      </trkpt>
      <trkpt lat="39.8521189" lon="3.1195529">
        <ele>23.2</ele>
        <time>2015-06-21T13:29:30Z</time>
      </trkpt>
      <trkpt lat="39.8520706" lon="3.1196268">
        <ele>23.4</ele>
        <time>2015-06-21T13:29:32Z</time>
      </trkpt>
      <trkpt lat="39.8519435" lon="3.1197392">
        <ele>23.4</ele>
        <time>2015-06-21T13:29:37Z</time>
      </trkpt>
      <trkpt lat="39.851845" lon="3.1198113">
        <ele>24.2</ele>
        <time>2015-06-21T13:29:42Z</time>
      </trkpt>
      <trkpt lat="39.8518" lon="3.11984">
        <ele>24.6</ele>
        <time>2015-06-21T13:29:44Z</time>
      </trkpt>
      <trkpt lat="39.8516544" lon="3.1199372">
        <ele>24.8</ele>
        <time>2015-06-21T13:29:48Z</time>
      </trkpt>
      <trkpt lat="39.8515133" lon="3.1200267">
        <ele>25.4</ele>
        <time>2015-06-21T13:29:51Z</time>
      </trkpt>
      <trkpt lat="39.851368" lon="3.1201271">
        <ele>26.4</ele>
        <time>2015-06-21T13:29:54Z</time>
      </trkpt>
      <trkpt lat="39.8511659" lon="3.1203214">
        <ele>26.8</ele>
        <time>2015-06-21T13:29:59Z</time>
      </trkpt>
      <trkpt lat="39.8511393" lon="3.1203715">
        <ele>27</ele>
        <time>2015-06-21T13:30:00Z</time>
      </trkpt>
      <trkpt lat="39.8510867" lon="3.1205964">
        <ele>26.2</ele>
        <time>2015-06-21T13:30:04Z</time>
      </trkpt>
      <trkpt lat="39.851114" lon="3.1208306">
        <ele>26</ele>
        <time>2015-06-21T13:30:07Z</time>
      </trkpt>
      <trkpt lat="39.8511278" lon="3.1209059">
        <ele>25.8</ele>
        <time>2015-06-21T13:30:08Z</time>
      </trkpt>
      <trkpt lat="39.8512022" lon="3.1212731">
        <ele>25.4</ele>
        <time>2015-06-21T13:30:13Z</time>
      </trkpt>
      <trkpt lat="39.8512288" lon="3.1214015">
        <ele>24.6</ele>
        <time>2015-06-21T13:30:15Z</time>
      </trkpt>
      <trkpt lat="39.8512965" lon="3.121707">
        <ele>24.2</ele>
        <time>2015-06-21T13:30:20Z</time>
      </trkpt>
      <trkpt lat="39.8513408" lon="3.1218873">
        <ele>23.6</ele>
        <time>2015-06-21T13:30:23Z</time>
      </trkpt>
      <trkpt lat="39.8514441" lon="3.1223416">
        <ele>23.2</ele>
        <time>2015-06-21T13:30:30Z</time>
      </trkpt>
      <trkpt lat="39.8514586" lon="3.1224039">
        <ele>22.8</ele>
        <time>2015-06-21T13:30:31Z</time>
      </trkpt>
      <trkpt lat="39.8514997" lon="3.1226209">
        <ele>21.8</ele>
        <time>2015-06-21T13:30:35Z</time>
      </trkpt>
      <trkpt lat="39.8515127" lon="3.1227167">
        <ele>23</ele>
        <time>2015-06-21T13:30:39Z</time>
      </trkpt>
      <trkpt lat="39.8515596" lon="3.1229298">
        <ele>23.4</ele>
        <time>2015-06-21T13:30:44Z</time>
      </trkpt>
      <trkpt lat="39.8516548" lon="3.1233919">
        <ele>22.2</ele>
        <time>2015-06-21T13:30:52Z</time>
      </trkpt>
      <trkpt lat="39.8517316" lon="3.1237556">
        <ele>22</ele>
        <time>2015-06-21T13:30:59Z</time>
      </trkpt>
      <trkpt lat="39.8517494" lon="3.1238413">
        <ele>21.8</ele>
        <time>2015-06-21T13:31:02Z</time>
      </trkpt>
      <trkpt lat="39.8517563" lon="3.123895">
        <ele>21.6</ele>
        <time>2015-06-21T13:31:04Z</time>
      </trkpt>
      <trkpt lat="39.8518171" lon="3.124114">
        <ele>21.6</ele>
        <time>2015-06-21T13:31:09Z</time>
      </trkpt>
      <trkpt lat="39.851854" lon="3.1242641">
        <ele>21.6</ele>
        <time>2015-06-21T13:31:13Z</time>
      </trkpt>
      <trkpt lat="39.8518677" lon="3.1243619">
        <ele>21.8</ele>
        <time>2015-06-21T13:31:19Z</time>
      </trkpt>
      <trkpt lat="39.8518749" lon="3.1243542">
        <ele>21.8</ele>
        <time>2015-06-21T13:31:26Z</time>
      </trkpt>
      <trkpt lat="39.8518626" lon="3.1243403">
        <ele>21.4</ele>
        <time>2015-06-21T13:31:34Z</time>
      </trkpt>
      <trkpt lat="39.8518704" lon="3.1243304">
        <ele>21.8</ele>
        <time>2015-06-21T13:31:40Z</time>
      </trkpt>
      <trkpt lat="39.851874" lon="3.1243227">
        <ele>21.6</ele>
        <time>2015-06-21T13:31:49Z</time>
      </trkpt>
      <trkpt lat="39.8518789" lon="3.1243321">
        <ele>21.8</ele>
        <time>2015-06-21T13:31:55Z</time>
      </trkpt>
      <trkpt lat="39.8518813" lon="3.1243514">
        <ele>21.8</ele>
        <time>2015-06-21T13:31:56Z</time>
      </trkpt>
      <trkpt lat="39.8519237" lon="3.1245132">
        <ele>22.2</ele>
        <time>2015-06-21T13:32:01Z</time>
      </trkpt>
      <trkpt lat="39.8520046" lon="3.1248748">
        <ele>22.2</ele>
        <time>2015-06-21T13:32:08Z</time>
      </trkpt>
      <trkpt lat="39.8520133" lon="3.1250926">
        <ele>22.4</ele>
        <time>2015-06-21T13:32:13Z</time>
      </trkpt>
      <trkpt lat="39.8519302" lon="3.1252053">
        <ele>22.4</ele>
        <time>2015-06-21T13:32:16Z</time>
      </trkpt>
      <trkpt lat="39.8517017" lon="3.1254272">
        <ele>22.4</ele>
        <time>2015-06-21T13:32:21Z</time>
      </trkpt>
      <trkpt lat="39.8515047" lon="3.1256242">
        <ele>22.8</ele>
        <time>2015-06-21T13:32:25Z</time>
      </trkpt>
      <trkpt lat="39.8512528" lon="3.1258766">
        <ele>22.8</ele>
        <time>2015-06-21T13:32:30Z</time>
      </trkpt>
      <trkpt lat="39.8510433" lon="3.1260847">
        <ele>21.8</ele>
        <time>2015-06-21T13:32:34Z</time>
      </trkpt>
      <trkpt lat="39.8509884" lon="3.1261479">
        <ele>21.8</ele>
        <time>2015-06-21T13:32:35Z</time>
      </trkpt>
      <trkpt lat="39.8508823" lon="3.1262556">
        <ele>21.6</ele>
        <time>2015-06-21T13:32:37Z</time>
      </trkpt>
      <trkpt lat="39.8507457" lon="3.126388">
        <ele>21</ele>
        <time>2015-06-21T13:32:41Z</time>
      </trkpt>
      <trkpt lat="39.8507223" lon="3.1264123">
        <ele>20.8</ele>
        <time>2015-06-21T13:32:42Z</time>
      </trkpt>
      <trkpt lat="39.8505795" lon="3.1265646">
        <ele>20</ele>
        <time>2015-06-21T13:32:47Z</time>
      </trkpt>
      <trkpt lat="39.8503461" lon="3.1267979">
        <ele>19.8</ele>
        <time>2015-06-21T13:32:53Z</time>
      </trkpt>
      <trkpt lat="39.8503053" lon="3.1268377">
        <ele>19.8</ele>
        <time>2015-06-21T13:32:54Z</time>
      </trkpt>
      <trkpt lat="39.8500226" lon="3.1271179">
        <ele>18.8</ele>
        <time>2015-06-21T13:33:00Z</time>
      </trkpt>
      <trkpt lat="39.8499227" lon="3.1272199">
        <ele>18.6</ele>
        <time>2015-06-21T13:33:02Z</time>
      </trkpt>
      <trkpt lat="39.8496004" lon="3.1275635">
        <ele>18.8</ele>
        <time>2015-06-21T13:33:08Z</time>
      </trkpt>
      <trkpt lat="39.8492008" lon="3.1279794">
        <ele>18</ele>
        <time>2015-06-21T13:33:15Z</time>
      </trkpt>
      <trkpt lat="39.8490885" lon="3.1280953">
        <ele>17.6</ele>
        <time>2015-06-21T13:33:17Z</time>
      </trkpt>
      <trkpt lat="39.8489224" lon="3.128255">
        <ele>16.4</ele>
        <time>2015-06-21T13:33:20Z</time>
      </trkpt>
      <trkpt lat="39.8488144" lon="3.128355">
        <ele>15.2</ele>
        <time>2015-06-21T13:33:22Z</time>
      </trkpt>
      <trkpt lat="39.8487567" lon="3.1284107">
        <ele>14.8</ele>
        <time>2015-06-21T13:33:23Z</time>
      </trkpt>
      <trkpt lat="39.8483469" lon="3.1288084">
        <ele>14.2</ele>
        <time>2015-06-21T13:33:30Z</time>
      </trkpt>
      <trkpt lat="39.8482911" lon="3.128862">
        <ele>14.2</ele>
        <time>2015-06-21T13:33:31Z</time>
      </trkpt>
      <trkpt lat="39.8479067" lon="3.1292418">
        <ele>13.8</ele>
        <time>2015-06-21T13:33:37Z</time>
      </trkpt>
      <trkpt lat="39.8477139" lon="3.1294346">
        <ele>13.2</ele>
        <time>2015-06-21T13:33:40Z</time>
      </trkpt>
      <trkpt lat="39.847344" lon="3.1298021">
        <ele>13.2</ele>
        <time>2015-06-21T13:33:46Z</time>
      </trkpt>
      <trkpt lat="39.8468671" lon="3.1302771">
        <ele>13</ele>
        <time>2015-06-21T13:33:54Z</time>
      </trkpt>
      <trkpt lat="39.846809" lon="3.1303364">
        <ele>13.2</ele>
        <time>2015-06-21T13:33:55Z</time>
      </trkpt>
      <trkpt lat="39.8464562" lon="3.1307055">
        <ele>12.2</ele>
        <time>2015-06-21T13:34:02Z</time>
      </trkpt>
      <trkpt lat="39.8463618" lon="3.1307947">
        <ele>13.4</ele>
        <time>2015-06-21T13:34:06Z</time>
      </trkpt>
      <trkpt lat="39.8462918" lon="3.1308537">
        <ele>14.2</ele>
        <time>2015-06-21T13:34:10Z</time>
      </trkpt>
      <trkpt lat="39.84626" lon="3.130865">
        <ele>14.2</ele>
        <time>2015-06-21T13:34:11Z</time>
      </trkpt>
      <trkpt lat="39.8460888" lon="3.1308739">
        <ele>14.4</ele>
        <time>2015-06-21T13:34:15Z</time>
      </trkpt>
      <trkpt lat="39.8460057" lon="3.1310489">
        <ele>14.2</ele>
        <time>2015-06-21T13:34:18Z</time>
      </trkpt>
      <trkpt lat="39.8460935" lon="3.1312727">
        <ele>13.2</ele>
        <time>2015-06-21T13:34:21Z</time>
      </trkpt>
      <trkpt lat="39.8461367" lon="3.1313389">
        <ele>13.2</ele>
        <time>2015-06-21T13:34:22Z</time>
      </trkpt>
      <trkpt lat="39.8461926" lon="3.1315671">
        <ele>14.2</ele>
        <time>2015-06-21T13:34:25Z</time>
      </trkpt>
      <trkpt lat="39.8461984" lon="3.1316389">
        <ele>14.6</ele>
        <time>2015-06-21T13:34:26Z</time>
      </trkpt>
      <trkpt lat="39.8462305" lon="3.1320654">
        <ele>14.8</ele>
        <time>2015-06-21T13:34:32Z</time>
      </trkpt>
      <trkpt lat="39.846242" lon="3.132555">
        <ele>15.6</ele>
        <time>2015-06-21T13:34:40Z</time>
      </trkpt>
      <trkpt lat="39.8462426" lon="3.132724">
        <ele>17</ele>
        <time>2015-06-21T13:34:43Z</time>
      </trkpt>
      <trkpt lat="39.846237" lon="3.1328772">
        <ele>18</ele>
        <time>2015-06-21T13:34:46Z</time>
      </trkpt>
      <trkpt lat="39.8462253" lon="3.1331088">
        <ele>18.6</ele>
        <time>2015-06-21T13:34:50Z</time>
      </trkpt>
      <trkpt lat="39.846217" lon="3.1333455">
        <ele>19.2</ele>
        <time>2015-06-21T13:34:54Z</time>
      </trkpt>
      <trkpt lat="39.8461969" lon="3.1337531">
        <ele>20.2</ele>
        <time>2015-06-21T13:35:01Z</time>
      </trkpt>
      <trkpt lat="39.8461722" lon="3.1342632">
        <ele>21.2</ele>
        <time>2015-06-21T13:35:10Z</time>
      </trkpt>
      <trkpt lat="39.8461666" lon="3.1343766">
        <ele>21.4</ele>
        <time>2015-06-21T13:35:12Z</time>
      </trkpt>
      <trkpt lat="39.8461417" lon="3.1348395">
        <ele>22.2</ele>
        <time>2015-06-21T13:35:21Z</time>
      </trkpt>
      <trkpt lat="39.8461339" lon="3.1349443">
        <ele>22.8</ele>
        <time>2015-06-21T13:35:23Z</time>
      </trkpt>
      <trkpt lat="39.8461177" lon="3.1353118">
        <ele>23.4</ele>
        <time>2015-06-21T13:35:30Z</time>
      </trkpt>
      <trkpt lat="39.8461101" lon="3.1354655">
        <ele>23.8</ele>
        <time>2015-06-21T13:35:33Z</time>
      </trkpt>
      <trkpt lat="39.8461038" lon="3.1355713">
        <ele>23.8</ele>
        <time>2015-06-21T13:35:35Z</time>
      </trkpt>
      <trkpt lat="39.8460984" lon="3.1356673">
        <ele>24.4</ele>
        <time>2015-06-21T13:35:37Z</time>
      </trkpt>
      <trkpt lat="39.8460866" lon="3.1359243">
        <ele>25.4</ele>
        <time>2015-06-21T13:35:42Z</time>
      </trkpt>
      <trkpt lat="39.84608" lon="3.1360325">
        <ele>25.4</ele>
        <time>2015-06-21T13:35:44Z</time>
      </trkpt>
      <trkpt lat="39.846005" lon="3.1367448">
        <ele>26.4</ele>
        <time>2015-06-21T13:35:57Z</time>
      </trkpt>
      <trkpt lat="39.8459841" lon="3.1368556">
        <ele>26.6</ele>
        <time>2015-06-21T13:35:59Z</time>
      </trkpt>
      <trkpt lat="39.8459411" lon="3.1370749">
        <ele>20.4</ele>
        <time>2015-06-21T13:36:03Z</time>
      </trkpt>
      <trkpt lat="39.8458739" lon="3.1373495">
        <ele>27.8</ele>
        <time>2015-06-21T13:36:08Z</time>
      </trkpt>
      <trkpt lat="39.8457413" lon="3.1377835">
        <ele>35</ele>
        <time>2015-06-21T13:36:16Z</time>
      </trkpt>
      <trkpt lat="39.8457189" lon="3.1378457">
        <ele>35</ele>
        <time>2015-06-21T13:36:17Z</time>
      </trkpt>
      <trkpt lat="39.8456354" lon="3.1380694">
        <ele>29</ele>
        <time>2015-06-21T13:36:21Z</time>
      </trkpt>
      <trkpt lat="39.8455109" lon="3.1383527">
        <ele>29.6</ele>
        <time>2015-06-21T13:36:26Z</time>
      </trkpt>
      <trkpt lat="39.845234" lon="3.1388759">
        <ele>29.6</ele>
        <time>2015-06-21T13:36:35Z</time>
      </trkpt>
      <trkpt lat="39.8448628" lon="3.1394127">
        <ele>28</ele>
        <time>2015-06-21T13:36:44Z</time>
      </trkpt>
      <trkpt lat="39.8448131" lon="3.1394708">
        <ele>27.8</ele>
        <time>2015-06-21T13:36:45Z</time>
      </trkpt>
      <trkpt lat="39.8444456" lon="3.1398625">
        <ele>28</ele>
        <time>2015-06-21T13:36:52Z</time>
      </trkpt>
      <trkpt lat="39.8439937" lon="3.1402442">
        <ele>27</ele>
        <time>2015-06-21T13:37:00Z</time>
      </trkpt>
      <trkpt lat="39.843496" lon="3.1405735">
        <ele>27</ele>
        <time>2015-06-21T13:37:08Z</time>
      </trkpt>
      <trkpt lat="39.8433613" lon="3.140657">
        <ele>26.8</ele>
        <time>2015-06-21T13:37:10Z</time>
      </trkpt>
      <trkpt lat="39.8430709" lon="3.1408283">
        <ele>25.8</ele>
        <time>2015-06-21T13:37:14Z</time>
      </trkpt>
      <trkpt lat="39.8427874" lon="3.1409901">
        <ele>26</ele>
        <time>2015-06-21T13:37:18Z</time>
      </trkpt>
      <trkpt lat="39.8425022" lon="3.1411574">
        <ele>24.6</ele>
        <time>2015-06-21T13:37:22Z</time>
      </trkpt>
      <trkpt lat="39.8420535" lon="3.1414199">
        <ele>24.4</ele>
        <time>2015-06-21T13:37:28Z</time>
      </trkpt>
      <trkpt lat="39.841514" lon="3.1417316">
        <ele>24.6</ele>
        <time>2015-06-21T13:37:35Z</time>
      </trkpt>
      <trkpt lat="39.8413612" lon="3.1418198">
        <ele>25</ele>
        <time>2015-06-21T13:37:37Z</time>
      </trkpt>
      <trkpt lat="39.8411386" lon="3.1419426">
        <ele>25.8</ele>
        <time>2015-06-21T13:37:40Z</time>
      </trkpt>
      <trkpt lat="39.8407021" lon="3.1421945">
        <ele>26</ele>
        <time>2015-06-21T13:37:46Z</time>
      </trkpt>
      <trkpt lat="39.8401464" lon="3.1424942">
        <ele>26.2</ele>
        <time>2015-06-21T13:37:54Z</time>
      </trkpt>
      <trkpt lat="39.84008" lon="3.1425273">
        <ele>26</ele>
        <time>2015-06-21T13:37:55Z</time>
      </trkpt>
      <trkpt lat="39.8395978" lon="3.1427162">
        <ele>26.6</ele>
        <time>2015-06-21T13:38:02Z</time>
      </trkpt>
      <trkpt lat="39.8391433" lon="3.1428398">
        <ele>25</ele>
        <time>2015-06-21T13:38:08Z</time>
      </trkpt>
      <trkpt lat="39.8389816" lon="3.1428687">
        <ele>24.4</ele>
        <time>2015-06-21T13:38:10Z</time>
      </trkpt>
      <trkpt lat="39.8386781" lon="3.1428945">
        <ele>23</ele>
        <time>2015-06-21T13:38:14Z</time>
      </trkpt>
      <trkpt lat="39.8386071" lon="3.1428979">
        <ele>22.8</ele>
        <time>2015-06-21T13:38:15Z</time>
      </trkpt>
      <trkpt lat="39.8384694" lon="3.1429006">
        <ele>21.8</ele>
        <time>2015-06-21T13:38:17Z</time>
      </trkpt>
      <trkpt lat="39.8382876" lon="3.1428925">
        <ele>21</ele>
        <time>2015-06-21T13:38:20Z</time>
      </trkpt>
      <trkpt lat="39.8381512" lon="3.1428847">
        <ele>20.6</ele>
        <time>2015-06-21T13:38:23Z</time>
      </trkpt>
      <trkpt lat="39.8380737" lon="3.1428727">
        <ele>20.4</ele>
        <time>2015-06-21T13:38:25Z</time>
      </trkpt>
      <trkpt lat="39.8380341" lon="3.1428608">
        <ele>20.2</ele>
        <time>2015-06-21T13:38:26Z</time>
      </trkpt>
      <trkpt lat="39.8379292" lon="3.1427378">
        <ele>19.8</ele>
        <time>2015-06-21T13:38:29Z</time>
      </trkpt>
      <trkpt lat="39.8378199" lon="3.1426359">
        <ele>19.6</ele>
        <time>2015-06-21T13:38:32Z</time>
      </trkpt>
      <trkpt lat="39.837629" lon="3.1426473">
        <ele>19</ele>
        <time>2015-06-21T13:38:36Z</time>
      </trkpt>
      <trkpt lat="39.8375458" lon="3.1427047">
        <ele>19</ele>
        <time>2015-06-21T13:38:38Z</time>
      </trkpt>
      <trkpt lat="39.8374759" lon="3.142747">
        <ele>18.8</ele>
        <time>2015-06-21T13:38:40Z</time>
      </trkpt>
      <trkpt lat="39.8373963" lon="3.1427872">
        <ele>18.6</ele>
        <time>2015-06-21T13:38:42Z</time>
      </trkpt>
      <trkpt lat="39.8373539" lon="3.1428613">
        <ele>18.4</ele>
        <time>2015-06-21T13:38:44Z</time>
      </trkpt>
      <trkpt lat="39.8373895" lon="3.1429138">
        <ele>18.2</ele>
        <time>2015-06-21T13:38:46Z</time>
      </trkpt>
      <trkpt lat="39.8374484" lon="3.1429382">
        <ele>17.6</ele>
        <time>2015-06-21T13:38:48Z</time>
      </trkpt>
      <trkpt lat="39.837537" lon="3.1430062">
        <ele>17.6</ele>
        <time>2015-06-21T13:38:51Z</time>
      </trkpt>
      <trkpt lat="39.8375681" lon="3.1430429">
        <ele>17.8</ele>
        <time>2015-06-21T13:38:52Z</time>
      </trkpt>
      <trkpt lat="39.837641" lon="3.143124">
        <ele>18.4</ele>
        <time>2015-06-21T13:38:54Z</time>
      </trkpt>
      <trkpt lat="39.8376868" lon="3.1431507">
        <ele>18.4</ele>
        <time>2015-06-21T13:38:55Z</time>
      </trkpt>
      <trkpt lat="39.8377842" lon="3.1431713">
        <ele>18.8</ele>
        <time>2015-06-21T13:38:57Z</time>
      </trkpt>
      <trkpt lat="39.8378711" lon="3.143126">
        <ele>18.8</ele>
        <time>2015-06-21T13:38:59Z</time>
      </trkpt>
      <trkpt lat="39.8379491" lon="3.1429707">
        <ele>19</ele>
        <time>2015-06-21T13:39:02Z</time>
      </trkpt>
      <trkpt lat="39.8379408" lon="3.1427111">
        <ele>19.4</ele>
        <time>2015-06-21T13:39:06Z</time>
      </trkpt>
      <trkpt lat="39.8379269" lon="3.1425679">
        <ele>19.6</ele>
        <time>2015-06-21T13:39:08Z</time>
      </trkpt>
      <trkpt lat="39.8379566" lon="3.1424431">
        <ele>19.6</ele>
        <time>2015-06-21T13:39:10Z</time>
      </trkpt>
      <trkpt lat="39.8380344" lon="3.1422705">
        <ele>19.6</ele>
        <time>2015-06-21T13:39:13Z</time>
      </trkpt>
      <trkpt lat="39.8381103" lon="3.1421176">
        <ele>19.6</ele>
        <time>2015-06-21T13:39:16Z</time>
      </trkpt>
      <trkpt lat="39.8381665" lon="3.1420111">
        <ele>20</ele>
        <time>2015-06-21T13:39:18Z</time>
      </trkpt>
      <trkpt lat="39.8382475" lon="3.1418504">
        <ele>21.2</ele>
        <time>2015-06-21T13:39:21Z</time>
      </trkpt>
      <trkpt lat="39.8383316" lon="3.1416723">
        <ele>21.2</ele>
        <time>2015-06-21T13:39:24Z</time>
      </trkpt>
      <trkpt lat="39.838461" lon="3.1412874">
        <ele>19.8</ele>
        <time>2015-06-21T13:39:29Z</time>
      </trkpt>
      <trkpt lat="39.8385154" lon="3.140983">
        <ele>17.8</ele>
        <time>2015-06-21T13:39:32Z</time>
      </trkpt>
      <trkpt lat="39.8385354" lon="3.1407671">
        <ele>16.8</ele>
        <time>2015-06-21T13:39:34Z</time>
      </trkpt>
      <trkpt lat="39.8385416" lon="3.1406502">
        <ele>16.4</ele>
        <time>2015-06-21T13:39:35Z</time>
      </trkpt>
      <trkpt lat="39.8385521" lon="3.140342">
        <ele>14.8</ele>
        <time>2015-06-21T13:39:38Z</time>
      </trkpt>
      <trkpt lat="39.8385543" lon="3.1402484">
        <ele>14.6</ele>
        <time>2015-06-21T13:39:39Z</time>
      </trkpt>
      <trkpt lat="39.83857" lon="3.1396655">
        <ele>14.6</ele>
        <time>2015-06-21T13:39:46Z</time>
      </trkpt>
      <trkpt lat="39.8386552" lon="3.1390311">
        <ele>14.2</ele>
        <time>2015-06-21T13:39:54Z</time>
      </trkpt>
      <trkpt lat="39.8388047" lon="3.1386892">
        <ele>13.8</ele>
        <time>2015-06-21T13:39:59Z</time>
      </trkpt>
      <trkpt lat="39.8390566" lon="3.138325">
        <ele>14.2</ele>
        <time>2015-06-21T13:40:06Z</time>
      </trkpt>
      <trkpt lat="39.8392677" lon="3.1380468">
        <ele>15.4</ele>
        <time>2015-06-21T13:40:13Z</time>
      </trkpt>
      <trkpt lat="39.8395068" lon="3.1377979">
        <ele>14.6</ele>
        <time>2015-06-21T13:40:21Z</time>
      </trkpt>
      <trkpt lat="39.8396645" lon="3.1377183">
        <ele>15</ele>
        <time>2015-06-21T13:40:26Z</time>
      </trkpt>
      <trkpt lat="39.8398749" lon="3.1375799">
        <ele>14.6</ele>
        <time>2015-06-21T13:40:32Z</time>
      </trkpt>
      <trkpt lat="39.8401884" lon="3.1374136">
        <ele>14</ele>
        <time>2015-06-21T13:40:39Z</time>
      </trkpt>
      <trkpt lat="39.8405832" lon="3.137204">
        <ele>15</ele>
        <time>2015-06-21T13:40:48Z</time>
      </trkpt>
      <trkpt lat="39.8407137" lon="3.1371197">
        <ele>14.8</ele>
        <time>2015-06-21T13:40:51Z</time>
      </trkpt>
      <trkpt lat="39.8407956" lon="3.1370603">
        <ele>14.6</ele>
        <time>2015-06-21T13:40:53Z</time>
      </trkpt>
      <trkpt lat="39.8408345" lon="3.1370206">
        <ele>14.6</ele>
        <time>2015-06-21T13:40:54Z</time>
      </trkpt>
      <trkpt lat="39.8409637" lon="3.1368201">
        <ele>14.4</ele>
        <time>2015-06-21T13:40:58Z</time>
      </trkpt>
      <trkpt lat="39.8411122" lon="3.1366023">
        <ele>14.4</ele>
        <time>2015-06-21T13:41:02Z</time>
      </trkpt>
      <trkpt lat="39.841145" lon="3.1365478">
        <ele>14.6</ele>
        <time>2015-06-21T13:41:03Z</time>
      </trkpt>
      <trkpt lat="39.8412968" lon="3.1363161">
        <ele>13.8</ele>
        <time>2015-06-21T13:41:07Z</time>
      </trkpt>
      <trkpt lat="39.8414485" lon="3.1360989">
        <ele>13</ele>
        <time>2015-06-21T13:41:11Z</time>
      </trkpt>
      <trkpt lat="39.8415235" lon="3.1359835">
        <ele>12.8</ele>
        <time>2015-06-21T13:41:13Z</time>
      </trkpt>
      <trkpt lat="39.8417278" lon="3.1356832">
        <ele>13.6</ele>
        <time>2015-06-21T13:41:19Z</time>
      </trkpt>
      <trkpt lat="39.8417579" lon="3.1356383">
        <ele>13.8</ele>
        <time>2015-06-21T13:41:20Z</time>
      </trkpt>
      <trkpt lat="39.8419909" lon="3.1353231">
        <ele>15</ele>
        <time>2015-06-21T13:41:27Z</time>
      </trkpt>
      <trkpt lat="39.8420918" lon="3.1351883">
        <ele>16.4</ele>
        <time>2015-06-21T13:41:30Z</time>
      </trkpt>
      <trkpt lat="39.8421973" lon="3.1350593">
        <ele>17.6</ele>
        <time>2015-06-21T13:41:33Z</time>
      </trkpt>
      <trkpt lat="39.8424882" lon="3.1347593">
        <ele>17</ele>
        <time>2015-06-21T13:41:40Z</time>
      </trkpt>
      <trkpt lat="39.8426556" lon="3.1345918">
        <ele>17.4</ele>
        <time>2015-06-21T13:41:44Z</time>
      </trkpt>
      <trkpt lat="39.8429558" lon="3.1342974">
        <ele>17.6</ele>
        <time>2015-06-21T13:41:51Z</time>
      </trkpt>
      <trkpt lat="39.8432965" lon="3.1339351">
        <ele>16.6</ele>
        <time>2015-06-21T13:41:59Z</time>
      </trkpt>
      <trkpt lat="39.8436175" lon="3.1336117">
        <ele>16.6</ele>
        <time>2015-06-21T13:42:06Z</time>
      </trkpt>
      <trkpt lat="39.8440558" lon="3.1331747">
        <ele>16.4</ele>
        <time>2015-06-21T13:42:15Z</time>
      </trkpt>
      <trkpt lat="39.8440982" lon="3.1331313">
        <ele>16.4</ele>
        <time>2015-06-21T13:42:16Z</time>
      </trkpt>
      <trkpt lat="39.8444535" lon="3.1327629">
        <ele>15.8</ele>
        <time>2015-06-21T13:42:24Z</time>
      </trkpt>
      <trkpt lat="39.8445338" lon="3.1326828">
        <ele>15.4</ele>
        <time>2015-06-21T13:42:26Z</time>
      </trkpt>
      <trkpt lat="39.8447902" lon="3.13243">
        <ele>15.4</ele>
        <time>2015-06-21T13:42:32Z</time>
      </trkpt>
      <trkpt lat="39.8450783" lon="3.13214">
        <ele>14.8</ele>
        <time>2015-06-21T13:42:39Z</time>
      </trkpt>
      <trkpt lat="39.8455064" lon="3.1317051">
        <ele>15.4</ele>
        <time>2015-06-21T13:42:49Z</time>
      </trkpt>
      <trkpt lat="39.8458205" lon="3.1313838">
        <ele>15.4</ele>
        <time>2015-06-21T13:42:57Z</time>
      </trkpt>
      <trkpt lat="39.8459532" lon="3.1312433">
        <ele>14.4</ele>
        <time>2015-06-21T13:43:01Z</time>
      </trkpt>
      <trkpt lat="39.8459954" lon="3.1312059">
        <ele>14.6</ele>
        <time>2015-06-21T13:43:03Z</time>
      </trkpt>
      <trkpt lat="39.8460521" lon="3.1311893">
        <ele>15</ele>
        <time>2015-06-21T13:43:05Z</time>
      </trkpt>
      <trkpt lat="39.8461666" lon="3.1311892">
        <ele>15.4</ele>
        <time>2015-06-21T13:43:08Z</time>
      </trkpt>
      <trkpt lat="39.8462096" lon="3.1311779">
        <ele>15.2</ele>
        <time>2015-06-21T13:43:09Z</time>
      </trkpt>
      <trkpt lat="39.8462834" lon="3.1311116">
        <ele>14.8</ele>
        <time>2015-06-21T13:43:11Z</time>
      </trkpt>
      <trkpt lat="39.8463386" lon="3.130941">
        <ele>14.2</ele>
        <time>2015-06-21T13:43:14Z</time>
      </trkpt>
      <trkpt lat="39.8463677" lon="3.130839">
        <ele>14.6</ele>
        <time>2015-06-21T13:43:16Z</time>
      </trkpt>
      <trkpt lat="39.8464339" lon="3.1307614">
        <ele>14.8</ele>
        <time>2015-06-21T13:43:18Z</time>
      </trkpt>
      <trkpt lat="39.8465441" lon="3.1306879">
        <ele>15</ele>
        <time>2015-06-21T13:43:22Z</time>
      </trkpt>
      <trkpt lat="39.8465484" lon="3.1306851">
        <ele>15</ele>
        <time>2015-06-21T13:43:25Z</time>
      </trkpt>
      <trkpt lat="39.8465422" lon="3.1306882">
        <ele>14.4</ele>
        <time>2015-06-21T13:43:34Z</time>
      </trkpt>
      <trkpt lat="39.8465363" lon="3.130692">
        <ele>14.6</ele>
        <time>2015-06-21T13:43:44Z</time>
      </trkpt>
      <trkpt lat="39.8465298" lon="3.1306837">
        <ele>14.8</ele>
        <time>2015-06-21T13:43:55Z</time>
      </trkpt>
      <trkpt lat="39.8465221" lon="3.1306753">
        <ele>14.8</ele>
        <time>2015-06-21T13:43:59Z</time>
      </trkpt>
      <trkpt lat="39.846519" lon="3.1306796">
        <ele>14.8</ele>
        <time>2015-06-21T13:44:07Z</time>
      </trkpt>
      <trkpt lat="39.8465229" lon="3.1306719">
        <ele>14.8</ele>
        <time>2015-06-21T13:44:18Z</time>
      </trkpt>
      <trkpt lat="39.8465183" lon="3.1306713">
        <ele>14.8</ele>
        <time>2015-06-21T13:44:28Z</time>
      </trkpt>
      <trkpt lat="39.8465245" lon="3.1306529">
        <ele>15</ele>
        <time>2015-06-21T13:44:33Z</time>
      </trkpt>
      <trkpt lat="39.8465316" lon="3.130642">
        <ele>15</ele>
        <time>2015-06-21T13:44:34Z</time>
      </trkpt>
      <trkpt lat="39.8465276" lon="3.130627">
        <ele>14.8</ele>
        <time>2015-06-21T13:44:37Z</time>
      </trkpt>
      <trkpt lat="39.8465127" lon="3.1306154">
        <ele>14.4</ele>
        <time>2015-06-21T13:44:38Z</time>
      </trkpt>
      <trkpt lat="39.8464373" lon="3.1306596">
        <ele>14.2</ele>
        <time>2015-06-21T13:44:41Z</time>
      </trkpt>
      <trkpt lat="39.8464018" lon="3.1306892">
        <ele>14.2</ele>
        <time>2015-06-21T13:44:42Z</time>
      </trkpt>
      <trkpt lat="39.8463335" lon="3.1307566">
        <ele>14.6</ele>
        <time>2015-06-21T13:44:44Z</time>
      </trkpt>
      <trkpt lat="39.8462655" lon="3.130805">
        <ele>14.6</ele>
        <time>2015-06-21T13:44:46Z</time>
      </trkpt>
      <trkpt lat="39.8461418" lon="3.1307561">
        <ele>14.8</ele>
        <time>2015-06-21T13:44:49Z</time>
      </trkpt>
      <trkpt lat="39.8460541" lon="3.1305273">
        <ele>15.4</ele>
        <time>2015-06-21T13:44:53Z</time>
      </trkpt>
      <trkpt lat="39.8460149" lon="3.1303387">
        <ele>15.6</ele>
        <time>2015-06-21T13:44:56Z</time>
      </trkpt>
      <trkpt lat="39.8459343" lon="3.1299356">
        <ele>15.4</ele>
        <time>2015-06-21T13:45:02Z</time>
      </trkpt>
      <trkpt lat="39.8458474" lon="3.1293393">
        <ele>15.2</ele>
        <time>2015-06-21T13:45:11Z</time>
      </trkpt>
      <trkpt lat="39.8458407" lon="3.1292706">
        <ele>14.4</ele>
        <time>2015-06-21T13:45:12Z</time>
      </trkpt>
      <trkpt lat="39.8458214" lon="3.1287482">
        <ele>14.8</ele>
        <time>2015-06-21T13:45:20Z</time>
      </trkpt>
      <trkpt lat="39.845849" lon="3.1282279">
        <ele>14.8</ele>
        <time>2015-06-21T13:45:29Z</time>
      </trkpt>
      <trkpt lat="39.8458729" lon="3.1279778">
        <ele>15.4</ele>
        <time>2015-06-21T13:45:34Z</time>
      </trkpt>
      <trkpt lat="39.8458891" lon="3.1278344">
        <ele>15.6</ele>
        <time>2015-06-21T13:45:37Z</time>
      </trkpt>
      <trkpt lat="39.845928" lon="3.127468">
        <ele>15.2</ele>
        <time>2015-06-21T13:45:45Z</time>
      </trkpt>
      <trkpt lat="39.8459755" lon="3.126993">
        <ele>15.2</ele>
        <time>2015-06-21T13:45:55Z</time>
      </trkpt>
      <trkpt lat="39.8460195" lon="3.1265487">
        <ele>14.8</ele>
        <time>2015-06-21T13:46:05Z</time>
      </trkpt>
      <trkpt lat="39.8460625" lon="3.1261231">
        <ele>14.8</ele>
        <time>2015-06-21T13:46:15Z</time>
      </trkpt>
      <trkpt lat="39.8460879" lon="3.1257926">
        <ele>15</ele>
        <time>2015-06-21T13:46:23Z</time>
      </trkpt>
      <trkpt lat="39.8460973" lon="3.1254399">
        <ele>14.8</ele>
        <time>2015-06-21T13:46:32Z</time>
      </trkpt>
      <trkpt lat="39.8460815" lon="3.1251332">
        <ele>14.8</ele>
        <time>2015-06-21T13:46:40Z</time>
      </trkpt>
      <trkpt lat="39.8461319" lon="3.1249149">
        <ele>15</ele>
        <time>2015-06-21T13:46:46Z</time>
      </trkpt>
      <trkpt lat="39.8462299" lon="3.1246399">
        <ele>15</ele>
        <time>2015-06-21T13:46:53Z</time>
      </trkpt>
      <trkpt lat="39.8461948" lon="3.1244917">
        <ele>14.6</ele>
        <time>2015-06-21T13:46:56Z</time>
      </trkpt>
      <trkpt lat="39.8461687" lon="3.1244412">
        <ele>14.6</ele>
        <time>2015-06-21T13:46:57Z</time>
      </trkpt>
      <trkpt lat="39.8461387" lon="3.1244016">
        <ele>14.4</ele>
        <time>2015-06-21T13:46:58Z</time>
      </trkpt>
      <trkpt lat="39.8460061" lon="3.1243314">
        <ele>14.4</ele>
        <time>2015-06-21T13:47:01Z</time>
      </trkpt>
      <trkpt lat="39.8458736" lon="3.1243754">
        <ele>14</ele>
        <time>2015-06-21T13:47:04Z</time>
      </trkpt>
      <trkpt lat="39.845797" lon="3.1244384">
        <ele>13.8</ele>
        <time>2015-06-21T13:47:06Z</time>
      </trkpt>
      <trkpt lat="39.8457526" lon="3.1244601">
        <ele>13.6</ele>
        <time>2015-06-21T13:47:07Z</time>
      </trkpt>
      <trkpt lat="39.8457054" lon="3.1244674">
        <ele>13.6</ele>
        <time>2015-06-21T13:47:08Z</time>
      </trkpt>
      <trkpt lat="39.8455496" lon="3.1244081">
        <ele>13.8</ele>
        <time>2015-06-21T13:47:11Z</time>
      </trkpt>
      <trkpt lat="39.8454889" lon="3.1243727">
        <ele>14</ele>
        <time>2015-06-21T13:47:12Z</time>
      </trkpt>
      <trkpt lat="39.8451239" lon="3.1241514">
        <ele>13.8</ele>
        <time>2015-06-21T13:47:18Z</time>
      </trkpt>
      <trkpt lat="39.844885" lon="3.1240061">
        <ele>15.4</ele>
        <time>2015-06-21T13:47:22Z</time>
      </trkpt>
      <trkpt lat="39.8445846" lon="3.123827">
        <ele>15.8</ele>
        <time>2015-06-21T13:47:27Z</time>
      </trkpt>
      <trkpt lat="39.8441505" lon="3.1235622">
        <ele>15.6</ele>
        <time>2015-06-21T13:47:35Z</time>
      </trkpt>
      <trkpt lat="39.8437663" lon="3.1233292">
        <ele>15.8</ele>
        <time>2015-06-21T13:47:43Z</time>
      </trkpt>
      <trkpt lat="39.8437253" lon="3.1232988">
        <ele>15.6</ele>
        <time>2015-06-21T13:47:44Z</time>
      </trkpt>
      <trkpt lat="39.8436277" lon="3.1231938">
        <ele>15.6</ele>
        <time>2015-06-21T13:47:47Z</time>
      </trkpt>
      <trkpt lat="39.8434326" lon="3.1230613">
        <ele>15.8</ele>
        <time>2015-06-21T13:47:53Z</time>
      </trkpt>
      <trkpt lat="39.8431414" lon="3.1228992">
        <ele>16</ele>
        <time>2015-06-21T13:48:01Z</time>
      </trkpt>
      <trkpt lat="39.8428205" lon="3.1227054">
        <ele>15.8</ele>
        <time>2015-06-21T13:48:09Z</time>
      </trkpt>
      <trkpt lat="39.8425228" lon="3.122526">
        <ele>14.4</ele>
        <time>2015-06-21T13:48:17Z</time>
      </trkpt>
      <trkpt lat="39.842452" lon="3.122486">
        <ele>14.2</ele>
        <time>2015-06-21T13:48:19Z</time>
      </trkpt>
      <trkpt lat="39.8422121" lon="3.1223412">
        <ele>14.2</ele>
        <time>2015-06-21T13:48:25Z</time>
      </trkpt>
      <trkpt lat="39.8419699" lon="3.1221967">
        <ele>14.4</ele>
        <time>2015-06-21T13:48:31Z</time>
      </trkpt>
      <trkpt lat="39.8419313" lon="3.1221699">
        <ele>14.2</ele>
        <time>2015-06-21T13:48:32Z</time>
      </trkpt>
      <trkpt lat="39.8416764" lon="3.122021">
        <ele>14.4</ele>
        <time>2015-06-21T13:48:38Z</time>
      </trkpt>
      <trkpt lat="39.8412215" lon="3.1217517">
        <ele>14.8</ele>
        <time>2015-06-21T13:48:48Z</time>
      </trkpt>
      <trkpt lat="39.8408849" lon="3.1215502">
        <ele>14.8</ele>
        <time>2015-06-21T13:48:56Z</time>
      </trkpt>
      <trkpt lat="39.8408034" lon="3.1215079">
        <ele>14.8</ele>
        <time>2015-06-21T13:48:58Z</time>
      </trkpt>
      <trkpt lat="39.8407138" lon="3.1214625">
        <ele>14.6</ele>
        <time>2015-06-21T13:49:00Z</time>
      </trkpt>
      <trkpt lat="39.8406382" lon="3.1214068">
        <ele>14.2</ele>
        <time>2015-06-21T13:49:02Z</time>
      </trkpt>
      <trkpt lat="39.8405238" lon="3.1213254">
        <ele>14.4</ele>
        <time>2015-06-21T13:49:05Z</time>
      </trkpt>
      <trkpt lat="39.8403698" lon="3.121236">
        <ele>14.2</ele>
        <time>2015-06-21T13:49:09Z</time>
      </trkpt>
      <trkpt lat="39.8400935" lon="3.1210754">
        <ele>14.4</ele>
        <time>2015-06-21T13:49:17Z</time>
      </trkpt>
      <trkpt lat="39.8399767" lon="3.1209609">
        <ele>14.4</ele>
        <time>2015-06-21T13:49:23Z</time>
      </trkpt>
      <trkpt lat="39.839894" lon="3.1208782">
        <ele>14.2</ele>
        <time>2015-06-21T13:49:29Z</time>
      </trkpt>
      <trkpt lat="39.8398812" lon="3.1208638">
        <ele>14.2</ele>
        <time>2015-06-21T13:49:34Z</time>
      </trkpt>
      <trkpt lat="39.8398543" lon="3.1208382">
        <ele>14.2</ele>
        <time>2015-06-21T13:49:36Z</time>
      </trkpt>
      <trkpt lat="39.8398173" lon="3.1208359">
        <ele>14.2</ele>
        <time>2015-06-21T13:49:38Z</time>
      </trkpt>
      <trkpt lat="39.839741" lon="3.1208428">
        <ele>13.6</ele>
        <time>2015-06-21T13:49:42Z</time>
      </trkpt>
      <trkpt lat="39.8397039" lon="3.1208814">
        <ele>14.2</ele>
        <time>2015-06-21T13:49:44Z</time>
      </trkpt>
      <trkpt lat="39.8395908" lon="3.1209376">
        <ele>14</ele>
        <time>2015-06-21T13:49:49Z</time>
      </trkpt>
      <trkpt lat="39.8395798" lon="3.1209487">
        <ele>14.2</ele>
        <time>2015-06-21T13:49:52Z</time>
      </trkpt>
      <trkpt lat="39.8395698" lon="3.1209718">
        <ele>14.2</ele>
        <time>2015-06-21T13:49:53Z</time>
      </trkpt>
      <trkpt lat="39.8395071" lon="3.1211597">
        <ele>14</ele>
        <time>2015-06-21T13:49:59Z</time>
      </trkpt>
      <trkpt lat="39.8395538" lon="3.1212661">
        <ele>13</ele>
        <time>2015-06-21T13:50:02Z</time>
      </trkpt>
      <trkpt lat="39.8395463" lon="3.1213097">
        <ele>12.8</ele>
        <time>2015-06-21T13:50:03Z</time>
      </trkpt>
      <trkpt lat="39.8394641" lon="3.1214344">
        <ele>13.4</ele>
        <time>2015-06-21T13:50:06Z</time>
      </trkpt>
      <trkpt lat="39.8392562" lon="3.121738">
        <ele>14</ele>
        <time>2015-06-21T13:50:12Z</time>
      </trkpt>
      <trkpt lat="39.8391861" lon="3.1218402">
        <ele>14</ele>
        <time>2015-06-21T13:50:14Z</time>
      </trkpt>
      <trkpt lat="39.8390892" lon="3.1219861">
        <ele>14</ele>
        <time>2015-06-21T13:50:17Z</time>
      </trkpt>
      <trkpt lat="39.8390616" lon="3.1220316">
        <ele>14.2</ele>
        <time>2015-06-21T13:50:18Z</time>
      </trkpt>
      <trkpt lat="39.8388743" lon="3.1223071">
        <ele>14.4</ele>
        <time>2015-06-21T13:50:24Z</time>
      </trkpt>
      <trkpt lat="39.8386388" lon="3.1226537">
        <ele>13.6</ele>
        <time>2015-06-21T13:50:32Z</time>
      </trkpt>
      <trkpt lat="39.8383446" lon="3.1231063">
        <ele>13.8</ele>
        <time>2015-06-21T13:50:42Z</time>
      </trkpt>
      <trkpt lat="39.8382308" lon="3.1232894">
        <ele>13.8</ele>
        <time>2015-06-21T13:50:47Z</time>
      </trkpt>
      <trkpt lat="39.8382255" lon="3.1233285">
        <ele>13.6</ele>
        <time>2015-06-21T13:50:48Z</time>
      </trkpt>
      <trkpt lat="39.8382445" lon="3.1234131">
        <ele>13.6</ele>
        <time>2015-06-21T13:50:50Z</time>
      </trkpt>
      <trkpt lat="39.8383116" lon="3.1235166">
        <ele>13.6</ele>
        <time>2015-06-21T13:50:53Z</time>
      </trkpt>
      <trkpt lat="39.8383503" lon="3.123588">
        <ele>13.4</ele>
        <time>2015-06-21T13:50:55Z</time>
      </trkpt>
      <trkpt lat="39.8383701" lon="3.1236681">
        <ele>13.4</ele>
        <time>2015-06-21T13:50:57Z</time>
      </trkpt>
      <trkpt lat="39.8383504" lon="3.123748">
        <ele>13.4</ele>
        <time>2015-06-21T13:50:59Z</time>
      </trkpt>
      <trkpt lat="39.8383163" lon="3.1238937">
        <ele>13.4</ele>
        <time>2015-06-21T13:51:05Z</time>
      </trkpt>
      <trkpt lat="39.8383171" lon="3.1239036">
        <ele>13.4</ele>
        <time>2015-06-21T13:51:06Z</time>
      </trkpt>
    </trkseg>
  </trk>
</gpx>